<?xml version='1.0' encoding='UTF-8'?><gpx version="1.1" creator="JPX - https://github.com/jenetics/jpx" xmlns="http://www.topografix.com/GPX/1/1"><trk><trkseg><trkpt lat="44.7699568" lon="10.7694763"><ele>30.0</ele><time>2026-04-18T16:40:27.998Z</time></trkpt><trkpt lat="44.7698784" lon="10.7694224"><ele>30.0</ele><time>2026-04-18T16:40:32.001Z</time></trkpt><trkpt lat="44.7696217" lon="10.7693471"><ele>30.0</ele><time>2026-04-18T16:40:34.013Z</time></trkpt><trkpt lat="44.7695359" lon="10.7692862"><ele>30.0</ele><time>2026-04-18T16:40:35.017Z</time></trkpt><trkpt lat="44.7694564" lon="10.7692341"><ele>30.2</ele><time>2026-04-18T16:40:35.998Z</time></trkpt><trkpt lat="44.7693568" lon="10.7691445"><ele>30.4</ele><time>2026-04-18T16:40:37.997Z</time></trkpt><trkpt lat="44.7692583" lon="10.7690725"><ele>30.6</ele><time>2026-04-18T16:40:39.998Z</time></trkpt><trkpt lat="44.7691445" lon="10.7690077"><ele>30.8</ele><time>2026-04-18T16:40:41.997Z</time></trkpt><trkpt lat="44.7690745" lon="10.7689656"><ele>31.0</ele><time>2026-04-18T16:40:42.998Z</time></trkpt><trkpt lat="44.7689934" lon="10.768918"><ele>31.000000000000004</ele><time>2026-04-18T16:40:43.998Z</time></trkpt><trkpt lat="44.7689095" lon="10.7688755"><ele>31.0</ele><time>2026-04-18T16:40:44.998Z</time></trkpt><trkpt lat="44.7688425" lon="10.7688398"><ele>31.0</ele><time>2026-04-18T16:40:45.998Z</time></trkpt><trkpt lat="44.7687312" lon="10.768791"><ele>31.0</ele><time>2026-04-18T16:40:47.998Z</time></trkpt><trkpt lat="44.768656" lon="10.7687487"><ele>31.000000000000004</ele><time>2026-04-18T16:40:49.998Z</time></trkpt><trkpt lat="44.7685795" lon="10.7687621"><ele>31.0</ele><time>2026-04-18T16:40:52.998Z</time></trkpt><trkpt lat="44.7685312" lon="10.7688876"><ele>31.4</ele><time>2026-04-18T16:40:54.998Z</time></trkpt><trkpt lat="44.7685194" lon="10.7689916"><ele>31.8</ele><time>2026-04-18T16:40:55.998Z</time></trkpt><trkpt lat="44.7685137" lon="10.7691074"><ele>32.199999999999996</ele><time>2026-04-18T16:40:56.997Z</time></trkpt><trkpt lat="44.7685083" lon="10.7692367"><ele>32.6</ele><time>2026-04-18T16:40:57.997Z</time></trkpt><trkpt lat="44.7684967" lon="10.7693767"><ele>33.0</ele><time>2026-04-18T16:40:58.998Z</time></trkpt><trkpt lat="44.76848" lon="10.76955"><ele>33.0</ele><time>2026-04-18T16:40:59.997Z</time></trkpt><trkpt lat="44.7684583" lon="10.7697183"><ele>33.0</ele><time>2026-04-18T16:41:00.997Z</time></trkpt><trkpt lat="44.7684367" lon="10.7698717"><ele>33.0</ele><time>2026-04-18T16:41:01.998Z</time></trkpt><trkpt lat="44.7684283" lon="10.770005"><ele>33.0</ele><time>2026-04-18T16:41:02.998Z</time></trkpt><trkpt lat="44.7684267" lon="10.7701167"><ele>33.0</ele><time>2026-04-18T16:41:03.998Z</time></trkpt><trkpt lat="44.768415" lon="10.7702183"><ele>33.285714285714285</ele><time>2026-04-18T16:41:04.997Z</time></trkpt><trkpt lat="44.7684067" lon="10.77031"><ele>33.57142857142857</ele><time>2026-04-18T16:41:05.997Z</time></trkpt><trkpt lat="44.7683917" lon="10.7704"><ele>33.85714285714286</ele><time>2026-04-18T16:41:06.998Z</time></trkpt><trkpt lat="44.7683717" lon="10.77049"><ele>34.14285714285714</ele><time>2026-04-18T16:41:07.997Z</time></trkpt><trkpt lat="44.76836" lon="10.7705917"><ele>34.42857142857143</ele><time>2026-04-18T16:41:08.997Z</time></trkpt><trkpt lat="44.7683417" lon="10.77069"><ele>34.714285714285715</ele><time>2026-04-18T16:41:09.997Z</time></trkpt><trkpt lat="44.76833" lon="10.770785"><ele>35.0</ele><time>2026-04-18T16:41:10.998Z</time></trkpt><trkpt lat="44.7683117" lon="10.77094"><ele>35.0</ele><time>2026-04-18T16:41:12.998Z</time></trkpt><trkpt lat="44.76827" lon="10.7710267"><ele>35.0</ele><time>2026-04-18T16:41:14.998Z</time></trkpt><trkpt lat="44.7682433" lon="10.7711183"><ele>35.0</ele><time>2026-04-18T16:41:17.998Z</time></trkpt><trkpt lat="44.7683017" lon="10.7710283"><ele>35.0</ele><time>2026-04-18T16:41:28.997Z</time></trkpt><trkpt lat="44.7683417" lon="10.7708517"><ele>35.0</ele><time>2026-04-18T16:41:30.997Z</time></trkpt><trkpt lat="44.7683617" lon="10.7707533"><ele>35.0</ele><time>2026-04-18T16:41:31.997Z</time></trkpt><trkpt lat="44.7683933" lon="10.7706383"><ele>35.0</ele><time>2026-04-18T16:41:32.997Z</time></trkpt><trkpt lat="44.768415" lon="10.7705017"><ele>35.0</ele><time>2026-04-18T16:41:33.997Z</time></trkpt><trkpt lat="44.7684433" lon="10.7703533"><ele>35.0</ele><time>2026-04-18T16:41:34.998Z</time></trkpt><trkpt lat="44.7684717" lon="10.7701717"><ele>35.0</ele><time>2026-04-18T16:41:35.998Z</time></trkpt><trkpt lat="44.768495" lon="10.7699933"><ele>34.6</ele><time>2026-04-18T16:41:36.998Z</time></trkpt><trkpt lat="44.7685183" lon="10.769825"><ele>34.2</ele><time>2026-04-18T16:41:37.997Z</time></trkpt><trkpt lat="44.7685333" lon="10.76968"><ele>33.8</ele><time>2026-04-18T16:41:38.998Z</time></trkpt><trkpt lat="44.7685417" lon="10.7695417"><ele>33.4</ele><time>2026-04-18T16:41:39.998Z</time></trkpt><trkpt lat="44.76855" lon="10.769415"><ele>33.0</ele><time>2026-04-18T16:41:40.998Z</time></trkpt><trkpt lat="44.7685617" lon="10.7692883"><ele>32.833333333333336</ele><time>2026-04-18T16:41:41.997Z</time></trkpt><trkpt lat="44.7685717" lon="10.7691533"><ele>32.666666666666664</ele><time>2026-04-18T16:41:42.997Z</time></trkpt><trkpt lat="44.76859" lon="10.7690333"><ele>32.5</ele><time>2026-04-18T16:41:43.997Z</time></trkpt><trkpt lat="44.7686" lon="10.7689217"><ele>32.33333333333333</ele><time>2026-04-18T16:41:44.998Z</time></trkpt><trkpt lat="44.7686067" lon="10.7687967"><ele>32.166666666666664</ele><time>2026-04-18T16:41:45.998Z</time></trkpt><trkpt lat="44.7686183" lon="10.768665"><ele>32.0</ele><time>2026-04-18T16:41:46.997Z</time></trkpt><trkpt lat="44.7686333" lon="10.7685233"><ele>32.0</ele><time>2026-04-18T16:41:47.998Z</time></trkpt><trkpt lat="44.7686533" lon="10.7683667"><ele>32.0</ele><time>2026-04-18T16:41:48.997Z</time></trkpt><trkpt lat="44.7686817" lon="10.768205"><ele>32.0</ele><time>2026-04-18T16:41:49.997Z</time></trkpt><trkpt lat="44.7687017" lon="10.7680467"><ele>32.0</ele><time>2026-04-18T16:41:50.997Z</time></trkpt><trkpt lat="44.76873" lon="10.7679067"><ele>32.0</ele><time>2026-04-18T16:41:51.997Z</time></trkpt><trkpt lat="44.7687533" lon="10.7677867"><ele>31.999999999999996</ele><time>2026-04-18T16:41:52.997Z</time></trkpt><trkpt lat="44.768775" lon="10.76768"><ele>32.0</ele><time>2026-04-18T16:41:53.998Z</time></trkpt><trkpt lat="44.768805" lon="10.7675767"><ele>32.0</ele><time>2026-04-18T16:41:54.998Z</time></trkpt><trkpt lat="44.7688333" lon="10.7674817"><ele>32.0</ele><time>2026-04-18T16:41:55.998Z</time></trkpt><trkpt lat="44.768865" lon="10.7674017"><ele>31.999999999999996</ele><time>2026-04-18T16:41:56.998Z</time></trkpt><trkpt lat="44.7689633" lon="10.7673367"><ele>32.0</ele><time>2026-04-18T16:41:58.998Z</time></trkpt><trkpt lat="44.7690733" lon="10.7673883"><ele>31.999999999999996</ele><time>2026-04-18T16:42:00.997Z</time></trkpt><trkpt lat="44.7691383" lon="10.76743"><ele>32.0</ele><time>2026-04-18T16:42:01.997Z</time></trkpt><trkpt lat="44.7692" lon="10.7674767"><ele>32.0</ele><time>2026-04-18T16:42:02.997Z</time></trkpt><trkpt lat="44.76931" lon="10.767495"><ele>32.0</ele><time>2026-04-18T16:42:04.997Z</time></trkpt><trkpt lat="44.7694017" lon="10.767385"><ele>31.999999999999996</ele><time>2026-04-18T16:42:06.997Z</time></trkpt><trkpt lat="44.7694317" lon="10.7672917"><ele>32.0</ele><time>2026-04-18T16:42:07.997Z</time></trkpt><trkpt lat="44.76946" lon="10.7671883"><ele>31.999999999999996</ele><time>2026-04-18T16:42:08.997Z</time></trkpt><trkpt lat="44.7694917" lon="10.767095"><ele>32.0</ele><time>2026-04-18T16:42:09.998Z</time></trkpt><trkpt lat="44.7695283" lon="10.7670167"><ele>32.0</ele><time>2026-04-18T16:42:10.997Z</time></trkpt><trkpt lat="44.7696333" lon="10.766965"><ele>32.0</ele><time>2026-04-18T16:42:12.998Z</time></trkpt><trkpt lat="44.769705" lon="10.7670033"><ele>31.999999999999996</ele><time>2026-04-18T16:42:13.998Z</time></trkpt><trkpt lat="44.7697767" lon="10.76702"><ele>32.0</ele><time>2026-04-18T16:42:14.998Z</time></trkpt><trkpt lat="44.7698417" lon="10.7670483"><ele>31.999999999999996</ele><time>2026-04-18T16:42:15.997Z</time></trkpt><trkpt lat="44.7699017" lon="10.7670767"><ele>32.0</ele><time>2026-04-18T16:42:16.997Z</time></trkpt><trkpt lat="44.7699517" lon="10.76714"><ele>32.0</ele><time>2026-04-18T16:42:17.997Z</time></trkpt><trkpt lat="44.7700583" lon="10.7671583"><ele>32.0</ele><time>2026-04-18T16:42:19.998Z</time></trkpt><trkpt lat="44.770125" lon="10.7670467"><ele>31.999999999999996</ele><time>2026-04-18T16:42:21.997Z</time></trkpt><trkpt lat="44.77015" lon="10.7669583"><ele>32.0</ele><time>2026-04-18T16:42:22.997Z</time></trkpt><trkpt lat="44.7701767" lon="10.7668567"><ele>32.2</ele><time>2026-04-18T16:42:23.997Z</time></trkpt><trkpt lat="44.7702167" lon="10.7667783"><ele>32.400000000000006</ele><time>2026-04-18T16:42:24.997Z</time></trkpt><trkpt lat="44.7703183" lon="10.7667083"><ele>32.599999999999994</ele><time>2026-04-18T16:42:26.997Z</time></trkpt><trkpt lat="44.7704417" lon="10.7667767"><ele>32.8</ele><time>2026-04-18T16:42:28.997Z</time></trkpt><trkpt lat="44.7705133" lon="10.7668617"><ele>33.0</ele><time>2026-04-18T16:42:29.997Z</time></trkpt><trkpt lat="44.770595" lon="10.7669683"><ele>33.0</ele><time>2026-04-18T16:42:30.997Z</time></trkpt><trkpt lat="44.77068" lon="10.7670833"><ele>33.0</ele><time>2026-04-18T16:42:31.997Z</time></trkpt><trkpt lat="44.770775" lon="10.7671983"><ele>33.0</ele><time>2026-04-18T16:42:32.998Z</time></trkpt><trkpt lat="44.7708567" lon="10.7673"><ele>33.0</ele><time>2026-04-18T16:42:33.997Z</time></trkpt><trkpt lat="44.7709283" lon="10.7674083"><ele>33.0</ele><time>2026-04-18T16:42:34.997Z</time></trkpt><trkpt lat="44.77099" lon="10.7675217"><ele>33.0</ele><time>2026-04-18T16:42:35.997Z</time></trkpt><trkpt lat="44.7710333" lon="10.7676167"><ele>33.0</ele><time>2026-04-18T16:42:36.997Z</time></trkpt><trkpt lat="44.77108" lon="10.7677433"><ele>33.0</ele><time>2026-04-18T16:42:38.997Z</time></trkpt><trkpt lat="44.771065" lon="10.7678533"><ele>33.0</ele><time>2026-04-18T16:42:42.997Z</time></trkpt><trkpt lat="44.7710067" lon="10.76794"><ele>33.0</ele><time>2026-04-18T16:42:44.998Z</time></trkpt><trkpt lat="44.770905" lon="10.7679667"><ele>32.6</ele><time>2026-04-18T16:42:46.998Z</time></trkpt><trkpt lat="44.7708167" lon="10.7679417"><ele>32.199999999999996</ele><time>2026-04-18T16:42:48.997Z</time></trkpt><trkpt lat="44.7707117" lon="10.7678833"><ele>31.8</ele><time>2026-04-18T16:42:50.998Z</time></trkpt><trkpt lat="44.770625" lon="10.7678567"><ele>31.4</ele><time>2026-04-18T16:42:52.997Z</time></trkpt><trkpt lat="44.7705333" lon="10.7679267"><ele>31.0</ele><time>2026-04-18T16:42:54.997Z</time></trkpt><trkpt lat="44.770495" lon="10.7680067"><ele>31.000000000000004</ele><time>2026-04-18T16:42:55.997Z</time></trkpt><trkpt lat="44.77046" lon="10.7681217"><ele>31.0</ele><time>2026-04-18T16:42:56.997Z</time></trkpt><trkpt lat="44.7704283" lon="10.768235"><ele>31.0</ele><time>2026-04-18T16:42:57.997Z</time></trkpt><trkpt lat="44.770395" lon="10.768335"><ele>31.0</ele><time>2026-04-18T16:42:58.997Z</time></trkpt><trkpt lat="44.7703667" lon="10.7684183"><ele>31.000000000000004</ele><time>2026-04-18T16:42:59.997Z</time></trkpt><trkpt lat="44.7703533" lon="10.7685533"><ele>31.0</ele><time>2026-04-18T16:43:01.997Z</time></trkpt><trkpt lat="44.77042" lon="10.768665"><ele>31.166666666666668</ele><time>2026-04-18T16:43:03.997Z</time></trkpt><trkpt lat="44.7704867" lon="10.768705"><ele>31.333333333333336</ele><time>2026-04-18T16:43:04.997Z</time></trkpt><trkpt lat="44.770565" lon="10.76875"><ele>31.5</ele><time>2026-04-18T16:43:05.997Z</time></trkpt><trkpt lat="44.77064" lon="10.768795"><ele>31.666666666666664</ele><time>2026-04-18T16:43:06.998Z</time></trkpt><trkpt lat="44.7707017" lon="10.7688367"><ele>31.833333333333332</ele><time>2026-04-18T16:43:07.997Z</time></trkpt><trkpt lat="44.7707967" lon="10.768865"><ele>32.0</ele><time>2026-04-18T16:43:09.997Z</time></trkpt><trkpt lat="44.7708683" lon="10.7688167"><ele>32.0</ele><time>2026-04-18T16:43:11.998Z</time></trkpt><trkpt lat="44.7709067" lon="10.76868"><ele>32.0</ele><time>2026-04-18T16:43:13.997Z</time></trkpt><trkpt lat="44.7708933" lon="10.768545"><ele>32.0</ele><time>2026-04-18T16:43:15.997Z</time></trkpt><trkpt lat="44.7708317" lon="10.7684733"><ele>32.0</ele><time>2026-04-18T16:43:17.996Z</time></trkpt><trkpt lat="44.770725" lon="10.7684367"><ele>32.0</ele><time>2026-04-18T16:47:31.997Z</time></trkpt><trkpt lat="44.7706433" lon="10.7684033"><ele>31.833333333333332</ele><time>2026-04-18T16:47:33.996Z</time></trkpt><trkpt lat="44.77064" lon="10.7682967"><ele>31.666666666666664</ele><time>2026-04-18T16:47:36.996Z</time></trkpt><trkpt lat="44.7706717" lon="10.7682133"><ele>31.5</ele><time>2026-04-18T16:47:38.997Z</time></trkpt><trkpt lat="44.7706767" lon="10.7680817"><ele>31.333333333333336</ele><time>2026-04-18T16:47:41.996Z</time></trkpt><trkpt lat="44.7706317" lon="10.768"><ele>31.166666666666668</ele><time>2026-04-18T16:47:43.996Z</time></trkpt><trkpt lat="44.7706183" lon="10.7679033"><ele>31.0</ele><time>2026-04-18T16:47:46.997Z</time></trkpt><trkpt lat="44.7706917" lon="10.767925"><ele>31.0</ele><time>2026-04-18T16:47:49.997Z</time></trkpt><trkpt lat="44.7707617" lon="10.767965"><ele>31.0</ele><time>2026-04-18T16:47:51.997Z</time></trkpt><trkpt lat="44.7708583" lon="10.7680183"><ele>31.0</ele><time>2026-04-18T16:47:53.997Z</time></trkpt><trkpt lat="44.770955" lon="10.76805"><ele>31.0</ele><time>2026-04-18T16:47:55.997Z</time></trkpt><trkpt lat="44.77105" lon="10.7680767"><ele>31.0</ele><time>2026-04-18T16:47:57.997Z</time></trkpt><trkpt lat="44.7711567" lon="10.768115"><ele>31.200000000000003</ele><time>2026-04-18T16:47:59.996Z</time></trkpt><trkpt lat="44.7712633" lon="10.7680983"><ele>31.400000000000002</ele><time>2026-04-18T16:48:01.997Z</time></trkpt><trkpt lat="44.7713317" lon="10.76799"><ele>31.6</ele><time>2026-04-18T16:48:03.996Z</time></trkpt><trkpt lat="44.771295" lon="10.76784"><ele>31.8</ele><time>2026-04-18T16:48:05.997Z</time></trkpt><trkpt lat="44.7712283" lon="10.7677667"><ele>32.0</ele><time>2026-04-18T16:48:06.996Z</time></trkpt><trkpt lat="44.77116" lon="10.7676833"><ele>32.0</ele><time>2026-04-18T16:48:07.997Z</time></trkpt><trkpt lat="44.7710967" lon="10.7675867"><ele>32.0</ele><time>2026-04-18T16:48:08.996Z</time></trkpt><trkpt lat="44.7710167" lon="10.7674817"><ele>32.0</ele><time>2026-04-18T16:48:09.996Z</time></trkpt><trkpt lat="44.7709533" lon="10.767375"><ele>32.0</ele><time>2026-04-18T16:48:10.996Z</time></trkpt><trkpt lat="44.7708817" lon="10.7672567"><ele>32.0</ele><time>2026-04-18T16:48:11.996Z</time></trkpt><trkpt lat="44.77081" lon="10.7671467"><ele>32.2</ele><time>2026-04-18T16:48:12.997Z</time></trkpt><trkpt lat="44.7707333" lon="10.76704"><ele>32.400000000000006</ele><time>2026-04-18T16:48:13.997Z</time></trkpt><trkpt lat="44.7706583" lon="10.766935"><ele>32.599999999999994</ele><time>2026-04-18T16:48:14.997Z</time></trkpt><trkpt lat="44.7705817" lon="10.7668317"><ele>32.8</ele><time>2026-04-18T16:48:15.996Z</time></trkpt><trkpt lat="44.7704867" lon="10.7667233"><ele>33.0</ele><time>2026-04-18T16:48:16.997Z</time></trkpt><trkpt lat="44.7704" lon="10.7666133"><ele>33.0</ele><time>2026-04-18T16:48:17.996Z</time></trkpt><trkpt lat="44.77031" lon="10.7664917"><ele>33.0</ele><time>2026-04-18T16:48:18.996Z</time></trkpt><trkpt lat="44.7702133" lon="10.7663617"><ele>33.0</ele><time>2026-04-18T16:48:19.996Z</time></trkpt><trkpt lat="44.7701167" lon="10.76622"><ele>33.0</ele><time>2026-04-18T16:48:20.997Z</time></trkpt><trkpt lat="44.7700117" lon="10.7660667"><ele>32.666666666666664</ele><time>2026-04-18T16:48:21.996Z</time></trkpt><trkpt lat="44.76991" lon="10.76591"><ele>32.33333333333333</ele><time>2026-04-18T16:48:22.996Z</time></trkpt><trkpt lat="44.7698" lon="10.7657367"><ele>32.0</ele><time>2026-04-18T16:48:23.996Z</time></trkpt><trkpt lat="44.7696983" lon="10.765565"><ele>32.0</ele><time>2026-04-18T16:48:24.997Z</time></trkpt><trkpt lat="44.7695883" lon="10.7653867"><ele>32.0</ele><time>2026-04-18T16:48:25.996Z</time></trkpt><trkpt lat="44.7694783" lon="10.7652167"><ele>32.0</ele><time>2026-04-18T16:48:26.996Z</time></trkpt><trkpt lat="44.76936" lon="10.7650533"><ele>32.33333333333333</ele><time>2026-04-18T16:48:27.997Z</time></trkpt><trkpt lat="44.7692333" lon="10.7648867"><ele>32.666666666666664</ele><time>2026-04-18T16:48:28.996Z</time></trkpt><trkpt lat="44.7691017" lon="10.764735"><ele>33.0</ele><time>2026-04-18T16:48:29.996Z</time></trkpt><trkpt lat="44.76896" lon="10.7645867"><ele>33.0</ele><time>2026-04-18T16:48:30.997Z</time></trkpt><trkpt lat="44.76881" lon="10.7644383"><ele>33.0</ele><time>2026-04-18T16:48:31.997Z</time></trkpt><trkpt lat="44.7686533" lon="10.7643033"><ele>33.0</ele><time>2026-04-18T16:48:32.997Z</time></trkpt><trkpt lat="44.7684883" lon="10.764175"><ele>33.0</ele><time>2026-04-18T16:48:33.996Z</time></trkpt><trkpt lat="44.7683183" lon="10.7640533"><ele>33.0</ele><time>2026-04-18T16:48:34.997Z</time></trkpt><trkpt lat="44.7681417" lon="10.7639433"><ele>33.0</ele><time>2026-04-18T16:48:35.996Z</time></trkpt><trkpt lat="44.7679667" lon="10.763825"><ele>33.0</ele><time>2026-04-18T16:48:36.996Z</time></trkpt><trkpt lat="44.7677867" lon="10.763725"><ele>33.0</ele><time>2026-04-18T16:48:37.997Z</time></trkpt><trkpt lat="44.76761" lon="10.7636067"><ele>33.0</ele><time>2026-04-18T16:48:38.996Z</time></trkpt><trkpt lat="44.7674317" lon="10.763485"><ele>32.0</ele><time>2026-04-18T16:48:39.997Z</time></trkpt><trkpt lat="44.7672483" lon="10.7633617"><ele>31.0</ele><time>2026-04-18T16:48:40.997Z</time></trkpt><trkpt lat="44.7670733" lon="10.763225"><ele>30.0</ele><time>2026-04-18T16:48:41.996Z</time></trkpt><trkpt lat="44.7669033" lon="10.763085"><ele>30.666666666666664</ele><time>2026-04-18T16:48:42.996Z</time></trkpt><trkpt lat="44.7667217" lon="10.7629367"><ele>31.333333333333332</ele><time>2026-04-18T16:48:43.997Z</time></trkpt><trkpt lat="44.7665333" lon="10.76278"><ele>32.0</ele><time>2026-04-18T16:48:44.996Z</time></trkpt><trkpt lat="44.7663567" lon="10.7626083"><ele>32.0</ele><time>2026-04-18T16:48:45.997Z</time></trkpt><trkpt lat="44.7661767" lon="10.7624417"><ele>32.0</ele><time>2026-04-18T16:48:46.996Z</time></trkpt><trkpt lat="44.7659967" lon="10.762275"><ele>32.0</ele><time>2026-04-18T16:48:47.996Z</time></trkpt><trkpt lat="44.7658183" lon="10.762105"><ele>32.0</ele><time>2026-04-18T16:48:48.996Z</time></trkpt><trkpt lat="44.76564" lon="10.761945"><ele>32.0</ele><time>2026-04-18T16:48:49.996Z</time></trkpt><trkpt lat="44.7654717" lon="10.7617933"><ele>32.0</ele><time>2026-04-18T16:48:50.996Z</time></trkpt><trkpt lat="44.765305" lon="10.7616367"><ele>33.0</ele><time>2026-04-18T16:48:51.996Z</time></trkpt><trkpt lat="44.7651433" lon="10.7614767"><ele>34.0</ele><time>2026-04-18T16:48:52.996Z</time></trkpt><trkpt lat="44.76498" lon="10.7613333"><ele>35.0</ele><time>2026-04-18T16:48:53.996Z</time></trkpt><trkpt lat="44.7648267" lon="10.7612017"><ele>35.0</ele><time>2026-04-18T16:48:54.996Z</time></trkpt><trkpt lat="44.7646867" lon="10.7610717"><ele>35.0</ele><time>2026-04-18T16:48:55.997Z</time></trkpt><trkpt lat="44.764555" lon="10.76094"><ele>35.0</ele><time>2026-04-18T16:48:56.997Z</time></trkpt><trkpt lat="44.76443" lon="10.7608267"><ele>34.75</ele><time>2026-04-18T16:48:57.996Z</time></trkpt><trkpt lat="44.764315" lon="10.7607117"><ele>34.5</ele><time>2026-04-18T16:48:58.997Z</time></trkpt><trkpt lat="44.7642117" lon="10.7606117"><ele>34.25</ele><time>2026-04-18T16:48:59.997Z</time></trkpt><trkpt lat="44.7641083" lon="10.7605217"><ele>34.0</ele><time>2026-04-18T16:49:00.997Z</time></trkpt><trkpt lat="44.7640317" lon="10.76043"><ele>34.0</ele><time>2026-04-18T16:49:01.996Z</time></trkpt><trkpt lat="44.76398" lon="10.7603317"><ele>34.0</ele><time>2026-04-18T16:49:02.996Z</time></trkpt><trkpt lat="44.7639483" lon="10.7602217"><ele>34.0</ele><time>2026-04-18T16:49:03.996Z</time></trkpt><trkpt lat="44.7639417" lon="10.7601"><ele>34.0</ele><time>2026-04-18T16:49:04.997Z</time></trkpt><trkpt lat="44.7639383" lon="10.7599883"><ele>34.0</ele><time>2026-04-18T16:49:05.997Z</time></trkpt><trkpt lat="44.76388" lon="10.7598483"><ele>34.0</ele><time>2026-04-18T16:49:07.996Z</time></trkpt><trkpt lat="44.7637683" lon="10.759875"><ele>34.0</ele><time>2026-04-18T16:49:09.996Z</time></trkpt><trkpt lat="44.76373" lon="10.75995"><ele>34.0</ele><time>2026-04-18T16:49:10.997Z</time></trkpt><trkpt lat="44.7637233" lon="10.760045"><ele>34.0</ele><time>2026-04-18T16:49:11.997Z</time></trkpt><trkpt lat="44.7637683" lon="10.7601483"><ele>34.0</ele><time>2026-04-18T16:49:12.996Z</time></trkpt><trkpt lat="44.7638333" lon="10.7602417"><ele>34.0</ele><time>2026-04-18T16:49:13.997Z</time></trkpt><trkpt lat="44.7639167" lon="10.760335"><ele>34.0</ele><time>2026-04-18T16:49:14.997Z</time></trkpt><trkpt lat="44.76401" lon="10.760425"><ele>34.0</ele><time>2026-04-18T16:49:15.996Z</time></trkpt><trkpt lat="44.7641067" lon="10.760525"><ele>34.0</ele><time>2026-04-18T16:49:16.996Z</time></trkpt><trkpt lat="44.7642067" lon="10.760625"><ele>34.0</ele><time>2026-04-18T16:49:17.996Z</time></trkpt><trkpt lat="44.7643117" lon="10.7607333"><ele>34.25</ele><time>2026-04-18T16:49:18.996Z</time></trkpt><trkpt lat="44.76443" lon="10.7608483"><ele>34.5</ele><time>2026-04-18T16:49:19.996Z</time></trkpt><trkpt lat="44.7645483" lon="10.7609717"><ele>34.75</ele><time>2026-04-18T16:49:20.996Z</time></trkpt><trkpt lat="44.7646783" lon="10.7610833"><ele>35.0</ele><time>2026-04-18T16:49:21.997Z</time></trkpt><trkpt lat="44.7648067" lon="10.7611917"><ele>35.0</ele><time>2026-04-18T16:49:22.997Z</time></trkpt><trkpt lat="44.764935" lon="10.7613217"><ele>35.0</ele><time>2026-04-18T16:49:23.996Z</time></trkpt><trkpt lat="44.7650667" lon="10.76145"><ele>35.0</ele><time>2026-04-18T16:49:24.997Z</time></trkpt><trkpt lat="44.7652117" lon="10.7615683"><ele>34.0</ele><time>2026-04-18T16:49:25.996Z</time></trkpt><trkpt lat="44.76535" lon="10.7617083"><ele>33.0</ele><time>2026-04-18T16:49:26.997Z</time></trkpt><trkpt lat="44.765495" lon="10.7618433"><ele>32.0</ele><time>2026-04-18T16:49:27.997Z</time></trkpt><trkpt lat="44.7656483" lon="10.7619983"><ele>32.0</ele><time>2026-04-18T16:49:28.997Z</time></trkpt><trkpt lat="44.7658033" lon="10.76214"><ele>32.0</ele><time>2026-04-18T16:49:29.996Z</time></trkpt><trkpt lat="44.7659517" lon="10.7622767"><ele>32.0</ele><time>2026-04-18T16:49:30.996Z</time></trkpt><trkpt lat="44.7661033" lon="10.7624167"><ele>32.0</ele><time>2026-04-18T16:49:31.997Z</time></trkpt><trkpt lat="44.7662583" lon="10.76256"><ele>32.0</ele><time>2026-04-18T16:49:32.996Z</time></trkpt><trkpt lat="44.7664167" lon="10.762705"><ele>32.0</ele><time>2026-04-18T16:49:33.996Z</time></trkpt><trkpt lat="44.7665833" lon="10.7628583"><ele>32.0</ele><time>2026-04-18T16:49:34.997Z</time></trkpt><trkpt lat="44.7667567" lon="10.763015"><ele>32.0</ele><time>2026-04-18T16:49:35.997Z</time></trkpt><trkpt lat="44.7669317" lon="10.7631667"><ele>32.0</ele><time>2026-04-18T16:49:36.997Z</time></trkpt><trkpt lat="44.7670983" lon="10.7632983"><ele>32.33333333333333</ele><time>2026-04-18T16:49:37.997Z</time></trkpt><trkpt lat="44.767255" lon="10.7634133"><ele>32.666666666666664</ele><time>2026-04-18T16:49:38.997Z</time></trkpt><trkpt lat="44.7674033" lon="10.7635133"><ele>33.0</ele><time>2026-04-18T16:49:39.996Z</time></trkpt><trkpt lat="44.7675533" lon="10.76361"><ele>33.0</ele><time>2026-04-18T16:49:40.997Z</time></trkpt><trkpt lat="44.7677033" lon="10.7637083"><ele>33.0</ele><time>2026-04-18T16:49:41.996Z</time></trkpt><trkpt lat="44.7678517" lon="10.7638033"><ele>33.0</ele><time>2026-04-18T16:49:42.996Z</time></trkpt><trkpt lat="44.7679917" lon="10.76389"><ele>33.0</ele><time>2026-04-18T16:49:43.997Z</time></trkpt><trkpt lat="44.7681367" lon="10.7639817"><ele>33.0</ele><time>2026-04-18T16:49:44.997Z</time></trkpt><trkpt lat="44.7682767" lon="10.7640717"><ele>33.0</ele><time>2026-04-18T16:49:45.997Z</time></trkpt><trkpt lat="44.7684167" lon="10.76417"><ele>33.0</ele><time>2026-04-18T16:49:46.997Z</time></trkpt><trkpt lat="44.7685567" lon="10.7642717"><ele>33.0</ele><time>2026-04-18T16:49:47.996Z</time></trkpt><trkpt lat="44.7686967" lon="10.7643733"><ele>33.0</ele><time>2026-04-18T16:49:48.997Z</time></trkpt><trkpt lat="44.76883" lon="10.7644933"><ele>33.0</ele><time>2026-04-18T16:49:49.996Z</time></trkpt><trkpt lat="44.7689583" lon="10.7646167"><ele>33.0</ele><time>2026-04-18T16:49:50.996Z</time></trkpt><trkpt lat="44.7690717" lon="10.7647317"><ele>33.0</ele><time>2026-04-18T16:49:51.997Z</time></trkpt><trkpt lat="44.76918" lon="10.764855"><ele>33.0</ele><time>2026-04-18T16:49:52.996Z</time></trkpt><trkpt lat="44.7692817" lon="10.764995"><ele>32.666666666666664</ele><time>2026-04-18T16:49:53.997Z</time></trkpt><trkpt lat="44.7693917" lon="10.7651567"><ele>32.33333333333333</ele><time>2026-04-18T16:49:54.997Z</time></trkpt><trkpt lat="44.7694917" lon="10.76533"><ele>32.0</ele><time>2026-04-18T16:49:55.997Z</time></trkpt><trkpt lat="44.7695983" lon="10.76551"><ele>32.0</ele><time>2026-04-18T16:49:56.997Z</time></trkpt><trkpt lat="44.7696967" lon="10.7656783"><ele>32.0</ele><time>2026-04-18T16:49:57.997Z</time></trkpt><trkpt lat="44.7697883" lon="10.7658333"><ele>32.0</ele><time>2026-04-18T16:49:58.997Z</time></trkpt><trkpt lat="44.76987" lon="10.7659767"><ele>32.0</ele><time>2026-04-18T16:49:59.997Z</time></trkpt><trkpt lat="44.7699383" lon="10.7661133"><ele>32.0</ele><time>2026-04-18T16:50:00.997Z</time></trkpt><trkpt lat="44.77001" lon="10.766235"><ele>32.0</ele><time>2026-04-18T16:50:01.997Z</time></trkpt><trkpt lat="44.77007" lon="10.7663417"><ele>32.0</ele><time>2026-04-18T16:50:02.996Z</time></trkpt><trkpt lat="44.7701067" lon="10.76645"><ele>32.0</ele><time>2026-04-18T16:50:03.996Z</time></trkpt><trkpt lat="44.770125" lon="10.7665633"><ele>32.0</ele><time>2026-04-18T16:50:04.997Z</time></trkpt><trkpt lat="44.770135" lon="10.766675"><ele>31.999999999999996</ele><time>2026-04-18T16:50:05.997Z</time></trkpt><trkpt lat="44.7701317" lon="10.7667867"><ele>32.0</ele><time>2026-04-18T16:50:06.996Z</time></trkpt><trkpt lat="44.770115" lon="10.76689"><ele>32.0</ele><time>2026-04-18T16:50:07.997Z</time></trkpt><trkpt lat="44.7700867" lon="10.7669817"><ele>32.0</ele><time>2026-04-18T16:50:08.996Z</time></trkpt><trkpt lat="44.7700017" lon="10.7670917"><ele>31.999999999999996</ele><time>2026-04-18T16:50:10.996Z</time></trkpt><trkpt lat="44.7699383" lon="10.76709"><ele>32.0</ele><time>2026-04-18T16:50:11.996Z</time></trkpt><trkpt lat="44.769865" lon="10.7670617"><ele>31.999999999999996</ele><time>2026-04-18T16:50:12.997Z</time></trkpt><trkpt lat="44.7697883" lon="10.76702"><ele>32.0</ele><time>2026-04-18T16:50:13.997Z</time></trkpt><trkpt lat="44.76971" lon="10.766975"><ele>32.0</ele><time>2026-04-18T16:50:14.996Z</time></trkpt><trkpt lat="44.7696367" lon="10.7669467"><ele>32.0</ele><time>2026-04-18T16:50:15.996Z</time></trkpt><trkpt lat="44.7695617" lon="10.766955"><ele>31.999999999999996</ele><time>2026-04-18T16:50:16.996Z</time></trkpt><trkpt lat="44.7694867" lon="10.7670083"><ele>32.0</ele><time>2026-04-18T16:50:17.997Z</time></trkpt><trkpt lat="44.76943" lon="10.7671167"><ele>32.0</ele><time>2026-04-18T16:50:18.996Z</time></trkpt><trkpt lat="44.769395" lon="10.76724"><ele>32.0</ele><time>2026-04-18T16:50:19.996Z</time></trkpt><trkpt lat="44.7693667" lon="10.76735"><ele>32.0</ele><time>2026-04-18T16:50:20.996Z</time></trkpt><trkpt lat="44.7693267" lon="10.7674267"><ele>32.0</ele><time>2026-04-18T16:50:21.997Z</time></trkpt><trkpt lat="44.7692033" lon="10.767455"><ele>32.0</ele><time>2026-04-18T16:50:23.996Z</time></trkpt><trkpt lat="44.7691233" lon="10.76741"><ele>31.999999999999996</ele><time>2026-04-18T16:50:24.995Z</time></trkpt><trkpt lat="44.7690433" lon="10.7673567"><ele>32.0</ele><time>2026-04-18T16:50:25.996Z</time></trkpt><trkpt lat="44.7689717" lon="10.767315"><ele>32.0</ele><time>2026-04-18T16:50:26.996Z</time></trkpt><trkpt lat="44.76889" lon="10.7672817"><ele>32.0</ele><time>2026-04-18T16:50:28.996Z</time></trkpt><trkpt lat="44.7688283" lon="10.7673067"><ele>31.999999999999996</ele><time>2026-04-18T16:50:35.995Z</time></trkpt><trkpt lat="44.7687783" lon="10.7674"><ele>32.0</ele><time>2026-04-18T16:50:37.996Z</time></trkpt><trkpt lat="44.7687433" lon="10.767575"><ele>31.999999999999996</ele><time>2026-04-18T16:50:39.995Z</time></trkpt><trkpt lat="44.76873" lon="10.7676817"><ele>32.0</ele><time>2026-04-18T16:50:40.996Z</time></trkpt><trkpt lat="44.76871" lon="10.767795"><ele>32.0</ele><time>2026-04-18T16:50:41.996Z</time></trkpt><trkpt lat="44.7686867" lon="10.7679117"><ele>32.0</ele><time>2026-04-18T16:50:42.995Z</time></trkpt><trkpt lat="44.7686617" lon="10.7680333"><ele>31.999999999999996</ele><time>2026-04-18T16:50:43.995Z</time></trkpt><trkpt lat="44.76864" lon="10.7681567"><ele>32.0</ele><time>2026-04-18T16:50:44.995Z</time></trkpt><trkpt lat="44.76862" lon="10.76828"><ele>32.0</ele><time>2026-04-18T16:50:45.995Z</time></trkpt><trkpt lat="44.768595" lon="10.7683917"><ele>32.0</ele><time>2026-04-18T16:50:46.995Z</time></trkpt><trkpt lat="44.76858" lon="10.76849"><ele>32.0</ele><time>2026-04-18T16:50:47.996Z</time></trkpt><trkpt lat="44.7685817" lon="10.768655"><ele>32.0</ele><time>2026-04-18T16:50:49.996Z</time></trkpt><trkpt lat="44.7686267" lon="10.7687867"><ele>32.0</ele><time>2026-04-18T16:50:51.996Z</time></trkpt><trkpt lat="44.76875" lon="10.7688667"><ele>31.833333333333332</ele><time>2026-04-18T16:50:53.996Z</time></trkpt><trkpt lat="44.7688183" lon="10.7689067"><ele>31.666666666666664</ele><time>2026-04-18T16:50:54.996Z</time></trkpt><trkpt lat="44.7688883" lon="10.7689483"><ele>31.5</ele><time>2026-04-18T16:50:55.996Z</time></trkpt><trkpt lat="44.76896" lon="10.76898"><ele>31.333333333333336</ele><time>2026-04-18T16:50:56.996Z</time></trkpt><trkpt lat="44.769035" lon="10.7690217"><ele>31.166666666666668</ele><time>2026-04-18T16:50:57.996Z</time></trkpt><trkpt lat="44.769115" lon="10.7690617"><ele>31.0</ele><time>2026-04-18T16:50:58.995Z</time></trkpt><trkpt lat="44.7691967" lon="10.769105"><ele>31.000000000000004</ele><time>2026-04-18T16:50:59.995Z</time></trkpt><trkpt lat="44.7692767" lon="10.7691517"><ele>31.0</ele><time>2026-04-18T16:51:00.996Z</time></trkpt><trkpt lat="44.7693583" lon="10.7691883"><ele>31.0</ele><time>2026-04-18T16:51:01.996Z</time></trkpt><trkpt lat="44.7694433" lon="10.769225"><ele>31.0</ele><time>2026-04-18T16:51:02.996Z</time></trkpt><trkpt lat="44.7695183" lon="10.7692733"><ele>31.000000000000004</ele><time>2026-04-18T16:51:03.995Z</time></trkpt><trkpt lat="44.7695917" lon="10.7693217"><ele>31.0</ele><time>2026-04-18T16:51:04.996Z</time></trkpt><trkpt lat="44.7696617" lon="10.7693683"><ele>30.833333333333336</ele><time>2026-04-18T16:51:05.996Z</time></trkpt><trkpt lat="44.7697283" lon="10.7694133"><ele>30.666666666666668</ele><time>2026-04-18T16:51:06.996Z</time></trkpt><trkpt lat="44.769795" lon="10.7694567"><ele>30.5</ele><time>2026-04-18T16:51:07.996Z</time></trkpt><trkpt lat="44.7698583" lon="10.769495"><ele>30.333333333333336</ele><time>2026-04-18T16:51:08.996Z</time></trkpt><trkpt lat="44.76996" lon="10.7695483"><ele>30.166666666666668</ele><time>2026-04-18T16:51:10.996Z</time></trkpt><trkpt lat="44.7700367" lon="10.7695933"><ele>30.0</ele><time>2026-04-18T16:51:12.996Z</time></trkpt><trkpt lat="44.7700983" lon="10.7696633"><ele>30.0</ele><time>2026-04-18T16:51:15.995Z</time></trkpt><trkpt lat="44.7701483" lon="10.7696017"><ele>30.0</ele><time>2026-04-18T16:51:19.995Z</time></trkpt><trkpt lat="44.7700783" lon="10.7695417"><ele>30.0</ele><time>2026-04-18T16:51:22.995Z</time></trkpt><trkpt lat="44.7700117" lon="10.7695033"><ele>30.0</ele><time>2026-04-18T16:51:25.996Z</time></trkpt><trkpt lat="44.7699533" lon="10.7694583"><ele>30.0</ele><time>2026-04-18T16:58:22.994Z</time></trkpt><trkpt lat="44.7698367" lon="10.76941"><ele>30.0</ele><time>2026-04-18T16:58:24.994Z</time></trkpt><trkpt lat="44.7697683" lon="10.7693633"><ele>29.833333333333332</ele><time>2026-04-18T16:58:25.994Z</time></trkpt><trkpt lat="44.7696883" lon="10.7693167"><ele>29.666666666666664</ele><time>2026-04-18T16:58:26.994Z</time></trkpt><trkpt lat="44.7696067" lon="10.769275"><ele>29.5</ele><time>2026-04-18T16:58:27.995Z</time></trkpt><trkpt lat="44.76953" lon="10.7692433"><ele>29.333333333333332</ele><time>2026-04-18T16:58:28.995Z</time></trkpt><trkpt lat="44.7694667" lon="10.76921"><ele>29.166666666666664</ele><time>2026-04-18T16:58:29.994Z</time></trkpt><trkpt lat="44.7693567" lon="10.769145"><ele>29.0</ele><time>2026-04-18T16:58:31.994Z</time></trkpt><trkpt lat="44.7692933" lon="10.76911"><ele>29.333333333333332</ele><time>2026-04-18T16:58:32.994Z</time></trkpt><trkpt lat="44.76923" lon="10.7690817"><ele>29.666666666666664</ele><time>2026-04-18T16:58:33.994Z</time></trkpt><trkpt lat="44.7691317" lon="10.7690217"><ele>30.0</ele><time>2026-04-18T16:58:35.995Z</time></trkpt><trkpt lat="44.7690333" lon="10.76896"><ele>30.333333333333336</ele><time>2026-04-18T16:58:37.994Z</time></trkpt><trkpt lat="44.76897" lon="10.7689183"><ele>30.666666666666668</ele><time>2026-04-18T16:58:38.995Z</time></trkpt><trkpt lat="44.7688933" lon="10.768875"><ele>31.0</ele><time>2026-04-18T16:58:39.994Z</time></trkpt><trkpt lat="44.7688183" lon="10.7688383"><ele>31.000000000000004</ele><time>2026-04-18T16:58:40.995Z</time></trkpt><trkpt lat="44.7687467" lon="10.7687983"><ele>31.0</ele><time>2026-04-18T16:58:41.994Z</time></trkpt><trkpt lat="44.7686883" lon="10.768765"><ele>31.0</ele><time>2026-04-18T16:58:42.995Z</time></trkpt><trkpt lat="44.7686167" lon="10.76874"><ele>31.0</ele><time>2026-04-18T16:58:44.994Z</time></trkpt><trkpt lat="44.7685417" lon="10.7688067"><ele>31.000000000000004</ele><time>2026-04-18T16:58:47.995Z</time></trkpt><trkpt lat="44.7685133" lon="10.7689867"><ele>31.0</ele><time>2026-04-18T16:58:49.994Z</time></trkpt><trkpt lat="44.7685" lon="10.769125"><ele>31.5</ele><time>2026-04-18T16:58:50.995Z</time></trkpt><trkpt lat="44.768485" lon="10.7693217"><ele>32.0</ele><time>2026-04-18T16:58:51.995Z</time></trkpt><trkpt lat="44.76847" lon="10.7695167"><ele>32.5</ele><time>2026-04-18T16:58:52.994Z</time></trkpt><trkpt lat="44.76845" lon="10.769725"><ele>33.0</ele><time>2026-04-18T16:58:53.994Z</time></trkpt><trkpt lat="44.7684317" lon="10.7699233"><ele>33.0</ele><time>2026-04-18T16:58:54.995Z</time></trkpt><trkpt lat="44.76842" lon="10.7700967"><ele>33.0</ele><time>2026-04-18T16:58:55.994Z</time></trkpt><trkpt lat="44.7684017" lon="10.7702483"><ele>33.0</ele><time>2026-04-18T16:58:56.995Z</time></trkpt><trkpt lat="44.76839" lon="10.7703967"><ele>33.0</ele><time>2026-04-18T16:58:57.995Z</time></trkpt><trkpt lat="44.7683717" lon="10.770525"><ele>33.0</ele><time>2026-04-18T16:58:58.994Z</time></trkpt><trkpt lat="44.7683533" lon="10.7706433"><ele>33.166666666666664</ele><time>2026-04-18T16:58:59.995Z</time></trkpt><trkpt lat="44.7683367" lon="10.77076"><ele>33.333333333333336</ele><time>2026-04-18T16:59:00.994Z</time></trkpt><trkpt lat="44.7683233" lon="10.7708683"><ele>33.5</ele><time>2026-04-18T16:59:01.994Z</time></trkpt><trkpt lat="44.7683083" lon="10.7709717"><ele>33.66666666666667</ele><time>2026-04-18T16:59:02.995Z</time></trkpt><trkpt lat="44.7682867" lon="10.7710733"><ele>33.833333333333336</ele><time>2026-04-18T16:59:03.995Z</time></trkpt><trkpt lat="44.768265" lon="10.7711917"><ele>34.0</ele><time>2026-04-18T16:59:04.994Z</time></trkpt><trkpt lat="44.7682467" lon="10.771325"><ele>34.0</ele><time>2026-04-18T16:59:05.995Z</time></trkpt><trkpt lat="44.7682267" lon="10.77147"><ele>34.0</ele><time>2026-04-18T16:59:06.995Z</time></trkpt><trkpt lat="44.7682033" lon="10.7716133"><ele>34.0</ele><time>2026-04-18T16:59:07.994Z</time></trkpt><trkpt lat="44.768175" lon="10.7717717"><ele>34.0</ele><time>2026-04-18T16:59:08.995Z</time></trkpt><trkpt lat="44.7681433" lon="10.7719367"><ele>34.0</ele><time>2026-04-18T16:59:09.994Z</time></trkpt><trkpt lat="44.7681133" lon="10.7721067"><ele>34.25</ele><time>2026-04-18T16:59:10.995Z</time></trkpt><trkpt lat="44.7680917" lon="10.7722717"><ele>34.5</ele><time>2026-04-18T16:59:11.995Z</time></trkpt><trkpt lat="44.7680667" lon="10.7724333"><ele>34.75</ele><time>2026-04-18T16:59:12.995Z</time></trkpt><trkpt lat="44.7680417" lon="10.7725867"><ele>35.0</ele><time>2026-04-18T16:59:13.994Z</time></trkpt><trkpt lat="44.7680067" lon="10.7727433"><ele>35.2</ele><time>2026-04-18T16:59:14.995Z</time></trkpt><trkpt lat="44.7679817" lon="10.7728967"><ele>35.4</ele><time>2026-04-18T16:59:15.995Z</time></trkpt><trkpt lat="44.7679533" lon="10.77306"><ele>35.6</ele><time>2026-04-18T16:59:16.995Z</time></trkpt><trkpt lat="44.7679233" lon="10.773205"><ele>35.8</ele><time>2026-04-18T16:59:17.995Z</time></trkpt><trkpt lat="44.7679133" lon="10.77334"><ele>36.0</ele><time>2026-04-18T16:59:18.995Z</time></trkpt><trkpt lat="44.7679017" lon="10.7734683"><ele>35.666666666666664</ele><time>2026-04-18T16:59:19.995Z</time></trkpt><trkpt lat="44.7678817" lon="10.7735783"><ele>35.333333333333336</ele><time>2026-04-18T16:59:20.994Z</time></trkpt><trkpt lat="44.7678533" lon="10.77367"><ele>35.0</ele><time>2026-04-18T16:59:21.994Z</time></trkpt><trkpt lat="44.767795" lon="10.7737383"><ele>34.66666666666667</ele><time>2026-04-18T16:59:22.994Z</time></trkpt><trkpt lat="44.7677233" lon="10.7737717"><ele>34.333333333333336</ele><time>2026-04-18T16:59:23.995Z</time></trkpt><trkpt lat="44.7676383" lon="10.7737767"><ele>34.0</ele><time>2026-04-18T16:59:24.994Z</time></trkpt><trkpt lat="44.7675367" lon="10.7737533"><ele>33.25</ele><time>2026-04-18T16:59:25.995Z</time></trkpt><trkpt lat="44.76743" lon="10.773715"><ele>32.5</ele><time>2026-04-18T16:59:26.994Z</time></trkpt><trkpt lat="44.7673033" lon="10.7736683"><ele>31.75</ele><time>2026-04-18T16:59:27.995Z</time></trkpt><trkpt lat="44.76719" lon="10.7736083"><ele>31.0</ele><time>2026-04-18T16:59:28.994Z</time></trkpt><trkpt lat="44.7670833" lon="10.7735417"><ele>31.0</ele><time>2026-04-18T16:59:29.995Z</time></trkpt><trkpt lat="44.766985" lon="10.773485"><ele>31.0</ele><time>2026-04-18T16:59:30.994Z</time></trkpt><trkpt lat="44.7668967" lon="10.7734167"><ele>31.0</ele><time>2026-04-18T16:59:31.994Z</time></trkpt><trkpt lat="44.7668083" lon="10.7733417"><ele>31.0</ele><time>2026-04-18T16:59:32.995Z</time></trkpt><trkpt lat="44.7667183" lon="10.773265"><ele>31.0</ele><time>2026-04-18T16:59:33.995Z</time></trkpt><trkpt lat="44.766625" lon="10.773195"><ele>31.0</ele><time>2026-04-18T16:59:34.994Z</time></trkpt><trkpt lat="44.7665283" lon="10.7731267"><ele>31.0</ele><time>2026-04-18T16:59:35.994Z</time></trkpt><trkpt lat="44.7664317" lon="10.7730583"><ele>31.0</ele><time>2026-04-18T16:59:36.994Z</time></trkpt><trkpt lat="44.7663267" lon="10.772975"><ele>31.0</ele><time>2026-04-18T16:59:37.994Z</time></trkpt><trkpt lat="44.7662283" lon="10.772885"><ele>31.0</ele><time>2026-04-18T16:59:38.995Z</time></trkpt><trkpt lat="44.7661167" lon="10.7728"><ele>31.0</ele><time>2026-04-18T16:59:39.994Z</time></trkpt><trkpt lat="44.766005" lon="10.7727133"><ele>31.0</ele><time>2026-04-18T16:59:40.994Z</time></trkpt><trkpt lat="44.7658917" lon="10.7726417"><ele>31.0</ele><time>2026-04-18T16:59:41.994Z</time></trkpt><trkpt lat="44.76578" lon="10.772565"><ele>31.0</ele><time>2026-04-18T16:59:42.994Z</time></trkpt><trkpt lat="44.7656717" lon="10.7724933"><ele>31.0</ele><time>2026-04-18T16:59:43.995Z</time></trkpt><trkpt lat="44.7655683" lon="10.7724183"><ele>31.0</ele><time>2026-04-18T16:59:44.995Z</time></trkpt><trkpt lat="44.765455" lon="10.77233"><ele>31.0</ele><time>2026-04-18T16:59:45.994Z</time></trkpt><trkpt lat="44.7653283" lon="10.7722533"><ele>30.666666666666668</ele><time>2026-04-18T16:59:46.995Z</time></trkpt><trkpt lat="44.7651867" lon="10.7721867"><ele>30.333333333333336</ele><time>2026-04-18T16:59:47.994Z</time></trkpt><trkpt lat="44.76503" lon="10.772145"><ele>30.0</ele><time>2026-04-18T16:59:48.994Z</time></trkpt><trkpt lat="44.764875" lon="10.7721017"><ele>30.0</ele><time>2026-04-18T16:59:49.994Z</time></trkpt><trkpt lat="44.7647283" lon="10.7720733"><ele>30.0</ele><time>2026-04-18T16:59:50.995Z</time></trkpt><trkpt lat="44.76458" lon="10.772055"><ele>30.0</ele><time>2026-04-18T16:59:51.994Z</time></trkpt><trkpt lat="44.7644267" lon="10.7720367"><ele>30.0</ele><time>2026-04-18T16:59:52.994Z</time></trkpt><trkpt lat="44.76428" lon="10.7720267"><ele>30.0</ele><time>2026-04-18T16:59:53.995Z</time></trkpt><trkpt lat="44.7641367" lon="10.7720167"><ele>30.0</ele><time>2026-04-18T16:59:54.994Z</time></trkpt><trkpt lat="44.764" lon="10.7720117"><ele>30.0</ele><time>2026-04-18T16:59:55.994Z</time></trkpt><trkpt lat="44.7638683" lon="10.7719983"><ele>30.0</ele><time>2026-04-18T16:59:56.995Z</time></trkpt><trkpt lat="44.7637383" lon="10.7719817"><ele>30.0</ele><time>2026-04-18T16:59:57.994Z</time></trkpt><trkpt lat="44.7636217" lon="10.7719683"><ele>30.0</ele><time>2026-04-18T16:59:58.995Z</time></trkpt><trkpt lat="44.7635033" lon="10.7719517"><ele>30.0</ele><time>2026-04-18T16:59:59.995Z</time></trkpt><trkpt lat="44.7633833" lon="10.7719467"><ele>30.25</ele><time>2026-04-18T17:00:00.995Z</time></trkpt><trkpt lat="44.7632583" lon="10.7719367"><ele>30.5</ele><time>2026-04-18T17:00:01.995Z</time></trkpt><trkpt lat="44.7631333" lon="10.7719217"><ele>30.75</ele><time>2026-04-18T17:00:02.994Z</time></trkpt><trkpt lat="44.763005" lon="10.7719117"><ele>31.0</ele><time>2026-04-18T17:00:03.994Z</time></trkpt><trkpt lat="44.76287" lon="10.7718933"><ele>31.0</ele><time>2026-04-18T17:00:04.994Z</time></trkpt><trkpt lat="44.7627283" lon="10.77188"><ele>31.0</ele><time>2026-04-18T17:00:05.995Z</time></trkpt><trkpt lat="44.7625833" lon="10.7718633"><ele>31.0</ele><time>2026-04-18T17:00:06.995Z</time></trkpt><trkpt lat="44.76244" lon="10.7718517"><ele>31.0</ele><time>2026-04-18T17:00:07.995Z</time></trkpt><trkpt lat="44.76231" lon="10.771835"><ele>31.0</ele><time>2026-04-18T17:00:08.995Z</time></trkpt><trkpt lat="44.7621883" lon="10.771825"><ele>31.0</ele><time>2026-04-18T17:00:09.994Z</time></trkpt><trkpt lat="44.7620767" lon="10.7718167"><ele>31.0</ele><time>2026-04-18T17:00:10.995Z</time></trkpt><trkpt lat="44.761975" lon="10.7717967"><ele>31.0</ele><time>2026-04-18T17:00:11.995Z</time></trkpt><trkpt lat="44.761885" lon="10.7717733"><ele>31.0</ele><time>2026-04-18T17:00:12.995Z</time></trkpt><trkpt lat="44.76181" lon="10.7717467"><ele>31.000000000000004</ele><time>2026-04-18T17:00:13.994Z</time></trkpt><trkpt lat="44.7617367" lon="10.7716983"><ele>31.0</ele><time>2026-04-18T17:00:14.994Z</time></trkpt><trkpt lat="44.761665" lon="10.7716433"><ele>31.0</ele><time>2026-04-18T17:00:15.995Z</time></trkpt><trkpt lat="44.7615917" lon="10.7715833"><ele>31.0</ele><time>2026-04-18T17:00:16.995Z</time></trkpt><trkpt lat="44.7615067" lon="10.7715567"><ele>31.000000000000004</ele><time>2026-04-18T17:00:17.994Z</time></trkpt><trkpt lat="44.76143" lon="10.7715533"><ele>31.0</ele><time>2026-04-18T17:00:18.995Z</time></trkpt><trkpt lat="44.7613483" lon="10.7715833"><ele>31.0</ele><time>2026-04-18T17:00:19.994Z</time></trkpt><trkpt lat="44.7612567" lon="10.7716017"><ele>31.0</ele><time>2026-04-18T17:00:20.994Z</time></trkpt><trkpt lat="44.76115" lon="10.7715967"><ele>31.0</ele><time>2026-04-18T17:00:21.994Z</time></trkpt><trkpt lat="44.7610317" lon="10.77156"><ele>31.0</ele><time>2026-04-18T17:00:22.994Z</time></trkpt><trkpt lat="44.7609067" lon="10.7715233"><ele>31.0</ele><time>2026-04-18T17:00:23.994Z</time></trkpt><trkpt lat="44.7607683" lon="10.7714883"><ele>30.666666666666668</ele><time>2026-04-18T17:00:24.994Z</time></trkpt><trkpt lat="44.7606217" lon="10.77145"><ele>30.333333333333336</ele><time>2026-04-18T17:00:25.995Z</time></trkpt><trkpt lat="44.7604633" lon="10.7713983"><ele>30.0</ele><time>2026-04-18T17:00:26.995Z</time></trkpt><trkpt lat="44.7603017" lon="10.771345"><ele>30.0</ele><time>2026-04-18T17:00:27.994Z</time></trkpt><trkpt lat="44.7601333" lon="10.7712933"><ele>30.0</ele><time>2026-04-18T17:00:28.994Z</time></trkpt><trkpt lat="44.75997" lon="10.7712367"><ele>30.0</ele><time>2026-04-18T17:00:29.995Z</time></trkpt><trkpt lat="44.7598167" lon="10.77117"><ele>30.0</ele><time>2026-04-18T17:00:30.995Z</time></trkpt><trkpt lat="44.7596683" lon="10.771115"><ele>30.0</ele><time>2026-04-18T17:00:31.995Z</time></trkpt><trkpt lat="44.7595217" lon="10.7710617"><ele>30.0</ele><time>2026-04-18T17:00:32.995Z</time></trkpt><trkpt lat="44.7593767" lon="10.77101"><ele>30.25</ele><time>2026-04-18T17:00:33.994Z</time></trkpt><trkpt lat="44.7592367" lon="10.77096"><ele>30.5</ele><time>2026-04-18T17:00:34.995Z</time></trkpt><trkpt lat="44.75911" lon="10.77091"><ele>30.75</ele><time>2026-04-18T17:00:35.995Z</time></trkpt><trkpt lat="44.7589867" lon="10.770865"><ele>31.0</ele><time>2026-04-18T17:00:36.994Z</time></trkpt><trkpt lat="44.7588733" lon="10.7708217"><ele>31.000000000000004</ele><time>2026-04-18T17:00:37.994Z</time></trkpt><trkpt lat="44.7587767" lon="10.7708"><ele>31.0</ele><time>2026-04-18T17:00:38.994Z</time></trkpt><trkpt lat="44.7586967" lon="10.7707633"><ele>31.0</ele><time>2026-04-18T17:00:39.994Z</time></trkpt><trkpt lat="44.7586233" lon="10.770715"><ele>31.0</ele><time>2026-04-18T17:00:40.994Z</time></trkpt><trkpt lat="44.7585733" lon="10.7706433"><ele>31.000000000000004</ele><time>2026-04-18T17:00:41.994Z</time></trkpt><trkpt lat="44.7585183" lon="10.7705617"><ele>31.0</ele><time>2026-04-18T17:00:42.994Z</time></trkpt><trkpt lat="44.7584533" lon="10.7705083"><ele>31.000000000000004</ele><time>2026-04-18T17:00:43.994Z</time></trkpt><trkpt lat="44.7583817" lon="10.7704767"><ele>31.0</ele><time>2026-04-18T17:00:44.995Z</time></trkpt><trkpt lat="44.75832" lon="10.7704967"><ele>31.0</ele><time>2026-04-18T17:00:45.995Z</time></trkpt><trkpt lat="44.75827" lon="10.7705817"><ele>31.0</ele><time>2026-04-18T17:00:46.994Z</time></trkpt><trkpt lat="44.7582183" lon="10.77068"><ele>31.000000000000004</ele><time>2026-04-18T17:00:47.994Z</time></trkpt><trkpt lat="44.7581533" lon="10.7707633"><ele>31.0</ele><time>2026-04-18T17:00:48.995Z</time></trkpt><trkpt lat="44.758065" lon="10.770825"><ele>31.0</ele><time>2026-04-18T17:00:49.995Z</time></trkpt><trkpt lat="44.7579317" lon="10.7708233"><ele>31.0</ele><time>2026-04-18T17:00:50.994Z</time></trkpt><trkpt lat="44.7577883" lon="10.7707917"><ele>31.0</ele><time>2026-04-18T17:00:51.995Z</time></trkpt><trkpt lat="44.7576433" lon="10.7707667"><ele>31.0</ele><time>2026-04-18T17:00:52.994Z</time></trkpt><trkpt lat="44.7575067" lon="10.7707483"><ele>31.0</ele><time>2026-04-18T17:00:53.994Z</time></trkpt><trkpt lat="44.75739" lon="10.7707217"><ele>31.0</ele><time>2026-04-18T17:00:54.994Z</time></trkpt><trkpt lat="44.7572667" lon="10.7707033"><ele>31.0</ele><time>2026-04-18T17:00:55.994Z</time></trkpt><trkpt lat="44.7571533" lon="10.77067"><ele>31.0</ele><time>2026-04-18T17:00:56.994Z</time></trkpt><trkpt lat="44.75704" lon="10.77065"><ele>31.0</ele><time>2026-04-18T17:00:57.994Z</time></trkpt><trkpt lat="44.7569333" lon="10.7706333"><ele>31.0</ele><time>2026-04-18T17:00:58.995Z</time></trkpt><trkpt lat="44.7568317" lon="10.7706133"><ele>31.0</ele><time>2026-04-18T17:00:59.994Z</time></trkpt><trkpt lat="44.7567233" lon="10.7706033"><ele>31.0</ele><time>2026-04-18T17:01:00.995Z</time></trkpt><trkpt lat="44.7566133" lon="10.770585"><ele>31.0</ele><time>2026-04-18T17:01:01.994Z</time></trkpt><trkpt lat="44.7564933" lon="10.770565"><ele>31.0</ele><time>2026-04-18T17:01:02.994Z</time></trkpt><trkpt lat="44.7563667" lon="10.7705417"><ele>31.0</ele><time>2026-04-18T17:01:03.994Z</time></trkpt><trkpt lat="44.7562317" lon="10.7705167"><ele>31.0</ele><time>2026-04-18T17:01:04.994Z</time></trkpt><trkpt lat="44.7560833" lon="10.7704917"><ele>31.0</ele><time>2026-04-18T17:01:05.994Z</time></trkpt><trkpt lat="44.7559283" lon="10.7704583"><ele>31.5</ele><time>2026-04-18T17:01:06.995Z</time></trkpt><trkpt lat="44.7557767" lon="10.7704333"><ele>32.0</ele><time>2026-04-18T17:01:07.995Z</time></trkpt><trkpt lat="44.7554633" lon="10.770375"><ele>32.0</ele><time>2026-04-18T17:01:09.994Z</time></trkpt><trkpt lat="44.75533" lon="10.7703517"><ele>32.0</ele><time>2026-04-18T17:01:10.994Z</time></trkpt><trkpt lat="44.7552117" lon="10.7703383"><ele>32.0</ele><time>2026-04-18T17:01:11.995Z</time></trkpt><trkpt lat="44.7551033" lon="10.7703267"><ele>32.0</ele><time>2026-04-18T17:01:12.995Z</time></trkpt><trkpt lat="44.7549983" lon="10.77031"><ele>32.0</ele><time>2026-04-18T17:01:13.994Z</time></trkpt><trkpt lat="44.7548917" lon="10.77028"><ele>32.0</ele><time>2026-04-18T17:01:14.994Z</time></trkpt><trkpt lat="44.7547867" lon="10.7702517"><ele>32.0</ele><time>2026-04-18T17:01:15.994Z</time></trkpt><trkpt lat="44.75468" lon="10.7702233"><ele>32.0</ele><time>2026-04-18T17:01:16.995Z</time></trkpt><trkpt lat="44.75456" lon="10.7702067"><ele>32.0</ele><time>2026-04-18T17:01:17.995Z</time></trkpt><trkpt lat="44.7544217" lon="10.770195"><ele>31.333333333333332</ele><time>2026-04-18T17:01:18.995Z</time></trkpt><trkpt lat="44.75427" lon="10.7701717"><ele>30.666666666666664</ele><time>2026-04-18T17:01:19.994Z</time></trkpt><trkpt lat="44.7541033" lon="10.7701433"><ele>30.0</ele><time>2026-04-18T17:01:20.995Z</time></trkpt><trkpt lat="44.75393" lon="10.7701167"><ele>30.0</ele><time>2026-04-18T17:01:21.995Z</time></trkpt><trkpt lat="44.7537467" lon="10.7700917"><ele>30.0</ele><time>2026-04-18T17:01:22.995Z</time></trkpt><trkpt lat="44.75355" lon="10.770055"><ele>30.0</ele><time>2026-04-18T17:01:23.995Z</time></trkpt><trkpt lat="44.753345" lon="10.7700183"><ele>29.666666666666664</ele><time>2026-04-18T17:01:24.995Z</time></trkpt><trkpt lat="44.7531333" lon="10.7699733"><ele>29.333333333333332</ele><time>2026-04-18T17:01:25.994Z</time></trkpt><trkpt lat="44.752925" lon="10.7699317"><ele>29.0</ele><time>2026-04-18T17:01:26.994Z</time></trkpt><trkpt lat="44.75272" lon="10.7698983"><ele>29.333333333333332</ele><time>2026-04-18T17:01:27.994Z</time></trkpt><trkpt lat="44.7525283" lon="10.7698633"><ele>29.666666666666664</ele><time>2026-04-18T17:01:28.994Z</time></trkpt><trkpt lat="44.7523417" lon="10.7698183"><ele>30.0</ele><time>2026-04-18T17:01:29.995Z</time></trkpt><trkpt lat="44.7521667" lon="10.7697717"><ele>30.0</ele><time>2026-04-18T17:01:30.994Z</time></trkpt><trkpt lat="44.7519933" lon="10.7697067"><ele>30.0</ele><time>2026-04-18T17:01:31.994Z</time></trkpt><trkpt lat="44.7518217" lon="10.76964"><ele>30.0</ele><time>2026-04-18T17:01:32.994Z</time></trkpt><trkpt lat="44.7516417" lon="10.7695617"><ele>30.666666666666664</ele><time>2026-04-18T17:01:33.995Z</time></trkpt><trkpt lat="44.751465" lon="10.7694867"><ele>31.333333333333332</ele><time>2026-04-18T17:01:34.995Z</time></trkpt><trkpt lat="44.751285" lon="10.7693933"><ele>32.0</ele><time>2026-04-18T17:01:35.995Z</time></trkpt><trkpt lat="44.7511017" lon="10.7692933"><ele>32.0</ele><time>2026-04-18T17:01:36.994Z</time></trkpt><trkpt lat="44.7509217" lon="10.7691783"><ele>32.0</ele><time>2026-04-18T17:01:37.994Z</time></trkpt><trkpt lat="44.7507433" lon="10.7690667"><ele>32.0</ele><time>2026-04-18T17:01:38.994Z</time></trkpt><trkpt lat="44.750565" lon="10.7689517"><ele>32.0</ele><time>2026-04-18T17:01:39.994Z</time></trkpt><trkpt lat="44.75039" lon="10.76884"><ele>32.0</ele><time>2026-04-18T17:01:40.995Z</time></trkpt><trkpt lat="44.750205" lon="10.76872"><ele>32.0</ele><time>2026-04-18T17:01:41.995Z</time></trkpt><trkpt lat="44.7500267" lon="10.7686"><ele>32.0</ele><time>2026-04-18T17:01:42.995Z</time></trkpt><trkpt lat="44.7498533" lon="10.7684817"><ele>32.0</ele><time>2026-04-18T17:01:43.994Z</time></trkpt><trkpt lat="44.74968" lon="10.7683583"><ele>32.0</ele><time>2026-04-18T17:01:44.995Z</time></trkpt><trkpt lat="44.749505" lon="10.768235"><ele>32.666666666666664</ele><time>2026-04-18T17:01:45.994Z</time></trkpt><trkpt lat="44.7493283" lon="10.7681133"><ele>33.333333333333336</ele><time>2026-04-18T17:01:46.995Z</time></trkpt><trkpt lat="44.7491683" lon="10.7679867"><ele>34.0</ele><time>2026-04-18T17:01:47.995Z</time></trkpt><trkpt lat="44.7490033" lon="10.7678617"><ele>34.0</ele><time>2026-04-18T17:01:48.995Z</time></trkpt><trkpt lat="44.7488467" lon="10.7677317"><ele>34.0</ele><time>2026-04-18T17:01:49.994Z</time></trkpt><trkpt lat="44.748695" lon="10.7676083"><ele>34.0</ele><time>2026-04-18T17:01:50.995Z</time></trkpt><trkpt lat="44.7485567" lon="10.7674883"><ele>33.66666666666667</ele><time>2026-04-18T17:01:51.994Z</time></trkpt><trkpt lat="44.748415" lon="10.7673783"><ele>33.333333333333336</ele><time>2026-04-18T17:01:52.995Z</time></trkpt><trkpt lat="44.7482817" lon="10.7672717"><ele>33.0</ele><time>2026-04-18T17:01:53.995Z</time></trkpt><trkpt lat="44.7481567" lon="10.7671617"><ele>33.0</ele><time>2026-04-18T17:01:54.994Z</time></trkpt><trkpt lat="44.7480517" lon="10.7670483"><ele>33.0</ele><time>2026-04-18T17:01:55.995Z</time></trkpt><trkpt lat="44.747955" lon="10.7669467"><ele>33.0</ele><time>2026-04-18T17:01:56.994Z</time></trkpt><trkpt lat="44.7478767" lon="10.7668583"><ele>33.0</ele><time>2026-04-18T17:01:57.994Z</time></trkpt><trkpt lat="44.7478083" lon="10.7667833"><ele>33.0</ele><time>2026-04-18T17:01:58.995Z</time></trkpt><trkpt lat="44.7477383" lon="10.7667117"><ele>32.6</ele><time>2026-04-18T17:01:59.995Z</time></trkpt><trkpt lat="44.7476633" lon="10.76663"><ele>32.199999999999996</ele><time>2026-04-18T17:02:00.995Z</time></trkpt><trkpt lat="44.7475783" lon="10.766545"><ele>31.8</ele><time>2026-04-18T17:02:01.994Z</time></trkpt><trkpt lat="44.74749" lon="10.7664717"><ele>31.4</ele><time>2026-04-18T17:02:02.995Z</time></trkpt><trkpt lat="44.7473967" lon="10.766415"><ele>31.0</ele><time>2026-04-18T17:02:03.995Z</time></trkpt><trkpt lat="44.7473033" lon="10.7663767"><ele>31.0</ele><time>2026-04-18T17:02:04.995Z</time></trkpt><trkpt lat="44.7472133" lon="10.7663317"><ele>31.0</ele><time>2026-04-18T17:02:05.994Z</time></trkpt><trkpt lat="44.7471183" lon="10.7662967"><ele>31.0</ele><time>2026-04-18T17:02:06.994Z</time></trkpt><trkpt lat="44.7470233" lon="10.7662633"><ele>31.0</ele><time>2026-04-18T17:02:07.995Z</time></trkpt><trkpt lat="44.74692" lon="10.7662217"><ele>31.0</ele><time>2026-04-18T17:02:08.995Z</time></trkpt><trkpt lat="44.7468183" lon="10.766175"><ele>31.200000000000003</ele><time>2026-04-18T17:02:09.994Z</time></trkpt><trkpt lat="44.7467117" lon="10.7661233"><ele>31.400000000000002</ele><time>2026-04-18T17:02:10.994Z</time></trkpt><trkpt lat="44.7466117" lon="10.7660717"><ele>31.6</ele><time>2026-04-18T17:02:11.994Z</time></trkpt><trkpt lat="44.7465067" lon="10.76603"><ele>31.8</ele><time>2026-04-18T17:02:12.994Z</time></trkpt><trkpt lat="44.74641" lon="10.7659867"><ele>32.0</ele><time>2026-04-18T17:02:13.995Z</time></trkpt><trkpt lat="44.7463117" lon="10.7659417"><ele>32.25</ele><time>2026-04-18T17:02:14.994Z</time></trkpt><trkpt lat="44.7462133" lon="10.765885"><ele>32.5</ele><time>2026-04-18T17:02:15.994Z</time></trkpt><trkpt lat="44.7461117" lon="10.7658133"><ele>32.75</ele><time>2026-04-18T17:02:16.994Z</time></trkpt><trkpt lat="44.7459933" lon="10.765755"><ele>33.0</ele><time>2026-04-18T17:02:17.994Z</time></trkpt><trkpt lat="44.7458567" lon="10.7656883"><ele>33.25</ele><time>2026-04-18T17:02:18.995Z</time></trkpt><trkpt lat="44.7457167" lon="10.7656167"><ele>33.5</ele><time>2026-04-18T17:02:19.994Z</time></trkpt><trkpt lat="44.74558" lon="10.7655433"><ele>33.75</ele><time>2026-04-18T17:02:20.995Z</time></trkpt><trkpt lat="44.74544" lon="10.765465"><ele>34.0</ele><time>2026-04-18T17:02:21.994Z</time></trkpt><trkpt lat="44.7452917" lon="10.7653883"><ele>34.0</ele><time>2026-04-18T17:02:22.995Z</time></trkpt><trkpt lat="44.7451417" lon="10.7653183"><ele>34.0</ele><time>2026-04-18T17:02:23.995Z</time></trkpt><trkpt lat="44.7449867" lon="10.76525"><ele>34.0</ele><time>2026-04-18T17:02:24.995Z</time></trkpt><trkpt lat="44.7448217" lon="10.76518"><ele>33.66666666666667</ele><time>2026-04-18T17:02:25.995Z</time></trkpt><trkpt lat="44.7446617" lon="10.76511"><ele>33.333333333333336</ele><time>2026-04-18T17:02:26.994Z</time></trkpt><trkpt lat="44.7445033" lon="10.7650433"><ele>33.0</ele><time>2026-04-18T17:02:27.994Z</time></trkpt><trkpt lat="44.7443433" lon="10.7649733"><ele>33.0</ele><time>2026-04-18T17:02:28.994Z</time></trkpt><trkpt lat="44.744195" lon="10.7649017"><ele>33.0</ele><time>2026-04-18T17:02:29.995Z</time></trkpt><trkpt lat="44.74405" lon="10.7648333"><ele>33.0</ele><time>2026-04-18T17:02:30.995Z</time></trkpt><trkpt lat="44.7438967" lon="10.7647617"><ele>33.0</ele><time>2026-04-18T17:02:31.995Z</time></trkpt><trkpt lat="44.743725" lon="10.764685"><ele>33.0</ele><time>2026-04-18T17:02:32.994Z</time></trkpt><trkpt lat="44.7435533" lon="10.7646083"><ele>33.0</ele><time>2026-04-18T17:02:33.994Z</time></trkpt><trkpt lat="44.7433767" lon="10.764535"><ele>33.666666666666664</ele><time>2026-04-18T17:02:34.995Z</time></trkpt><trkpt lat="44.7432" lon="10.7644733"><ele>34.33333333333333</ele><time>2026-04-18T17:02:35.994Z</time></trkpt><trkpt lat="44.7430117" lon="10.7644333"><ele>35.0</ele><time>2026-04-18T17:02:36.995Z</time></trkpt><trkpt lat="44.7428117" lon="10.764405"><ele>34.5</ele><time>2026-04-18T17:02:37.995Z</time></trkpt><trkpt lat="44.7425983" lon="10.76438"><ele>34.0</ele><time>2026-04-18T17:02:38.995Z</time></trkpt><trkpt lat="44.74236" lon="10.7643617"><ele>35.0</ele><time>2026-04-18T17:02:39.994Z</time></trkpt><trkpt lat="44.7421283" lon="10.7643483"><ele>36.0</ele><time>2026-04-18T17:02:40.995Z</time></trkpt><trkpt lat="44.7418967" lon="10.76433"><ele>35.0</ele><time>2026-04-18T17:02:41.995Z</time></trkpt><trkpt lat="44.7416883" lon="10.764315"><ele>34.0</ele><time>2026-04-18T17:02:42.994Z</time></trkpt><trkpt lat="44.741505" lon="10.76429"><ele>33.0</ele><time>2026-04-18T17:02:43.995Z</time></trkpt><trkpt lat="44.741335" lon="10.76427"><ele>33.0</ele><time>2026-04-18T17:02:44.994Z</time></trkpt><trkpt lat="44.7411783" lon="10.7642467"><ele>33.0</ele><time>2026-04-18T17:02:45.995Z</time></trkpt><trkpt lat="44.7410267" lon="10.7641983"><ele>33.0</ele><time>2026-04-18T17:02:46.994Z</time></trkpt><trkpt lat="44.7408717" lon="10.7641183"><ele>33.0</ele><time>2026-04-18T17:02:47.995Z</time></trkpt><trkpt lat="44.74072" lon="10.7640067"><ele>33.0</ele><time>2026-04-18T17:02:48.994Z</time></trkpt><trkpt lat="44.7405817" lon="10.763855"><ele>33.0</ele><time>2026-04-18T17:02:49.995Z</time></trkpt><trkpt lat="44.7404417" lon="10.763675"><ele>33.0</ele><time>2026-04-18T17:02:50.995Z</time></trkpt><trkpt lat="44.7402967" lon="10.7634817"><ele>33.0</ele><time>2026-04-18T17:02:51.994Z</time></trkpt><trkpt lat="44.7401483" lon="10.7632817"><ele>33.0</ele><time>2026-04-18T17:02:52.994Z</time></trkpt><trkpt lat="44.74" lon="10.7630833"><ele>33.0</ele><time>2026-04-18T17:02:53.994Z</time></trkpt><trkpt lat="44.7398483" lon="10.762895"><ele>33.0</ele><time>2026-04-18T17:02:54.994Z</time></trkpt><trkpt lat="44.7397017" lon="10.7626967"><ele>33.0</ele><time>2026-04-18T17:02:55.995Z</time></trkpt><trkpt lat="44.7395633" lon="10.762485"><ele>33.333333333333336</ele><time>2026-04-18T17:02:56.994Z</time></trkpt><trkpt lat="44.7394333" lon="10.762265"><ele>33.66666666666667</ele><time>2026-04-18T17:02:57.994Z</time></trkpt><trkpt lat="44.7392883" lon="10.7620467"><ele>34.0</ele><time>2026-04-18T17:02:58.995Z</time></trkpt><trkpt lat="44.73912" lon="10.761835"><ele>34.5</ele><time>2026-04-18T17:02:59.994Z</time></trkpt><trkpt lat="44.738925" lon="10.7616233"><ele>35.0</ele><time>2026-04-18T17:03:00.994Z</time></trkpt><trkpt lat="44.7387133" lon="10.7614083"><ele>34.0</ele><time>2026-04-18T17:03:01.995Z</time></trkpt><trkpt lat="44.7385" lon="10.7611883"><ele>33.0</ele><time>2026-04-18T17:03:02.994Z</time></trkpt><trkpt lat="44.7382883" lon="10.7609517"><ele>33.0</ele><time>2026-04-18T17:03:03.994Z</time></trkpt><trkpt lat="44.738085" lon="10.7606883"><ele>33.0</ele><time>2026-04-18T17:03:04.994Z</time></trkpt><trkpt lat="44.7378933" lon="10.7604117"><ele>33.0</ele><time>2026-04-18T17:03:05.994Z</time></trkpt><trkpt lat="44.7377183" lon="10.76015"><ele>33.0</ele><time>2026-04-18T17:03:06.995Z</time></trkpt><trkpt lat="44.7375533" lon="10.7599083"><ele>33.0</ele><time>2026-04-18T17:03:07.994Z</time></trkpt><trkpt lat="44.73739" lon="10.759655"><ele>33.0</ele><time>2026-04-18T17:03:08.994Z</time></trkpt><trkpt lat="44.7372417" lon="10.759435"><ele>33.0</ele><time>2026-04-18T17:03:09.994Z</time></trkpt><trkpt lat="44.7370817" lon="10.7592033"><ele>33.0</ele><time>2026-04-18T17:03:10.994Z</time></trkpt><trkpt lat="44.7369317" lon="10.7589917"><ele>33.0</ele><time>2026-04-18T17:03:11.994Z</time></trkpt><trkpt lat="44.73678" lon="10.75878"><ele>33.333333333333336</ele><time>2026-04-18T17:03:12.994Z</time></trkpt><trkpt lat="44.7366283" lon="10.7586"><ele>33.66666666666667</ele><time>2026-04-18T17:03:13.995Z</time></trkpt><trkpt lat="44.7364667" lon="10.75844"><ele>34.0</ele><time>2026-04-18T17:03:14.995Z</time></trkpt><trkpt lat="44.7362833" lon="10.7583067"><ele>34.0</ele><time>2026-04-18T17:03:15.995Z</time></trkpt><trkpt lat="44.7360783" lon="10.7581883"><ele>34.0</ele><time>2026-04-18T17:03:16.994Z</time></trkpt><trkpt lat="44.7358683" lon="10.7580683"><ele>34.0</ele><time>2026-04-18T17:03:17.995Z</time></trkpt><trkpt lat="44.7356367" lon="10.75794"><ele>34.5</ele><time>2026-04-18T17:03:18.994Z</time></trkpt><trkpt lat="44.7354183" lon="10.7578267"><ele>35.0</ele><time>2026-04-18T17:03:19.995Z</time></trkpt><trkpt lat="44.735215" lon="10.757715"><ele>34.33333333333333</ele><time>2026-04-18T17:03:20.994Z</time></trkpt><trkpt lat="44.7350217" lon="10.7576133"><ele>33.666666666666664</ele><time>2026-04-18T17:03:21.994Z</time></trkpt><trkpt lat="44.73484" lon="10.7575183"><ele>33.0</ele><time>2026-04-18T17:03:22.994Z</time></trkpt><trkpt lat="44.734675" lon="10.7574283"><ele>33.0</ele><time>2026-04-18T17:03:23.994Z</time></trkpt><trkpt lat="44.7345283" lon="10.75735"><ele>33.0</ele><time>2026-04-18T17:03:24.994Z</time></trkpt><trkpt lat="44.7344017" lon="10.757285"><ele>33.0</ele><time>2026-04-18T17:03:25.994Z</time></trkpt><trkpt lat="44.7342983" lon="10.7572317"><ele>33.0</ele><time>2026-04-18T17:03:26.995Z</time></trkpt><trkpt lat="44.734215" lon="10.7571917"><ele>33.0</ele><time>2026-04-18T17:03:27.995Z</time></trkpt><trkpt lat="44.7341467" lon="10.7571633"><ele>33.0</ele><time>2026-04-18T17:03:28.995Z</time></trkpt><trkpt lat="44.7340483" lon="10.7571233"><ele>33.0</ele><time>2026-04-18T17:03:30.995Z</time></trkpt><trkpt lat="44.7339733" lon="10.7571417"><ele>33.0</ele><time>2026-04-18T17:03:33.995Z</time></trkpt><trkpt lat="44.7339433" lon="10.75727"><ele>33.0</ele><time>2026-04-18T17:03:35.994Z</time></trkpt><trkpt lat="44.7339333" lon="10.7573683"><ele>33.0</ele><time>2026-04-18T17:03:36.994Z</time></trkpt><trkpt lat="44.7339233" lon="10.7574983"><ele>33.0</ele><time>2026-04-18T17:03:37.994Z</time></trkpt><trkpt lat="44.7339083" lon="10.7576517"><ele>33.0</ele><time>2026-04-18T17:03:38.994Z</time></trkpt><trkpt lat="44.7338917" lon="10.757815"><ele>33.0</ele><time>2026-04-18T17:03:39.995Z</time></trkpt><trkpt lat="44.733875" lon="10.7579933"><ele>33.0</ele><time>2026-04-18T17:03:40.994Z</time></trkpt><trkpt lat="44.73386" lon="10.7581767"><ele>33.25</ele><time>2026-04-18T17:03:41.994Z</time></trkpt><trkpt lat="44.733845" lon="10.758365"><ele>33.5</ele><time>2026-04-18T17:03:42.995Z</time></trkpt><trkpt lat="44.7338183" lon="10.7585583"><ele>33.75</ele><time>2026-04-18T17:03:43.994Z</time></trkpt><trkpt lat="44.7337867" lon="10.7587433"><ele>34.0</ele><time>2026-04-18T17:03:44.995Z</time></trkpt><trkpt lat="44.733755" lon="10.75892"><ele>34.25</ele><time>2026-04-18T17:03:45.994Z</time></trkpt><trkpt lat="44.733715" lon="10.75908"><ele>34.5</ele><time>2026-04-18T17:03:46.994Z</time></trkpt><trkpt lat="44.7336767" lon="10.7592383"><ele>34.75</ele><time>2026-04-18T17:03:47.994Z</time></trkpt><trkpt lat="44.7336383" lon="10.7594033"><ele>35.0</ele><time>2026-04-18T17:03:48.994Z</time></trkpt><trkpt lat="44.7335967" lon="10.7595733"><ele>35.25</ele><time>2026-04-18T17:03:49.994Z</time></trkpt><trkpt lat="44.7335533" lon="10.7597467"><ele>35.5</ele><time>2026-04-18T17:03:50.994Z</time></trkpt><trkpt lat="44.733515" lon="10.7599317"><ele>35.75</ele><time>2026-04-18T17:03:51.995Z</time></trkpt><trkpt lat="44.73348" lon="10.760125"><ele>36.0</ele><time>2026-04-18T17:03:52.995Z</time></trkpt><trkpt lat="44.733445" lon="10.7603267"><ele>36.0</ele><time>2026-04-18T17:03:53.995Z</time></trkpt><trkpt lat="44.7334183" lon="10.760535"><ele>36.0</ele><time>2026-04-18T17:03:54.994Z</time></trkpt><trkpt lat="44.7333867" lon="10.7607383"><ele>36.0</ele><time>2026-04-18T17:03:55.994Z</time></trkpt><trkpt lat="44.7333583" lon="10.76095"><ele>36.0</ele><time>2026-04-18T17:03:56.994Z</time></trkpt><trkpt lat="44.7332983" lon="10.7613683"><ele>36.0</ele><time>2026-04-18T17:03:58.995Z</time></trkpt><trkpt lat="44.7332633" lon="10.761575"><ele>36.0</ele><time>2026-04-18T17:03:59.994Z</time></trkpt><trkpt lat="44.7332333" lon="10.7618"><ele>36.0</ele><time>2026-04-18T17:04:00.994Z</time></trkpt><trkpt lat="44.7332" lon="10.7620267"><ele>36.0</ele><time>2026-04-18T17:04:01.995Z</time></trkpt><trkpt lat="44.7331733" lon="10.7622633"><ele>36.0</ele><time>2026-04-18T17:04:02.995Z</time></trkpt><trkpt lat="44.7331417" lon="10.7624983"><ele>36.0</ele><time>2026-04-18T17:04:03.994Z</time></trkpt><trkpt lat="44.7331167" lon="10.7627183"><ele>36.0</ele><time>2026-04-18T17:04:04.994Z</time></trkpt><trkpt lat="44.7330867" lon="10.7629233"><ele>36.0</ele><time>2026-04-18T17:04:05.995Z</time></trkpt><trkpt lat="44.73306" lon="10.7631217"><ele>36.0</ele><time>2026-04-18T17:04:06.995Z</time></trkpt><trkpt lat="44.73304" lon="10.7633083"><ele>36.0</ele><time>2026-04-18T17:04:07.995Z</time></trkpt><trkpt lat="44.7330217" lon="10.7634933"><ele>36.0</ele><time>2026-04-18T17:04:08.995Z</time></trkpt><trkpt lat="44.7330117" lon="10.7636717"><ele>35.75</ele><time>2026-04-18T17:04:09.994Z</time></trkpt><trkpt lat="44.7330117" lon="10.7638433"><ele>35.5</ele><time>2026-04-18T17:04:10.995Z</time></trkpt><trkpt lat="44.7330267" lon="10.7640217"><ele>35.25</ele><time>2026-04-18T17:04:11.994Z</time></trkpt><trkpt lat="44.7330517" lon="10.7641933"><ele>35.0</ele><time>2026-04-18T17:04:12.995Z</time></trkpt><trkpt lat="44.7330967" lon="10.7643667"><ele>34.75</ele><time>2026-04-18T17:04:13.995Z</time></trkpt><trkpt lat="44.73316" lon="10.76453"><ele>34.5</ele><time>2026-04-18T17:04:14.995Z</time></trkpt><trkpt lat="44.7332417" lon="10.7646883"><ele>34.25</ele><time>2026-04-18T17:04:15.995Z</time></trkpt><trkpt lat="44.7333417" lon="10.7648433"><ele>34.0</ele><time>2026-04-18T17:04:16.995Z</time></trkpt><trkpt lat="44.73344" lon="10.7649917"><ele>34.0</ele><time>2026-04-18T17:04:17.994Z</time></trkpt><trkpt lat="44.7335317" lon="10.7651283"><ele>34.0</ele><time>2026-04-18T17:04:18.995Z</time></trkpt><trkpt lat="44.7336133" lon="10.7652583"><ele>34.0</ele><time>2026-04-18T17:04:19.995Z</time></trkpt><trkpt lat="44.7336867" lon="10.765405"><ele>34.0</ele><time>2026-04-18T17:04:20.994Z</time></trkpt><trkpt lat="44.733745" lon="10.7655517"><ele>34.0</ele><time>2026-04-18T17:04:21.995Z</time></trkpt><trkpt lat="44.7337883" lon="10.7656917"><ele>34.0</ele><time>2026-04-18T17:04:22.994Z</time></trkpt><trkpt lat="44.733815" lon="10.76583"><ele>34.0</ele><time>2026-04-18T17:04:23.995Z</time></trkpt><trkpt lat="44.7338317" lon="10.7659367"><ele>34.0</ele><time>2026-04-18T17:04:24.995Z</time></trkpt><trkpt lat="44.7338383" lon="10.7660317"><ele>34.0</ele><time>2026-04-18T17:04:25.995Z</time></trkpt><trkpt lat="44.7337867" lon="10.7661983"><ele>34.2</ele><time>2026-04-18T17:04:27.994Z</time></trkpt><trkpt lat="44.733725" lon="10.7662783"><ele>34.4</ele><time>2026-04-18T17:04:28.995Z</time></trkpt><trkpt lat="44.7336367" lon="10.76636"><ele>34.6</ele><time>2026-04-18T17:04:29.995Z</time></trkpt><trkpt lat="44.73352" lon="10.7664183"><ele>34.8</ele><time>2026-04-18T17:04:30.994Z</time></trkpt><trkpt lat="44.733395" lon="10.76646"><ele>35.0</ele><time>2026-04-18T17:04:31.995Z</time></trkpt><trkpt lat="44.7332533" lon="10.76647"><ele>34.0</ele><time>2026-04-18T17:04:32.995Z</time></trkpt><trkpt lat="44.7331033" lon="10.766465"><ele>33.0</ele><time>2026-04-18T17:04:33.994Z</time></trkpt><trkpt lat="44.732935" lon="10.7664433"><ele>32.0</ele><time>2026-04-18T17:04:34.995Z</time></trkpt><trkpt lat="44.7327633" lon="10.7664217"><ele>32.33333333333333</ele><time>2026-04-18T17:04:35.995Z</time></trkpt><trkpt lat="44.7325783" lon="10.7664"><ele>32.666666666666664</ele><time>2026-04-18T17:04:36.995Z</time></trkpt><trkpt lat="44.7323833" lon="10.7663767"><ele>33.0</ele><time>2026-04-18T17:04:37.995Z</time></trkpt><trkpt lat="44.7321867" lon="10.766355"><ele>33.0</ele><time>2026-04-18T17:04:38.995Z</time></trkpt><trkpt lat="44.7319933" lon="10.76633"><ele>33.0</ele><time>2026-04-18T17:04:39.995Z</time></trkpt><trkpt lat="44.7317933" lon="10.7663"><ele>33.0</ele><time>2026-04-18T17:04:40.994Z</time></trkpt><trkpt lat="44.731605" lon="10.766265"><ele>33.333333333333336</ele><time>2026-04-18T17:04:41.994Z</time></trkpt><trkpt lat="44.7314167" lon="10.7662383"><ele>33.66666666666667</ele><time>2026-04-18T17:04:42.994Z</time></trkpt><trkpt lat="44.731225" lon="10.7662117"><ele>34.0</ele><time>2026-04-18T17:04:43.994Z</time></trkpt><trkpt lat="44.731035" lon="10.7661917"><ele>34.0</ele><time>2026-04-18T17:04:44.994Z</time></trkpt><trkpt lat="44.7308417" lon="10.76617"><ele>34.0</ele><time>2026-04-18T17:04:45.995Z</time></trkpt><trkpt lat="44.7306467" lon="10.766155"><ele>34.0</ele><time>2026-04-18T17:04:46.995Z</time></trkpt><trkpt lat="44.730445" lon="10.7661333"><ele>34.0</ele><time>2026-04-18T17:04:47.994Z</time></trkpt><trkpt lat="44.7302417" lon="10.7661083"><ele>34.0</ele><time>2026-04-18T17:04:48.995Z</time></trkpt><trkpt lat="44.7300483" lon="10.7660867"><ele>34.0</ele><time>2026-04-18T17:04:49.994Z</time></trkpt><trkpt lat="44.7298617" lon="10.7660633"><ele>34.0</ele><time>2026-04-18T17:04:50.995Z</time></trkpt><trkpt lat="44.729675" lon="10.76604"><ele>34.0</ele><time>2026-04-18T17:04:51.995Z</time></trkpt><trkpt lat="44.729495" lon="10.7660083"><ele>34.0</ele><time>2026-04-18T17:04:52.994Z</time></trkpt><trkpt lat="44.72932" lon="10.7659683"><ele>34.333333333333336</ele><time>2026-04-18T17:04:53.994Z</time></trkpt><trkpt lat="44.7291433" lon="10.7659267"><ele>34.666666666666664</ele><time>2026-04-18T17:04:54.994Z</time></trkpt><trkpt lat="44.7289733" lon="10.7658717"><ele>35.0</ele><time>2026-04-18T17:04:55.994Z</time></trkpt><trkpt lat="44.72881" lon="10.7658083"><ele>35.0</ele><time>2026-04-18T17:04:56.994Z</time></trkpt><trkpt lat="44.72865" lon="10.76574"><ele>35.0</ele><time>2026-04-18T17:04:57.995Z</time></trkpt><trkpt lat="44.7284933" lon="10.765665"><ele>35.0</ele><time>2026-04-18T17:04:58.994Z</time></trkpt><trkpt lat="44.72834" lon="10.765585"><ele>34.666666666666664</ele><time>2026-04-18T17:04:59.994Z</time></trkpt><trkpt lat="44.7281917" lon="10.7655"><ele>34.333333333333336</ele><time>2026-04-18T17:05:00.994Z</time></trkpt><trkpt lat="44.728045" lon="10.7654083"><ele>34.0</ele><time>2026-04-18T17:05:01.995Z</time></trkpt><trkpt lat="44.727905" lon="10.7653117"><ele>34.0</ele><time>2026-04-18T17:05:02.995Z</time></trkpt><trkpt lat="44.7277683" lon="10.7652117"><ele>34.0</ele><time>2026-04-18T17:05:03.995Z</time></trkpt><trkpt lat="44.7276317" lon="10.7651067"><ele>34.0</ele><time>2026-04-18T17:05:04.994Z</time></trkpt><trkpt lat="44.7274917" lon="10.765015"><ele>34.333333333333336</ele><time>2026-04-18T17:05:05.995Z</time></trkpt><trkpt lat="44.7273533" lon="10.7649167"><ele>34.666666666666664</ele><time>2026-04-18T17:05:06.994Z</time></trkpt><trkpt lat="44.727205" lon="10.7648133"><ele>35.0</ele><time>2026-04-18T17:05:07.995Z</time></trkpt><trkpt lat="44.72705" lon="10.7647033"><ele>35.0</ele><time>2026-04-18T17:05:08.995Z</time></trkpt><trkpt lat="44.7268883" lon="10.7645917"><ele>35.0</ele><time>2026-04-18T17:05:09.994Z</time></trkpt><trkpt lat="44.7267267" lon="10.7644817"><ele>35.0</ele><time>2026-04-18T17:05:10.994Z</time></trkpt><trkpt lat="44.72656" lon="10.7643633"><ele>35.33333333333333</ele><time>2026-04-18T17:05:11.994Z</time></trkpt><trkpt lat="44.7263933" lon="10.7642667"><ele>35.666666666666664</ele><time>2026-04-18T17:05:12.995Z</time></trkpt><trkpt lat="44.7262317" lon="10.7641933"><ele>36.0</ele><time>2026-04-18T17:05:13.995Z</time></trkpt><trkpt lat="44.726075" lon="10.7641433"><ele>35.333333333333336</ele><time>2026-04-18T17:05:14.995Z</time></trkpt><trkpt lat="44.7259183" lon="10.7641067"><ele>34.66666666666667</ele><time>2026-04-18T17:05:15.995Z</time></trkpt><trkpt lat="44.7257617" lon="10.7640867"><ele>34.0</ele><time>2026-04-18T17:05:16.994Z</time></trkpt><trkpt lat="44.72561" lon="10.7640817"><ele>34.0</ele><time>2026-04-18T17:05:17.994Z</time></trkpt><trkpt lat="44.7254667" lon="10.7640983"><ele>34.0</ele><time>2026-04-18T17:05:18.994Z</time></trkpt><trkpt lat="44.725335" lon="10.7641267"><ele>34.0</ele><time>2026-04-18T17:05:19.994Z</time></trkpt><trkpt lat="44.7252067" lon="10.7641717"><ele>34.0</ele><time>2026-04-18T17:05:20.994Z</time></trkpt><trkpt lat="44.72499" lon="10.7642667"><ele>34.4</ele><time>2026-04-18T17:05:22.995Z</time></trkpt><trkpt lat="44.72489" lon="10.764315"><ele>34.8</ele><time>2026-04-18T17:05:23.994Z</time></trkpt><trkpt lat="44.7248017" lon="10.76436"><ele>35.2</ele><time>2026-04-18T17:05:24.994Z</time></trkpt><trkpt lat="44.72472" lon="10.7644083"><ele>35.6</ele><time>2026-04-18T17:05:25.995Z</time></trkpt><trkpt lat="44.7246433" lon="10.7644517"><ele>36.0</ele><time>2026-04-18T17:05:26.994Z</time></trkpt><trkpt lat="44.7245683" lon="10.764485"><ele>36.0</ele><time>2026-04-18T17:05:27.994Z</time></trkpt><trkpt lat="44.724485" lon="10.764505"><ele>36.0</ele><time>2026-04-18T17:05:28.995Z</time></trkpt><trkpt lat="44.724395" lon="10.7644933"><ele>36.0</ele><time>2026-04-18T17:05:29.995Z</time></trkpt><trkpt lat="44.7242917" lon="10.7644583"><ele>36.0</ele><time>2026-04-18T17:05:30.995Z</time></trkpt><trkpt lat="44.7241833" lon="10.7644333"><ele>36.0</ele><time>2026-04-18T17:05:31.995Z</time></trkpt><trkpt lat="44.7240817" lon="10.7644517"><ele>35.6</ele><time>2026-04-18T17:05:32.995Z</time></trkpt><trkpt lat="44.7239833" lon="10.76451"><ele>35.2</ele><time>2026-04-18T17:05:33.995Z</time></trkpt><trkpt lat="44.7239067" lon="10.7646117"><ele>34.8</ele><time>2026-04-18T17:05:34.995Z</time></trkpt><trkpt lat="44.7238583" lon="10.7647383"><ele>34.4</ele><time>2026-04-18T17:05:35.994Z</time></trkpt><trkpt lat="44.723845" lon="10.76489"><ele>34.0</ele><time>2026-04-18T17:05:36.994Z</time></trkpt><trkpt lat="44.723865" lon="10.7650567"><ele>34.25</ele><time>2026-04-18T17:05:37.994Z</time></trkpt><trkpt lat="44.7238917" lon="10.7652383"><ele>34.5</ele><time>2026-04-18T17:05:38.995Z</time></trkpt><trkpt lat="44.7239117" lon="10.76544"><ele>34.75</ele><time>2026-04-18T17:05:39.995Z</time></trkpt><trkpt lat="44.7239033" lon="10.7656667"><ele>35.0</ele><time>2026-04-18T17:05:40.995Z</time></trkpt><trkpt lat="44.723865" lon="10.7659"><ele>35.5</ele><time>2026-04-18T17:05:41.994Z</time></trkpt><trkpt lat="44.7237417" lon="10.7663667"><ele>36.0</ele><time>2026-04-18T17:05:43.995Z</time></trkpt><trkpt lat="44.7236667" lon="10.7666017"><ele>36.0</ele><time>2026-04-18T17:05:44.994Z</time></trkpt><trkpt lat="44.7235733" lon="10.7668367"><ele>36.0</ele><time>2026-04-18T17:05:45.993Z</time></trkpt><trkpt lat="44.7234667" lon="10.7670633"><ele>36.0</ele><time>2026-04-18T17:05:46.994Z</time></trkpt><trkpt lat="44.7233517" lon="10.7672867"><ele>35.666666666666664</ele><time>2026-04-18T17:05:47.993Z</time></trkpt><trkpt lat="44.72322" lon="10.7674883"><ele>35.33333333333333</ele><time>2026-04-18T17:05:48.993Z</time></trkpt><trkpt lat="44.7230817" lon="10.76768"><ele>35.0</ele><time>2026-04-18T17:05:49.994Z</time></trkpt><trkpt lat="44.72293" lon="10.767865"><ele>35.0</ele><time>2026-04-18T17:05:50.993Z</time></trkpt><trkpt lat="44.7227617" lon="10.76803"><ele>35.0</ele><time>2026-04-18T17:05:51.993Z</time></trkpt><trkpt lat="44.7225867" lon="10.7681833"><ele>35.0</ele><time>2026-04-18T17:05:52.994Z</time></trkpt><trkpt lat="44.7224083" lon="10.768335"><ele>35.0</ele><time>2026-04-18T17:05:53.993Z</time></trkpt><trkpt lat="44.72222" lon="10.768485"><ele>35.0</ele><time>2026-04-18T17:05:54.994Z</time></trkpt><trkpt lat="44.72203" lon="10.7686367"><ele>35.0</ele><time>2026-04-18T17:05:55.994Z</time></trkpt><trkpt lat="44.72184" lon="10.7687867"><ele>34.666666666666664</ele><time>2026-04-18T17:05:56.993Z</time></trkpt><trkpt lat="44.72165" lon="10.7689367"><ele>34.333333333333336</ele><time>2026-04-18T17:05:57.994Z</time></trkpt><trkpt lat="44.7214567" lon="10.7690883"><ele>34.0</ele><time>2026-04-18T17:05:58.994Z</time></trkpt><trkpt lat="44.721265" lon="10.7692433"><ele>34.5</ele><time>2026-04-18T17:05:59.993Z</time></trkpt><trkpt lat="44.721065" lon="10.7693967"><ele>35.0</ele><time>2026-04-18T17:06:00.994Z</time></trkpt><trkpt lat="44.7208683" lon="10.76955"><ele>35.0</ele><time>2026-04-18T17:06:01.993Z</time></trkpt><trkpt lat="44.7206683" lon="10.769705"><ele>35.0</ele><time>2026-04-18T17:06:02.994Z</time></trkpt><trkpt lat="44.7204683" lon="10.7698533"><ele>35.0</ele><time>2026-04-18T17:06:03.994Z</time></trkpt><trkpt lat="44.7202733" lon="10.7700067"><ele>35.0</ele><time>2026-04-18T17:06:04.994Z</time></trkpt><trkpt lat="44.7200767" lon="10.7701617"><ele>35.0</ele><time>2026-04-18T17:06:05.994Z</time></trkpt><trkpt lat="44.7198783" lon="10.7703183"><ele>35.0</ele><time>2026-04-18T17:06:06.993Z</time></trkpt><trkpt lat="44.7196867" lon="10.770465"><ele>35.0</ele><time>2026-04-18T17:06:07.993Z</time></trkpt><trkpt lat="44.7195" lon="10.7706083"><ele>35.0</ele><time>2026-04-18T17:06:08.994Z</time></trkpt><trkpt lat="44.7193117" lon="10.7707533"><ele>34.666666666666664</ele><time>2026-04-18T17:06:09.993Z</time></trkpt><trkpt lat="44.7191317" lon="10.770905"><ele>34.333333333333336</ele><time>2026-04-18T17:06:10.994Z</time></trkpt><trkpt lat="44.7189567" lon="10.7710517"><ele>34.0</ele><time>2026-04-18T17:06:11.993Z</time></trkpt><trkpt lat="44.71878" lon="10.7712067"><ele>34.0</ele><time>2026-04-18T17:06:12.993Z</time></trkpt><trkpt lat="44.7186167" lon="10.7713683"><ele>34.0</ele><time>2026-04-18T17:06:13.993Z</time></trkpt><trkpt lat="44.7184567" lon="10.771545"><ele>34.0</ele><time>2026-04-18T17:06:14.993Z</time></trkpt><trkpt lat="44.7183" lon="10.7717417"><ele>34.0</ele><time>2026-04-18T17:06:15.994Z</time></trkpt><trkpt lat="44.7181383" lon="10.771945"><ele>34.0</ele><time>2026-04-18T17:06:16.994Z</time></trkpt><trkpt lat="44.7179867" lon="10.77216"><ele>34.0</ele><time>2026-04-18T17:06:17.994Z</time></trkpt><trkpt lat="44.7178483" lon="10.7723917"><ele>34.333333333333336</ele><time>2026-04-18T17:06:18.993Z</time></trkpt><trkpt lat="44.717695" lon="10.7726167"><ele>34.666666666666664</ele><time>2026-04-18T17:06:19.994Z</time></trkpt><trkpt lat="44.7175433" lon="10.772855"><ele>35.0</ele><time>2026-04-18T17:06:20.993Z</time></trkpt><trkpt lat="44.7173917" lon="10.7730817"><ele>35.0</ele><time>2026-04-18T17:06:21.994Z</time></trkpt><trkpt lat="44.7172383" lon="10.7733133"><ele>35.0</ele><time>2026-04-18T17:06:22.993Z</time></trkpt><trkpt lat="44.7170767" lon="10.77355"><ele>35.0</ele><time>2026-04-18T17:06:23.993Z</time></trkpt><trkpt lat="44.7169217" lon="10.7737883"><ele>35.0</ele><time>2026-04-18T17:06:24.993Z</time></trkpt><trkpt lat="44.7167717" lon="10.77403"><ele>35.0</ele><time>2026-04-18T17:06:25.993Z</time></trkpt><trkpt lat="44.7166233" lon="10.774265"><ele>35.0</ele><time>2026-04-18T17:06:26.993Z</time></trkpt><trkpt lat="44.7164717" lon="10.7744933"><ele>35.0</ele><time>2026-04-18T17:06:27.993Z</time></trkpt><trkpt lat="44.7163183" lon="10.77473"><ele>35.0</ele><time>2026-04-18T17:06:28.994Z</time></trkpt><trkpt lat="44.7161633" lon="10.774955"><ele>35.0</ele><time>2026-04-18T17:06:29.994Z</time></trkpt><trkpt lat="44.7160217" lon="10.775175"><ele>35.0</ele><time>2026-04-18T17:06:30.994Z</time></trkpt><trkpt lat="44.715885" lon="10.775385"><ele>35.666666666666664</ele><time>2026-04-18T17:06:31.994Z</time></trkpt><trkpt lat="44.715745" lon="10.7756017"><ele>36.333333333333336</ele><time>2026-04-18T17:06:32.994Z</time></trkpt><trkpt lat="44.7156117" lon="10.7758083"><ele>37.0</ele><time>2026-04-18T17:06:33.994Z</time></trkpt><trkpt lat="44.715475" lon="10.77601"><ele>37.0</ele><time>2026-04-18T17:06:34.994Z</time></trkpt><trkpt lat="44.7153433" lon="10.77621"><ele>37.0</ele><time>2026-04-18T17:06:35.994Z</time></trkpt><trkpt lat="44.71522" lon="10.7764033"><ele>37.0</ele><time>2026-04-18T17:06:36.994Z</time></trkpt><trkpt lat="44.7150933" lon="10.7765883"><ele>37.0</ele><time>2026-04-18T17:06:37.994Z</time></trkpt><trkpt lat="44.714965" lon="10.7767717"><ele>37.0</ele><time>2026-04-18T17:06:38.993Z</time></trkpt><trkpt lat="44.7148417" lon="10.776955"><ele>37.0</ele><time>2026-04-18T17:06:39.993Z</time></trkpt><trkpt lat="44.7147283" lon="10.7771367"><ele>37.0</ele><time>2026-04-18T17:06:40.993Z</time></trkpt><trkpt lat="44.7146233" lon="10.7773333"><ele>37.0</ele><time>2026-04-18T17:06:41.994Z</time></trkpt><trkpt lat="44.71454" lon="10.7775433"><ele>37.0</ele><time>2026-04-18T17:06:42.994Z</time></trkpt><trkpt lat="44.71448" lon="10.7777667"><ele>37.0</ele><time>2026-04-18T17:06:43.993Z</time></trkpt><trkpt lat="44.7144383" lon="10.7780133"><ele>37.0</ele><time>2026-04-18T17:06:44.994Z</time></trkpt><trkpt lat="44.714415" lon="10.7782633"><ele>37.0</ele><time>2026-04-18T17:06:45.993Z</time></trkpt><trkpt lat="44.7144083" lon="10.77852"><ele>36.66666666666667</ele><time>2026-04-18T17:06:46.994Z</time></trkpt><trkpt lat="44.71442" lon="10.7787817"><ele>36.333333333333336</ele><time>2026-04-18T17:06:47.994Z</time></trkpt><trkpt lat="44.714445" lon="10.7790417"><ele>36.0</ele><time>2026-04-18T17:06:48.994Z</time></trkpt><trkpt lat="44.7144783" lon="10.7793033"><ele>35.666666666666664</ele><time>2026-04-18T17:06:49.993Z</time></trkpt><trkpt lat="44.7145117" lon="10.77957"><ele>35.33333333333333</ele><time>2026-04-18T17:06:50.993Z</time></trkpt><trkpt lat="44.7145433" lon="10.7798383"><ele>35.0</ele><time>2026-04-18T17:06:51.993Z</time></trkpt><trkpt lat="44.7145717" lon="10.7801033"><ele>35.33333333333333</ele><time>2026-04-18T17:06:52.993Z</time></trkpt><trkpt lat="44.7146067" lon="10.78037"><ele>35.666666666666664</ele><time>2026-04-18T17:06:53.993Z</time></trkpt><trkpt lat="44.71464" lon="10.78063"><ele>36.0</ele><time>2026-04-18T17:06:54.993Z</time></trkpt><trkpt lat="44.7146717" lon="10.7808833"><ele>35.666666666666664</ele><time>2026-04-18T17:06:55.993Z</time></trkpt><trkpt lat="44.7147067" lon="10.7811433"><ele>35.33333333333333</ele><time>2026-04-18T17:06:56.993Z</time></trkpt><trkpt lat="44.71474" lon="10.7813967"><ele>35.0</ele><time>2026-04-18T17:06:57.993Z</time></trkpt><trkpt lat="44.714775" lon="10.7816383"><ele>36.0</ele><time>2026-04-18T17:06:58.994Z</time></trkpt><trkpt lat="44.7148083" lon="10.7818783"><ele>37.0</ele><time>2026-04-18T17:06:59.993Z</time></trkpt><trkpt lat="44.7148383" lon="10.782115"><ele>38.0</ele><time>2026-04-18T17:07:00.993Z</time></trkpt><trkpt lat="44.71487" lon="10.78234"><ele>38.0</ele><time>2026-04-18T17:07:01.993Z</time></trkpt><trkpt lat="44.7148983" lon="10.7825617"><ele>38.0</ele><time>2026-04-18T17:07:02.993Z</time></trkpt><trkpt lat="44.71492" lon="10.7827567"><ele>38.0</ele><time>2026-04-18T17:07:03.993Z</time></trkpt><trkpt lat="44.714945" lon="10.7829317"><ele>38.0</ele><time>2026-04-18T17:07:04.994Z</time></trkpt><trkpt lat="44.7149583" lon="10.7830867"><ele>37.83333333333333</ele><time>2026-04-18T17:07:05.994Z</time></trkpt><trkpt lat="44.7149617" lon="10.783225"><ele>37.666666666666664</ele><time>2026-04-18T17:07:06.993Z</time></trkpt><trkpt lat="44.7149467" lon="10.783345"><ele>37.5</ele><time>2026-04-18T17:07:07.994Z</time></trkpt><trkpt lat="44.71492" lon="10.78345"><ele>37.333333333333336</ele><time>2026-04-18T17:07:08.993Z</time></trkpt><trkpt lat="44.71486" lon="10.7835517"><ele>37.16666666666667</ele><time>2026-04-18T17:07:09.993Z</time></trkpt><trkpt lat="44.7147883" lon="10.7836267"><ele>37.0</ele><time>2026-04-18T17:07:10.992Z</time></trkpt><trkpt lat="44.71469" lon="10.78367"><ele>36.75</ele><time>2026-04-18T17:07:11.994Z</time></trkpt><trkpt lat="44.7145717" lon="10.7836717"><ele>36.5</ele><time>2026-04-18T17:07:12.993Z</time></trkpt><trkpt lat="44.7144383" lon="10.7836567"><ele>36.25</ele><time>2026-04-18T17:07:13.994Z</time></trkpt><trkpt lat="44.71429" lon="10.78366"><ele>36.0</ele><time>2026-04-18T17:07:14.994Z</time></trkpt><trkpt lat="44.7141333" lon="10.7836767"><ele>36.0</ele><time>2026-04-18T17:07:15.994Z</time></trkpt><trkpt lat="44.713965" lon="10.78369"><ele>36.0</ele><time>2026-04-18T17:07:16.994Z</time></trkpt><trkpt lat="44.7137917" lon="10.783695"><ele>36.0</ele><time>2026-04-18T17:07:17.993Z</time></trkpt><trkpt lat="44.7136183" lon="10.7837067"><ele>36.0</ele><time>2026-04-18T17:07:18.994Z</time></trkpt><trkpt lat="44.71344" lon="10.7837317"><ele>36.0</ele><time>2026-04-18T17:07:19.994Z</time></trkpt><trkpt lat="44.713255" lon="10.7837617"><ele>36.0</ele><time>2026-04-18T17:07:20.993Z</time></trkpt><trkpt lat="44.7130667" lon="10.7838067"><ele>36.0</ele><time>2026-04-18T17:07:21.994Z</time></trkpt><trkpt lat="44.71288" lon="10.7838467"><ele>36.0</ele><time>2026-04-18T17:07:22.994Z</time></trkpt><trkpt lat="44.7127" lon="10.78388"><ele>36.0</ele><time>2026-04-18T17:07:23.993Z</time></trkpt><trkpt lat="44.7125233" lon="10.783925"><ele>36.333333333333336</ele><time>2026-04-18T17:07:24.994Z</time></trkpt><trkpt lat="44.7123517" lon="10.7839717"><ele>36.66666666666667</ele><time>2026-04-18T17:07:25.994Z</time></trkpt><trkpt lat="44.7121833" lon="10.7840333"><ele>37.0</ele><time>2026-04-18T17:07:26.993Z</time></trkpt><trkpt lat="44.711855" lon="10.78416"><ele>37.333333333333336</ele><time>2026-04-18T17:07:28.993Z</time></trkpt><trkpt lat="44.7116933" lon="10.7842367"><ele>37.666666666666664</ele><time>2026-04-18T17:07:29.994Z</time></trkpt><trkpt lat="44.71153" lon="10.7843017"><ele>38.0</ele><time>2026-04-18T17:07:30.993Z</time></trkpt><trkpt lat="44.7113767" lon="10.784365"><ele>38.0</ele><time>2026-04-18T17:07:31.994Z</time></trkpt><trkpt lat="44.7112317" lon="10.784425"><ele>38.0</ele><time>2026-04-18T17:07:32.994Z</time></trkpt><trkpt lat="44.7111017" lon="10.7844833"><ele>38.0</ele><time>2026-04-18T17:07:33.994Z</time></trkpt><trkpt lat="44.7109767" lon="10.7845533"><ele>38.0</ele><time>2026-04-18T17:07:34.994Z</time></trkpt><trkpt lat="44.7108567" lon="10.784635"><ele>38.0</ele><time>2026-04-18T17:07:35.994Z</time></trkpt><trkpt lat="44.71074" lon="10.7847267"><ele>38.0</ele><time>2026-04-18T17:07:36.993Z</time></trkpt><trkpt lat="44.7106183" lon="10.78482"><ele>38.0</ele><time>2026-04-18T17:07:37.993Z</time></trkpt><trkpt lat="44.710485" lon="10.78493"><ele>38.0</ele><time>2026-04-18T17:07:38.994Z</time></trkpt><trkpt lat="44.7103533" lon="10.78504"><ele>38.0</ele><time>2026-04-18T17:07:39.994Z</time></trkpt><trkpt lat="44.7102333" lon="10.785155"><ele>38.0</ele><time>2026-04-18T17:07:40.993Z</time></trkpt><trkpt lat="44.7101233" lon="10.7852567"><ele>38.0</ele><time>2026-04-18T17:07:41.993Z</time></trkpt><trkpt lat="44.71002" lon="10.7853567"><ele>38.0</ele><time>2026-04-18T17:07:42.993Z</time></trkpt><trkpt lat="44.7099217" lon="10.7854533"><ele>38.5</ele><time>2026-04-18T17:07:43.994Z</time></trkpt><trkpt lat="44.7098233" lon="10.78554"><ele>39.0</ele><time>2026-04-18T17:07:44.993Z</time></trkpt><trkpt lat="44.7097233" lon="10.78564"><ele>39.5</ele><time>2026-04-18T17:07:45.993Z</time></trkpt><trkpt lat="44.7096283" lon="10.785765"><ele>40.0</ele><time>2026-04-18T17:07:46.994Z</time></trkpt><trkpt lat="44.709525" lon="10.7859067"><ele>39.5</ele><time>2026-04-18T17:07:47.993Z</time></trkpt><trkpt lat="44.70933" lon="10.78624"><ele>39.0</ele><time>2026-04-18T17:07:49.993Z</time></trkpt><trkpt lat="44.7092333" lon="10.786435"><ele>39.0</ele><time>2026-04-18T17:07:50.993Z</time></trkpt><trkpt lat="44.70916" lon="10.7866383"><ele>39.0</ele><time>2026-04-18T17:07:51.994Z</time></trkpt><trkpt lat="44.7090783" lon="10.78686"><ele>39.0</ele><time>2026-04-18T17:07:52.994Z</time></trkpt><trkpt lat="44.708965" lon="10.7870667"><ele>39.0</ele><time>2026-04-18T17:07:53.993Z</time></trkpt><trkpt lat="44.708835" lon="10.7872617"><ele>39.0</ele><time>2026-04-18T17:07:54.994Z</time></trkpt><trkpt lat="44.7086883" lon="10.7874467"><ele>39.0</ele><time>2026-04-18T17:07:55.993Z</time></trkpt><trkpt lat="44.7085383" lon="10.7876283"><ele>39.0</ele><time>2026-04-18T17:07:56.994Z</time></trkpt><trkpt lat="44.7083983" lon="10.787815"><ele>39.0</ele><time>2026-04-18T17:07:57.994Z</time></trkpt><trkpt lat="44.70827" lon="10.7879917"><ele>39.0</ele><time>2026-04-18T17:07:58.993Z</time></trkpt><trkpt lat="44.7081483" lon="10.7881533"><ele>39.0</ele><time>2026-04-18T17:07:59.994Z</time></trkpt><trkpt lat="44.70801" lon="10.7882983"><ele>39.0</ele><time>2026-04-18T17:08:00.994Z</time></trkpt><trkpt lat="44.7078517" lon="10.78841"><ele>39.0</ele><time>2026-04-18T17:08:01.993Z</time></trkpt><trkpt lat="44.707675" lon="10.78849"><ele>38.333333333333336</ele><time>2026-04-18T17:08:02.994Z</time></trkpt><trkpt lat="44.7074867" lon="10.78856"><ele>37.66666666666667</ele><time>2026-04-18T17:08:03.994Z</time></trkpt><trkpt lat="44.7072917" lon="10.7886283"><ele>37.0</ele><time>2026-04-18T17:08:04.994Z</time></trkpt><trkpt lat="44.7071067" lon="10.7887133"><ele>37.0</ele><time>2026-04-18T17:08:05.993Z</time></trkpt><trkpt lat="44.7069233" lon="10.7887883"><ele>37.0</ele><time>2026-04-18T17:08:06.994Z</time></trkpt><trkpt lat="44.7067433" lon="10.78887"><ele>37.0</ele><time>2026-04-18T17:08:07.994Z</time></trkpt><trkpt lat="44.7065583" lon="10.7889583"><ele>37.0</ele><time>2026-04-18T17:08:08.993Z</time></trkpt><trkpt lat="44.7063767" lon="10.789065"><ele>37.0</ele><time>2026-04-18T17:08:09.993Z</time></trkpt><trkpt lat="44.7061983" lon="10.789185"><ele>37.0</ele><time>2026-04-18T17:08:10.994Z</time></trkpt><trkpt lat="44.70603" lon="10.7893133"><ele>37.0</ele><time>2026-04-18T17:08:11.994Z</time></trkpt><trkpt lat="44.70587" lon="10.789435"><ele>37.0</ele><time>2026-04-18T17:08:12.994Z</time></trkpt><trkpt lat="44.7057183" lon="10.789555"><ele>37.0</ele><time>2026-04-18T17:08:13.994Z</time></trkpt><trkpt lat="44.7055683" lon="10.7896733"><ele>37.0</ele><time>2026-04-18T17:08:14.993Z</time></trkpt><trkpt lat="44.7054117" lon="10.7897717"><ele>37.0</ele><time>2026-04-18T17:08:15.994Z</time></trkpt><trkpt lat="44.7052533" lon="10.7898567"><ele>37.0</ele><time>2026-04-18T17:08:16.994Z</time></trkpt><trkpt lat="44.705105" lon="10.7899017"><ele>37.25</ele><time>2026-04-18T17:08:17.994Z</time></trkpt><trkpt lat="44.7049583" lon="10.7899267"><ele>37.5</ele><time>2026-04-18T17:08:18.993Z</time></trkpt><trkpt lat="44.7048167" lon="10.7899217"><ele>37.75</ele><time>2026-04-18T17:08:19.993Z</time></trkpt><trkpt lat="44.70469" lon="10.7898583"><ele>38.0</ele><time>2026-04-18T17:08:20.993Z</time></trkpt><trkpt lat="44.7045483" lon="10.7897467"><ele>38.0</ele><time>2026-04-18T17:08:21.994Z</time></trkpt><trkpt lat="44.70439" lon="10.7895967"><ele>38.0</ele><time>2026-04-18T17:08:22.994Z</time></trkpt><trkpt lat="44.7042217" lon="10.7894317"><ele>38.0</ele><time>2026-04-18T17:08:23.994Z</time></trkpt><trkpt lat="44.7040367" lon="10.7892567"><ele>38.0</ele><time>2026-04-18T17:08:24.993Z</time></trkpt><trkpt lat="44.7038583" lon="10.7890783"><ele>38.0</ele><time>2026-04-18T17:08:25.994Z</time></trkpt><trkpt lat="44.7036733" lon="10.7888933"><ele>38.0</ele><time>2026-04-18T17:08:26.994Z</time></trkpt><trkpt lat="44.7034967" lon="10.7887167"><ele>38.0</ele><time>2026-04-18T17:08:27.993Z</time></trkpt><trkpt lat="44.70332" lon="10.7885583"><ele>38.0</ele><time>2026-04-18T17:08:28.994Z</time></trkpt><trkpt lat="44.7031417" lon="10.7883933"><ele>38.0</ele><time>2026-04-18T17:08:29.994Z</time></trkpt><trkpt lat="44.7029583" lon="10.7882267"><ele>38.0</ele><time>2026-04-18T17:08:30.993Z</time></trkpt><trkpt lat="44.70277" lon="10.7880717"><ele>38.0</ele><time>2026-04-18T17:08:31.994Z</time></trkpt><trkpt lat="44.7025833" lon="10.78792"><ele>38.0</ele><time>2026-04-18T17:08:32.994Z</time></trkpt><trkpt lat="44.7024067" lon="10.7877717"><ele>38.33333333333333</ele><time>2026-04-18T17:08:33.994Z</time></trkpt><trkpt lat="44.702235" lon="10.7876283"><ele>38.666666666666664</ele><time>2026-04-18T17:08:34.993Z</time></trkpt><trkpt lat="44.702065" lon="10.78749"><ele>39.0</ele><time>2026-04-18T17:08:35.994Z</time></trkpt><trkpt lat="44.7019017" lon="10.7873533"><ele>38.333333333333336</ele><time>2026-04-18T17:08:36.994Z</time></trkpt><trkpt lat="44.70174" lon="10.7872267"><ele>37.66666666666667</ele><time>2026-04-18T17:08:37.993Z</time></trkpt><trkpt lat="44.70158" lon="10.7871033"><ele>37.0</ele><time>2026-04-18T17:08:38.994Z</time></trkpt><trkpt lat="44.701415" lon="10.7869867"><ele>37.0</ele><time>2026-04-18T17:08:39.993Z</time></trkpt><trkpt lat="44.70125" lon="10.78687"><ele>37.0</ele><time>2026-04-18T17:08:40.994Z</time></trkpt><trkpt lat="44.7010817" lon="10.786755"><ele>37.0</ele><time>2026-04-18T17:08:41.994Z</time></trkpt><trkpt lat="44.70092" lon="10.7866567"><ele>37.333333333333336</ele><time>2026-04-18T17:08:42.994Z</time></trkpt><trkpt lat="44.7007617" lon="10.7865533"><ele>37.666666666666664</ele><time>2026-04-18T17:08:43.993Z</time></trkpt><trkpt lat="44.700605" lon="10.7864567"><ele>38.0</ele><time>2026-04-18T17:08:44.994Z</time></trkpt><trkpt lat="44.700465" lon="10.7863633"><ele>38.0</ele><time>2026-04-18T17:08:45.993Z</time></trkpt><trkpt lat="44.7003383" lon="10.7862717"><ele>38.0</ele><time>2026-04-18T17:08:46.993Z</time></trkpt><trkpt lat="44.7002317" lon="10.7861667"><ele>38.0</ele><time>2026-04-18T17:08:47.994Z</time></trkpt><trkpt lat="44.7001517" lon="10.7860383"><ele>38.0</ele><time>2026-04-18T17:08:48.993Z</time></trkpt><trkpt lat="44.700115" lon="10.7858917"><ele>38.199999999999996</ele><time>2026-04-18T17:08:49.994Z</time></trkpt><trkpt lat="44.7000967" lon="10.7857367"><ele>38.4</ele><time>2026-04-18T17:08:50.993Z</time></trkpt><trkpt lat="44.7000883" lon="10.7855767"><ele>38.599999999999994</ele><time>2026-04-18T17:08:51.993Z</time></trkpt><trkpt lat="44.7000733" lon="10.7854333"><ele>38.8</ele><time>2026-04-18T17:08:52.994Z</time></trkpt><trkpt lat="44.7000283" lon="10.7853067"><ele>39.0</ele><time>2026-04-18T17:08:53.994Z</time></trkpt><trkpt lat="44.6999667" lon="10.7851967"><ele>38.0</ele><time>2026-04-18T17:08:54.994Z</time></trkpt><trkpt lat="44.69986" lon="10.7851117"><ele>37.0</ele><time>2026-04-18T17:08:55.994Z</time></trkpt><trkpt lat="44.69972" lon="10.785025"><ele>36.0</ele><time>2026-04-18T17:08:56.993Z</time></trkpt><trkpt lat="44.699555" lon="10.7849"><ele>36.666666666666664</ele><time>2026-04-18T17:08:57.994Z</time></trkpt><trkpt lat="44.699385" lon="10.7847683"><ele>37.33333333333333</ele><time>2026-04-18T17:08:58.993Z</time></trkpt><trkpt lat="44.6992133" lon="10.7846333"><ele>38.0</ele><time>2026-04-18T17:08:59.993Z</time></trkpt><trkpt lat="44.6990317" lon="10.7845"><ele>38.0</ele><time>2026-04-18T17:09:00.993Z</time></trkpt><trkpt lat="44.6988383" lon="10.784365"><ele>38.0</ele><time>2026-04-18T17:09:01.994Z</time></trkpt><trkpt lat="44.6986383" lon="10.7842367"><ele>38.0</ele><time>2026-04-18T17:09:02.993Z</time></trkpt><trkpt lat="44.6984417" lon="10.7841083"><ele>37.666666666666664</ele><time>2026-04-18T17:09:03.993Z</time></trkpt><trkpt lat="44.6982417" lon="10.7839783"><ele>37.333333333333336</ele><time>2026-04-18T17:09:04.994Z</time></trkpt><trkpt lat="44.6980517" lon="10.7838583"><ele>37.0</ele><time>2026-04-18T17:09:05.994Z</time></trkpt><trkpt lat="44.6978683" lon="10.7837383"><ele>37.333333333333336</ele><time>2026-04-18T17:09:06.993Z</time></trkpt><trkpt lat="44.6976833" lon="10.7836317"><ele>37.666666666666664</ele><time>2026-04-18T17:09:07.994Z</time></trkpt><trkpt lat="44.6975" lon="10.7835233"><ele>38.0</ele><time>2026-04-18T17:09:08.994Z</time></trkpt><trkpt lat="44.6973133" lon="10.7834217"><ele>38.0</ele><time>2026-04-18T17:09:09.994Z</time></trkpt><trkpt lat="44.6971317" lon="10.7833133"><ele>38.0</ele><time>2026-04-18T17:09:10.993Z</time></trkpt><trkpt lat="44.6969583" lon="10.78322"><ele>38.0</ele><time>2026-04-18T17:09:11.994Z</time></trkpt><trkpt lat="44.69661" lon="10.7830433"><ele>38.666666666666664</ele><time>2026-04-18T17:09:13.993Z</time></trkpt><trkpt lat="44.6964233" lon="10.78295"><ele>39.333333333333336</ele><time>2026-04-18T17:09:14.993Z</time></trkpt><trkpt lat="44.696235" lon="10.7828633"><ele>40.0</ele><time>2026-04-18T17:09:15.994Z</time></trkpt><trkpt lat="44.6960367" lon="10.7827833"><ele>40.0</ele><time>2026-04-18T17:09:16.993Z</time></trkpt><trkpt lat="44.6958317" lon="10.7827083"><ele>40.0</ele><time>2026-04-18T17:09:17.993Z</time></trkpt><trkpt lat="44.695625" lon="10.7826283"><ele>40.0</ele><time>2026-04-18T17:09:18.993Z</time></trkpt><trkpt lat="44.6954233" lon="10.7825383"><ele>40.333333333333336</ele><time>2026-04-18T17:09:19.993Z</time></trkpt><trkpt lat="44.6952217" lon="10.7824367"><ele>40.666666666666664</ele><time>2026-04-18T17:09:20.993Z</time></trkpt><trkpt lat="44.69502" lon="10.7823217"><ele>41.0</ele><time>2026-04-18T17:09:21.993Z</time></trkpt><trkpt lat="44.6948217" lon="10.7822017"><ele>41.0</ele><time>2026-04-18T17:09:22.993Z</time></trkpt><trkpt lat="44.6946267" lon="10.7820767"><ele>41.0</ele><time>2026-04-18T17:09:23.994Z</time></trkpt><trkpt lat="44.6944283" lon="10.7819533"><ele>41.0</ele><time>2026-04-18T17:09:24.994Z</time></trkpt><trkpt lat="44.6942283" lon="10.7818333"><ele>40.0</ele><time>2026-04-18T17:09:25.994Z</time></trkpt><trkpt lat="44.6940317" lon="10.78171"><ele>39.0</ele><time>2026-04-18T17:09:26.993Z</time></trkpt><trkpt lat="44.693845" lon="10.78159"><ele>38.0</ele><time>2026-04-18T17:09:27.994Z</time></trkpt><trkpt lat="44.69367" lon="10.7814717"><ele>38.666666666666664</ele><time>2026-04-18T17:09:28.993Z</time></trkpt><trkpt lat="44.69351" lon="10.7813567"><ele>39.333333333333336</ele><time>2026-04-18T17:09:29.993Z</time></trkpt><trkpt lat="44.6933567" lon="10.7812533"><ele>40.0</ele><time>2026-04-18T17:09:30.993Z</time></trkpt><trkpt lat="44.6932133" lon="10.7811617"><ele>40.0</ele><time>2026-04-18T17:09:31.993Z</time></trkpt><trkpt lat="44.693085" lon="10.781095"><ele>40.0</ele><time>2026-04-18T17:09:32.993Z</time></trkpt><trkpt lat="44.6929583" lon="10.781025"><ele>40.0</ele><time>2026-04-18T17:09:33.993Z</time></trkpt><trkpt lat="44.6928267" lon="10.7809267"><ele>40.0</ele><time>2026-04-18T17:09:34.994Z</time></trkpt><trkpt lat="44.692705" lon="10.7807983"><ele>40.333333333333336</ele><time>2026-04-18T17:09:35.994Z</time></trkpt><trkpt lat="44.6925883" lon="10.7806317"><ele>40.666666666666664</ele><time>2026-04-18T17:09:36.993Z</time></trkpt><trkpt lat="44.6924417" lon="10.780485"><ele>41.0</ele><time>2026-04-18T17:09:37.994Z</time></trkpt><trkpt lat="44.6922817" lon="10.7803617"><ele>41.0</ele><time>2026-04-18T17:09:38.993Z</time></trkpt><trkpt lat="44.69211" lon="10.78027"><ele>41.0</ele><time>2026-04-18T17:09:39.993Z</time></trkpt><trkpt lat="44.6919333" lon="10.7801667"><ele>41.0</ele><time>2026-04-18T17:09:40.993Z</time></trkpt><trkpt lat="44.6917617" lon="10.78006"><ele>40.33333333333333</ele><time>2026-04-18T17:09:41.994Z</time></trkpt><trkpt lat="44.69159" lon="10.77995"><ele>39.666666666666664</ele><time>2026-04-18T17:09:42.994Z</time></trkpt><trkpt lat="44.69142" lon="10.779835"><ele>39.0</ele><time>2026-04-18T17:09:43.994Z</time></trkpt><trkpt lat="44.69125" lon="10.7797267"><ele>40.0</ele><time>2026-04-18T17:09:44.994Z</time></trkpt><trkpt lat="44.6910833" lon="10.7796217"><ele>41.0</ele><time>2026-04-18T17:09:45.993Z</time></trkpt><trkpt lat="44.69092" lon="10.77951"><ele>42.0</ele><time>2026-04-18T17:09:46.993Z</time></trkpt><trkpt lat="44.6907583" lon="10.7793983"><ele>41.666666666666664</ele><time>2026-04-18T17:09:47.993Z</time></trkpt><trkpt lat="44.6905867" lon="10.7792983"><ele>41.33333333333333</ele><time>2026-04-18T17:09:48.994Z</time></trkpt><trkpt lat="44.6904183" lon="10.7792"><ele>41.0</ele><time>2026-04-18T17:09:49.994Z</time></trkpt><trkpt lat="44.6902567" lon="10.77911"><ele>41.0</ele><time>2026-04-18T17:09:50.994Z</time></trkpt><trkpt lat="44.6900867" lon="10.7790283"><ele>41.0</ele><time>2026-04-18T17:09:51.994Z</time></trkpt><trkpt lat="44.689925" lon="10.7789683"><ele>41.0</ele><time>2026-04-18T17:09:52.994Z</time></trkpt><trkpt lat="44.68978" lon="10.7789317"><ele>41.0</ele><time>2026-04-18T17:09:53.993Z</time></trkpt><trkpt lat="44.6896333" lon="10.7788967"><ele>41.0</ele><time>2026-04-18T17:09:54.994Z</time></trkpt><trkpt lat="44.68951" lon="10.77887"><ele>41.0</ele><time>2026-04-18T17:09:55.994Z</time></trkpt><trkpt lat="44.6893983" lon="10.7788367"><ele>41.0</ele><time>2026-04-18T17:09:56.994Z</time></trkpt><trkpt lat="44.689285" lon="10.7788133"><ele>41.75</ele><time>2026-04-18T17:09:57.994Z</time></trkpt><trkpt lat="44.689185" lon="10.778825"><ele>42.5</ele><time>2026-04-18T17:09:58.993Z</time></trkpt><trkpt lat="44.6890833" lon="10.77887"><ele>43.25</ele><time>2026-04-18T17:09:59.993Z</time></trkpt><trkpt lat="44.688965" lon="10.7789467"><ele>44.0</ele><time>2026-04-18T17:10:00.994Z</time></trkpt><trkpt lat="44.688835" lon="10.7790283"><ele>44.0</ele><time>2026-04-18T17:10:01.994Z</time></trkpt><trkpt lat="44.6886867" lon="10.7790983"><ele>44.0</ele><time>2026-04-18T17:10:02.994Z</time></trkpt><trkpt lat="44.6885233" lon="10.7791283"><ele>44.0</ele><time>2026-04-18T17:10:03.993Z</time></trkpt><trkpt lat="44.6883417" lon="10.7791417"><ele>43.33333333333333</ele><time>2026-04-18T17:10:04.993Z</time></trkpt><trkpt lat="44.6881517" lon="10.7791367"><ele>42.666666666666664</ele><time>2026-04-18T17:10:05.994Z</time></trkpt><trkpt lat="44.6879567" lon="10.7791217"><ele>42.0</ele><time>2026-04-18T17:10:06.994Z</time></trkpt><trkpt lat="44.6877567" lon="10.7790867"><ele>42.0</ele><time>2026-04-18T17:10:07.993Z</time></trkpt><trkpt lat="44.687555" lon="10.779055"><ele>42.0</ele><time>2026-04-18T17:10:08.994Z</time></trkpt><trkpt lat="44.6873583" lon="10.7790183"><ele>42.0</ele><time>2026-04-18T17:10:09.993Z</time></trkpt><trkpt lat="44.687165" lon="10.7790083"><ele>42.0</ele><time>2026-04-18T17:10:10.994Z</time></trkpt><trkpt lat="44.686965" lon="10.7790383"><ele>42.0</ele><time>2026-04-18T17:10:11.994Z</time></trkpt><trkpt lat="44.6867733" lon="10.7791033"><ele>42.0</ele><time>2026-04-18T17:10:12.994Z</time></trkpt><trkpt lat="44.68657" lon="10.7791933"><ele>41.5</ele><time>2026-04-18T17:10:13.994Z</time></trkpt><trkpt lat="44.6863667" lon="10.7792833"><ele>41.0</ele><time>2026-04-18T17:10:14.993Z</time></trkpt><trkpt lat="44.685965" lon="10.779485"><ele>40.666666666666664</ele><time>2026-04-18T17:10:16.993Z</time></trkpt><trkpt lat="44.6857733" lon="10.779615"><ele>40.333333333333336</ele><time>2026-04-18T17:10:17.993Z</time></trkpt><trkpt lat="44.685605" lon="10.7797533"><ele>40.0</ele><time>2026-04-18T17:10:18.993Z</time></trkpt><trkpt lat="44.6854567" lon="10.7799"><ele>40.0</ele><time>2026-04-18T17:10:19.994Z</time></trkpt><trkpt lat="44.685315" lon="10.7800317"><ele>40.0</ele><time>2026-04-18T17:10:20.994Z</time></trkpt><trkpt lat="44.68518" lon="10.78015"><ele>40.0</ele><time>2026-04-18T17:10:21.993Z</time></trkpt><trkpt lat="44.685055" lon="10.7802717"><ele>40.25</ele><time>2026-04-18T17:10:22.994Z</time></trkpt><trkpt lat="44.68494" lon="10.7803633"><ele>40.5</ele><time>2026-04-18T17:10:23.994Z</time></trkpt><trkpt lat="44.6848283" lon="10.7804567"><ele>40.75</ele><time>2026-04-18T17:10:24.994Z</time></trkpt><trkpt lat="44.6847083" lon="10.78053"><ele>41.0</ele><time>2026-04-18T17:10:25.994Z</time></trkpt><trkpt lat="44.68458" lon="10.780605"><ele>41.0</ele><time>2026-04-18T17:10:26.993Z</time></trkpt><trkpt lat="44.6844567" lon="10.78067"><ele>41.0</ele><time>2026-04-18T17:10:27.994Z</time></trkpt><trkpt lat="44.68432" lon="10.780715"><ele>41.0</ele><time>2026-04-18T17:10:28.993Z</time></trkpt><trkpt lat="44.6841917" lon="10.7807533"><ele>41.0</ele><time>2026-04-18T17:10:29.994Z</time></trkpt><trkpt lat="44.6840733" lon="10.7807833"><ele>41.199999999999996</ele><time>2026-04-18T17:10:30.993Z</time></trkpt><trkpt lat="44.6839667" lon="10.7808133"><ele>41.4</ele><time>2026-04-18T17:10:31.994Z</time></trkpt><trkpt lat="44.6838617" lon="10.7808383"><ele>41.6</ele><time>2026-04-18T17:10:32.993Z</time></trkpt><trkpt lat="44.6837517" lon="10.7808633"><ele>41.8</ele><time>2026-04-18T17:10:33.993Z</time></trkpt><trkpt lat="44.6836467" lon="10.780895"><ele>42.0</ele><time>2026-04-18T17:10:34.994Z</time></trkpt><trkpt lat="44.6835467" lon="10.7809267"><ele>42.2</ele><time>2026-04-18T17:10:35.994Z</time></trkpt><trkpt lat="44.6834533" lon="10.7809583"><ele>42.400000000000006</ele><time>2026-04-18T17:10:36.994Z</time></trkpt><trkpt lat="44.683355" lon="10.7809967"><ele>42.599999999999994</ele><time>2026-04-18T17:10:37.994Z</time></trkpt><trkpt lat="44.6832517" lon="10.78104"><ele>42.8</ele><time>2026-04-18T17:10:38.993Z</time></trkpt><trkpt lat="44.6831533" lon="10.7810883"><ele>43.0</ele><time>2026-04-18T17:10:39.993Z</time></trkpt><trkpt lat="44.68305" lon="10.7811267"><ele>43.2</ele><time>2026-04-18T17:10:40.993Z</time></trkpt><trkpt lat="44.6829433" lon="10.7811733"><ele>43.4</ele><time>2026-04-18T17:10:41.993Z</time></trkpt><trkpt lat="44.6828433" lon="10.7812133"><ele>43.6</ele><time>2026-04-18T17:10:42.993Z</time></trkpt><trkpt lat="44.6827467" lon="10.78125"><ele>43.800000000000004</ele><time>2026-04-18T17:10:43.994Z</time></trkpt><trkpt lat="44.6826417" lon="10.7812817"><ele>44.0</ele><time>2026-04-18T17:10:44.994Z</time></trkpt><trkpt lat="44.682545" lon="10.781325"><ele>44.0</ele><time>2026-04-18T17:10:45.994Z</time></trkpt><trkpt lat="44.6824383" lon="10.7813517"><ele>44.0</ele><time>2026-04-18T17:10:46.993Z</time></trkpt><trkpt lat="44.6823233" lon="10.7813617"><ele>44.0</ele><time>2026-04-18T17:10:47.994Z</time></trkpt><trkpt lat="44.682205" lon="10.7813483"><ele>44.0</ele><time>2026-04-18T17:10:48.994Z</time></trkpt><trkpt lat="44.6820733" lon="10.7813217"><ele>44.0</ele><time>2026-04-18T17:10:49.994Z</time></trkpt><trkpt lat="44.6819367" lon="10.7812967"><ele>44.0</ele><time>2026-04-18T17:10:50.994Z</time></trkpt><trkpt lat="44.6818117" lon="10.7812667"><ele>44.0</ele><time>2026-04-18T17:10:51.993Z</time></trkpt><trkpt lat="44.68169" lon="10.7812367"><ele>44.0</ele><time>2026-04-18T17:10:52.994Z</time></trkpt><trkpt lat="44.6815717" lon="10.7812"><ele>44.25</ele><time>2026-04-18T17:10:53.994Z</time></trkpt><trkpt lat="44.6814533" lon="10.7811583"><ele>44.5</ele><time>2026-04-18T17:10:54.993Z</time></trkpt><trkpt lat="44.6813333" lon="10.7811133"><ele>44.75</ele><time>2026-04-18T17:10:55.994Z</time></trkpt><trkpt lat="44.6812117" lon="10.7810633"><ele>45.0</ele><time>2026-04-18T17:10:56.993Z</time></trkpt><trkpt lat="44.6810917" lon="10.7810067"><ele>45.5</ele><time>2026-04-18T17:10:57.994Z</time></trkpt><trkpt lat="44.68097" lon="10.7809533"><ele>46.0</ele><time>2026-04-18T17:10:58.993Z</time></trkpt><trkpt lat="44.6808483" lon="10.780895"><ele>46.5</ele><time>2026-04-18T17:10:59.993Z</time></trkpt><trkpt lat="44.68073" lon="10.7808417"><ele>47.0</ele><time>2026-04-18T17:11:00.994Z</time></trkpt><trkpt lat="44.680615" lon="10.7807783"><ele>47.0</ele><time>2026-04-18T17:11:01.994Z</time></trkpt><trkpt lat="44.6805083" lon="10.7807167"><ele>47.0</ele><time>2026-04-18T17:11:02.994Z</time></trkpt><trkpt lat="44.6804033" lon="10.780655"><ele>47.0</ele><time>2026-04-18T17:11:03.994Z</time></trkpt><trkpt lat="44.6802967" lon="10.780595"><ele>47.0</ele><time>2026-04-18T17:11:04.994Z</time></trkpt><trkpt lat="44.6801867" lon="10.7805433"><ele>46.75</ele><time>2026-04-18T17:11:05.993Z</time></trkpt><trkpt lat="44.6800767" lon="10.7804983"><ele>46.5</ele><time>2026-04-18T17:11:06.994Z</time></trkpt><trkpt lat="44.679955" lon="10.7804433"><ele>46.25</ele><time>2026-04-18T17:11:07.993Z</time></trkpt><trkpt lat="44.679815" lon="10.7804033"><ele>46.0</ele><time>2026-04-18T17:11:08.993Z</time></trkpt><trkpt lat="44.6796733" lon="10.780385"><ele>46.0</ele><time>2026-04-18T17:11:09.993Z</time></trkpt><trkpt lat="44.6795267" lon="10.7803817"><ele>46.0</ele><time>2026-04-18T17:11:10.994Z</time></trkpt><trkpt lat="44.6793833" lon="10.780395"><ele>46.0</ele><time>2026-04-18T17:11:11.994Z</time></trkpt><trkpt lat="44.6792467" lon="10.7804383"><ele>46.0</ele><time>2026-04-18T17:11:12.993Z</time></trkpt><trkpt lat="44.6791033" lon="10.7804883"><ele>46.25</ele><time>2026-04-18T17:11:13.993Z</time></trkpt><trkpt lat="44.6789617" lon="10.7805367"><ele>46.5</ele><time>2026-04-18T17:11:14.993Z</time></trkpt><trkpt lat="44.6788267" lon="10.7805833"><ele>46.75</ele><time>2026-04-18T17:11:15.993Z</time></trkpt><trkpt lat="44.6786783" lon="10.7806"><ele>47.0</ele><time>2026-04-18T17:11:16.994Z</time></trkpt><trkpt lat="44.67854" lon="10.7805717"><ele>46.5</ele><time>2026-04-18T17:11:17.994Z</time></trkpt><trkpt lat="44.6784033" lon="10.78052"><ele>46.0</ele><time>2026-04-18T17:11:18.993Z</time></trkpt><trkpt lat="44.6782833" lon="10.7804567"><ele>45.5</ele><time>2026-04-18T17:11:19.994Z</time></trkpt><trkpt lat="44.6781667" lon="10.78039"><ele>45.0</ele><time>2026-04-18T17:11:20.994Z</time></trkpt><trkpt lat="44.6780533" lon="10.7803183"><ele>45.0</ele><time>2026-04-18T17:11:21.993Z</time></trkpt><trkpt lat="44.6779283" lon="10.7802417"><ele>45.0</ele><time>2026-04-18T17:11:22.993Z</time></trkpt><trkpt lat="44.6778" lon="10.7801567"><ele>45.0</ele><time>2026-04-18T17:11:23.994Z</time></trkpt><trkpt lat="44.67768" lon="10.7800783"><ele>45.0</ele><time>2026-04-18T17:11:24.993Z</time></trkpt><trkpt lat="44.67757" lon="10.7800117"><ele>45.2</ele><time>2026-04-18T17:11:25.993Z</time></trkpt><trkpt lat="44.677465" lon="10.7799417"><ele>45.4</ele><time>2026-04-18T17:11:26.994Z</time></trkpt><trkpt lat="44.6773683" lon="10.779885"><ele>45.599999999999994</ele><time>2026-04-18T17:11:27.994Z</time></trkpt><trkpt lat="44.6772783" lon="10.779825"><ele>45.8</ele><time>2026-04-18T17:11:28.993Z</time></trkpt><trkpt lat="44.677205" lon="10.779775"><ele>46.0</ele><time>2026-04-18T17:11:29.993Z</time></trkpt><trkpt lat="44.6771467" lon="10.7797333"><ele>46.0</ele><time>2026-04-18T17:11:30.993Z</time></trkpt><trkpt lat="44.6770733" lon="10.7796"><ele>46.0</ele><time>2026-04-18T17:11:32.994Z</time></trkpt><trkpt lat="44.677045" lon="10.7794983"><ele>46.0</ele><time>2026-04-18T17:11:33.994Z</time></trkpt><trkpt lat="44.6770217" lon="10.7793633"><ele>46.0</ele><time>2026-04-18T17:11:34.994Z</time></trkpt><trkpt lat="44.6769983" lon="10.7791933"><ele>46.0</ele><time>2026-04-18T17:11:35.994Z</time></trkpt><trkpt lat="44.6769717" lon="10.778985"><ele>45.66666666666667</ele><time>2026-04-18T17:11:36.994Z</time></trkpt><trkpt lat="44.6769383" lon="10.7787617"><ele>45.333333333333336</ele><time>2026-04-18T17:11:37.994Z</time></trkpt><trkpt lat="44.6768883" lon="10.77853"><ele>45.0</ele><time>2026-04-18T17:11:38.993Z</time></trkpt><trkpt lat="44.6768483" lon="10.7783083"><ele>44.333333333333336</ele><time>2026-04-18T17:11:39.994Z</time></trkpt><trkpt lat="44.67682" lon="10.778095"><ele>43.66666666666667</ele><time>2026-04-18T17:11:40.993Z</time></trkpt><trkpt lat="44.6768033" lon="10.7778767"><ele>43.0</ele><time>2026-04-18T17:11:41.994Z</time></trkpt><trkpt lat="44.6768083" lon="10.7776583"><ele>43.0</ele><time>2026-04-18T17:11:42.993Z</time></trkpt><trkpt lat="44.676825" lon="10.777425"><ele>43.0</ele><time>2026-04-18T17:11:43.993Z</time></trkpt><trkpt lat="44.676845" lon="10.7771933"><ele>43.0</ele><time>2026-04-18T17:11:44.994Z</time></trkpt><trkpt lat="44.6768733" lon="10.776955"><ele>43.333333333333336</ele><time>2026-04-18T17:11:45.994Z</time></trkpt><trkpt lat="44.676905" lon="10.7767133"><ele>43.666666666666664</ele><time>2026-04-18T17:11:46.994Z</time></trkpt><trkpt lat="44.6769483" lon="10.776465"><ele>44.0</ele><time>2026-04-18T17:11:47.993Z</time></trkpt><trkpt lat="44.6770067" lon="10.7762217"><ele>43.0</ele><time>2026-04-18T17:11:48.993Z</time></trkpt><trkpt lat="44.6770833" lon="10.7759817"><ele>42.0</ele><time>2026-04-18T17:11:49.993Z</time></trkpt><trkpt lat="44.6771733" lon="10.775745"><ele>41.0</ele><time>2026-04-18T17:11:50.993Z</time></trkpt><trkpt lat="44.6772683" lon="10.7755033"><ele>41.0</ele><time>2026-04-18T17:11:51.993Z</time></trkpt><trkpt lat="44.67736" lon="10.7752733"><ele>41.0</ele><time>2026-04-18T17:11:52.993Z</time></trkpt><trkpt lat="44.6774467" lon="10.775045"><ele>41.0</ele><time>2026-04-18T17:11:53.993Z</time></trkpt><trkpt lat="44.67754" lon="10.77481"><ele>41.666666666666664</ele><time>2026-04-18T17:11:54.993Z</time></trkpt><trkpt lat="44.6776433" lon="10.7745917"><ele>42.333333333333336</ele><time>2026-04-18T17:11:55.994Z</time></trkpt><trkpt lat="44.6777533" lon="10.774375"><ele>43.0</ele><time>2026-04-18T17:11:56.994Z</time></trkpt><trkpt lat="44.6778667" lon="10.7741617"><ele>43.0</ele><time>2026-04-18T17:11:57.993Z</time></trkpt><trkpt lat="44.677975" lon="10.7739683"><ele>43.0</ele><time>2026-04-18T17:11:58.994Z</time></trkpt><trkpt lat="44.6780767" lon="10.7737833"><ele>43.0</ele><time>2026-04-18T17:11:59.993Z</time></trkpt><trkpt lat="44.6781733" lon="10.773605"><ele>43.66666666666667</ele><time>2026-04-18T17:12:00.993Z</time></trkpt><trkpt lat="44.6782683" lon="10.7734367"><ele>44.333333333333336</ele><time>2026-04-18T17:12:01.994Z</time></trkpt><trkpt lat="44.678355" lon="10.7732617"><ele>45.0</ele><time>2026-04-18T17:12:02.993Z</time></trkpt><trkpt lat="44.67843" lon="10.7730783"><ele>45.0</ele><time>2026-04-18T17:12:03.993Z</time></trkpt><trkpt lat="44.6784933" lon="10.7728717"><ele>45.0</ele><time>2026-04-18T17:12:04.993Z</time></trkpt><trkpt lat="44.6785467" lon="10.7726717"><ele>45.0</ele><time>2026-04-18T17:12:05.993Z</time></trkpt><trkpt lat="44.678595" lon="10.7724883"><ele>44.0</ele><time>2026-04-18T17:12:06.994Z</time></trkpt><trkpt lat="44.678645" lon="10.7723017"><ele>43.0</ele><time>2026-04-18T17:12:07.994Z</time></trkpt><trkpt lat="44.6787033" lon="10.7721033"><ele>42.0</ele><time>2026-04-18T17:12:08.993Z</time></trkpt><trkpt lat="44.678755" lon="10.7718933"><ele>42.0</ele><time>2026-04-18T17:12:09.993Z</time></trkpt><trkpt lat="44.6788133" lon="10.7716833"><ele>42.0</ele><time>2026-04-18T17:12:10.993Z</time></trkpt><trkpt lat="44.6788667" lon="10.7714933"><ele>42.0</ele><time>2026-04-18T17:12:11.994Z</time></trkpt><trkpt lat="44.6789083" lon="10.771325"><ele>42.0</ele><time>2026-04-18T17:12:12.993Z</time></trkpt><trkpt lat="44.6789383" lon="10.7711817"><ele>42.0</ele><time>2026-04-18T17:12:13.993Z</time></trkpt><trkpt lat="44.6789417" lon="10.7710517"><ele>42.0</ele><time>2026-04-18T17:12:14.994Z</time></trkpt><trkpt lat="44.6789083" lon="10.7709233"><ele>42.0</ele><time>2026-04-18T17:12:15.994Z</time></trkpt><trkpt lat="44.67884" lon="10.7708117"><ele>42.0</ele><time>2026-04-18T17:12:16.994Z</time></trkpt><trkpt lat="44.678745" lon="10.7707383"><ele>42.0</ele><time>2026-04-18T17:12:17.993Z</time></trkpt><trkpt lat="44.6786517" lon="10.7706983"><ele>42.0</ele><time>2026-04-18T17:12:18.994Z</time></trkpt><trkpt lat="44.678555" lon="10.77067"><ele>42.0</ele><time>2026-04-18T17:12:19.994Z</time></trkpt><trkpt lat="44.6784633" lon="10.7706417"><ele>42.0</ele><time>2026-04-18T17:12:20.994Z</time></trkpt><trkpt lat="44.6783667" lon="10.77062"><ele>42.0</ele><time>2026-04-18T17:12:21.994Z</time></trkpt><trkpt lat="44.6782" lon="10.7705417"><ele>42.0</ele><time>2026-04-18T17:12:23.993Z</time></trkpt><trkpt lat="44.67813" lon="10.77046"><ele>42.0</ele><time>2026-04-18T17:12:24.994Z</time></trkpt><trkpt lat="44.678075" lon="10.7703533"><ele>42.0</ele><time>2026-04-18T17:12:25.993Z</time></trkpt><trkpt lat="44.678055" lon="10.7702133"><ele>42.0</ele><time>2026-04-18T17:12:26.993Z</time></trkpt><trkpt lat="44.678085" lon="10.7700417"><ele>42.0</ele><time>2026-04-18T17:12:27.993Z</time></trkpt><trkpt lat="44.6781383" lon="10.7698433"><ele>42.0</ele><time>2026-04-18T17:12:28.994Z</time></trkpt><trkpt lat="44.6782017" lon="10.7696083"><ele>42.0</ele><time>2026-04-18T17:12:29.993Z</time></trkpt><trkpt lat="44.6782633" lon="10.7693517"><ele>42.0</ele><time>2026-04-18T17:12:30.993Z</time></trkpt><trkpt lat="44.6783267" lon="10.7690867"><ele>42.333333333333336</ele><time>2026-04-18T17:12:31.993Z</time></trkpt><trkpt lat="44.6783867" lon="10.7688217"><ele>42.66666666666667</ele><time>2026-04-18T17:12:32.994Z</time></trkpt><trkpt lat="44.6784433" lon="10.76857"><ele>43.0</ele><time>2026-04-18T17:12:33.994Z</time></trkpt><trkpt lat="44.6784933" lon="10.76833"><ele>43.0</ele><time>2026-04-18T17:12:34.993Z</time></trkpt><trkpt lat="44.67855" lon="10.7680883"><ele>43.0</ele><time>2026-04-18T17:12:35.994Z</time></trkpt><trkpt lat="44.6786117" lon="10.7678667"><ele>43.0</ele><time>2026-04-18T17:12:36.994Z</time></trkpt><trkpt lat="44.6786817" lon="10.7676567"><ele>43.0</ele><time>2026-04-18T17:12:37.993Z</time></trkpt><trkpt lat="44.67875" lon="10.76746"><ele>43.0</ele><time>2026-04-18T17:12:38.994Z</time></trkpt><trkpt lat="44.6788233" lon="10.767265"><ele>43.0</ele><time>2026-04-18T17:12:39.993Z</time></trkpt><trkpt lat="44.6788983" lon="10.7670783"><ele>43.0</ele><time>2026-04-18T17:12:40.994Z</time></trkpt><trkpt lat="44.6789667" lon="10.7668933"><ele>43.0</ele><time>2026-04-18T17:12:41.993Z</time></trkpt><trkpt lat="44.679025" lon="10.7666967"><ele>43.0</ele><time>2026-04-18T17:12:42.994Z</time></trkpt><trkpt lat="44.679085" lon="10.7662783"><ele>43.0</ele><time>2026-04-18T17:12:44.994Z</time></trkpt><trkpt lat="44.6790917" lon="10.766055"><ele>43.0</ele><time>2026-04-18T17:12:45.994Z</time></trkpt><trkpt lat="44.6790917" lon="10.7658367"><ele>43.0</ele><time>2026-04-18T17:12:46.993Z</time></trkpt><trkpt lat="44.67909" lon="10.7656183"><ele>43.0</ele><time>2026-04-18T17:12:47.993Z</time></trkpt><trkpt lat="44.6790933" lon="10.7653983"><ele>43.0</ele><time>2026-04-18T17:12:48.993Z</time></trkpt><trkpt lat="44.6791133" lon="10.765185"><ele>43.0</ele><time>2026-04-18T17:12:49.993Z</time></trkpt><trkpt lat="44.6791567" lon="10.7649717"><ele>43.0</ele><time>2026-04-18T17:12:50.994Z</time></trkpt><trkpt lat="44.6792133" lon="10.7647583"><ele>43.0</ele><time>2026-04-18T17:12:51.993Z</time></trkpt><trkpt lat="44.6792833" lon="10.7645483"><ele>43.0</ele><time>2026-04-18T17:12:52.994Z</time></trkpt><trkpt lat="44.67936" lon="10.7643317"><ele>43.0</ele><time>2026-04-18T17:12:53.994Z</time></trkpt><trkpt lat="44.679435" lon="10.7641083"><ele>43.0</ele><time>2026-04-18T17:12:54.993Z</time></trkpt><trkpt lat="44.6795067" lon="10.76388"><ele>43.0</ele><time>2026-04-18T17:12:55.993Z</time></trkpt><trkpt lat="44.6795733" lon="10.763665"><ele>43.333333333333336</ele><time>2026-04-18T17:12:56.993Z</time></trkpt><trkpt lat="44.6796483" lon="10.7634683"><ele>43.666666666666664</ele><time>2026-04-18T17:12:57.994Z</time></trkpt><trkpt lat="44.6797167" lon="10.76328"><ele>44.0</ele><time>2026-04-18T17:12:58.993Z</time></trkpt><trkpt lat="44.6797783" lon="10.7630983"><ele>44.0</ele><time>2026-04-18T17:12:59.994Z</time></trkpt><trkpt lat="44.6798283" lon="10.7629167"><ele>44.0</ele><time>2026-04-18T17:13:00.994Z</time></trkpt><trkpt lat="44.679875" lon="10.7627283"><ele>44.0</ele><time>2026-04-18T17:13:01.994Z</time></trkpt><trkpt lat="44.6799233" lon="10.76253"><ele>44.0</ele><time>2026-04-18T17:13:02.994Z</time></trkpt><trkpt lat="44.67997" lon="10.762325"><ele>44.0</ele><time>2026-04-18T17:13:03.993Z</time></trkpt><trkpt lat="44.6800733" lon="10.761915"><ele>44.0</ele><time>2026-04-18T17:13:05.994Z</time></trkpt><trkpt lat="44.680125" lon="10.7617267"><ele>44.0</ele><time>2026-04-18T17:13:06.994Z</time></trkpt><trkpt lat="44.6801633" lon="10.7615517"><ele>44.0</ele><time>2026-04-18T17:13:07.994Z</time></trkpt><trkpt lat="44.6802067" lon="10.7613833"><ele>44.0</ele><time>2026-04-18T17:13:08.994Z</time></trkpt><trkpt lat="44.6802333" lon="10.7612317"><ele>44.0</ele><time>2026-04-18T17:13:09.993Z</time></trkpt><trkpt lat="44.68026" lon="10.761085"><ele>44.25</ele><time>2026-04-18T17:13:10.993Z</time></trkpt><trkpt lat="44.68027" lon="10.760935"><ele>44.5</ele><time>2026-04-18T17:13:11.994Z</time></trkpt><trkpt lat="44.6802333" lon="10.7607817"><ele>44.75</ele><time>2026-04-18T17:13:12.993Z</time></trkpt><trkpt lat="44.6801667" lon="10.7606383"><ele>45.0</ele><time>2026-04-18T17:13:13.994Z</time></trkpt><trkpt lat="44.6800767" lon="10.7604817"><ele>45.0</ele><time>2026-04-18T17:13:14.993Z</time></trkpt><trkpt lat="44.67998" lon="10.7603067"><ele>45.0</ele><time>2026-04-18T17:13:15.994Z</time></trkpt><trkpt lat="44.67988" lon="10.7601283"><ele>45.0</ele><time>2026-04-18T17:13:16.993Z</time></trkpt><trkpt lat="44.6797817" lon="10.7599333"><ele>44.666666666666664</ele><time>2026-04-18T17:13:17.994Z</time></trkpt><trkpt lat="44.67968" lon="10.7597233"><ele>44.33333333333333</ele><time>2026-04-18T17:13:18.993Z</time></trkpt><trkpt lat="44.6795683" lon="10.759505"><ele>44.0</ele><time>2026-04-18T17:13:19.993Z</time></trkpt><trkpt lat="44.6794617" lon="10.7592917"><ele>43.0</ele><time>2026-04-18T17:13:20.994Z</time></trkpt><trkpt lat="44.6793583" lon="10.759095"><ele>42.0</ele><time>2026-04-18T17:13:21.994Z</time></trkpt><trkpt lat="44.6792467" lon="10.7589133"><ele>41.0</ele><time>2026-04-18T17:13:22.994Z</time></trkpt><trkpt lat="44.6791233" lon="10.7587367"><ele>41.0</ele><time>2026-04-18T17:13:23.994Z</time></trkpt><trkpt lat="44.67899" lon="10.7585767"><ele>41.0</ele><time>2026-04-18T17:13:24.994Z</time></trkpt><trkpt lat="44.6788533" lon="10.7584317"><ele>41.0</ele><time>2026-04-18T17:13:25.993Z</time></trkpt><trkpt lat="44.678715" lon="10.7582967"><ele>41.33333333333333</ele><time>2026-04-18T17:13:26.993Z</time></trkpt><trkpt lat="44.6785767" lon="10.75816"><ele>41.666666666666664</ele><time>2026-04-18T17:13:27.994Z</time></trkpt><trkpt lat="44.6784283" lon="10.7580317"><ele>42.0</ele><time>2026-04-18T17:13:28.994Z</time></trkpt><trkpt lat="44.6782817" lon="10.7579083"><ele>42.0</ele><time>2026-04-18T17:13:29.994Z</time></trkpt><trkpt lat="44.6781467" lon="10.7577833"><ele>42.0</ele><time>2026-04-18T17:13:30.993Z</time></trkpt><trkpt lat="44.6780233" lon="10.7576767"><ele>42.0</ele><time>2026-04-18T17:13:31.994Z</time></trkpt><trkpt lat="44.6778983" lon="10.7575683"><ele>42.5</ele><time>2026-04-18T17:13:32.993Z</time></trkpt><trkpt lat="44.6777733" lon="10.7574583"><ele>43.0</ele><time>2026-04-18T17:13:33.994Z</time></trkpt><trkpt lat="44.6776483" lon="10.75735"><ele>43.5</ele><time>2026-04-18T17:13:34.994Z</time></trkpt><trkpt lat="44.67752" lon="10.7572417"><ele>44.0</ele><time>2026-04-18T17:13:35.994Z</time></trkpt><trkpt lat="44.6773867" lon="10.7571333"><ele>44.0</ele><time>2026-04-18T17:13:36.994Z</time></trkpt><trkpt lat="44.6772533" lon="10.7570183"><ele>44.0</ele><time>2026-04-18T17:13:37.994Z</time></trkpt><trkpt lat="44.677125" lon="10.7569017"><ele>44.0</ele><time>2026-04-18T17:13:38.994Z</time></trkpt><trkpt lat="44.6770067" lon="10.7568017"><ele>44.0</ele><time>2026-04-18T17:13:39.993Z</time></trkpt><trkpt lat="44.6768967" lon="10.7567083"><ele>44.400000000000006</ele><time>2026-04-18T17:13:40.994Z</time></trkpt><trkpt lat="44.6767967" lon="10.75663"><ele>44.8</ele><time>2026-04-18T17:13:41.994Z</time></trkpt><trkpt lat="44.6767117" lon="10.7565533"><ele>45.2</ele><time>2026-04-18T17:13:42.994Z</time></trkpt><trkpt lat="44.676635" lon="10.7564883"><ele>45.599999999999994</ele><time>2026-04-18T17:13:43.994Z</time></trkpt><trkpt lat="44.676575" lon="10.756435"><ele>46.0</ele><time>2026-04-18T17:13:44.994Z</time></trkpt><trkpt lat="44.6764917" lon="10.7563467"><ele>46.0</ele><time>2026-04-18T17:13:46.993Z</time></trkpt><trkpt lat="44.6764433" lon="10.756225"><ele>46.0</ele><time>2026-04-18T17:13:48.994Z</time></trkpt><trkpt lat="44.67646" lon="10.7560483"><ele>46.0</ele><time>2026-04-18T17:13:50.994Z</time></trkpt><trkpt lat="44.67651" lon="10.7559267"><ele>46.0</ele><time>2026-04-18T17:13:51.994Z</time></trkpt><trkpt lat="44.6765767" lon="10.7557817"><ele>46.0</ele><time>2026-04-18T17:13:52.994Z</time></trkpt><trkpt lat="44.67665" lon="10.7556167"><ele>46.0</ele><time>2026-04-18T17:13:53.993Z</time></trkpt><trkpt lat="44.6767217" lon="10.75546"><ele>46.0</ele><time>2026-04-18T17:13:54.994Z</time></trkpt><trkpt lat="44.6767883" lon="10.7553167"><ele>46.0</ele><time>2026-04-18T17:13:55.993Z</time></trkpt><trkpt lat="44.676845" lon="10.755205"><ele>46.0</ele><time>2026-04-18T17:13:56.994Z</time></trkpt><trkpt lat="44.67688" lon="10.7551233"><ele>46.0</ele><time>2026-04-18T17:13:57.994Z</time></trkpt><trkpt lat="44.6769233" lon="10.7550217"><ele>45.4</ele><time>2026-04-18T17:13:59.993Z</time></trkpt><trkpt lat="44.6769933" lon="10.7548667"><ele>44.8</ele><time>2026-04-18T17:14:08.993Z</time></trkpt><trkpt lat="44.6770533" lon="10.7547017"><ele>44.199999999999996</ele><time>2026-04-18T17:14:10.994Z</time></trkpt><trkpt lat="44.677095" lon="10.7546067"><ele>43.599999999999994</ele><time>2026-04-18T17:14:11.994Z</time></trkpt><trkpt lat="44.6771367" lon="10.7544983"><ele>43.0</ele><time>2026-04-18T17:14:12.994Z</time></trkpt><trkpt lat="44.6771917" lon="10.7543783"><ele>43.25</ele><time>2026-04-18T17:14:13.993Z</time></trkpt><trkpt lat="44.6772517" lon="10.754245"><ele>43.5</ele><time>2026-04-18T17:14:14.994Z</time></trkpt><trkpt lat="44.6773133" lon="10.7541"><ele>43.75</ele><time>2026-04-18T17:14:15.993Z</time></trkpt><trkpt lat="44.6773783" lon="10.753955"><ele>44.0</ele><time>2026-04-18T17:14:16.994Z</time></trkpt><trkpt lat="44.6774483" lon="10.7537883"><ele>44.0</ele><time>2026-04-18T17:14:17.994Z</time></trkpt><trkpt lat="44.6775233" lon="10.7536167"><ele>44.0</ele><time>2026-04-18T17:14:18.993Z</time></trkpt><trkpt lat="44.6776067" lon="10.7534367"><ele>44.0</ele><time>2026-04-18T17:14:19.994Z</time></trkpt><trkpt lat="44.677685" lon="10.75326"><ele>44.0</ele><time>2026-04-18T17:14:20.994Z</time></trkpt><trkpt lat="44.6777667" lon="10.7530833"><ele>44.0</ele><time>2026-04-18T17:14:21.993Z</time></trkpt><trkpt lat="44.6778417" lon="10.75291"><ele>44.0</ele><time>2026-04-18T17:14:22.994Z</time></trkpt><trkpt lat="44.6779183" lon="10.752735"><ele>44.0</ele><time>2026-04-18T17:14:23.994Z</time></trkpt><trkpt lat="44.6779933" lon="10.75256"><ele>44.0</ele><time>2026-04-18T17:14:24.994Z</time></trkpt><trkpt lat="44.6780717" lon="10.7523833"><ele>44.25</ele><time>2026-04-18T17:14:25.993Z</time></trkpt><trkpt lat="44.678145" lon="10.75221"><ele>44.5</ele><time>2026-04-18T17:14:26.994Z</time></trkpt><trkpt lat="44.6782183" lon="10.7520367"><ele>44.75</ele><time>2026-04-18T17:14:27.994Z</time></trkpt><trkpt lat="44.678285" lon="10.7518683"><ele>45.0</ele><time>2026-04-18T17:14:28.993Z</time></trkpt><trkpt lat="44.6783567" lon="10.7517067"><ele>45.25</ele><time>2026-04-18T17:14:29.994Z</time></trkpt><trkpt lat="44.6784233" lon="10.7515367"><ele>45.5</ele><time>2026-04-18T17:14:30.993Z</time></trkpt><trkpt lat="44.6784917" lon="10.75137"><ele>45.75</ele><time>2026-04-18T17:14:31.994Z</time></trkpt><trkpt lat="44.6785567" lon="10.751205"><ele>46.0</ele><time>2026-04-18T17:14:32.994Z</time></trkpt><trkpt lat="44.678625" lon="10.7510417"><ele>46.0</ele><time>2026-04-18T17:14:33.994Z</time></trkpt><trkpt lat="44.6786833" lon="10.750885"><ele>46.0</ele><time>2026-04-18T17:14:34.993Z</time></trkpt><trkpt lat="44.678745" lon="10.7507283"><ele>46.0</ele><time>2026-04-18T17:14:35.994Z</time></trkpt><trkpt lat="44.6788117" lon="10.750575"><ele>46.0</ele><time>2026-04-18T17:14:36.994Z</time></trkpt><trkpt lat="44.6788783" lon="10.75043"><ele>46.0</ele><time>2026-04-18T17:14:37.994Z</time></trkpt><trkpt lat="44.6789417" lon="10.75028"><ele>46.0</ele><time>2026-04-18T17:14:38.994Z</time></trkpt><trkpt lat="44.679" lon="10.7501433"><ele>46.0</ele><time>2026-04-18T17:14:39.994Z</time></trkpt><trkpt lat="44.6790583" lon="10.7500083"><ele>46.0</ele><time>2026-04-18T17:14:40.994Z</time></trkpt><trkpt lat="44.6791133" lon="10.7498817"><ele>46.0</ele><time>2026-04-18T17:14:41.994Z</time></trkpt><trkpt lat="44.67916" lon="10.7497583"><ele>46.0</ele><time>2026-04-18T17:14:42.993Z</time></trkpt><trkpt lat="44.6792" lon="10.7496417"><ele>46.0</ele><time>2026-04-18T17:14:43.993Z</time></trkpt><trkpt lat="44.6792383" lon="10.7495133"><ele>46.0</ele><time>2026-04-18T17:14:44.993Z</time></trkpt><trkpt lat="44.6792933" lon="10.7493983"><ele>46.0</ele><time>2026-04-18T17:14:45.993Z</time></trkpt><trkpt lat="44.6793533" lon="10.7492767"><ele>46.0</ele><time>2026-04-18T17:14:46.994Z</time></trkpt><trkpt lat="44.679405" lon="10.7491783"><ele>46.0</ele><time>2026-04-18T17:14:47.994Z</time></trkpt><trkpt lat="44.6794483" lon="10.7491017"><ele>46.0</ele><time>2026-04-18T17:14:48.993Z</time></trkpt><trkpt lat="44.6794883" lon="10.7490117"><ele>46.0</ele><time>2026-04-18T17:14:50.993Z</time></trkpt><trkpt lat="44.6794517" lon="10.7489117"><ele>46.0</ele><time>2026-04-18T17:14:53.994Z</time></trkpt><trkpt lat="44.6793483" lon="10.7487933"><ele>46.0</ele><time>2026-04-18T17:14:55.994Z</time></trkpt><trkpt lat="44.6792817" lon="10.748695"><ele>46.0</ele><time>2026-04-18T17:14:56.993Z</time></trkpt><trkpt lat="44.6792017" lon="10.7485583"><ele>46.0</ele><time>2026-04-18T17:14:57.994Z</time></trkpt><trkpt lat="44.6791333" lon="10.7483983"><ele>46.0</ele><time>2026-04-18T17:14:58.993Z</time></trkpt><trkpt lat="44.679085" lon="10.7482217"><ele>46.0</ele><time>2026-04-18T17:14:59.993Z</time></trkpt><trkpt lat="44.67906" lon="10.748015"><ele>46.333333333333336</ele><time>2026-04-18T17:15:00.994Z</time></trkpt><trkpt lat="44.679045" lon="10.7478083"><ele>46.666666666666664</ele><time>2026-04-18T17:15:01.993Z</time></trkpt><trkpt lat="44.6790267" lon="10.7475883"><ele>47.0</ele><time>2026-04-18T17:15:02.993Z</time></trkpt><trkpt lat="44.679005" lon="10.7473517"><ele>47.33333333333333</ele><time>2026-04-18T17:15:03.993Z</time></trkpt><trkpt lat="44.6789867" lon="10.747115"><ele>47.666666666666664</ele><time>2026-04-18T17:15:04.993Z</time></trkpt><trkpt lat="44.6789767" lon="10.7468717"><ele>48.0</ele><time>2026-04-18T17:15:05.994Z</time></trkpt><trkpt lat="44.6789667" lon="10.7466417"><ele>48.0</ele><time>2026-04-18T17:15:06.994Z</time></trkpt><trkpt lat="44.6789417" lon="10.7464267"><ele>48.0</ele><time>2026-04-18T17:15:07.993Z</time></trkpt><trkpt lat="44.6789233" lon="10.7462267"><ele>48.0</ele><time>2026-04-18T17:15:08.994Z</time></trkpt><trkpt lat="44.67889" lon="10.7460333"><ele>48.0</ele><time>2026-04-18T17:15:09.993Z</time></trkpt><trkpt lat="44.6788367" lon="10.745845"><ele>48.0</ele><time>2026-04-18T17:15:10.994Z</time></trkpt><trkpt lat="44.6787617" lon="10.7456717"><ele>48.0</ele><time>2026-04-18T17:15:11.993Z</time></trkpt><trkpt lat="44.6786667" lon="10.745525"><ele>48.0</ele><time>2026-04-18T17:15:12.994Z</time></trkpt><trkpt lat="44.6785583" lon="10.7453917"><ele>48.0</ele><time>2026-04-18T17:15:13.994Z</time></trkpt><trkpt lat="44.6784417" lon="10.7452667"><ele>48.0</ele><time>2026-04-18T17:15:14.994Z</time></trkpt><trkpt lat="44.6783317" lon="10.7451233"><ele>48.0</ele><time>2026-04-18T17:15:15.994Z</time></trkpt><trkpt lat="44.67822" lon="10.7449483"><ele>48.0</ele><time>2026-04-18T17:15:16.993Z</time></trkpt><trkpt lat="44.6781233" lon="10.7447633"><ele>48.0</ele><time>2026-04-18T17:15:17.993Z</time></trkpt><trkpt lat="44.6780283" lon="10.7445717"><ele>48.0</ele><time>2026-04-18T17:15:18.994Z</time></trkpt><trkpt lat="44.6779433" lon="10.7443667"><ele>48.0</ele><time>2026-04-18T17:15:19.994Z</time></trkpt><trkpt lat="44.6778533" lon="10.74416"><ele>47.666666666666664</ele><time>2026-04-18T17:15:20.994Z</time></trkpt><trkpt lat="44.6777783" lon="10.7439533"><ele>47.33333333333333</ele><time>2026-04-18T17:15:21.993Z</time></trkpt><trkpt lat="44.677705" lon="10.7437567"><ele>47.0</ele><time>2026-04-18T17:15:22.994Z</time></trkpt><trkpt lat="44.6776317" lon="10.7435617"><ele>47.5</ele><time>2026-04-18T17:15:23.994Z</time></trkpt><trkpt lat="44.6775617" lon="10.74337"><ele>48.0</ele><time>2026-04-18T17:15:24.994Z</time></trkpt><trkpt lat="44.677495" lon="10.7431883"><ele>48.5</ele><time>2026-04-18T17:15:25.994Z</time></trkpt><trkpt lat="44.6774467" lon="10.7430117"><ele>49.0</ele><time>2026-04-18T17:15:26.994Z</time></trkpt><trkpt lat="44.6773917" lon="10.7428417"><ele>49.0</ele><time>2026-04-18T17:15:27.994Z</time></trkpt><trkpt lat="44.6773333" lon="10.7426783"><ele>49.0</ele><time>2026-04-18T17:15:28.993Z</time></trkpt><trkpt lat="44.6772717" lon="10.742515"><ele>49.0</ele><time>2026-04-18T17:15:29.994Z</time></trkpt><trkpt lat="44.6771583" lon="10.7421867"><ele>49.0</ele><time>2026-04-18T17:15:31.993Z</time></trkpt><trkpt lat="44.677085" lon="10.7420317"><ele>49.0</ele><time>2026-04-18T17:15:32.993Z</time></trkpt><trkpt lat="44.6770033" lon="10.74189"><ele>49.0</ele><time>2026-04-18T17:15:33.994Z</time></trkpt><trkpt lat="44.6769283" lon="10.7417467"><ele>49.0</ele><time>2026-04-18T17:15:34.993Z</time></trkpt><trkpt lat="44.676835" lon="10.74162"><ele>48.75</ele><time>2026-04-18T17:15:35.993Z</time></trkpt><trkpt lat="44.67673" lon="10.7414867"><ele>48.5</ele><time>2026-04-18T17:15:36.994Z</time></trkpt><trkpt lat="44.6766167" lon="10.7413533"><ele>48.25</ele><time>2026-04-18T17:15:37.994Z</time></trkpt><trkpt lat="44.6765" lon="10.7412233"><ele>48.0</ele><time>2026-04-18T17:15:38.994Z</time></trkpt><trkpt lat="44.6763717" lon="10.74109"><ele>47.666666666666664</ele><time>2026-04-18T17:15:39.993Z</time></trkpt><trkpt lat="44.676245" lon="10.7409317"><ele>47.33333333333333</ele><time>2026-04-18T17:15:40.994Z</time></trkpt><trkpt lat="44.6761067" lon="10.74077"><ele>47.0</ele><time>2026-04-18T17:15:41.993Z</time></trkpt><trkpt lat="44.6759667" lon="10.7406067"><ele>48.0</ele><time>2026-04-18T17:15:42.993Z</time></trkpt><trkpt lat="44.6758267" lon="10.7404467"><ele>49.0</ele><time>2026-04-18T17:15:43.993Z</time></trkpt><trkpt lat="44.6756967" lon="10.740295"><ele>50.0</ele><time>2026-04-18T17:15:44.994Z</time></trkpt><trkpt lat="44.675575" lon="10.740145"><ele>50.5</ele><time>2026-04-18T17:15:45.994Z</time></trkpt><trkpt lat="44.6754617" lon="10.73999"><ele>51.0</ele><time>2026-04-18T17:15:46.993Z</time></trkpt><trkpt lat="44.6753717" lon="10.7398233"><ele>51.5</ele><time>2026-04-18T17:15:47.993Z</time></trkpt><trkpt lat="44.6753117" lon="10.739645"><ele>52.0</ele><time>2026-04-18T17:15:48.994Z</time></trkpt><trkpt lat="44.6752817" lon="10.7394317"><ele>50.666666666666664</ele><time>2026-04-18T17:15:49.993Z</time></trkpt><trkpt lat="44.67527" lon="10.7392167"><ele>49.33333333333333</ele><time>2026-04-18T17:15:50.994Z</time></trkpt><trkpt lat="44.6752617" lon="10.7389983"><ele>48.0</ele><time>2026-04-18T17:15:51.994Z</time></trkpt><trkpt lat="44.675245" lon="10.7387767"><ele>48.0</ele><time>2026-04-18T17:15:52.993Z</time></trkpt><trkpt lat="44.6752233" lon="10.7385517"><ele>48.0</ele><time>2026-04-18T17:15:53.994Z</time></trkpt><trkpt lat="44.6751933" lon="10.7383283"><ele>48.0</ele><time>2026-04-18T17:15:54.993Z</time></trkpt><trkpt lat="44.6751567" lon="10.7380967"><ele>48.0</ele><time>2026-04-18T17:15:55.994Z</time></trkpt><trkpt lat="44.675115" lon="10.7378817"><ele>48.0</ele><time>2026-04-18T17:15:56.994Z</time></trkpt><trkpt lat="44.6750733" lon="10.73767"><ele>48.0</ele><time>2026-04-18T17:15:57.994Z</time></trkpt><trkpt lat="44.675035" lon="10.73747"><ele>48.25</ele><time>2026-04-18T17:15:58.993Z</time></trkpt><trkpt lat="44.6750117" lon="10.7372667"><ele>48.5</ele><time>2026-04-18T17:15:59.994Z</time></trkpt><trkpt lat="44.6750017" lon="10.7370617"><ele>48.75</ele><time>2026-04-18T17:16:00.993Z</time></trkpt><trkpt lat="44.6750067" lon="10.7368567"><ele>49.0</ele><time>2026-04-18T17:16:01.994Z</time></trkpt><trkpt lat="44.6750233" lon="10.7366533"><ele>49.666666666666664</ele><time>2026-04-18T17:16:02.993Z</time></trkpt><trkpt lat="44.6750417" lon="10.736445"><ele>50.33333333333333</ele><time>2026-04-18T17:16:03.992Z</time></trkpt><trkpt lat="44.675035" lon="10.7362233"><ele>51.0</ele><time>2026-04-18T17:16:04.993Z</time></trkpt><trkpt lat="44.6750083" lon="10.736"><ele>51.0</ele><time>2026-04-18T17:16:05.992Z</time></trkpt><trkpt lat="44.6749583" lon="10.735775"><ele>51.0</ele><time>2026-04-18T17:16:06.992Z</time></trkpt><trkpt lat="44.6748967" lon="10.73554"><ele>51.0</ele><time>2026-04-18T17:16:07.992Z</time></trkpt><trkpt lat="44.674825" lon="10.7352967"><ele>50.66666666666667</ele><time>2026-04-18T17:16:08.993Z</time></trkpt><trkpt lat="44.674745" lon="10.7350417"><ele>50.333333333333336</ele><time>2026-04-18T17:16:09.993Z</time></trkpt><trkpt lat="44.67467" lon="10.7347817"><ele>50.0</ele><time>2026-04-18T17:16:10.992Z</time></trkpt><trkpt lat="44.6745917" lon="10.7345217"><ele>49.333333333333336</ele><time>2026-04-18T17:16:11.992Z</time></trkpt><trkpt lat="44.6745217" lon="10.7342633"><ele>48.66666666666667</ele><time>2026-04-18T17:16:12.992Z</time></trkpt><trkpt lat="44.6744483" lon="10.73402"><ele>48.0</ele><time>2026-04-18T17:16:13.992Z</time></trkpt><trkpt lat="44.6743833" lon="10.733785"><ele>48.0</ele><time>2026-04-18T17:16:14.993Z</time></trkpt><trkpt lat="44.6743133" lon="10.7335567"><ele>48.0</ele><time>2026-04-18T17:16:15.992Z</time></trkpt><trkpt lat="44.67425" lon="10.7333383"><ele>48.0</ele><time>2026-04-18T17:16:16.993Z</time></trkpt><trkpt lat="44.6741967" lon="10.73313"><ele>48.0</ele><time>2026-04-18T17:16:17.993Z</time></trkpt><trkpt lat="44.6741517" lon="10.7329267"><ele>48.0</ele><time>2026-04-18T17:16:18.993Z</time></trkpt><trkpt lat="44.6741167" lon="10.7327183"><ele>48.0</ele><time>2026-04-18T17:16:19.993Z</time></trkpt><trkpt lat="44.6740917" lon="10.7325067"><ele>48.33333333333333</ele><time>2026-04-18T17:16:20.992Z</time></trkpt><trkpt lat="44.6740883" lon="10.7322717"><ele>48.666666666666664</ele><time>2026-04-18T17:16:21.993Z</time></trkpt><trkpt lat="44.6740983" lon="10.7320333"><ele>49.0</ele><time>2026-04-18T17:16:22.992Z</time></trkpt><trkpt lat="44.67413" lon="10.73179"><ele>49.666666666666664</ele><time>2026-04-18T17:16:23.993Z</time></trkpt><trkpt lat="44.6741833" lon="10.731555"><ele>50.33333333333333</ele><time>2026-04-18T17:16:24.993Z</time></trkpt><trkpt lat="44.674255" lon="10.7313183"><ele>51.0</ele><time>2026-04-18T17:16:25.992Z</time></trkpt><trkpt lat="44.6743267" lon="10.7310933"><ele>51.33333333333333</ele><time>2026-04-18T17:16:26.993Z</time></trkpt><trkpt lat="44.6744067" lon="10.7308833"><ele>51.666666666666664</ele><time>2026-04-18T17:16:27.993Z</time></trkpt><trkpt lat="44.6744867" lon="10.73069"><ele>52.0</ele><time>2026-04-18T17:16:28.992Z</time></trkpt><trkpt lat="44.6745633" lon="10.7305067"><ele>52.0</ele><time>2026-04-18T17:16:29.993Z</time></trkpt><trkpt lat="44.6746317" lon="10.730325"><ele>52.0</ele><time>2026-04-18T17:16:30.993Z</time></trkpt><trkpt lat="44.674695" lon="10.7301567"><ele>52.0</ele><time>2026-04-18T17:16:31.993Z</time></trkpt><trkpt lat="44.6747533" lon="10.72999"><ele>52.0</ele><time>2026-04-18T17:16:32.992Z</time></trkpt><trkpt lat="44.674805" lon="10.72983"><ele>52.0</ele><time>2026-04-18T17:16:33.992Z</time></trkpt><trkpt lat="44.674855" lon="10.729665"><ele>52.0</ele><time>2026-04-18T17:16:34.992Z</time></trkpt><trkpt lat="44.67491" lon="10.7294867"><ele>52.0</ele><time>2026-04-18T17:16:35.993Z</time></trkpt><trkpt lat="44.6749433" lon="10.729295"><ele>52.0</ele><time>2026-04-18T17:16:36.992Z</time></trkpt><trkpt lat="44.6749683" lon="10.7290767"><ele>52.0</ele><time>2026-04-18T17:16:37.993Z</time></trkpt><trkpt lat="44.6749517" lon="10.7288983"><ele>52.0</ele><time>2026-04-18T17:16:38.993Z</time></trkpt><trkpt lat="44.67491" lon="10.7286917"><ele>52.0</ele><time>2026-04-18T17:16:39.992Z</time></trkpt><trkpt lat="44.6748483" lon="10.7284883"><ele>52.0</ele><time>2026-04-18T17:16:40.992Z</time></trkpt><trkpt lat="44.6747717" lon="10.728285"><ele>52.666666666666664</ele><time>2026-04-18T17:16:41.992Z</time></trkpt><trkpt lat="44.6747" lon="10.728075"><ele>53.33333333333333</ele><time>2026-04-18T17:16:42.992Z</time></trkpt><trkpt lat="44.67463" lon="10.727865"><ele>54.0</ele><time>2026-04-18T17:16:43.993Z</time></trkpt><trkpt lat="44.6745583" lon="10.72768"><ele>54.0</ele><time>2026-04-18T17:16:44.992Z</time></trkpt><trkpt lat="44.6745033" lon="10.7274983"><ele>54.0</ele><time>2026-04-18T17:16:45.993Z</time></trkpt><trkpt lat="44.6744517" lon="10.7273317"><ele>54.0</ele><time>2026-04-18T17:16:46.993Z</time></trkpt><trkpt lat="44.6744017" lon="10.7271717"><ele>54.0</ele><time>2026-04-18T17:16:47.993Z</time></trkpt><trkpt lat="44.6743583" lon="10.7270183"><ele>53.333333333333336</ele><time>2026-04-18T17:16:48.993Z</time></trkpt><trkpt lat="44.6743367" lon="10.72688"><ele>52.66666666666667</ele><time>2026-04-18T17:16:49.992Z</time></trkpt><trkpt lat="44.674325" lon="10.726745"><ele>52.0</ele><time>2026-04-18T17:16:50.993Z</time></trkpt><trkpt lat="44.67432" lon="10.7266233"><ele>51.333333333333336</ele><time>2026-04-18T17:16:51.992Z</time></trkpt><trkpt lat="44.67432" lon="10.7265167"><ele>50.66666666666667</ele><time>2026-04-18T17:16:52.992Z</time></trkpt><trkpt lat="44.6743217" lon="10.72642"><ele>50.0</ele><time>2026-04-18T17:16:53.992Z</time></trkpt><trkpt lat="44.6743317" lon="10.72631"><ele>50.0</ele><time>2026-04-18T17:16:54.992Z</time></trkpt><trkpt lat="44.67435" lon="10.7261867"><ele>50.0</ele><time>2026-04-18T17:16:55.993Z</time></trkpt><trkpt lat="44.67439" lon="10.7260517"><ele>50.0</ele><time>2026-04-18T17:16:56.993Z</time></trkpt><trkpt lat="44.6744283" lon="10.7259033"><ele>50.0</ele><time>2026-04-18T17:16:57.992Z</time></trkpt><trkpt lat="44.6744733" lon="10.7257567"><ele>50.0</ele><time>2026-04-18T17:16:58.992Z</time></trkpt><trkpt lat="44.6745183" lon="10.72561"><ele>50.0</ele><time>2026-04-18T17:16:59.993Z</time></trkpt><trkpt lat="44.6745683" lon="10.72546"><ele>50.0</ele><time>2026-04-18T17:17:00.992Z</time></trkpt><trkpt lat="44.674615" lon="10.7252883"><ele>50.0</ele><time>2026-04-18T17:17:01.993Z</time></trkpt><trkpt lat="44.6746517" lon="10.7251083"><ele>50.0</ele><time>2026-04-18T17:17:02.992Z</time></trkpt><trkpt lat="44.6746683" lon="10.724915"><ele>50.333333333333336</ele><time>2026-04-18T17:17:03.993Z</time></trkpt><trkpt lat="44.6746683" lon="10.7247117"><ele>50.66666666666667</ele><time>2026-04-18T17:17:04.992Z</time></trkpt><trkpt lat="44.6746433" lon="10.7245"><ele>51.0</ele><time>2026-04-18T17:17:05.992Z</time></trkpt><trkpt lat="44.67461" lon="10.7242833"><ele>51.0</ele><time>2026-04-18T17:17:06.993Z</time></trkpt><trkpt lat="44.6745617" lon="10.7240717"><ele>51.0</ele><time>2026-04-18T17:17:07.992Z</time></trkpt><trkpt lat="44.6745133" lon="10.72386"><ele>51.0</ele><time>2026-04-18T17:17:08.992Z</time></trkpt><trkpt lat="44.6744817" lon="10.7236433"><ele>51.25</ele><time>2026-04-18T17:17:09.992Z</time></trkpt><trkpt lat="44.67447" lon="10.72343"><ele>51.5</ele><time>2026-04-18T17:17:10.993Z</time></trkpt><trkpt lat="44.6744817" lon="10.7232183"><ele>51.75</ele><time>2026-04-18T17:17:11.993Z</time></trkpt><trkpt lat="44.6745133" lon="10.72302"><ele>52.0</ele><time>2026-04-18T17:17:12.992Z</time></trkpt><trkpt lat="44.6745467" lon="10.7228333"><ele>52.0</ele><time>2026-04-18T17:17:13.993Z</time></trkpt><trkpt lat="44.67458" lon="10.7226617"><ele>52.0</ele><time>2026-04-18T17:17:14.992Z</time></trkpt><trkpt lat="44.6746067" lon="10.72249"><ele>52.0</ele><time>2026-04-18T17:17:15.992Z</time></trkpt><trkpt lat="44.674625" lon="10.7223117"><ele>52.0</ele><time>2026-04-18T17:17:16.992Z</time></trkpt><trkpt lat="44.674625" lon="10.7221217"><ele>52.0</ele><time>2026-04-18T17:17:17.992Z</time></trkpt><trkpt lat="44.6746133" lon="10.721915"><ele>52.0</ele><time>2026-04-18T17:17:18.992Z</time></trkpt><trkpt lat="44.674585" lon="10.72171"><ele>52.0</ele><time>2026-04-18T17:17:19.992Z</time></trkpt><trkpt lat="44.6745617" lon="10.7215183"><ele>52.0</ele><time>2026-04-18T17:17:20.993Z</time></trkpt><trkpt lat="44.67454" lon="10.721325"><ele>52.25</ele><time>2026-04-18T17:17:21.992Z</time></trkpt><trkpt lat="44.6745367" lon="10.7211367"><ele>52.5</ele><time>2026-04-18T17:17:22.993Z</time></trkpt><trkpt lat="44.674555" lon="10.72095"><ele>52.75</ele><time>2026-04-18T17:17:23.993Z</time></trkpt><trkpt lat="44.6745917" lon="10.720765"><ele>53.0</ele><time>2026-04-18T17:17:24.992Z</time></trkpt><trkpt lat="44.6746567" lon="10.7205783"><ele>53.0</ele><time>2026-04-18T17:17:25.993Z</time></trkpt><trkpt lat="44.6747383" lon="10.7204033"><ele>53.0</ele><time>2026-04-18T17:17:26.993Z</time></trkpt><trkpt lat="44.6748283" lon="10.7202617"><ele>53.0</ele><time>2026-04-18T17:17:27.993Z</time></trkpt><trkpt lat="44.6749167" lon="10.7201183"><ele>53.0</ele><time>2026-04-18T17:17:28.992Z</time></trkpt><trkpt lat="44.675" lon="10.719965"><ele>53.0</ele><time>2026-04-18T17:17:29.993Z</time></trkpt><trkpt lat="44.675065" lon="10.7198"><ele>53.0</ele><time>2026-04-18T17:17:30.992Z</time></trkpt><trkpt lat="44.67511" lon="10.719645"><ele>53.0</ele><time>2026-04-18T17:17:31.993Z</time></trkpt><trkpt lat="44.675135" lon="10.7194917"><ele>53.0</ele><time>2026-04-18T17:17:32.992Z</time></trkpt><trkpt lat="44.6751433" lon="10.7193233"><ele>53.0</ele><time>2026-04-18T17:17:33.992Z</time></trkpt><trkpt lat="44.6751333" lon="10.7191467"><ele>53.0</ele><time>2026-04-18T17:17:34.993Z</time></trkpt><trkpt lat="44.67511" lon="10.718955"><ele>53.0</ele><time>2026-04-18T17:17:35.993Z</time></trkpt><trkpt lat="44.6750833" lon="10.7187633"><ele>53.0</ele><time>2026-04-18T17:17:36.993Z</time></trkpt><trkpt lat="44.6750517" lon="10.7185667"><ele>53.0</ele><time>2026-04-18T17:17:37.993Z</time></trkpt><trkpt lat="44.6750133" lon="10.7183583"><ele>53.0</ele><time>2026-04-18T17:17:38.993Z</time></trkpt><trkpt lat="44.6749683" lon="10.71814"><ele>53.0</ele><time>2026-04-18T17:17:39.993Z</time></trkpt><trkpt lat="44.67491" lon="10.717925"><ele>53.0</ele><time>2026-04-18T17:17:40.993Z</time></trkpt><trkpt lat="44.6748533" lon="10.71772"><ele>53.0</ele><time>2026-04-18T17:17:41.992Z</time></trkpt><trkpt lat="44.6747883" lon="10.7175233"><ele>53.0</ele><time>2026-04-18T17:17:42.992Z</time></trkpt><trkpt lat="44.674725" lon="10.7173167"><ele>53.0</ele><time>2026-04-18T17:17:43.992Z</time></trkpt><trkpt lat="44.6746483" lon="10.7171117"><ele>53.0</ele><time>2026-04-18T17:17:44.993Z</time></trkpt><trkpt lat="44.6745817" lon="10.716915"><ele>53.0</ele><time>2026-04-18T17:17:45.993Z</time></trkpt><trkpt lat="44.6745217" lon="10.71673"><ele>53.0</ele><time>2026-04-18T17:17:46.993Z</time></trkpt><trkpt lat="44.6744683" lon="10.71653"><ele>53.0</ele><time>2026-04-18T17:17:47.993Z</time></trkpt><trkpt lat="44.674435" lon="10.7163167"><ele>53.0</ele><time>2026-04-18T17:17:48.993Z</time></trkpt><trkpt lat="44.67443" lon="10.7161033"><ele>53.0</ele><time>2026-04-18T17:17:49.992Z</time></trkpt><trkpt lat="44.6744467" lon="10.7159117"><ele>53.0</ele><time>2026-04-18T17:17:50.992Z</time></trkpt><trkpt lat="44.6744717" lon="10.7157317"><ele>53.0</ele><time>2026-04-18T17:17:51.993Z</time></trkpt><trkpt lat="44.6745117" lon="10.7155617"><ele>53.0</ele><time>2026-04-18T17:17:52.992Z</time></trkpt><trkpt lat="44.674565" lon="10.7153933"><ele>53.0</ele><time>2026-04-18T17:17:53.992Z</time></trkpt><trkpt lat="44.674615" lon="10.71524"><ele>53.0</ele><time>2026-04-18T17:17:54.992Z</time></trkpt><trkpt lat="44.6746583" lon="10.7150917"><ele>53.0</ele><time>2026-04-18T17:17:55.993Z</time></trkpt><trkpt lat="44.6746933" lon="10.71497"><ele>53.0</ele><time>2026-04-18T17:17:56.993Z</time></trkpt><trkpt lat="44.6747283" lon="10.714875"><ele>53.0</ele><time>2026-04-18T17:17:57.993Z</time></trkpt><trkpt lat="44.674785" lon="10.71474"><ele>53.0</ele><time>2026-04-18T17:17:59.993Z</time></trkpt><trkpt lat="44.6748167" lon="10.7146"><ele>53.0</ele><time>2026-04-18T17:18:01.992Z</time></trkpt><trkpt lat="44.6747883" lon="10.714465"><ele>53.0</ele><time>2026-04-18T17:18:03.992Z</time></trkpt><trkpt lat="44.6746817" lon="10.7143817"><ele>53.0</ele><time>2026-04-18T17:18:05.992Z</time></trkpt><trkpt lat="44.6745967" lon="10.7143467"><ele>53.0</ele><time>2026-04-18T17:18:06.992Z</time></trkpt><trkpt lat="44.674495" lon="10.7143183"><ele>54.0</ele><time>2026-04-18T17:18:07.993Z</time></trkpt><trkpt lat="44.6743767" lon="10.7142867"><ele>55.0</ele><time>2026-04-18T17:18:08.993Z</time></trkpt><trkpt lat="44.6742417" lon="10.7142483"><ele>56.0</ele><time>2026-04-18T17:18:09.992Z</time></trkpt><trkpt lat="44.6741033" lon="10.7142133"><ele>57.0</ele><time>2026-04-18T17:18:10.992Z</time></trkpt><trkpt lat="44.6739667" lon="10.7141783"><ele>57.0</ele><time>2026-04-18T17:18:11.992Z</time></trkpt><trkpt lat="44.673815" lon="10.71412"><ele>57.0</ele><time>2026-04-18T17:18:12.993Z</time></trkpt><trkpt lat="44.6736633" lon="10.7140433"><ele>57.0</ele><time>2026-04-18T17:18:13.992Z</time></trkpt><trkpt lat="44.6735017" lon="10.713965"><ele>56.33333333333333</ele><time>2026-04-18T17:18:14.992Z</time></trkpt><trkpt lat="44.6733433" lon="10.71386"><ele>55.666666666666664</ele><time>2026-04-18T17:18:15.992Z</time></trkpt><trkpt lat="44.67318" lon="10.7137417"><ele>55.0</ele><time>2026-04-18T17:18:16.992Z</time></trkpt><trkpt lat="44.6730133" lon="10.7136167"><ele>55.0</ele><time>2026-04-18T17:18:17.992Z</time></trkpt><trkpt lat="44.6728517" lon="10.7134917"><ele>55.0</ele><time>2026-04-18T17:18:18.992Z</time></trkpt><trkpt lat="44.6726867" lon="10.7133717"><ele>55.0</ele><time>2026-04-18T17:18:19.992Z</time></trkpt><trkpt lat="44.6725233" lon="10.7132517"><ele>55.0</ele><time>2026-04-18T17:18:20.992Z</time></trkpt><trkpt lat="44.67236" lon="10.71313"><ele>55.0</ele><time>2026-04-18T17:18:21.992Z</time></trkpt><trkpt lat="44.6721917" lon="10.7130067"><ele>55.0</ele><time>2026-04-18T17:18:22.992Z</time></trkpt><trkpt lat="44.6720267" lon="10.7128783"><ele>55.0</ele><time>2026-04-18T17:18:23.993Z</time></trkpt><trkpt lat="44.6718633" lon="10.71276"><ele>55.0</ele><time>2026-04-18T17:18:24.993Z</time></trkpt><trkpt lat="44.6717033" lon="10.71263"><ele>55.0</ele><time>2026-04-18T17:18:25.993Z</time></trkpt><trkpt lat="44.6715367" lon="10.712505"><ele>54.666666666666664</ele><time>2026-04-18T17:18:26.992Z</time></trkpt><trkpt lat="44.671365" lon="10.7123683"><ele>54.33333333333333</ele><time>2026-04-18T17:18:27.993Z</time></trkpt><trkpt lat="44.6711833" lon="10.712235"><ele>54.0</ele><time>2026-04-18T17:18:28.992Z</time></trkpt><trkpt lat="44.6709983" lon="10.7121017"><ele>54.0</ele><time>2026-04-18T17:18:29.993Z</time></trkpt><trkpt lat="44.67082" lon="10.7119883"><ele>54.0</ele><time>2026-04-18T17:18:30.993Z</time></trkpt><trkpt lat="44.6706483" lon="10.71189"><ele>54.0</ele><time>2026-04-18T17:18:31.992Z</time></trkpt><trkpt lat="44.6704867" lon="10.711805"><ele>54.0</ele><time>2026-04-18T17:18:32.993Z</time></trkpt><trkpt lat="44.67033" lon="10.711725"><ele>54.0</ele><time>2026-04-18T17:18:33.992Z</time></trkpt><trkpt lat="44.6701783" lon="10.711655"><ele>54.0</ele><time>2026-04-18T17:18:34.993Z</time></trkpt><trkpt lat="44.6700283" lon="10.7115867"><ele>54.5</ele><time>2026-04-18T17:18:35.993Z</time></trkpt><trkpt lat="44.6698967" lon="10.7115183"><ele>55.0</ele><time>2026-04-18T17:18:36.992Z</time></trkpt><trkpt lat="44.6697817" lon="10.7114533"><ele>55.5</ele><time>2026-04-18T17:18:37.992Z</time></trkpt><trkpt lat="44.6696967" lon="10.7113817"><ele>56.0</ele><time>2026-04-18T17:18:38.992Z</time></trkpt><trkpt lat="44.6696117" lon="10.7113133"><ele>56.0</ele><time>2026-04-18T17:18:39.992Z</time></trkpt><trkpt lat="44.66954" lon="10.7112467"><ele>55.99999999999999</ele><time>2026-04-18T17:18:40.993Z</time></trkpt><trkpt lat="44.669485" lon="10.71118"><ele>55.99999999999999</ele><time>2026-04-18T17:18:41.992Z</time></trkpt><trkpt lat="44.6694033" lon="10.711145"><ele>56.0</ele><time>2026-04-18T17:18:43.993Z</time></trkpt><trkpt lat="44.6693317" lon="10.711175"><ele>56.0</ele><time>2026-04-18T17:18:49.992Z</time></trkpt><trkpt lat="44.669235" lon="10.71133"><ele>57.0</ele><time>2026-04-18T17:18:51.992Z</time></trkpt><trkpt lat="44.6691717" lon="10.711465"><ele>58.0</ele><time>2026-04-18T17:18:52.992Z</time></trkpt><trkpt lat="44.6691017" lon="10.7116233"><ele>59.0</ele><time>2026-04-18T17:18:53.992Z</time></trkpt><trkpt lat="44.6690317" lon="10.7117983"><ele>60.0</ele><time>2026-04-18T17:18:54.993Z</time></trkpt><trkpt lat="44.6689683" lon="10.71198"><ele>61.5</ele><time>2026-04-18T17:18:55.993Z</time></trkpt><trkpt lat="44.6688967" lon="10.712155"><ele>63.0</ele><time>2026-04-18T17:18:56.992Z</time></trkpt><trkpt lat="44.6688417" lon="10.7123383"><ele>64.5</ele><time>2026-04-18T17:18:57.993Z</time></trkpt><trkpt lat="44.6687767" lon="10.712515"><ele>66.0</ele><time>2026-04-18T17:18:58.993Z</time></trkpt><trkpt lat="44.6687183" lon="10.7126733"><ele>65.0</ele><time>2026-04-18T17:18:59.993Z</time></trkpt><trkpt lat="44.6686567" lon="10.712835"><ele>64.0</ele><time>2026-04-18T17:19:00.993Z</time></trkpt><trkpt lat="44.6685983" lon="10.7129967"><ele>63.0</ele><time>2026-04-18T17:19:01.992Z</time></trkpt><trkpt lat="44.668545" lon="10.7131767"><ele>62.0</ele><time>2026-04-18T17:19:02.992Z</time></trkpt><trkpt lat="44.668485" lon="10.7133483"><ele>61.25</ele><time>2026-04-18T17:19:03.993Z</time></trkpt><trkpt lat="44.66842" lon="10.7135183"><ele>60.5</ele><time>2026-04-18T17:19:04.993Z</time></trkpt><trkpt lat="44.6683667" lon="10.7137"><ele>59.75</ele><time>2026-04-18T17:19:05.993Z</time></trkpt><trkpt lat="44.6683117" lon="10.7138867"><ele>59.0</ele><time>2026-04-18T17:19:06.993Z</time></trkpt><trkpt lat="44.66826" lon="10.7140767"><ele>58.66666666666667</ele><time>2026-04-18T17:19:07.993Z</time></trkpt><trkpt lat="44.6682083" lon="10.7142617"><ele>58.33333333333333</ele><time>2026-04-18T17:19:08.993Z</time></trkpt><trkpt lat="44.6681033" lon="10.71461"><ele>58.0</ele><time>2026-04-18T17:19:10.992Z</time></trkpt><trkpt lat="44.6680567" lon="10.7147833"><ele>58.0</ele><time>2026-04-18T17:19:11.992Z</time></trkpt><trkpt lat="44.6680233" lon="10.7149717"><ele>58.0</ele><time>2026-04-18T17:19:12.992Z</time></trkpt><trkpt lat="44.6679733" lon="10.7151533"><ele>58.0</ele><time>2026-04-18T17:19:13.993Z</time></trkpt><trkpt lat="44.6679183" lon="10.7153367"><ele>58.0</ele><time>2026-04-18T17:19:14.993Z</time></trkpt><trkpt lat="44.6678667" lon="10.7155233"><ele>58.0</ele><time>2026-04-18T17:19:15.992Z</time></trkpt><trkpt lat="44.667805" lon="10.715705"><ele>58.0</ele><time>2026-04-18T17:19:16.993Z</time></trkpt><trkpt lat="44.667765" lon="10.7158883"><ele>58.0</ele><time>2026-04-18T17:19:17.992Z</time></trkpt><trkpt lat="44.6677117" lon="10.7160667"><ele>58.0</ele><time>2026-04-18T17:19:18.993Z</time></trkpt><trkpt lat="44.6676583" lon="10.7162567"><ele>57.25</ele><time>2026-04-18T17:19:19.992Z</time></trkpt><trkpt lat="44.6676033" lon="10.71644"><ele>56.5</ele><time>2026-04-18T17:19:20.992Z</time></trkpt><trkpt lat="44.6675533" lon="10.716635"><ele>55.75</ele><time>2026-04-18T17:19:21.993Z</time></trkpt><trkpt lat="44.6674967" lon="10.7168383"><ele>55.0</ele><time>2026-04-18T17:19:22.993Z</time></trkpt><trkpt lat="44.6674433" lon="10.71705"><ele>54.666666666666664</ele><time>2026-04-18T17:19:23.992Z</time></trkpt><trkpt lat="44.6673917" lon="10.7172617"><ele>54.33333333333333</ele><time>2026-04-18T17:19:24.992Z</time></trkpt><trkpt lat="44.6673333" lon="10.7174683"><ele>54.0</ele><time>2026-04-18T17:19:25.993Z</time></trkpt><trkpt lat="44.6672817" lon="10.717655"><ele>54.5</ele><time>2026-04-18T17:19:26.993Z</time></trkpt><trkpt lat="44.6672367" lon="10.71784"><ele>55.0</ele><time>2026-04-18T17:19:27.993Z</time></trkpt><trkpt lat="44.6671883" lon="10.7180333"><ele>55.5</ele><time>2026-04-18T17:19:28.993Z</time></trkpt><trkpt lat="44.6671383" lon="10.7182133"><ele>56.0</ele><time>2026-04-18T17:19:29.992Z</time></trkpt><trkpt lat="44.6670867" lon="10.7183867"><ele>56.0</ele><time>2026-04-18T17:19:30.992Z</time></trkpt><trkpt lat="44.6670367" lon="10.71855"><ele>56.0</ele><time>2026-04-18T17:19:31.992Z</time></trkpt><trkpt lat="44.666995" lon="10.71871"><ele>56.0</ele><time>2026-04-18T17:19:32.993Z</time></trkpt><trkpt lat="44.6669517" lon="10.7188733"><ele>56.0</ele><time>2026-04-18T17:19:33.992Z</time></trkpt><trkpt lat="44.6669067" lon="10.7190417"><ele>56.0</ele><time>2026-04-18T17:19:34.992Z</time></trkpt><trkpt lat="44.666865" lon="10.719215"><ele>56.0</ele><time>2026-04-18T17:19:35.993Z</time></trkpt><trkpt lat="44.6668233" lon="10.7193783"><ele>56.0</ele><time>2026-04-18T17:19:36.992Z</time></trkpt><trkpt lat="44.66678" lon="10.7195417"><ele>56.0</ele><time>2026-04-18T17:19:37.992Z</time></trkpt><trkpt lat="44.666735" lon="10.719705"><ele>55.75</ele><time>2026-04-18T17:19:38.993Z</time></trkpt><trkpt lat="44.6666933" lon="10.719865"><ele>55.5</ele><time>2026-04-18T17:19:39.992Z</time></trkpt><trkpt lat="44.666645" lon="10.7200383"><ele>55.25</ele><time>2026-04-18T17:19:40.992Z</time></trkpt><trkpt lat="44.666595" lon="10.7202133"><ele>55.0</ele><time>2026-04-18T17:19:41.992Z</time></trkpt><trkpt lat="44.6665433" lon="10.720395"><ele>55.0</ele><time>2026-04-18T17:19:42.993Z</time></trkpt><trkpt lat="44.6664833" lon="10.7205833"><ele>55.0</ele><time>2026-04-18T17:19:43.993Z</time></trkpt><trkpt lat="44.6664333" lon="10.7207867"><ele>55.0</ele><time>2026-04-18T17:19:44.993Z</time></trkpt><trkpt lat="44.6663767" lon="10.7209917"><ele>54.666666666666664</ele><time>2026-04-18T17:19:45.992Z</time></trkpt><trkpt lat="44.6663233" lon="10.7212067"><ele>54.33333333333333</ele><time>2026-04-18T17:19:46.993Z</time></trkpt><trkpt lat="44.6662667" lon="10.7214033"><ele>54.0</ele><time>2026-04-18T17:19:47.992Z</time></trkpt><trkpt lat="44.6662183" lon="10.7215983"><ele>54.0</ele><time>2026-04-18T17:19:48.992Z</time></trkpt><trkpt lat="44.6661733" lon="10.721785"><ele>54.0</ele><time>2026-04-18T17:19:49.992Z</time></trkpt><trkpt lat="44.666125" lon="10.72197"><ele>54.0</ele><time>2026-04-18T17:19:50.992Z</time></trkpt><trkpt lat="44.6660667" lon="10.7221617"><ele>54.0</ele><time>2026-04-18T17:19:51.992Z</time></trkpt><trkpt lat="44.6660167" lon="10.7223667"><ele>53.66666666666667</ele><time>2026-04-18T17:19:52.992Z</time></trkpt><trkpt lat="44.66597" lon="10.7225667"><ele>53.333333333333336</ele><time>2026-04-18T17:19:53.992Z</time></trkpt><trkpt lat="44.6659233" lon="10.7227667"><ele>53.0</ele><time>2026-04-18T17:19:54.992Z</time></trkpt><trkpt lat="44.66587" lon="10.722965"><ele>53.0</ele><time>2026-04-18T17:19:55.993Z</time></trkpt><trkpt lat="44.665815" lon="10.7231583"><ele>53.0</ele><time>2026-04-18T17:19:56.992Z</time></trkpt><trkpt lat="44.6657633" lon="10.7233483"><ele>53.0</ele><time>2026-04-18T17:19:57.992Z</time></trkpt><trkpt lat="44.6657183" lon="10.7235317"><ele>53.0</ele><time>2026-04-18T17:19:58.992Z</time></trkpt><trkpt lat="44.6656683" lon="10.72371"><ele>53.25</ele><time>2026-04-18T17:19:59.993Z</time></trkpt><trkpt lat="44.66562" lon="10.7238867"><ele>53.5</ele><time>2026-04-18T17:20:00.993Z</time></trkpt><trkpt lat="44.6655783" lon="10.7240617"><ele>53.75</ele><time>2026-04-18T17:20:01.992Z</time></trkpt><trkpt lat="44.6655317" lon="10.724235"><ele>54.0</ele><time>2026-04-18T17:20:02.993Z</time></trkpt><trkpt lat="44.6654883" lon="10.7243983"><ele>54.0</ele><time>2026-04-18T17:20:03.992Z</time></trkpt><trkpt lat="44.6654417" lon="10.7245667"><ele>54.0</ele><time>2026-04-18T17:20:04.992Z</time></trkpt><trkpt lat="44.6653933" lon="10.7247417"><ele>54.0</ele><time>2026-04-18T17:20:05.993Z</time></trkpt><trkpt lat="44.6653467" lon="10.72494"><ele>54.0</ele><time>2026-04-18T17:20:06.992Z</time></trkpt><trkpt lat="44.66529" lon="10.7251367"><ele>53.0</ele><time>2026-04-18T17:20:07.992Z</time></trkpt><trkpt lat="44.6652383" lon="10.72532"><ele>52.0</ele><time>2026-04-18T17:20:08.992Z</time></trkpt><trkpt lat="44.6651983" lon="10.7254917"><ele>51.0</ele><time>2026-04-18T17:20:09.992Z</time></trkpt><trkpt lat="44.6651583" lon="10.7256467"><ele>50.0</ele><time>2026-04-18T17:20:10.992Z</time></trkpt><trkpt lat="44.6651167" lon="10.72579"><ele>50.0</ele><time>2026-04-18T17:20:11.992Z</time></trkpt><trkpt lat="44.66507" lon="10.72594"><ele>50.0</ele><time>2026-04-18T17:20:12.993Z</time></trkpt><trkpt lat="44.6650217" lon="10.72611"><ele>50.0</ele><time>2026-04-18T17:20:13.993Z</time></trkpt><trkpt lat="44.6649767" lon="10.7262833"><ele>50.0</ele><time>2026-04-18T17:20:14.992Z</time></trkpt><trkpt lat="44.6649367" lon="10.7264433"><ele>50.75</ele><time>2026-04-18T17:20:15.993Z</time></trkpt><trkpt lat="44.664895" lon="10.7266033"><ele>51.5</ele><time>2026-04-18T17:20:16.993Z</time></trkpt><trkpt lat="44.6648533" lon="10.7267633"><ele>52.25</ele><time>2026-04-18T17:20:17.992Z</time></trkpt><trkpt lat="44.6648067" lon="10.72693"><ele>53.0</ele><time>2026-04-18T17:20:18.993Z</time></trkpt><trkpt lat="44.664765" lon="10.727095"><ele>53.0</ele><time>2026-04-18T17:20:19.992Z</time></trkpt><trkpt lat="44.664725" lon="10.7272683"><ele>53.0</ele><time>2026-04-18T17:20:20.992Z</time></trkpt><trkpt lat="44.66468" lon="10.7274483"><ele>53.0</ele><time>2026-04-18T17:20:21.992Z</time></trkpt><trkpt lat="44.6646283" lon="10.7276267"><ele>53.0</ele><time>2026-04-18T17:20:22.993Z</time></trkpt><trkpt lat="44.664575" lon="10.7278"><ele>52.5</ele><time>2026-04-18T17:20:23.992Z</time></trkpt><trkpt lat="44.6645233" lon="10.7279917"><ele>52.0</ele><time>2026-04-18T17:20:24.992Z</time></trkpt><trkpt lat="44.6644667" lon="10.72818"><ele>51.5</ele><time>2026-04-18T17:20:25.993Z</time></trkpt><trkpt lat="44.6644033" lon="10.72837"><ele>51.0</ele><time>2026-04-18T17:20:26.993Z</time></trkpt><trkpt lat="44.6643367" lon="10.72857"><ele>50.66666666666667</ele><time>2026-04-18T17:20:27.993Z</time></trkpt><trkpt lat="44.6642717" lon="10.7287733"><ele>50.333333333333336</ele><time>2026-04-18T17:20:28.992Z</time></trkpt><trkpt lat="44.6642033" lon="10.7289733"><ele>50.0</ele><time>2026-04-18T17:20:29.992Z</time></trkpt><trkpt lat="44.66413" lon="10.7291783"><ele>50.0</ele><time>2026-04-18T17:20:30.993Z</time></trkpt><trkpt lat="44.66406" lon="10.7293783"><ele>50.0</ele><time>2026-04-18T17:20:31.993Z</time></trkpt><trkpt lat="44.6639917" lon="10.72958"><ele>50.0</ele><time>2026-04-18T17:20:32.992Z</time></trkpt><trkpt lat="44.6639367" lon="10.729765"><ele>50.5</ele><time>2026-04-18T17:20:33.993Z</time></trkpt><trkpt lat="44.6638817" lon="10.7299417"><ele>51.0</ele><time>2026-04-18T17:20:34.993Z</time></trkpt><trkpt lat="44.6638183" lon="10.7301033"><ele>51.5</ele><time>2026-04-18T17:20:35.993Z</time></trkpt><trkpt lat="44.66376" lon="10.7302833"><ele>52.0</ele><time>2026-04-18T17:20:36.993Z</time></trkpt><trkpt lat="44.6637" lon="10.7304683"><ele>52.0</ele><time>2026-04-18T17:20:37.992Z</time></trkpt><trkpt lat="44.6636367" lon="10.730655"><ele>52.0</ele><time>2026-04-18T17:20:38.993Z</time></trkpt><trkpt lat="44.66357" lon="10.7308417"><ele>52.0</ele><time>2026-04-18T17:20:39.993Z</time></trkpt><trkpt lat="44.6634983" lon="10.7310333"><ele>51.5</ele><time>2026-04-18T17:20:40.992Z</time></trkpt><trkpt lat="44.66343" lon="10.731215"><ele>51.0</ele><time>2026-04-18T17:20:41.992Z</time></trkpt><trkpt lat="44.6633733" lon="10.7313883"><ele>50.5</ele><time>2026-04-18T17:20:42.992Z</time></trkpt><trkpt lat="44.6633117" lon="10.731555"><ele>50.0</ele><time>2026-04-18T17:20:43.992Z</time></trkpt><trkpt lat="44.6632567" lon="10.7317267"><ele>50.0</ele><time>2026-04-18T17:20:44.992Z</time></trkpt><trkpt lat="44.663195" lon="10.7319017"><ele>50.0</ele><time>2026-04-18T17:20:45.992Z</time></trkpt><trkpt lat="44.663135" lon="10.732075"><ele>50.0</ele><time>2026-04-18T17:20:46.992Z</time></trkpt><trkpt lat="44.663075" lon="10.7322517"><ele>50.0</ele><time>2026-04-18T17:20:47.992Z</time></trkpt><trkpt lat="44.6630133" lon="10.7324217"><ele>50.0</ele><time>2026-04-18T17:20:48.993Z</time></trkpt><trkpt lat="44.6629533" lon="10.7326017"><ele>50.0</ele><time>2026-04-18T17:20:49.993Z</time></trkpt><trkpt lat="44.6628833" lon="10.7328017"><ele>50.0</ele><time>2026-04-18T17:20:50.993Z</time></trkpt><trkpt lat="44.6628183" lon="10.7330083"><ele>50.333333333333336</ele><time>2026-04-18T17:20:51.992Z</time></trkpt><trkpt lat="44.6627467" lon="10.73322"><ele>50.66666666666667</ele><time>2026-04-18T17:20:52.993Z</time></trkpt><trkpt lat="44.6626817" lon="10.7334133"><ele>51.0</ele><time>2026-04-18T17:20:53.993Z</time></trkpt><trkpt lat="44.6626183" lon="10.73359"><ele>51.0</ele><time>2026-04-18T17:20:54.993Z</time></trkpt><trkpt lat="44.66256" lon="10.7337617"><ele>51.0</ele><time>2026-04-18T17:20:55.992Z</time></trkpt><trkpt lat="44.6625" lon="10.7339383"><ele>51.0</ele><time>2026-04-18T17:20:56.993Z</time></trkpt><trkpt lat="44.6624433" lon="10.7341133"><ele>51.0</ele><time>2026-04-18T17:20:57.991Z</time></trkpt><trkpt lat="44.66238" lon="10.73429"><ele>51.0</ele><time>2026-04-18T17:20:58.993Z</time></trkpt><trkpt lat="44.6623167" lon="10.7344767"><ele>51.0</ele><time>2026-04-18T17:20:59.993Z</time></trkpt><trkpt lat="44.6622617" lon="10.7346617"><ele>51.0</ele><time>2026-04-18T17:21:00.992Z</time></trkpt><trkpt lat="44.6621983" lon="10.734845"><ele>51.0</ele><time>2026-04-18T17:21:01.992Z</time></trkpt><trkpt lat="44.66214" lon="10.7350283"><ele>51.0</ele><time>2026-04-18T17:21:02.992Z</time></trkpt><trkpt lat="44.6620783" lon="10.7352067"><ele>51.0</ele><time>2026-04-18T17:21:03.992Z</time></trkpt><trkpt lat="44.662015" lon="10.7353733"><ele>51.0</ele><time>2026-04-18T17:21:04.993Z</time></trkpt><trkpt lat="44.6619567" lon="10.7355333"><ele>51.0</ele><time>2026-04-18T17:21:05.992Z</time></trkpt><trkpt lat="44.6618867" lon="10.7356883"><ele>51.5</ele><time>2026-04-18T17:21:06.993Z</time></trkpt><trkpt lat="44.661835" lon="10.73586"><ele>52.0</ele><time>2026-04-18T17:21:07.992Z</time></trkpt><trkpt lat="44.66178" lon="10.7360333"><ele>52.5</ele><time>2026-04-18T17:21:08.992Z</time></trkpt><trkpt lat="44.6617183" lon="10.73622"><ele>53.0</ele><time>2026-04-18T17:21:09.993Z</time></trkpt><trkpt lat="44.6616583" lon="10.7364083"><ele>53.333333333333336</ele><time>2026-04-18T17:21:10.992Z</time></trkpt><trkpt lat="44.66159" lon="10.7366033"><ele>53.66666666666667</ele><time>2026-04-18T17:21:11.992Z</time></trkpt><trkpt lat="44.661525" lon="10.7368033"><ele>54.0</ele><time>2026-04-18T17:21:12.992Z</time></trkpt><trkpt lat="44.66146" lon="10.7369967"><ele>54.0</ele><time>2026-04-18T17:21:13.993Z</time></trkpt><trkpt lat="44.6613933" lon="10.7371917"><ele>54.0</ele><time>2026-04-18T17:21:14.993Z</time></trkpt><trkpt lat="44.66133" lon="10.737395"><ele>54.0</ele><time>2026-04-18T17:21:15.993Z</time></trkpt><trkpt lat="44.6612583" lon="10.7376233"><ele>53.66666666666667</ele><time>2026-04-18T17:21:16.992Z</time></trkpt><trkpt lat="44.661175" lon="10.73788"><ele>53.333333333333336</ele><time>2026-04-18T17:21:17.993Z</time></trkpt><trkpt lat="44.6610833" lon="10.7381483"><ele>53.0</ele><time>2026-04-18T17:21:18.993Z</time></trkpt><trkpt lat="44.6609767" lon="10.7384117"><ele>52.66666666666667</ele><time>2026-04-18T17:21:19.992Z</time></trkpt><trkpt lat="44.660875" lon="10.7386717"><ele>52.33333333333333</ele><time>2026-04-18T17:21:20.992Z</time></trkpt><trkpt lat="44.6607833" lon="10.738945"><ele>52.0</ele><time>2026-04-18T17:21:21.993Z</time></trkpt><trkpt lat="44.6606917" lon="10.73922"><ele>52.0</ele><time>2026-04-18T17:21:22.993Z</time></trkpt><trkpt lat="44.6606083" lon="10.7394867"><ele>52.0</ele><time>2026-04-18T17:21:23.992Z</time></trkpt><trkpt lat="44.660525" lon="10.739745"><ele>52.0</ele><time>2026-04-18T17:21:24.992Z</time></trkpt><trkpt lat="44.660435" lon="10.7400083"><ele>51.666666666666664</ele><time>2026-04-18T17:21:25.993Z</time></trkpt><trkpt lat="44.66034" lon="10.7402617"><ele>51.33333333333333</ele><time>2026-04-18T17:21:26.992Z</time></trkpt><trkpt lat="44.6602433" lon="10.7405117"><ele>51.0</ele><time>2026-04-18T17:21:27.993Z</time></trkpt><trkpt lat="44.660165" lon="10.7407483"><ele>51.0</ele><time>2026-04-18T17:21:28.992Z</time></trkpt><trkpt lat="44.6600883" lon="10.7409767"><ele>51.0</ele><time>2026-04-18T17:21:29.992Z</time></trkpt><trkpt lat="44.660025" lon="10.74118"><ele>51.0</ele><time>2026-04-18T17:21:30.993Z</time></trkpt><trkpt lat="44.6599517" lon="10.7413817"><ele>51.0</ele><time>2026-04-18T17:21:31.993Z</time></trkpt><trkpt lat="44.6598817" lon="10.7415767"><ele>51.0</ele><time>2026-04-18T17:21:32.992Z</time></trkpt><trkpt lat="44.6598183" lon="10.741765"><ele>51.0</ele><time>2026-04-18T17:21:33.993Z</time></trkpt><trkpt lat="44.6597567" lon="10.7419517"><ele>50.33333333333333</ele><time>2026-04-18T17:21:34.992Z</time></trkpt><trkpt lat="44.65969" lon="10.742145"><ele>49.666666666666664</ele><time>2026-04-18T17:21:35.993Z</time></trkpt><trkpt lat="44.659625" lon="10.7423367"><ele>49.0</ele><time>2026-04-18T17:21:36.992Z</time></trkpt><trkpt lat="44.6595583" lon="10.74254"><ele>49.0</ele><time>2026-04-18T17:21:37.992Z</time></trkpt><trkpt lat="44.6594883" lon="10.74275"><ele>49.0</ele><time>2026-04-18T17:21:38.993Z</time></trkpt><trkpt lat="44.659415" lon="10.742955"><ele>49.0</ele><time>2026-04-18T17:21:39.993Z</time></trkpt><trkpt lat="44.6593417" lon="10.7431683"><ele>49.33333333333333</ele><time>2026-04-18T17:21:40.993Z</time></trkpt><trkpt lat="44.65927" lon="10.743375"><ele>49.66666666666667</ele><time>2026-04-18T17:21:41.993Z</time></trkpt><trkpt lat="44.6591833" lon="10.7435733"><ele>50.0</ele><time>2026-04-18T17:21:42.993Z</time></trkpt><trkpt lat="44.65911" lon="10.7437967"><ele>50.0</ele><time>2026-04-18T17:21:43.993Z</time></trkpt><trkpt lat="44.6590417" lon="10.744025"><ele>50.0</ele><time>2026-04-18T17:21:44.993Z</time></trkpt><trkpt lat="44.65897" lon="10.7442367"><ele>50.0</ele><time>2026-04-18T17:21:45.993Z</time></trkpt><trkpt lat="44.6588967" lon="10.7444433"><ele>49.66666666666667</ele><time>2026-04-18T17:21:46.992Z</time></trkpt><trkpt lat="44.65883" lon="10.7446467"><ele>49.33333333333333</ele><time>2026-04-18T17:21:47.993Z</time></trkpt><trkpt lat="44.6587617" lon="10.744855"><ele>49.0</ele><time>2026-04-18T17:21:48.993Z</time></trkpt><trkpt lat="44.6586983" lon="10.7450567"><ele>48.33333333333333</ele><time>2026-04-18T17:21:49.992Z</time></trkpt><trkpt lat="44.65863" lon="10.7452633"><ele>47.666666666666664</ele><time>2026-04-18T17:21:50.992Z</time></trkpt><trkpt lat="44.6585583" lon="10.7454567"><ele>47.0</ele><time>2026-04-18T17:21:51.992Z</time></trkpt><trkpt lat="44.65849" lon="10.7456517"><ele>47.0</ele><time>2026-04-18T17:21:52.993Z</time></trkpt><trkpt lat="44.6584217" lon="10.7458433"><ele>47.0</ele><time>2026-04-18T17:21:53.993Z</time></trkpt><trkpt lat="44.6583583" lon="10.746015"><ele>47.0</ele><time>2026-04-18T17:21:54.992Z</time></trkpt><trkpt lat="44.6583017" lon="10.746185"><ele>47.0</ele><time>2026-04-18T17:21:55.992Z</time></trkpt><trkpt lat="44.65825" lon="10.7463567"><ele>47.0</ele><time>2026-04-18T17:21:56.992Z</time></trkpt><trkpt lat="44.6581933" lon="10.746525"><ele>47.0</ele><time>2026-04-18T17:21:57.993Z</time></trkpt><trkpt lat="44.65814" lon="10.74669"><ele>47.0</ele><time>2026-04-18T17:21:58.992Z</time></trkpt><trkpt lat="44.658085" lon="10.7468467"><ele>47.0</ele><time>2026-04-18T17:21:59.992Z</time></trkpt><trkpt lat="44.6580217" lon="10.7469983"><ele>47.0</ele><time>2026-04-18T17:22:00.992Z</time></trkpt><trkpt lat="44.6579683" lon="10.747155"><ele>47.0</ele><time>2026-04-18T17:22:01.992Z</time></trkpt><trkpt lat="44.6579217" lon="10.7473183"><ele>47.0</ele><time>2026-04-18T17:22:02.992Z</time></trkpt><trkpt lat="44.6578683" lon="10.74748"><ele>47.0</ele><time>2026-04-18T17:22:03.992Z</time></trkpt><trkpt lat="44.6578167" lon="10.7476533"><ele>47.5</ele><time>2026-04-18T17:22:04.993Z</time></trkpt><trkpt lat="44.6577583" lon="10.7478217"><ele>48.0</ele><time>2026-04-18T17:22:05.993Z</time></trkpt><trkpt lat="44.6577" lon="10.7479967"><ele>48.5</ele><time>2026-04-18T17:22:06.993Z</time></trkpt><trkpt lat="44.6576433" lon="10.74818"><ele>49.0</ele><time>2026-04-18T17:22:07.993Z</time></trkpt><trkpt lat="44.65759" lon="10.7483617"><ele>49.0</ele><time>2026-04-18T17:22:08.993Z</time></trkpt><trkpt lat="44.6575433" lon="10.7485267"><ele>49.0</ele><time>2026-04-18T17:22:09.992Z</time></trkpt><trkpt lat="44.6574967" lon="10.7487033"><ele>49.0</ele><time>2026-04-18T17:22:10.993Z</time></trkpt><trkpt lat="44.6574517" lon="10.7488833"><ele>49.0</ele><time>2026-04-18T17:22:11.992Z</time></trkpt><trkpt lat="44.657405" lon="10.7490583"><ele>49.5</ele><time>2026-04-18T17:22:12.992Z</time></trkpt><trkpt lat="44.65736" lon="10.7492417"><ele>50.0</ele><time>2026-04-18T17:22:13.992Z</time></trkpt><trkpt lat="44.6573183" lon="10.7494283"><ele>50.5</ele><time>2026-04-18T17:22:14.992Z</time></trkpt><trkpt lat="44.6572783" lon="10.749615"><ele>51.0</ele><time>2026-04-18T17:22:15.993Z</time></trkpt><trkpt lat="44.65724" lon="10.7498083"><ele>51.0</ele><time>2026-04-18T17:22:16.993Z</time></trkpt><trkpt lat="44.657205" lon="10.7500017"><ele>51.0</ele><time>2026-04-18T17:22:17.993Z</time></trkpt><trkpt lat="44.657175" lon="10.7501983"><ele>51.0</ele><time>2026-04-18T17:22:18.992Z</time></trkpt><trkpt lat="44.657145" lon="10.7504017"><ele>51.0</ele><time>2026-04-18T17:22:19.992Z</time></trkpt><trkpt lat="44.657115" lon="10.7505933"><ele>51.0</ele><time>2026-04-18T17:22:20.992Z</time></trkpt><trkpt lat="44.657085" lon="10.7507933"><ele>51.0</ele><time>2026-04-18T17:22:21.992Z</time></trkpt><trkpt lat="44.6570583" lon="10.75099"><ele>51.0</ele><time>2026-04-18T17:22:22.992Z</time></trkpt><trkpt lat="44.6570333" lon="10.7511967"><ele>51.0</ele><time>2026-04-18T17:22:23.992Z</time></trkpt><trkpt lat="44.6570117" lon="10.7514017"><ele>51.0</ele><time>2026-04-18T17:22:24.992Z</time></trkpt><trkpt lat="44.6569933" lon="10.751605"><ele>51.0</ele><time>2026-04-18T17:22:25.993Z</time></trkpt><trkpt lat="44.6569733" lon="10.751805"><ele>51.0</ele><time>2026-04-18T17:22:26.993Z</time></trkpt><trkpt lat="44.6569567" lon="10.7520133"><ele>51.0</ele><time>2026-04-18T17:22:27.992Z</time></trkpt><trkpt lat="44.6569417" lon="10.752225"><ele>50.75</ele><time>2026-04-18T17:22:28.992Z</time></trkpt><trkpt lat="44.656925" lon="10.7524233"><ele>50.5</ele><time>2026-04-18T17:22:29.993Z</time></trkpt><trkpt lat="44.65691" lon="10.7526017"><ele>50.25</ele><time>2026-04-18T17:22:30.992Z</time></trkpt><trkpt lat="44.6568933" lon="10.7527767"><ele>50.0</ele><time>2026-04-18T17:22:31.992Z</time></trkpt><trkpt lat="44.65688" lon="10.7529517"><ele>50.0</ele><time>2026-04-18T17:22:32.993Z</time></trkpt><trkpt lat="44.6568617" lon="10.753125"><ele>50.0</ele><time>2026-04-18T17:22:33.992Z</time></trkpt><trkpt lat="44.656845" lon="10.7532917"><ele>50.0</ele><time>2026-04-18T17:22:34.993Z</time></trkpt><trkpt lat="44.6568333" lon="10.7534533"><ele>50.0</ele><time>2026-04-18T17:22:35.993Z</time></trkpt><trkpt lat="44.65682" lon="10.753595"><ele>50.00000000000001</ele><time>2026-04-18T17:22:36.992Z</time></trkpt><trkpt lat="44.65681" lon="10.7537167"><ele>50.0</ele><time>2026-04-18T17:22:37.992Z</time></trkpt><trkpt lat="44.6568067" lon="10.7538167"><ele>50.0</ele><time>2026-04-18T17:22:38.992Z</time></trkpt><trkpt lat="44.656795" lon="10.753925"><ele>50.0</ele><time>2026-04-18T17:22:40.992Z</time></trkpt><trkpt lat="44.6568" lon="10.7540317"><ele>50.00000000000001</ele><time>2026-04-18T17:22:43.993Z</time></trkpt><trkpt lat="44.6568683" lon="10.7540833"><ele>50.0</ele><time>2026-04-18T17:22:45.992Z</time></trkpt><trkpt lat="44.6569333" lon="10.7540917"><ele>50.0</ele><time>2026-04-18T17:22:46.993Z</time></trkpt><trkpt lat="44.657025" lon="10.7540933"><ele>50.0</ele><time>2026-04-18T17:22:47.993Z</time></trkpt><trkpt lat="44.6571283" lon="10.7540933"><ele>50.0</ele><time>2026-04-18T17:22:48.992Z</time></trkpt><trkpt lat="44.65724" lon="10.75407"><ele>50.0</ele><time>2026-04-18T17:22:49.993Z</time></trkpt><trkpt lat="44.6573667" lon="10.754045"><ele>50.0</ele><time>2026-04-18T17:22:50.993Z</time></trkpt><trkpt lat="44.6574967" lon="10.7540117"><ele>50.0</ele><time>2026-04-18T17:22:51.992Z</time></trkpt><trkpt lat="44.6576467" lon="10.753955"><ele>50.0</ele><time>2026-04-18T17:22:52.992Z</time></trkpt><trkpt lat="44.6577983" lon="10.7538867"><ele>50.0</ele><time>2026-04-18T17:22:53.993Z</time></trkpt><trkpt lat="44.6579567" lon="10.7538083"><ele>49.66666666666667</ele><time>2026-04-18T17:22:54.993Z</time></trkpt><trkpt lat="44.6581133" lon="10.7537233"><ele>49.33333333333333</ele><time>2026-04-18T17:22:55.992Z</time></trkpt><trkpt lat="44.6582683" lon="10.7536617"><ele>49.0</ele><time>2026-04-18T17:22:56.992Z</time></trkpt><trkpt lat="44.6584233" lon="10.753595"><ele>48.666666666666664</ele><time>2026-04-18T17:22:57.992Z</time></trkpt><trkpt lat="44.6585783" lon="10.7535233"><ele>48.33333333333333</ele><time>2026-04-18T17:22:58.992Z</time></trkpt><trkpt lat="44.6587267" lon="10.7534567"><ele>48.0</ele><time>2026-04-18T17:22:59.992Z</time></trkpt><trkpt lat="44.6588733" lon="10.7533933"><ele>48.0</ele><time>2026-04-18T17:23:00.992Z</time></trkpt><trkpt lat="44.6590217" lon="10.75334"><ele>48.0</ele><time>2026-04-18T17:23:01.993Z</time></trkpt><trkpt lat="44.65932" lon="10.753285"><ele>48.66666666666667</ele><time>2026-04-18T17:23:03.992Z</time></trkpt><trkpt lat="44.6594733" lon="10.753285"><ele>49.333333333333336</ele><time>2026-04-18T17:23:04.993Z</time></trkpt><trkpt lat="44.659625" lon="10.7532933"><ele>50.0</ele><time>2026-04-18T17:23:05.992Z</time></trkpt><trkpt lat="44.6597883" lon="10.753315"><ele>50.0</ele><time>2026-04-18T17:23:06.993Z</time></trkpt><trkpt lat="44.65996" lon="10.75337"><ele>50.0</ele><time>2026-04-18T17:23:07.992Z</time></trkpt><trkpt lat="44.660125" lon="10.75345"><ele>50.0</ele><time>2026-04-18T17:23:08.993Z</time></trkpt><trkpt lat="44.6602933" lon="10.753535"><ele>49.0</ele><time>2026-04-18T17:23:09.992Z</time></trkpt><trkpt lat="44.66047" lon="10.75363"><ele>48.0</ele><time>2026-04-18T17:23:10.992Z</time></trkpt><trkpt lat="44.6606483" lon="10.75373"><ele>47.0</ele><time>2026-04-18T17:23:11.992Z</time></trkpt><trkpt lat="44.6608433" lon="10.7538133"><ele>47.0</ele><time>2026-04-18T17:23:12.992Z</time></trkpt><trkpt lat="44.6610317" lon="10.75392"><ele>47.0</ele><time>2026-04-18T17:23:13.993Z</time></trkpt><trkpt lat="44.6612183" lon="10.75402"><ele>47.0</ele><time>2026-04-18T17:23:14.993Z</time></trkpt><trkpt lat="44.6614067" lon="10.7540983"><ele>47.5</ele><time>2026-04-18T17:23:15.993Z</time></trkpt><trkpt lat="44.661545" lon="10.7541917"><ele>48.0</ele><time>2026-04-18T17:23:16.992Z</time></trkpt><trkpt lat="44.66167" lon="10.7542733"><ele>48.5</ele><time>2026-04-18T17:23:17.992Z</time></trkpt><trkpt lat="44.66179" lon="10.75434"><ele>49.0</ele><time>2026-04-18T17:23:18.992Z</time></trkpt><trkpt lat="44.6619183" lon="10.7543967"><ele>48.33333333333333</ele><time>2026-04-18T17:23:19.993Z</time></trkpt><trkpt lat="44.6620533" lon="10.7544833"><ele>47.666666666666664</ele><time>2026-04-18T17:23:20.993Z</time></trkpt><trkpt lat="44.6621967" lon="10.7546"><ele>47.0</ele><time>2026-04-18T17:23:21.993Z</time></trkpt><trkpt lat="44.662335" lon="10.7547367"><ele>47.0</ele><time>2026-04-18T17:23:22.992Z</time></trkpt><trkpt lat="44.6624733" lon="10.7548917"><ele>47.0</ele><time>2026-04-18T17:23:23.993Z</time></trkpt><trkpt lat="44.66262" lon="10.7550467"><ele>47.0</ele><time>2026-04-18T17:23:24.993Z</time></trkpt><trkpt lat="44.6627733" lon="10.7552133"><ele>47.0</ele><time>2026-04-18T17:23:25.992Z</time></trkpt><trkpt lat="44.6629383" lon="10.75538"><ele>47.0</ele><time>2026-04-18T17:23:26.993Z</time></trkpt><trkpt lat="44.6631133" lon="10.7555333"><ele>47.0</ele><time>2026-04-18T17:23:27.992Z</time></trkpt><trkpt lat="44.6632933" lon="10.7557017"><ele>47.0</ele><time>2026-04-18T17:23:28.993Z</time></trkpt><trkpt lat="44.66347" lon="10.7558683"><ele>47.0</ele><time>2026-04-18T17:23:29.992Z</time></trkpt><trkpt lat="44.663635" lon="10.7560317"><ele>47.0</ele><time>2026-04-18T17:23:30.993Z</time></trkpt><trkpt lat="44.6638167" lon="10.7562067"><ele>46.33333333333333</ele><time>2026-04-18T17:23:31.992Z</time></trkpt><trkpt lat="44.6639967" lon="10.7563783"><ele>45.666666666666664</ele><time>2026-04-18T17:23:32.993Z</time></trkpt><trkpt lat="44.6641733" lon="10.7565367"><ele>45.0</ele><time>2026-04-18T17:23:33.993Z</time></trkpt><trkpt lat="44.6643467" lon="10.756695"><ele>45.0</ele><time>2026-04-18T17:23:34.992Z</time></trkpt><trkpt lat="44.66452" lon="10.756845"><ele>45.0</ele><time>2026-04-18T17:23:35.993Z</time></trkpt><trkpt lat="44.66469" lon="10.757"><ele>45.0</ele><time>2026-04-18T17:23:36.993Z</time></trkpt><trkpt lat="44.66486" lon="10.7571467"><ele>45.333333333333336</ele><time>2026-04-18T17:23:37.993Z</time></trkpt><trkpt lat="44.6650183" lon="10.75728"><ele>45.66666666666667</ele><time>2026-04-18T17:23:38.992Z</time></trkpt><trkpt lat="44.6651883" lon="10.7573917"><ele>46.0</ele><time>2026-04-18T17:23:39.993Z</time></trkpt><trkpt lat="44.6653683" lon="10.7574867"><ele>46.0</ele><time>2026-04-18T17:23:40.993Z</time></trkpt><trkpt lat="44.66555" lon="10.7575767"><ele>46.0</ele><time>2026-04-18T17:23:41.992Z</time></trkpt><trkpt lat="44.6657267" lon="10.7576967"><ele>46.0</ele><time>2026-04-18T17:23:42.993Z</time></trkpt><trkpt lat="44.6659033" lon="10.7578283"><ele>45.66666666666667</ele><time>2026-04-18T17:23:43.992Z</time></trkpt><trkpt lat="44.6660783" lon="10.75797"><ele>45.333333333333336</ele><time>2026-04-18T17:23:44.993Z</time></trkpt><trkpt lat="44.6662567" lon="10.758115"><ele>45.0</ele><time>2026-04-18T17:23:45.992Z</time></trkpt><trkpt lat="44.6664467" lon="10.7582767"><ele>45.0</ele><time>2026-04-18T17:23:46.993Z</time></trkpt><trkpt lat="44.6666317" lon="10.7584283"><ele>45.0</ele><time>2026-04-18T17:23:47.992Z</time></trkpt><trkpt lat="44.6668" lon="10.7585683"><ele>45.0</ele><time>2026-04-18T17:23:48.992Z</time></trkpt><trkpt lat="44.66695" lon="10.7586833"><ele>45.0</ele><time>2026-04-18T17:23:49.993Z</time></trkpt><trkpt lat="44.6670883" lon="10.7587883"><ele>45.0</ele><time>2026-04-18T17:23:50.993Z</time></trkpt><trkpt lat="44.66721" lon="10.7589"><ele>45.0</ele><time>2026-04-18T17:23:51.992Z</time></trkpt><trkpt lat="44.667305" lon="10.7590417"><ele>45.0</ele><time>2026-04-18T17:23:52.992Z</time></trkpt><trkpt lat="44.6673667" lon="10.7592217"><ele>45.0</ele><time>2026-04-18T17:23:53.993Z</time></trkpt><trkpt lat="44.6673933" lon="10.7594383"><ele>45.0</ele><time>2026-04-18T17:23:54.992Z</time></trkpt><trkpt lat="44.6674083" lon="10.7596883"><ele>45.0</ele><time>2026-04-18T17:23:55.993Z</time></trkpt><trkpt lat="44.667425" lon="10.7599567"><ele>45.333333333333336</ele><time>2026-04-18T17:23:56.993Z</time></trkpt><trkpt lat="44.6674417" lon="10.7602333"><ele>45.66666666666667</ele><time>2026-04-18T17:23:57.993Z</time></trkpt><trkpt lat="44.6674583" lon="10.76053"><ele>46.0</ele><time>2026-04-18T17:23:58.993Z</time></trkpt><trkpt lat="44.6674783" lon="10.7608383"><ele>46.0</ele><time>2026-04-18T17:23:59.992Z</time></trkpt><trkpt lat="44.6675033" lon="10.7611333"><ele>46.0</ele><time>2026-04-18T17:24:00.993Z</time></trkpt><trkpt lat="44.6675217" lon="10.7614033"><ele>46.0</ele><time>2026-04-18T17:24:01.992Z</time></trkpt><trkpt lat="44.6675267" lon="10.7616633"><ele>46.333333333333336</ele><time>2026-04-18T17:24:02.993Z</time></trkpt><trkpt lat="44.6675333" lon="10.76192"><ele>46.666666666666664</ele><time>2026-04-18T17:24:03.992Z</time></trkpt><trkpt lat="44.6675333" lon="10.7621917"><ele>47.0</ele><time>2026-04-18T17:24:04.993Z</time></trkpt><trkpt lat="44.66753" lon="10.7624933"><ele>46.666666666666664</ele><time>2026-04-18T17:24:05.993Z</time></trkpt><trkpt lat="44.66753" lon="10.7627767"><ele>46.333333333333336</ele><time>2026-04-18T17:24:06.992Z</time></trkpt><trkpt lat="44.6675367" lon="10.763095"><ele>46.0</ele><time>2026-04-18T17:24:07.993Z</time></trkpt><trkpt lat="44.6675283" lon="10.763415"><ele>46.333333333333336</ele><time>2026-04-18T17:24:08.992Z</time></trkpt><trkpt lat="44.667525" lon="10.7637217"><ele>46.666666666666664</ele><time>2026-04-18T17:24:09.993Z</time></trkpt><trkpt lat="44.6675233" lon="10.7640233"><ele>47.0</ele><time>2026-04-18T17:24:10.992Z</time></trkpt><trkpt lat="44.667505" lon="10.7643267"><ele>46.33333333333333</ele><time>2026-04-18T17:24:11.993Z</time></trkpt><trkpt lat="44.6674817" lon="10.764615"><ele>45.666666666666664</ele><time>2026-04-18T17:24:12.993Z</time></trkpt><trkpt lat="44.6674467" lon="10.7648833"><ele>45.0</ele><time>2026-04-18T17:24:13.993Z</time></trkpt><trkpt lat="44.6674117" lon="10.7651283"><ele>45.0</ele><time>2026-04-18T17:24:14.993Z</time></trkpt><trkpt lat="44.6673767" lon="10.7653633"><ele>45.0</ele><time>2026-04-18T17:24:15.993Z</time></trkpt><trkpt lat="44.6673433" lon="10.7655817"><ele>45.0</ele><time>2026-04-18T17:24:16.993Z</time></trkpt><trkpt lat="44.6673133" lon="10.76579"><ele>45.0</ele><time>2026-04-18T17:24:17.993Z</time></trkpt><trkpt lat="44.66729" lon="10.7659817"><ele>45.0</ele><time>2026-04-18T17:24:18.993Z</time></trkpt><trkpt lat="44.6672683" lon="10.7661733"><ele>45.0</ele><time>2026-04-18T17:24:19.992Z</time></trkpt><trkpt lat="44.6672717" lon="10.76635"><ele>45.0</ele><time>2026-04-18T17:24:20.993Z</time></trkpt><trkpt lat="44.6673167" lon="10.76651"><ele>44.666666666666664</ele><time>2026-04-18T17:24:21.992Z</time></trkpt><trkpt lat="44.6673983" lon="10.76666"><ele>44.33333333333333</ele><time>2026-04-18T17:24:22.993Z</time></trkpt><trkpt lat="44.6675083" lon="10.76681"><ele>44.0</ele><time>2026-04-18T17:24:23.992Z</time></trkpt><trkpt lat="44.6676383" lon="10.7669917"><ele>45.0</ele><time>2026-04-18T17:24:24.992Z</time></trkpt><trkpt lat="44.6677917" lon="10.767185"><ele>46.0</ele><time>2026-04-18T17:24:25.992Z</time></trkpt><trkpt lat="44.6679517" lon="10.7674033"><ele>47.0</ele><time>2026-04-18T17:24:26.993Z</time></trkpt><trkpt lat="44.6680867" lon="10.7676383"><ele>47.0</ele><time>2026-04-18T17:24:27.992Z</time></trkpt><trkpt lat="44.668225" lon="10.7678783"><ele>47.0</ele><time>2026-04-18T17:24:28.992Z</time></trkpt><trkpt lat="44.6683633" lon="10.7680983"><ele>47.0</ele><time>2026-04-18T17:24:29.993Z</time></trkpt><trkpt lat="44.668495" lon="10.7683417"><ele>46.0</ele><time>2026-04-18T17:24:30.992Z</time></trkpt><trkpt lat="44.6686267" lon="10.768565"><ele>45.0</ele><time>2026-04-18T17:24:31.993Z</time></trkpt><trkpt lat="44.6687583" lon="10.7687767"><ele>44.0</ele><time>2026-04-18T17:24:32.993Z</time></trkpt><trkpt lat="44.6688967" lon="10.7689633"><ele>44.0</ele><time>2026-04-18T17:24:33.993Z</time></trkpt><trkpt lat="44.6690333" lon="10.7691617"><ele>44.0</ele><time>2026-04-18T17:24:34.993Z</time></trkpt><trkpt lat="44.6691783" lon="10.76935"><ele>44.0</ele><time>2026-04-18T17:24:35.993Z</time></trkpt><trkpt lat="44.6693317" lon="10.7695283"><ele>44.0</ele><time>2026-04-18T17:24:36.992Z</time></trkpt><trkpt lat="44.6694783" lon="10.7697067"><ele>44.0</ele><time>2026-04-18T17:24:37.992Z</time></trkpt><trkpt lat="44.66963" lon="10.7698833"><ele>44.0</ele><time>2026-04-18T17:24:38.992Z</time></trkpt><trkpt lat="44.6697817" lon="10.7700383"><ele>44.0</ele><time>2026-04-18T17:24:39.993Z</time></trkpt><trkpt lat="44.6699233" lon="10.7701817"><ele>44.0</ele><time>2026-04-18T17:24:40.993Z</time></trkpt><trkpt lat="44.67006" lon="10.7703217"><ele>44.0</ele><time>2026-04-18T17:24:41.993Z</time></trkpt><trkpt lat="44.6701967" lon="10.770445"><ele>44.33333333333333</ele><time>2026-04-18T17:24:42.992Z</time></trkpt><trkpt lat="44.6703333" lon="10.7705633"><ele>44.666666666666664</ele><time>2026-04-18T17:24:43.992Z</time></trkpt><trkpt lat="44.6704517" lon="10.770695"><ele>45.0</ele><time>2026-04-18T17:24:44.993Z</time></trkpt><trkpt lat="44.6705767" lon="10.7708217"><ele>45.0</ele><time>2026-04-18T17:24:45.993Z</time></trkpt><trkpt lat="44.6707067" lon="10.7709483"><ele>45.0</ele><time>2026-04-18T17:24:46.993Z</time></trkpt><trkpt lat="44.67083" lon="10.7710833"><ele>45.0</ele><time>2026-04-18T17:24:47.993Z</time></trkpt><trkpt lat="44.6709617" lon="10.7712267"><ele>45.0</ele><time>2026-04-18T17:24:48.993Z</time></trkpt><trkpt lat="44.6710917" lon="10.7713533"><ele>45.0</ele><time>2026-04-18T17:24:49.992Z</time></trkpt><trkpt lat="44.6712017" lon="10.7714917"><ele>45.0</ele><time>2026-04-18T17:24:50.993Z</time></trkpt><trkpt lat="44.6713117" lon="10.7716367"><ele>45.0</ele><time>2026-04-18T17:24:51.992Z</time></trkpt><trkpt lat="44.6714233" lon="10.771795"><ele>45.0</ele><time>2026-04-18T17:24:52.992Z</time></trkpt><trkpt lat="44.6715317" lon="10.7719733"><ele>45.0</ele><time>2026-04-18T17:24:53.992Z</time></trkpt><trkpt lat="44.6716417" lon="10.7721567"><ele>45.333333333333336</ele><time>2026-04-18T17:24:54.992Z</time></trkpt><trkpt lat="44.6717517" lon="10.7723267"><ele>45.66666666666667</ele><time>2026-04-18T17:24:55.993Z</time></trkpt><trkpt lat="44.6718617" lon="10.7724833"><ele>46.0</ele><time>2026-04-18T17:24:56.993Z</time></trkpt><trkpt lat="44.6719567" lon="10.7726533"><ele>46.0</ele><time>2026-04-18T17:24:57.993Z</time></trkpt><trkpt lat="44.6720583" lon="10.7728283"><ele>46.0</ele><time>2026-04-18T17:24:58.993Z</time></trkpt><trkpt lat="44.672145" lon="10.7730183"><ele>46.0</ele><time>2026-04-18T17:24:59.993Z</time></trkpt><trkpt lat="44.672235" lon="10.7732367"><ele>46.0</ele><time>2026-04-18T17:25:00.992Z</time></trkpt><trkpt lat="44.6723283" lon="10.7734867"><ele>46.0</ele><time>2026-04-18T17:25:01.992Z</time></trkpt><trkpt lat="44.6724333" lon="10.7737583"><ele>46.0</ele><time>2026-04-18T17:25:02.992Z</time></trkpt><trkpt lat="44.6725483" lon="10.7740417"><ele>45.333333333333336</ele><time>2026-04-18T17:25:03.993Z</time></trkpt><trkpt lat="44.672655" lon="10.774305"><ele>44.666666666666664</ele><time>2026-04-18T17:25:04.992Z</time></trkpt><trkpt lat="44.6727583" lon="10.774565"><ele>44.0</ele><time>2026-04-18T17:25:05.993Z</time></trkpt><trkpt lat="44.672855" lon="10.7748133"><ele>44.0</ele><time>2026-04-18T17:25:06.993Z</time></trkpt><trkpt lat="44.6729483" lon="10.7750433"><ele>44.0</ele><time>2026-04-18T17:25:07.992Z</time></trkpt><trkpt lat="44.67304" lon="10.77527"><ele>44.0</ele><time>2026-04-18T17:25:08.993Z</time></trkpt><trkpt lat="44.67313" lon="10.7754767"><ele>44.33333333333333</ele><time>2026-04-18T17:25:09.992Z</time></trkpt><trkpt lat="44.6732317" lon="10.7756667"><ele>44.666666666666664</ele><time>2026-04-18T17:25:10.992Z</time></trkpt><trkpt lat="44.6733467" lon="10.7758333"><ele>45.0</ele><time>2026-04-18T17:25:11.993Z</time></trkpt><trkpt lat="44.6734717" lon="10.7759733"><ele>44.666666666666664</ele><time>2026-04-18T17:25:12.993Z</time></trkpt><trkpt lat="44.6736167" lon="10.7761167"><ele>44.33333333333333</ele><time>2026-04-18T17:25:13.992Z</time></trkpt><trkpt lat="44.6737667" lon="10.77626"><ele>44.0</ele><time>2026-04-18T17:25:14.993Z</time></trkpt><trkpt lat="44.6738983" lon="10.7764"><ele>44.0</ele><time>2026-04-18T17:25:15.993Z</time></trkpt><trkpt lat="44.6740217" lon="10.7765717"><ele>44.0</ele><time>2026-04-18T17:25:16.993Z</time></trkpt><trkpt lat="44.6741233" lon="10.7767667"><ele>44.0</ele><time>2026-04-18T17:25:17.993Z</time></trkpt><trkpt lat="44.6742217" lon="10.7769567"><ele>44.33333333333333</ele><time>2026-04-18T17:25:18.993Z</time></trkpt><trkpt lat="44.67432" lon="10.7771333"><ele>44.666666666666664</ele><time>2026-04-18T17:25:19.992Z</time></trkpt><trkpt lat="44.6744267" lon="10.7773033"><ele>45.0</ele><time>2026-04-18T17:25:20.993Z</time></trkpt><trkpt lat="44.6745567" lon="10.7774567"><ele>45.0</ele><time>2026-04-18T17:25:21.993Z</time></trkpt><trkpt lat="44.6747083" lon="10.7775867"><ele>45.0</ele><time>2026-04-18T17:25:22.993Z</time></trkpt><trkpt lat="44.67487" lon="10.7776833"><ele>45.0</ele><time>2026-04-18T17:25:23.992Z</time></trkpt><trkpt lat="44.675025" lon="10.7777617"><ele>45.0</ele><time>2026-04-18T17:25:24.992Z</time></trkpt><trkpt lat="44.6751767" lon="10.7778483"><ele>45.0</ele><time>2026-04-18T17:25:25.992Z</time></trkpt><trkpt lat="44.6753233" lon="10.777955"><ele>45.0</ele><time>2026-04-18T17:25:26.992Z</time></trkpt><trkpt lat="44.6754517" lon="10.7780833"><ele>44.666666666666664</ele><time>2026-04-18T17:25:27.992Z</time></trkpt><trkpt lat="44.675565" lon="10.7782233"><ele>44.33333333333333</ele><time>2026-04-18T17:25:28.993Z</time></trkpt><trkpt lat="44.6756733" lon="10.7783683"><ele>44.0</ele><time>2026-04-18T17:25:29.992Z</time></trkpt><trkpt lat="44.6757883" lon="10.7785167"><ele>44.33333333333333</ele><time>2026-04-18T17:25:30.992Z</time></trkpt><trkpt lat="44.675905" lon="10.7786567"><ele>44.666666666666664</ele><time>2026-04-18T17:25:31.992Z</time></trkpt><trkpt lat="44.6760217" lon="10.7787967"><ele>45.0</ele><time>2026-04-18T17:25:32.993Z</time></trkpt><trkpt lat="44.67614" lon="10.778935"><ele>45.0</ele><time>2026-04-18T17:25:33.992Z</time></trkpt><trkpt lat="44.6762467" lon="10.7790683"><ele>45.0</ele><time>2026-04-18T17:25:34.993Z</time></trkpt><trkpt lat="44.6763583" lon="10.779195"><ele>45.0</ele><time>2026-04-18T17:25:35.992Z</time></trkpt><trkpt lat="44.67646" lon="10.7793283"><ele>45.0</ele><time>2026-04-18T17:25:36.993Z</time></trkpt><trkpt lat="44.676555" lon="10.7794517"><ele>45.2</ele><time>2026-04-18T17:25:37.993Z</time></trkpt><trkpt lat="44.676645" lon="10.7795517"><ele>45.4</ele><time>2026-04-18T17:25:38.992Z</time></trkpt><trkpt lat="44.676725" lon="10.7796183"><ele>45.599999999999994</ele><time>2026-04-18T17:25:39.992Z</time></trkpt><trkpt lat="44.6768083" lon="10.7796567"><ele>45.8</ele><time>2026-04-18T17:25:40.993Z</time></trkpt><trkpt lat="44.67688" lon="10.779685"><ele>46.0</ele><time>2026-04-18T17:25:41.993Z</time></trkpt><trkpt lat="44.6769483" lon="10.77978"><ele>46.0</ele><time>2026-04-18T17:25:43.992Z</time></trkpt><trkpt lat="44.676885" lon="10.779965"><ele>46.0</ele><time>2026-04-18T17:25:45.992Z</time></trkpt><trkpt lat="44.6768417" lon="10.780085"><ele>46.0</ele><time>2026-04-18T17:25:46.992Z</time></trkpt><trkpt lat="44.676785" lon="10.7802333"><ele>46.0</ele><time>2026-04-18T17:25:47.992Z</time></trkpt><trkpt lat="44.6767133" lon="10.7804117"><ele>46.333333333333336</ele><time>2026-04-18T17:25:48.992Z</time></trkpt><trkpt lat="44.676625" lon="10.780605"><ele>46.666666666666664</ele><time>2026-04-18T17:25:49.993Z</time></trkpt><trkpt lat="44.6765383" lon="10.780785"><ele>47.0</ele><time>2026-04-18T17:25:50.993Z</time></trkpt><trkpt lat="44.6764467" lon="10.7809583"><ele>46.75</ele><time>2026-04-18T17:25:51.992Z</time></trkpt><trkpt lat="44.67636" lon="10.7811133"><ele>46.5</ele><time>2026-04-18T17:25:52.992Z</time></trkpt><trkpt lat="44.6762733" lon="10.78125"><ele>46.25</ele><time>2026-04-18T17:25:53.992Z</time></trkpt><trkpt lat="44.6761917" lon="10.781375"><ele>46.0</ele><time>2026-04-18T17:25:54.992Z</time></trkpt><trkpt lat="44.6761133" lon="10.7815067"><ele>45.25</ele><time>2026-04-18T17:25:55.993Z</time></trkpt><trkpt lat="44.6760183" lon="10.7816183"><ele>44.5</ele><time>2026-04-18T17:25:56.993Z</time></trkpt><trkpt lat="44.6758817" lon="10.7817233"><ele>43.75</ele><time>2026-04-18T17:25:57.992Z</time></trkpt><trkpt lat="44.675725" lon="10.7818083"><ele>43.0</ele><time>2026-04-18T17:25:58.993Z</time></trkpt><trkpt lat="44.6755683" lon="10.7819067"><ele>43.0</ele><time>2026-04-18T17:25:59.993Z</time></trkpt><trkpt lat="44.6753933" lon="10.7819967"><ele>43.0</ele><time>2026-04-18T17:26:00.992Z</time></trkpt><trkpt lat="44.67521" lon="10.7820833"><ele>43.0</ele><time>2026-04-18T17:26:01.992Z</time></trkpt><trkpt lat="44.6750367" lon="10.782165"><ele>43.333333333333336</ele><time>2026-04-18T17:26:02.993Z</time></trkpt><trkpt lat="44.6748517" lon="10.78224"><ele>43.666666666666664</ele><time>2026-04-18T17:26:03.993Z</time></trkpt><trkpt lat="44.6746767" lon="10.7823167"><ele>44.0</ele><time>2026-04-18T17:26:04.993Z</time></trkpt><trkpt lat="44.6745167" lon="10.7824017"><ele>45.33333333333333</ele><time>2026-04-18T17:26:05.993Z</time></trkpt><trkpt lat="44.6743633" lon="10.7824767"><ele>46.666666666666664</ele><time>2026-04-18T17:26:06.993Z</time></trkpt><trkpt lat="44.6742267" lon="10.7825417"><ele>48.0</ele><time>2026-04-18T17:26:07.993Z</time></trkpt><trkpt lat="44.67408" lon="10.782605"><ele>48.0</ele><time>2026-04-18T17:26:08.992Z</time></trkpt><trkpt lat="44.6739333" lon="10.7826733"><ele>48.0</ele><time>2026-04-18T17:26:09.993Z</time></trkpt><trkpt lat="44.6738017" lon="10.7827267"><ele>48.0</ele><time>2026-04-18T17:26:10.993Z</time></trkpt><trkpt lat="44.6736683" lon="10.782775"><ele>48.0</ele><time>2026-04-18T17:26:11.993Z</time></trkpt><trkpt lat="44.6735517" lon="10.782825"><ele>48.2</ele><time>2026-04-18T17:26:12.992Z</time></trkpt><trkpt lat="44.6734467" lon="10.78287"><ele>48.4</ele><time>2026-04-18T17:26:13.993Z</time></trkpt><trkpt lat="44.67335" lon="10.7829283"><ele>48.6</ele><time>2026-04-18T17:26:14.992Z</time></trkpt><trkpt lat="44.6732583" lon="10.78301"><ele>48.800000000000004</ele><time>2026-04-18T17:26:15.993Z</time></trkpt><trkpt lat="44.6731967" lon="10.7831033"><ele>49.0</ele><time>2026-04-18T17:26:16.993Z</time></trkpt><trkpt lat="44.6731417" lon="10.783225"><ele>49.0</ele><time>2026-04-18T17:26:17.993Z</time></trkpt><trkpt lat="44.6730917" lon="10.7833817"><ele>49.0</ele><time>2026-04-18T17:26:18.992Z</time></trkpt><trkpt lat="44.67305" lon="10.7835583"><ele>49.0</ele><time>2026-04-18T17:26:19.993Z</time></trkpt><trkpt lat="44.673005" lon="10.7837533"><ele>49.0</ele><time>2026-04-18T17:26:20.993Z</time></trkpt><trkpt lat="44.672945" lon="10.7839283"><ele>49.0</ele><time>2026-04-18T17:26:21.993Z</time></trkpt><trkpt lat="44.6729033" lon="10.7841"><ele>49.0</ele><time>2026-04-18T17:26:22.992Z</time></trkpt><trkpt lat="44.6728533" lon="10.7842583"><ele>49.0</ele><time>2026-04-18T17:26:23.993Z</time></trkpt><trkpt lat="44.672795" lon="10.7844"><ele>49.0</ele><time>2026-04-18T17:26:24.993Z</time></trkpt><trkpt lat="44.672715" lon="10.784505"><ele>48.75</ele><time>2026-04-18T17:26:25.993Z</time></trkpt><trkpt lat="44.67261" lon="10.7845667"><ele>48.5</ele><time>2026-04-18T17:26:26.993Z</time></trkpt><trkpt lat="44.67249" lon="10.784575"><ele>48.25</ele><time>2026-04-18T17:26:27.993Z</time></trkpt><trkpt lat="44.6723617" lon="10.78452"><ele>48.0</ele><time>2026-04-18T17:26:28.993Z</time></trkpt><trkpt lat="44.6722333" lon="10.7844383"><ele>48.0</ele><time>2026-04-18T17:26:29.993Z</time></trkpt><trkpt lat="44.67212" lon="10.7843683"><ele>48.0</ele><time>2026-04-18T17:26:30.993Z</time></trkpt><trkpt lat="44.6720067" lon="10.784305"><ele>48.0</ele><time>2026-04-18T17:26:31.992Z</time></trkpt><trkpt lat="44.6719" lon="10.7842533"><ele>48.0</ele><time>2026-04-18T17:26:32.993Z</time></trkpt><trkpt lat="44.671785" lon="10.7842133"><ele>48.0</ele><time>2026-04-18T17:26:33.992Z</time></trkpt><trkpt lat="44.67166" lon="10.7842083"><ele>48.0</ele><time>2026-04-18T17:26:34.992Z</time></trkpt><trkpt lat="44.671535" lon="10.784255"><ele>48.0</ele><time>2026-04-18T17:26:35.993Z</time></trkpt><trkpt lat="44.67141" lon="10.7843517"><ele>48.0</ele><time>2026-04-18T17:26:36.992Z</time></trkpt><trkpt lat="44.6712817" lon="10.7844933"><ele>48.0</ele><time>2026-04-18T17:26:37.993Z</time></trkpt><trkpt lat="44.6711467" lon="10.784655"><ele>48.0</ele><time>2026-04-18T17:26:38.992Z</time></trkpt><trkpt lat="44.670995" lon="10.7848233"><ele>48.0</ele><time>2026-04-18T17:26:39.992Z</time></trkpt><trkpt lat="44.67085" lon="10.78499"><ele>47.0</ele><time>2026-04-18T17:26:40.993Z</time></trkpt><trkpt lat="44.6707117" lon="10.785145"><ele>46.0</ele><time>2026-04-18T17:26:41.993Z</time></trkpt><trkpt lat="44.6705833" lon="10.7852833"><ele>45.0</ele><time>2026-04-18T17:26:42.993Z</time></trkpt><trkpt lat="44.6704667" lon="10.78541"><ele>45.0</ele><time>2026-04-18T17:26:43.993Z</time></trkpt><trkpt lat="44.670365" lon="10.7855333"><ele>45.0</ele><time>2026-04-18T17:26:44.993Z</time></trkpt><trkpt lat="44.67027" lon="10.7856533"><ele>45.0</ele><time>2026-04-18T17:26:45.993Z</time></trkpt><trkpt lat="44.670175" lon="10.7857633"><ele>45.0</ele><time>2026-04-18T17:26:46.992Z</time></trkpt><trkpt lat="44.6700817" lon="10.78586"><ele>45.0</ele><time>2026-04-18T17:26:47.992Z</time></trkpt><trkpt lat="44.67" lon="10.7859533"><ele>45.0</ele><time>2026-04-18T17:26:48.993Z</time></trkpt><trkpt lat="44.6699233" lon="10.78604"><ele>45.0</ele><time>2026-04-18T17:26:49.993Z</time></trkpt><trkpt lat="44.66985" lon="10.78612"><ele>45.0</ele><time>2026-04-18T17:26:50.993Z</time></trkpt><trkpt lat="44.6697817" lon="10.7861917"><ele>45.0</ele><time>2026-04-18T17:26:51.993Z</time></trkpt><trkpt lat="44.66972" lon="10.7862517"><ele>45.0</ele><time>2026-04-18T17:26:52.992Z</time></trkpt><trkpt lat="44.6696667" lon="10.7863"><ele>45.0</ele><time>2026-04-18T17:26:53.993Z</time></trkpt><trkpt lat="44.6696117" lon="10.786415"><ele>45.0</ele><time>2026-04-18T17:26:55.992Z</time></trkpt><trkpt lat="44.6696467" lon="10.78652"><ele>45.0</ele><time>2026-04-18T17:26:57.993Z</time></trkpt><trkpt lat="44.6697483" lon="10.78657"><ele>45.0</ele><time>2026-04-18T17:26:59.993Z</time></trkpt><trkpt lat="44.6698283" lon="10.7865883"><ele>45.0</ele><time>2026-04-18T17:27:00.992Z</time></trkpt><trkpt lat="44.66993" lon="10.7866383"><ele>45.0</ele><time>2026-04-18T17:27:01.992Z</time></trkpt><trkpt lat="44.6700517" lon="10.786725"><ele>45.0</ele><time>2026-04-18T17:27:02.992Z</time></trkpt><trkpt lat="44.6701833" lon="10.7868217"><ele>45.0</ele><time>2026-04-18T17:27:03.993Z</time></trkpt><trkpt lat="44.6703367" lon="10.7869367"><ele>45.0</ele><time>2026-04-18T17:27:04.992Z</time></trkpt><trkpt lat="44.6705033" lon="10.7870617"><ele>45.0</ele><time>2026-04-18T17:27:05.993Z</time></trkpt><trkpt lat="44.6706767" lon="10.7871983"><ele>45.0</ele><time>2026-04-18T17:27:06.992Z</time></trkpt><trkpt lat="44.6708567" lon="10.7873433"><ele>45.0</ele><time>2026-04-18T17:27:07.992Z</time></trkpt><trkpt lat="44.6710433" lon="10.787495"><ele>45.0</ele><time>2026-04-18T17:27:08.993Z</time></trkpt><trkpt lat="44.6712333" lon="10.78765"><ele>45.0</ele><time>2026-04-18T17:27:09.992Z</time></trkpt><trkpt lat="44.67143" lon="10.787805"><ele>44.0</ele><time>2026-04-18T17:27:10.993Z</time></trkpt><trkpt lat="44.6716283" lon="10.7879633"><ele>43.0</ele><time>2026-04-18T17:27:11.993Z</time></trkpt><trkpt lat="44.671835" lon="10.7881333"><ele>44.5</ele><time>2026-04-18T17:27:12.993Z</time></trkpt><trkpt lat="44.6720367" lon="10.7883117"><ele>46.0</ele><time>2026-04-18T17:27:13.992Z</time></trkpt><trkpt lat="44.6722417" lon="10.7884883"><ele>45.0</ele><time>2026-04-18T17:27:14.992Z</time></trkpt><trkpt lat="44.6724533" lon="10.7886617"><ele>44.0</ele><time>2026-04-18T17:27:15.992Z</time></trkpt><trkpt lat="44.6726583" lon="10.7888267"><ele>44.0</ele><time>2026-04-18T17:27:16.993Z</time></trkpt><trkpt lat="44.6728483" lon="10.7889783"><ele>44.0</ele><time>2026-04-18T17:27:17.992Z</time></trkpt><trkpt lat="44.6730233" lon="10.7891233"><ele>44.0</ele><time>2026-04-18T17:27:18.992Z</time></trkpt><trkpt lat="44.67319" lon="10.7892583"><ele>44.33333333333333</ele><time>2026-04-18T17:27:19.993Z</time></trkpt><trkpt lat="44.6733517" lon="10.7893817"><ele>44.666666666666664</ele><time>2026-04-18T17:27:20.992Z</time></trkpt><trkpt lat="44.6734983" lon="10.7895033"><ele>45.0</ele><time>2026-04-18T17:27:21.993Z</time></trkpt><trkpt lat="44.6736317" lon="10.78961"><ele>45.333333333333336</ele><time>2026-04-18T17:27:22.993Z</time></trkpt><trkpt lat="44.673755" lon="10.7897167"><ele>45.66666666666667</ele><time>2026-04-18T17:27:23.992Z</time></trkpt><trkpt lat="44.6738883" lon="10.7898283"><ele>46.0</ele><time>2026-04-18T17:27:24.993Z</time></trkpt><trkpt lat="44.6740233" lon="10.789955"><ele>46.0</ele><time>2026-04-18T17:27:25.992Z</time></trkpt><trkpt lat="44.6741633" lon="10.7900967"><ele>46.0</ele><time>2026-04-18T17:27:26.993Z</time></trkpt><trkpt lat="44.6742883" lon="10.790275"><ele>46.0</ele><time>2026-04-18T17:27:27.993Z</time></trkpt><trkpt lat="44.67441" lon="10.7904567"><ele>46.0</ele><time>2026-04-18T17:27:28.992Z</time></trkpt><trkpt lat="44.674545" lon="10.7906117"><ele>46.0</ele><time>2026-04-18T17:27:29.992Z</time></trkpt><trkpt lat="44.6746917" lon="10.7907583"><ele>46.0</ele><time>2026-04-18T17:27:30.993Z</time></trkpt><trkpt lat="44.6748567" lon="10.79089"><ele>46.0</ele><time>2026-04-18T17:27:31.992Z</time></trkpt><trkpt lat="44.6750283" lon="10.7910167"><ele>46.0</ele><time>2026-04-18T17:27:32.993Z</time></trkpt><trkpt lat="44.6752" lon="10.7911583"><ele>46.0</ele><time>2026-04-18T17:27:33.993Z</time></trkpt><trkpt lat="44.6753817" lon="10.7912983"><ele>46.0</ele><time>2026-04-18T17:27:34.993Z</time></trkpt><trkpt lat="44.67556" lon="10.791445"><ele>46.0</ele><time>2026-04-18T17:27:35.992Z</time></trkpt><trkpt lat="44.6757333" lon="10.7915967"><ele>46.0</ele><time>2026-04-18T17:27:36.993Z</time></trkpt><trkpt lat="44.6759017" lon="10.7917383"><ele>45.333333333333336</ele><time>2026-04-18T17:27:37.993Z</time></trkpt><trkpt lat="44.676065" lon="10.7918833"><ele>44.666666666666664</ele><time>2026-04-18T17:27:38.992Z</time></trkpt><trkpt lat="44.676215" lon="10.7920483"><ele>44.0</ele><time>2026-04-18T17:27:39.993Z</time></trkpt><trkpt lat="44.6763583" lon="10.7922467"><ele>44.0</ele><time>2026-04-18T17:27:40.993Z</time></trkpt><trkpt lat="44.6764933" lon="10.792465"><ele>44.0</ele><time>2026-04-18T17:27:41.993Z</time></trkpt><trkpt lat="44.6766183" lon="10.7926833"><ele>44.0</ele><time>2026-04-18T17:27:42.993Z</time></trkpt><trkpt lat="44.676735" lon="10.79289"><ele>44.0</ele><time>2026-04-18T17:27:43.992Z</time></trkpt><trkpt lat="44.6768567" lon="10.7930767"><ele>44.0</ele><time>2026-04-18T17:27:44.992Z</time></trkpt><trkpt lat="44.67699" lon="10.7932467"><ele>44.0</ele><time>2026-04-18T17:27:45.992Z</time></trkpt><trkpt lat="44.6771317" lon="10.7934033"><ele>43.33333333333333</ele><time>2026-04-18T17:27:46.993Z</time></trkpt><trkpt lat="44.677285" lon="10.7935267"><ele>42.666666666666664</ele><time>2026-04-18T17:27:47.992Z</time></trkpt><trkpt lat="44.67745" lon="10.7936167"><ele>42.0</ele><time>2026-04-18T17:27:48.992Z</time></trkpt><trkpt lat="44.6776367" lon="10.7937"><ele>42.0</ele><time>2026-04-18T17:27:49.993Z</time></trkpt><trkpt lat="44.67782" lon="10.79379"><ele>42.0</ele><time>2026-04-18T17:27:50.993Z</time></trkpt><trkpt lat="44.6780033" lon="10.793895"><ele>42.0</ele><time>2026-04-18T17:27:51.992Z</time></trkpt><trkpt lat="44.67819" lon="10.7940333"><ele>42.0</ele><time>2026-04-18T17:27:52.992Z</time></trkpt><trkpt lat="44.678365" lon="10.7941967"><ele>42.0</ele><time>2026-04-18T17:27:53.992Z</time></trkpt><trkpt lat="44.6785433" lon="10.794365"><ele>42.0</ele><time>2026-04-18T17:27:54.992Z</time></trkpt><trkpt lat="44.678725" lon="10.7945317"><ele>43.0</ele><time>2026-04-18T17:27:55.992Z</time></trkpt><trkpt lat="44.6789117" lon="10.7947033"><ele>44.0</ele><time>2026-04-18T17:27:56.992Z</time></trkpt><trkpt lat="44.6791" lon="10.7948867"><ele>44.0</ele><time>2026-04-18T17:27:57.992Z</time></trkpt><trkpt lat="44.6792933" lon="10.7950633"><ele>44.0</ele><time>2026-04-18T17:27:58.991Z</time></trkpt><trkpt lat="44.6794867" lon="10.7952483"><ele>44.33333333333333</ele><time>2026-04-18T17:27:59.992Z</time></trkpt><trkpt lat="44.6796667" lon="10.795435"><ele>44.666666666666664</ele><time>2026-04-18T17:28:00.992Z</time></trkpt><trkpt lat="44.6798283" lon="10.7956317"><ele>45.0</ele><time>2026-04-18T17:28:01.991Z</time></trkpt><trkpt lat="44.6799967" lon="10.7958233"><ele>45.0</ele><time>2026-04-18T17:28:02.991Z</time></trkpt><trkpt lat="44.680145" lon="10.7960033"><ele>45.0</ele><time>2026-04-18T17:28:03.992Z</time></trkpt><trkpt lat="44.6802883" lon="10.7961733"><ele>45.0</ele><time>2026-04-18T17:28:04.992Z</time></trkpt><trkpt lat="44.6804283" lon="10.7963233"><ele>44.333333333333336</ele><time>2026-04-18T17:28:05.992Z</time></trkpt><trkpt lat="44.6805583" lon="10.7964683"><ele>43.66666666666667</ele><time>2026-04-18T17:28:06.992Z</time></trkpt><trkpt lat="44.6806833" lon="10.7966183"><ele>43.0</ele><time>2026-04-18T17:28:07.991Z</time></trkpt><trkpt lat="44.680815" lon="10.7967933"><ele>43.333333333333336</ele><time>2026-04-18T17:28:08.992Z</time></trkpt><trkpt lat="44.6809467" lon="10.7969817"><ele>43.666666666666664</ele><time>2026-04-18T17:28:09.992Z</time></trkpt><trkpt lat="44.6810817" lon="10.7971783"><ele>44.0</ele><time>2026-04-18T17:28:10.992Z</time></trkpt><trkpt lat="44.6812167" lon="10.7973667"><ele>44.0</ele><time>2026-04-18T17:28:11.991Z</time></trkpt><trkpt lat="44.6813567" lon="10.79756"><ele>44.0</ele><time>2026-04-18T17:28:12.992Z</time></trkpt><trkpt lat="44.6814917" lon="10.7977483"><ele>44.0</ele><time>2026-04-18T17:28:13.991Z</time></trkpt><trkpt lat="44.68163" lon="10.7979467"><ele>44.0</ele><time>2026-04-18T17:28:14.992Z</time></trkpt><trkpt lat="44.6817717" lon="10.7981483"><ele>44.0</ele><time>2026-04-18T17:28:15.992Z</time></trkpt><trkpt lat="44.681915" lon="10.7983533"><ele>44.0</ele><time>2026-04-18T17:28:16.991Z</time></trkpt><trkpt lat="44.6820617" lon="10.798555"><ele>43.33333333333333</ele><time>2026-04-18T17:28:17.992Z</time></trkpt><trkpt lat="44.6822067" lon="10.79877"><ele>42.666666666666664</ele><time>2026-04-18T17:28:18.992Z</time></trkpt><trkpt lat="44.6823517" lon="10.79898"><ele>42.0</ele><time>2026-04-18T17:28:19.991Z</time></trkpt><trkpt lat="44.68251" lon="10.799195"><ele>42.0</ele><time>2026-04-18T17:28:20.992Z</time></trkpt><trkpt lat="44.6826783" lon="10.799395"><ele>42.0</ele><time>2026-04-18T17:28:21.992Z</time></trkpt><trkpt lat="44.6828617" lon="10.79958"><ele>42.0</ele><time>2026-04-18T17:28:22.992Z</time></trkpt><trkpt lat="44.6830483" lon="10.7997583"><ele>42.0</ele><time>2026-04-18T17:28:23.992Z</time></trkpt><trkpt lat="44.6832283" lon="10.799925"><ele>42.0</ele><time>2026-04-18T17:28:24.991Z</time></trkpt><trkpt lat="44.683385" lon="10.8000817"><ele>42.0</ele><time>2026-04-18T17:28:25.991Z</time></trkpt><trkpt lat="44.6835467" lon="10.8002283"><ele>42.666666666666664</ele><time>2026-04-18T17:28:26.991Z</time></trkpt><trkpt lat="44.6837183" lon="10.8003567"><ele>43.33333333333333</ele><time>2026-04-18T17:28:27.992Z</time></trkpt><trkpt lat="44.6839" lon="10.8004617"><ele>44.0</ele><time>2026-04-18T17:28:28.991Z</time></trkpt><trkpt lat="44.6840967" lon="10.800555"><ele>44.0</ele><time>2026-04-18T17:28:29.992Z</time></trkpt><trkpt lat="44.6843067" lon="10.80064"><ele>44.0</ele><time>2026-04-18T17:28:30.992Z</time></trkpt><trkpt lat="44.6845133" lon="10.8007283"><ele>44.0</ele><time>2026-04-18T17:28:31.991Z</time></trkpt><trkpt lat="44.68472" lon="10.80083"><ele>43.666666666666664</ele><time>2026-04-18T17:28:32.992Z</time></trkpt><trkpt lat="44.6849183" lon="10.8009233"><ele>43.333333333333336</ele><time>2026-04-18T17:28:33.992Z</time></trkpt><trkpt lat="44.6851217" lon="10.8010117"><ele>43.0</ele><time>2026-04-18T17:28:34.992Z</time></trkpt><trkpt lat="44.6853267" lon="10.8010883"><ele>42.333333333333336</ele><time>2026-04-18T17:28:35.992Z</time></trkpt><trkpt lat="44.68554" lon="10.801145"><ele>41.666666666666664</ele><time>2026-04-18T17:28:36.991Z</time></trkpt><trkpt lat="44.6857533" lon="10.8012033"><ele>41.0</ele><time>2026-04-18T17:28:37.992Z</time></trkpt><trkpt lat="44.68597" lon="10.8012683"><ele>42.0</ele><time>2026-04-18T17:28:38.991Z</time></trkpt><trkpt lat="44.6861817" lon="10.8013383"><ele>43.0</ele><time>2026-04-18T17:28:39.991Z</time></trkpt><trkpt lat="44.68639" lon="10.801425"><ele>44.0</ele><time>2026-04-18T17:28:40.991Z</time></trkpt><trkpt lat="44.6865883" lon="10.8014983"><ele>44.0</ele><time>2026-04-18T17:28:41.991Z</time></trkpt><trkpt lat="44.6867783" lon="10.8015767"><ele>44.0</ele><time>2026-04-18T17:28:42.991Z</time></trkpt><trkpt lat="44.68697" lon="10.8016383"><ele>44.0</ele><time>2026-04-18T17:28:43.991Z</time></trkpt><trkpt lat="44.68716" lon="10.8016967"><ele>42.666666666666664</ele><time>2026-04-18T17:28:44.991Z</time></trkpt><trkpt lat="44.687355" lon="10.8017567"><ele>41.333333333333336</ele><time>2026-04-18T17:28:45.992Z</time></trkpt><trkpt lat="44.6875533" lon="10.801805"><ele>40.0</ele><time>2026-04-18T17:28:46.991Z</time></trkpt><trkpt lat="44.6877617" lon="10.8018717"><ele>39.66666666666667</ele><time>2026-04-18T17:28:47.992Z</time></trkpt><trkpt lat="44.687965" lon="10.80196"><ele>39.333333333333336</ele><time>2026-04-18T17:28:48.992Z</time></trkpt><trkpt lat="44.6881683" lon="10.8020567"><ele>39.0</ele><time>2026-04-18T17:28:49.991Z</time></trkpt><trkpt lat="44.6883683" lon="10.8021717"><ele>39.0</ele><time>2026-04-18T17:28:50.992Z</time></trkpt><trkpt lat="44.6885567" lon="10.80229"><ele>39.0</ele><time>2026-04-18T17:28:51.992Z</time></trkpt><trkpt lat="44.6887367" lon="10.8024083"><ele>39.0</ele><time>2026-04-18T17:28:52.991Z</time></trkpt><trkpt lat="44.6889117" lon="10.80252"><ele>39.0</ele><time>2026-04-18T17:28:53.992Z</time></trkpt><trkpt lat="44.6890783" lon="10.8026233"><ele>39.0</ele><time>2026-04-18T17:28:54.991Z</time></trkpt><trkpt lat="44.6892333" lon="10.80272"><ele>39.0</ele><time>2026-04-18T17:28:55.991Z</time></trkpt><trkpt lat="44.689375" lon="10.8028067"><ele>39.5</ele><time>2026-04-18T17:28:56.991Z</time></trkpt><trkpt lat="44.689515" lon="10.80288"><ele>40.0</ele><time>2026-04-18T17:28:57.991Z</time></trkpt><trkpt lat="44.68964" lon="10.802945"><ele>40.5</ele><time>2026-04-18T17:28:58.992Z</time></trkpt><trkpt lat="44.6897567" lon="10.8030033"><ele>41.0</ele><time>2026-04-18T17:28:59.991Z</time></trkpt><trkpt lat="44.6898867" lon="10.8030583"><ele>41.0</ele><time>2026-04-18T17:29:00.992Z</time></trkpt><trkpt lat="44.690025" lon="10.8031117"><ele>41.0</ele><time>2026-04-18T17:29:01.991Z</time></trkpt><trkpt lat="44.690185" lon="10.80319"><ele>41.0</ele><time>2026-04-18T17:29:02.992Z</time></trkpt><trkpt lat="44.6903583" lon="10.8032783"><ele>41.0</ele><time>2026-04-18T17:29:03.992Z</time></trkpt><trkpt lat="44.6905233" lon="10.8033717"><ele>41.0</ele><time>2026-04-18T17:29:04.992Z</time></trkpt><trkpt lat="44.6907" lon="10.8034767"><ele>41.0</ele><time>2026-04-18T17:29:05.991Z</time></trkpt><trkpt lat="44.69088" lon="10.8035717"><ele>40.666666666666664</ele><time>2026-04-18T17:29:06.992Z</time></trkpt><trkpt lat="44.69106" lon="10.80368"><ele>40.333333333333336</ele><time>2026-04-18T17:29:07.992Z</time></trkpt><trkpt lat="44.6912367" lon="10.803795"><ele>40.0</ele><time>2026-04-18T17:29:08.992Z</time></trkpt><trkpt lat="44.6914067" lon="10.8039117"><ele>40.66666666666667</ele><time>2026-04-18T17:29:09.992Z</time></trkpt><trkpt lat="44.6915767" lon="10.804025"><ele>41.333333333333336</ele><time>2026-04-18T17:29:10.991Z</time></trkpt><trkpt lat="44.691745" lon="10.8041383"><ele>42.0</ele><time>2026-04-18T17:29:11.992Z</time></trkpt><trkpt lat="44.6919133" lon="10.80425"><ele>42.0</ele><time>2026-04-18T17:29:12.991Z</time></trkpt><trkpt lat="44.6920883" lon="10.8043583"><ele>42.0</ele><time>2026-04-18T17:29:13.991Z</time></trkpt><trkpt lat="44.6922517" lon="10.8044533"><ele>42.0</ele><time>2026-04-18T17:29:14.991Z</time></trkpt><trkpt lat="44.6924067" lon="10.8045317"><ele>42.0</ele><time>2026-04-18T17:29:15.992Z</time></trkpt><trkpt lat="44.69256" lon="10.80461"><ele>42.0</ele><time>2026-04-18T17:29:16.991Z</time></trkpt><trkpt lat="44.6927183" lon="10.80469"><ele>42.0</ele><time>2026-04-18T17:29:17.992Z</time></trkpt><trkpt lat="44.692885" lon="10.80477"><ele>40.666666666666664</ele><time>2026-04-18T17:29:18.991Z</time></trkpt><trkpt lat="44.6930533" lon="10.8048567"><ele>39.33333333333333</ele><time>2026-04-18T17:29:19.992Z</time></trkpt><trkpt lat="44.693215" lon="10.8049567"><ele>38.0</ele><time>2026-04-18T17:29:20.991Z</time></trkpt><trkpt lat="44.69338" lon="10.8050717"><ele>38.0</ele><time>2026-04-18T17:29:21.992Z</time></trkpt><trkpt lat="44.6935367" lon="10.8051833"><ele>38.0</ele><time>2026-04-18T17:29:22.992Z</time></trkpt><trkpt lat="44.6936917" lon="10.8052983"><ele>38.0</ele><time>2026-04-18T17:29:23.991Z</time></trkpt><trkpt lat="44.6938533" lon="10.80541"><ele>38.33333333333333</ele><time>2026-04-18T17:29:24.991Z</time></trkpt><trkpt lat="44.69401" lon="10.80552"><ele>38.666666666666664</ele><time>2026-04-18T17:29:25.991Z</time></trkpt><trkpt lat="44.69416" lon="10.8056117"><ele>39.0</ele><time>2026-04-18T17:29:26.992Z</time></trkpt><trkpt lat="44.6942983" lon="10.8056933"><ele>38.666666666666664</ele><time>2026-04-18T17:29:27.991Z</time></trkpt><trkpt lat="44.6944367" lon="10.805775"><ele>38.33333333333333</ele><time>2026-04-18T17:29:28.992Z</time></trkpt><trkpt lat="44.6945883" lon="10.8058683"><ele>38.0</ele><time>2026-04-18T17:29:29.992Z</time></trkpt><trkpt lat="44.6947467" lon="10.80596"><ele>38.33333333333333</ele><time>2026-04-18T17:29:30.991Z</time></trkpt><trkpt lat="44.6949133" lon="10.8060617"><ele>38.666666666666664</ele><time>2026-04-18T17:29:31.992Z</time></trkpt><trkpt lat="44.6950883" lon="10.80616"><ele>39.0</ele><time>2026-04-18T17:29:32.991Z</time></trkpt><trkpt lat="44.6952567" lon="10.80625"><ele>39.333333333333336</ele><time>2026-04-18T17:29:33.991Z</time></trkpt><trkpt lat="44.695415" lon="10.8063283"><ele>39.66666666666667</ele><time>2026-04-18T17:29:34.992Z</time></trkpt><trkpt lat="44.6955717" lon="10.8064033"><ele>40.0</ele><time>2026-04-18T17:29:35.991Z</time></trkpt><trkpt lat="44.695725" lon="10.80647"><ele>40.0</ele><time>2026-04-18T17:29:36.992Z</time></trkpt><trkpt lat="44.6958717" lon="10.8065317"><ele>40.0</ele><time>2026-04-18T17:29:37.991Z</time></trkpt><trkpt lat="44.6960067" lon="10.8065967"><ele>40.0</ele><time>2026-04-18T17:29:38.992Z</time></trkpt><trkpt lat="44.69613" lon="10.8066533"><ele>40.0</ele><time>2026-04-18T17:29:39.992Z</time></trkpt><trkpt lat="44.6962483" lon="10.80669"><ele>39.66666666666667</ele><time>2026-04-18T17:29:40.992Z</time></trkpt><trkpt lat="44.69635" lon="10.8067"><ele>39.333333333333336</ele><time>2026-04-18T17:29:41.992Z</time></trkpt><trkpt lat="44.69657" lon="10.8066017"><ele>39.0</ele><time>2026-04-18T17:29:43.991Z</time></trkpt><trkpt lat="44.6966733" lon="10.8065233"><ele>39.0</ele><time>2026-04-18T17:29:44.992Z</time></trkpt><trkpt lat="44.6967733" lon="10.8064483"><ele>39.0</ele><time>2026-04-18T17:29:45.991Z</time></trkpt><trkpt lat="44.6968733" lon="10.8063883"><ele>39.0</ele><time>2026-04-18T17:29:46.991Z</time></trkpt><trkpt lat="44.69699" lon="10.80636"><ele>39.0</ele><time>2026-04-18T17:29:47.991Z</time></trkpt><trkpt lat="44.6971117" lon="10.8063633"><ele>38.75</ele><time>2026-04-18T17:29:48.992Z</time></trkpt><trkpt lat="44.697245" lon="10.8064167"><ele>38.5</ele><time>2026-04-18T17:29:49.992Z</time></trkpt><trkpt lat="44.697385" lon="10.80648"><ele>38.25</ele><time>2026-04-18T17:29:50.991Z</time></trkpt><trkpt lat="44.6975133" lon="10.8065383"><ele>38.0</ele><time>2026-04-18T17:29:51.991Z</time></trkpt><trkpt lat="44.6976333" lon="10.8065867"><ele>38.0</ele><time>2026-04-18T17:29:52.992Z</time></trkpt><trkpt lat="44.6977467" lon="10.806635"><ele>38.0</ele><time>2026-04-18T17:29:53.992Z</time></trkpt><trkpt lat="44.697865" lon="10.8066733"><ele>38.0</ele><time>2026-04-18T17:29:54.992Z</time></trkpt><trkpt lat="44.69798" lon="10.806695"><ele>38.0</ele><time>2026-04-18T17:29:55.991Z</time></trkpt><trkpt lat="44.69809" lon="10.806735"><ele>38.0</ele><time>2026-04-18T17:29:56.992Z</time></trkpt><trkpt lat="44.6981933" lon="10.8067783"><ele>38.0</ele><time>2026-04-18T17:29:57.992Z</time></trkpt><trkpt lat="44.698295" lon="10.806815"><ele>38.0</ele><time>2026-04-18T17:29:58.991Z</time></trkpt><trkpt lat="44.6983967" lon="10.806855"><ele>38.0</ele><time>2026-04-18T17:29:59.992Z</time></trkpt><trkpt lat="44.6984933" lon="10.8068917"><ele>38.0</ele><time>2026-04-18T17:30:00.992Z</time></trkpt><trkpt lat="44.6985867" lon="10.8069433"><ele>37.75</ele><time>2026-04-18T17:30:01.992Z</time></trkpt><trkpt lat="44.6986767" lon="10.8070033"><ele>37.5</ele><time>2026-04-18T17:30:02.992Z</time></trkpt><trkpt lat="44.6987683" lon="10.80708"><ele>37.25</ele><time>2026-04-18T17:30:03.992Z</time></trkpt><trkpt lat="44.698875" lon="10.8071633"><ele>37.0</ele><time>2026-04-18T17:30:04.992Z</time></trkpt><trkpt lat="44.69899" lon="10.8072517"><ele>37.0</ele><time>2026-04-18T17:30:05.991Z</time></trkpt><trkpt lat="44.6991167" lon="10.807345"><ele>37.0</ele><time>2026-04-18T17:30:06.991Z</time></trkpt><trkpt lat="44.6992533" lon="10.8074417"><ele>37.0</ele><time>2026-04-18T17:30:07.992Z</time></trkpt><trkpt lat="44.6994067" lon="10.807535"><ele>36.66666666666667</ele><time>2026-04-18T17:30:08.992Z</time></trkpt><trkpt lat="44.699565" lon="10.8076133"><ele>36.333333333333336</ele><time>2026-04-18T17:30:09.991Z</time></trkpt><trkpt lat="44.6997283" lon="10.80768"><ele>36.0</ele><time>2026-04-18T17:30:10.992Z</time></trkpt><trkpt lat="44.699905" lon="10.807735"><ele>36.0</ele><time>2026-04-18T17:30:11.991Z</time></trkpt><trkpt lat="44.7000817" lon="10.8077883"><ele>36.0</ele><time>2026-04-18T17:30:12.991Z</time></trkpt><trkpt lat="44.7002667" lon="10.8078367"><ele>36.0</ele><time>2026-04-18T17:30:13.992Z</time></trkpt><trkpt lat="44.70044" lon="10.8078867"><ele>36.333333333333336</ele><time>2026-04-18T17:30:14.992Z</time></trkpt><trkpt lat="44.700605" lon="10.8079333"><ele>36.66666666666667</ele><time>2026-04-18T17:30:15.992Z</time></trkpt><trkpt lat="44.7007533" lon="10.80799"><ele>37.0</ele><time>2026-04-18T17:30:16.991Z</time></trkpt><trkpt lat="44.7008917" lon="10.80804"><ele>37.0</ele><time>2026-04-18T17:30:17.992Z</time></trkpt><trkpt lat="44.7010167" lon="10.8080917"><ele>37.0</ele><time>2026-04-18T17:30:18.991Z</time></trkpt><trkpt lat="44.7011233" lon="10.8081683"><ele>37.0</ele><time>2026-04-18T17:30:19.992Z</time></trkpt><trkpt lat="44.70121" lon="10.8082617"><ele>37.0</ele><time>2026-04-18T17:30:20.992Z</time></trkpt><trkpt lat="44.7012833" lon="10.8084017"><ele>37.0</ele><time>2026-04-18T17:30:21.991Z</time></trkpt><trkpt lat="44.7013417" lon="10.8085533"><ele>37.0</ele><time>2026-04-18T17:30:22.992Z</time></trkpt><trkpt lat="44.701415" lon="10.8087233"><ele>37.0</ele><time>2026-04-18T17:30:23.992Z</time></trkpt><trkpt lat="44.7015" lon="10.8088883"><ele>37.0</ele><time>2026-04-18T17:30:24.992Z</time></trkpt><trkpt lat="44.7016083" lon="10.8090317"><ele>37.0</ele><time>2026-04-18T17:30:25.991Z</time></trkpt><trkpt lat="44.7017217" lon="10.8091417"><ele>37.0</ele><time>2026-04-18T17:30:26.991Z</time></trkpt><trkpt lat="44.7018317" lon="10.809225"><ele>37.0</ele><time>2026-04-18T17:30:27.991Z</time></trkpt><trkpt lat="44.7019417" lon="10.80928"><ele>37.0</ele><time>2026-04-18T17:30:28.992Z</time></trkpt><trkpt lat="44.702045" lon="10.8093067"><ele>37.25</ele><time>2026-04-18T17:30:29.991Z</time></trkpt><trkpt lat="44.7021467" lon="10.8093283"><ele>37.5</ele><time>2026-04-18T17:30:30.991Z</time></trkpt><trkpt lat="44.7022567" lon="10.80935"><ele>37.75</ele><time>2026-04-18T17:30:31.991Z</time></trkpt><trkpt lat="44.7023833" lon="10.8093667"><ele>38.0</ele><time>2026-04-18T17:30:32.991Z</time></trkpt><trkpt lat="44.7025267" lon="10.8094033"><ele>38.0</ele><time>2026-04-18T17:30:33.991Z</time></trkpt><trkpt lat="44.7026867" lon="10.8094467"><ele>38.0</ele><time>2026-04-18T17:30:34.992Z</time></trkpt><trkpt lat="44.702845" lon="10.80951"><ele>38.0</ele><time>2026-04-18T17:30:35.992Z</time></trkpt><trkpt lat="44.7030017" lon="10.8095817"><ele>38.0</ele><time>2026-04-18T17:30:36.991Z</time></trkpt><trkpt lat="44.7031467" lon="10.8096383"><ele>38.0</ele><time>2026-04-18T17:30:37.991Z</time></trkpt><trkpt lat="44.7032983" lon="10.8096867"><ele>38.0</ele><time>2026-04-18T17:30:38.991Z</time></trkpt><trkpt lat="44.703455" lon="10.809695"><ele>38.0</ele><time>2026-04-18T17:30:39.991Z</time></trkpt><trkpt lat="44.7035983" lon="10.8096817"><ele>38.0</ele><time>2026-04-18T17:30:40.992Z</time></trkpt><trkpt lat="44.7037167" lon="10.8096567"><ele>38.0</ele><time>2026-04-18T17:30:41.992Z</time></trkpt><trkpt lat="44.703825" lon="10.809635"><ele>38.0</ele><time>2026-04-18T17:30:42.992Z</time></trkpt><trkpt lat="44.703935" lon="10.8096167"><ele>38.0</ele><time>2026-04-18T17:30:43.992Z</time></trkpt><trkpt lat="44.7040533" lon="10.8096133"><ele>38.0</ele><time>2026-04-18T17:30:44.992Z</time></trkpt><trkpt lat="44.7041833" lon="10.8096417"><ele>38.0</ele><time>2026-04-18T17:30:45.992Z</time></trkpt><trkpt lat="44.7043117" lon="10.8096933"><ele>38.0</ele><time>2026-04-18T17:30:46.991Z</time></trkpt><trkpt lat="44.7044233" lon="10.809775"><ele>37.75</ele><time>2026-04-18T17:30:47.992Z</time></trkpt><trkpt lat="44.7045217" lon="10.8099"><ele>37.5</ele><time>2026-04-18T17:30:48.992Z</time></trkpt><trkpt lat="44.7045983" lon="10.8100567"><ele>37.25</ele><time>2026-04-18T17:30:49.991Z</time></trkpt><trkpt lat="44.70467" lon="10.8102183"><ele>37.0</ele><time>2026-04-18T17:30:50.992Z</time></trkpt><trkpt lat="44.704745" lon="10.81037"><ele>37.0</ele><time>2026-04-18T17:30:51.991Z</time></trkpt><trkpt lat="44.7048267" lon="10.81051"><ele>37.0</ele><time>2026-04-18T17:30:52.991Z</time></trkpt><trkpt lat="44.70492" lon="10.810635"><ele>37.0</ele><time>2026-04-18T17:30:53.992Z</time></trkpt><trkpt lat="44.70502" lon="10.8107483"><ele>37.0</ele><time>2026-04-18T17:30:54.991Z</time></trkpt><trkpt lat="44.7051233" lon="10.810845"><ele>37.0</ele><time>2026-04-18T17:30:55.991Z</time></trkpt><trkpt lat="44.705235" lon="10.81094"><ele>37.0</ele><time>2026-04-18T17:30:56.992Z</time></trkpt><trkpt lat="44.7053583" lon="10.81102"><ele>37.0</ele><time>2026-04-18T17:30:57.991Z</time></trkpt><trkpt lat="44.7054883" lon="10.811075"><ele>37.0</ele><time>2026-04-18T17:30:58.991Z</time></trkpt><trkpt lat="44.7056133" lon="10.8111267"><ele>37.0</ele><time>2026-04-18T17:30:59.992Z</time></trkpt><trkpt lat="44.705725" lon="10.8111683"><ele>37.0</ele><time>2026-04-18T17:31:00.991Z</time></trkpt><trkpt lat="44.7058233" lon="10.8111983"><ele>37.0</ele><time>2026-04-18T17:31:01.991Z</time></trkpt><trkpt lat="44.7058933" lon="10.811215"><ele>37.0</ele><time>2026-04-18T17:31:02.991Z</time></trkpt><trkpt lat="44.70599" lon="10.8112583"><ele>37.0</ele><time>2026-04-18T17:31:04.992Z</time></trkpt><trkpt lat="44.70608" lon="10.8112883"><ele>37.0</ele><time>2026-04-18T17:31:06.992Z</time></trkpt><trkpt lat="44.7061483" lon="10.8112667"><ele>37.0</ele><time>2026-04-18T17:31:07.991Z</time></trkpt><trkpt lat="44.70624" lon="10.8112217"><ele>37.0</ele><time>2026-04-18T17:31:08.992Z</time></trkpt><trkpt lat="44.7063433" lon="10.811145"><ele>37.0</ele><time>2026-04-18T17:31:09.991Z</time></trkpt><trkpt lat="44.7064517" lon="10.8110533"><ele>37.0</ele><time>2026-04-18T17:31:10.991Z</time></trkpt><trkpt lat="44.70656" lon="10.8109733"><ele>37.0</ele><time>2026-04-18T17:31:11.992Z</time></trkpt><trkpt lat="44.7066733" lon="10.81089"><ele>37.0</ele><time>2026-04-18T17:31:12.991Z</time></trkpt><trkpt lat="44.70678" lon="10.8108117"><ele>37.0</ele><time>2026-04-18T17:31:13.992Z</time></trkpt><trkpt lat="44.7068783" lon="10.8107383"><ele>37.0</ele><time>2026-04-18T17:31:14.991Z</time></trkpt><trkpt lat="44.7069683" lon="10.8106667"><ele>37.0</ele><time>2026-04-18T17:31:15.992Z</time></trkpt><trkpt lat="44.70706" lon="10.8105867"><ele>37.0</ele><time>2026-04-18T17:31:16.991Z</time></trkpt><trkpt lat="44.7071533" lon="10.8105183"><ele>37.0</ele><time>2026-04-18T17:31:17.992Z</time></trkpt><trkpt lat="44.7072583" lon="10.810435"><ele>37.0</ele><time>2026-04-18T17:31:18.992Z</time></trkpt><trkpt lat="44.7073617" lon="10.8103533"><ele>37.0</ele><time>2026-04-18T17:31:19.991Z</time></trkpt><trkpt lat="44.7074717" lon="10.810265"><ele>37.0</ele><time>2026-04-18T17:31:20.991Z</time></trkpt><trkpt lat="44.70758" lon="10.81017"><ele>37.0</ele><time>2026-04-18T17:31:21.991Z</time></trkpt><trkpt lat="44.70771" lon="10.8100533"><ele>37.0</ele><time>2026-04-18T17:31:22.991Z</time></trkpt><trkpt lat="44.70786" lon="10.8099367"><ele>36.333333333333336</ele><time>2026-04-18T17:31:23.992Z</time></trkpt><trkpt lat="44.7080283" lon="10.80983"><ele>35.666666666666664</ele><time>2026-04-18T17:31:24.991Z</time></trkpt><trkpt lat="44.708205" lon="10.8097083"><ele>35.0</ele><time>2026-04-18T17:31:25.991Z</time></trkpt><trkpt lat="44.7083917" lon="10.80956"><ele>35.0</ele><time>2026-04-18T17:31:26.991Z</time></trkpt><trkpt lat="44.7085833" lon="10.8094167"><ele>35.0</ele><time>2026-04-18T17:31:27.992Z</time></trkpt><trkpt lat="44.7087783" lon="10.809265"><ele>35.0</ele><time>2026-04-18T17:31:28.992Z</time></trkpt><trkpt lat="44.70899" lon="10.8091"><ele>35.0</ele><time>2026-04-18T17:31:29.992Z</time></trkpt><trkpt lat="44.7092" lon="10.808935"><ele>35.0</ele><time>2026-04-18T17:31:30.992Z</time></trkpt><trkpt lat="44.7094183" lon="10.8087667"><ele>35.0</ele><time>2026-04-18T17:31:31.991Z</time></trkpt><trkpt lat="44.7096433" lon="10.8086017"><ele>35.0</ele><time>2026-04-18T17:31:32.992Z</time></trkpt><trkpt lat="44.7098583" lon="10.80844"><ele>35.0</ele><time>2026-04-18T17:31:33.992Z</time></trkpt><trkpt lat="44.71007" lon="10.8082833"><ele>35.0</ele><time>2026-04-18T17:31:34.991Z</time></trkpt><trkpt lat="44.710285" lon="10.8081233"><ele>35.0</ele><time>2026-04-18T17:31:35.991Z</time></trkpt><trkpt lat="44.7104883" lon="10.8079633"><ele>35.0</ele><time>2026-04-18T17:31:36.992Z</time></trkpt><trkpt lat="44.710705" lon="10.8078017"><ele>35.5</ele><time>2026-04-18T17:31:37.991Z</time></trkpt><trkpt lat="44.7109167" lon="10.8076433"><ele>36.0</ele><time>2026-04-18T17:31:38.992Z</time></trkpt><trkpt lat="44.7111317" lon="10.8074833"><ele>36.0</ele><time>2026-04-18T17:31:39.992Z</time></trkpt><trkpt lat="44.7113483" lon="10.8073117"><ele>36.0</ele><time>2026-04-18T17:31:40.992Z</time></trkpt><trkpt lat="44.7115733" lon="10.8071317"><ele>36.0</ele><time>2026-04-18T17:31:41.991Z</time></trkpt><trkpt lat="44.7118" lon="10.8069483"><ele>36.0</ele><time>2026-04-18T17:31:42.991Z</time></trkpt><trkpt lat="44.7120217" lon="10.8067717"><ele>36.5</ele><time>2026-04-18T17:31:43.992Z</time></trkpt><trkpt lat="44.7122533" lon="10.8066083"><ele>37.0</ele><time>2026-04-18T17:31:44.991Z</time></trkpt><trkpt lat="44.7124867" lon="10.80644"><ele>37.0</ele><time>2026-04-18T17:31:45.991Z</time></trkpt><trkpt lat="44.712725" lon="10.806265"><ele>37.0</ele><time>2026-04-18T17:31:46.992Z</time></trkpt><trkpt lat="44.71297" lon="10.8060817"><ele>36.5</ele><time>2026-04-18T17:31:47.992Z</time></trkpt><trkpt lat="44.7132083" lon="10.8059067"><ele>36.0</ele><time>2026-04-18T17:31:48.992Z</time></trkpt><trkpt lat="44.7134333" lon="10.80574"><ele>35.0</ele><time>2026-04-18T17:31:49.992Z</time></trkpt><trkpt lat="44.7136417" lon="10.80559"><ele>34.0</ele><time>2026-04-18T17:31:50.992Z</time></trkpt><trkpt lat="44.713845" lon="10.8054483"><ele>34.0</ele><time>2026-04-18T17:31:51.992Z</time></trkpt><trkpt lat="44.7140467" lon="10.8053"><ele>34.0</ele><time>2026-04-18T17:31:52.991Z</time></trkpt><trkpt lat="44.7142433" lon="10.8051533"><ele>33.0</ele><time>2026-04-18T17:31:53.992Z</time></trkpt><trkpt lat="44.71444" lon="10.8050083"><ele>32.0</ele><time>2026-04-18T17:31:54.991Z</time></trkpt><trkpt lat="44.71463" lon="10.8048667"><ele>31.0</ele><time>2026-04-18T17:31:55.992Z</time></trkpt><trkpt lat="44.7148183" lon="10.8047217"><ele>31.0</ele><time>2026-04-18T17:31:56.992Z</time></trkpt><trkpt lat="44.715" lon="10.80457"><ele>31.0</ele><time>2026-04-18T17:31:57.991Z</time></trkpt><trkpt lat="44.7151817" lon="10.8044317"><ele>31.0</ele><time>2026-04-18T17:31:58.991Z</time></trkpt><trkpt lat="44.7153517" lon="10.8043083"><ele>32.0</ele><time>2026-04-18T17:31:59.992Z</time></trkpt><trkpt lat="44.7155033" lon="10.8041967"><ele>33.0</ele><time>2026-04-18T17:32:00.991Z</time></trkpt><trkpt lat="44.7156583" lon="10.8041117"><ele>34.0</ele><time>2026-04-18T17:32:01.992Z</time></trkpt><trkpt lat="44.715835" lon="10.8040883"><ele>34.0</ele><time>2026-04-18T17:32:02.991Z</time></trkpt><trkpt lat="44.716015" lon="10.8041083"><ele>34.0</ele><time>2026-04-18T17:32:03.991Z</time></trkpt><trkpt lat="44.7161983" lon="10.8041783"><ele>34.0</ele><time>2026-04-18T17:32:04.992Z</time></trkpt><trkpt lat="44.7163917" lon="10.80428"><ele>34.0</ele><time>2026-04-18T17:32:05.991Z</time></trkpt><trkpt lat="44.716595" lon="10.8043967"><ele>34.0</ele><time>2026-04-18T17:32:06.992Z</time></trkpt><trkpt lat="44.716815" lon="10.8045183"><ele>34.0</ele><time>2026-04-18T17:32:07.992Z</time></trkpt><trkpt lat="44.7170433" lon="10.8046467"><ele>34.0</ele><time>2026-04-18T17:32:08.992Z</time></trkpt><trkpt lat="44.71727" lon="10.8047767"><ele>34.0</ele><time>2026-04-18T17:32:09.991Z</time></trkpt><trkpt lat="44.7174817" lon="10.8048967"><ele>34.0</ele><time>2026-04-18T17:32:10.992Z</time></trkpt><trkpt lat="44.7176767" lon="10.8050067"><ele>34.0</ele><time>2026-04-18T17:32:11.991Z</time></trkpt><trkpt lat="44.7178617" lon="10.805105"><ele>33.333333333333336</ele><time>2026-04-18T17:32:12.991Z</time></trkpt><trkpt lat="44.718045" lon="10.8051983"><ele>32.666666666666664</ele><time>2026-04-18T17:32:13.992Z</time></trkpt><trkpt lat="44.7182333" lon="10.8052667"><ele>32.0</ele><time>2026-04-18T17:32:14.991Z</time></trkpt><trkpt lat="44.718445" lon="10.80529"><ele>32.0</ele><time>2026-04-18T17:32:15.992Z</time></trkpt><trkpt lat="44.7186733" lon="10.8052867"><ele>32.0</ele><time>2026-04-18T17:32:16.992Z</time></trkpt><trkpt lat="44.71892" lon="10.8052567"><ele>32.0</ele><time>2026-04-18T17:32:17.991Z</time></trkpt><trkpt lat="44.7191733" lon="10.805225"><ele>32.0</ele><time>2026-04-18T17:32:18.992Z</time></trkpt><trkpt lat="44.719415" lon="10.8052033"><ele>33.33333333333333</ele><time>2026-04-18T17:32:19.991Z</time></trkpt><trkpt lat="44.7196383" lon="10.8051817"><ele>34.666666666666664</ele><time>2026-04-18T17:32:20.992Z</time></trkpt><trkpt lat="44.719845" lon="10.8051667"><ele>36.0</ele><time>2026-04-18T17:32:21.992Z</time></trkpt><trkpt lat="44.7200333" lon="10.8051633"><ele>36.0</ele><time>2026-04-18T17:32:22.992Z</time></trkpt><trkpt lat="44.72022" lon="10.8051567"><ele>36.0</ele><time>2026-04-18T17:32:23.992Z</time></trkpt><trkpt lat="44.7203983" lon="10.805165"><ele>36.0</ele><time>2026-04-18T17:32:24.992Z</time></trkpt><trkpt lat="44.7205717" lon="10.805205"><ele>36.0</ele><time>2026-04-18T17:32:25.991Z</time></trkpt><trkpt lat="44.7207633" lon="10.8052533"><ele>36.0</ele><time>2026-04-18T17:32:26.991Z</time></trkpt><trkpt lat="44.7209633" lon="10.8053317"><ele>36.0</ele><time>2026-04-18T17:32:27.992Z</time></trkpt><trkpt lat="44.7211817" lon="10.805435"><ele>35.0</ele><time>2026-04-18T17:32:28.991Z</time></trkpt><trkpt lat="44.72141" lon="10.8055367"><ele>34.0</ele><time>2026-04-18T17:32:29.991Z</time></trkpt><trkpt lat="44.721645" lon="10.8056283"><ele>34.0</ele><time>2026-04-18T17:32:30.992Z</time></trkpt><trkpt lat="44.721875" lon="10.8057183"><ele>34.0</ele><time>2026-04-18T17:32:31.991Z</time></trkpt><trkpt lat="44.7220983" lon="10.805805"><ele>34.0</ele><time>2026-04-18T17:32:32.992Z</time></trkpt><trkpt lat="44.7223" lon="10.80589"><ele>34.0</ele><time>2026-04-18T17:32:33.991Z</time></trkpt><trkpt lat="44.7224833" lon="10.8059633"><ele>34.0</ele><time>2026-04-18T17:32:34.992Z</time></trkpt><trkpt lat="44.72266" lon="10.8060367"><ele>33.75</ele><time>2026-04-18T17:32:35.992Z</time></trkpt><trkpt lat="44.7228117" lon="10.806095"><ele>33.5</ele><time>2026-04-18T17:32:36.992Z</time></trkpt><trkpt lat="44.7229383" lon="10.8061383"><ele>33.25</ele><time>2026-04-18T17:32:37.991Z</time></trkpt><trkpt lat="44.72306" lon="10.8061567"><ele>33.0</ele><time>2026-04-18T17:32:38.992Z</time></trkpt><trkpt lat="44.7231767" lon="10.8061367"><ele>33.0</ele><time>2026-04-18T17:32:39.991Z</time></trkpt><trkpt lat="44.7232917" lon="10.8060667"><ele>33.0</ele><time>2026-04-18T17:32:40.992Z</time></trkpt><trkpt lat="44.72339" lon="10.80594"><ele>33.0</ele><time>2026-04-18T17:32:41.991Z</time></trkpt><trkpt lat="44.7234667" lon="10.8057667"><ele>33.0</ele><time>2026-04-18T17:32:42.992Z</time></trkpt><trkpt lat="44.72353" lon="10.805555"><ele>33.0</ele><time>2026-04-18T17:32:43.991Z</time></trkpt><trkpt lat="44.7235983" lon="10.805325"><ele>33.0</ele><time>2026-04-18T17:32:44.991Z</time></trkpt><trkpt lat="44.7236667" lon="10.8050833"><ele>33.0</ele><time>2026-04-18T17:32:45.992Z</time></trkpt><trkpt lat="44.7237417" lon="10.8048333"><ele>33.0</ele><time>2026-04-18T17:32:46.991Z</time></trkpt><trkpt lat="44.72382" lon="10.8045667"><ele>33.0</ele><time>2026-04-18T17:32:47.992Z</time></trkpt><trkpt lat="44.7238967" lon="10.8042917"><ele>33.0</ele><time>2026-04-18T17:32:48.992Z</time></trkpt><trkpt lat="44.7239883" lon="10.8040067"><ele>33.0</ele><time>2026-04-18T17:32:49.991Z</time></trkpt><trkpt lat="44.7240783" lon="10.80371"><ele>33.0</ele><time>2026-04-18T17:32:50.991Z</time></trkpt><trkpt lat="44.7241667" lon="10.8034017"><ele>32.5</ele><time>2026-04-18T17:32:51.992Z</time></trkpt><trkpt lat="44.72426" lon="10.8030883"><ele>32.0</ele><time>2026-04-18T17:32:52.992Z</time></trkpt><trkpt lat="44.724355" lon="10.80277"><ele>32.33333333333333</ele><time>2026-04-18T17:32:53.992Z</time></trkpt><trkpt lat="44.7244533" lon="10.8024733"><ele>32.666666666666664</ele><time>2026-04-18T17:32:54.992Z</time></trkpt><trkpt lat="44.72455" lon="10.8022017"><ele>33.0</ele><time>2026-04-18T17:32:55.992Z</time></trkpt><trkpt lat="44.7246467" lon="10.80195"><ele>33.0</ele><time>2026-04-18T17:32:56.991Z</time></trkpt><trkpt lat="44.7247383" lon="10.8017217"><ele>33.0</ele><time>2026-04-18T17:32:57.992Z</time></trkpt><trkpt lat="44.7248267" lon="10.8015067"><ele>33.0</ele><time>2026-04-18T17:32:58.991Z</time></trkpt><trkpt lat="44.7248983" lon="10.8013133"><ele>33.0</ele><time>2026-04-18T17:32:59.991Z</time></trkpt><trkpt lat="44.7249683" lon="10.8011333"><ele>33.0</ele><time>2026-04-18T17:33:00.992Z</time></trkpt><trkpt lat="44.725035" lon="10.8009767"><ele>33.0</ele><time>2026-04-18T17:33:01.992Z</time></trkpt><trkpt lat="44.72513" lon="10.8008667"><ele>33.0</ele><time>2026-04-18T17:33:02.992Z</time></trkpt><trkpt lat="44.72525" lon="10.800785"><ele>33.25</ele><time>2026-04-18T17:33:03.991Z</time></trkpt><trkpt lat="44.7253817" lon="10.80077"><ele>33.5</ele><time>2026-04-18T17:33:04.991Z</time></trkpt><trkpt lat="44.7255117" lon="10.8007967"><ele>33.75</ele><time>2026-04-18T17:33:05.991Z</time></trkpt><trkpt lat="44.7256333" lon="10.800825"><ele>34.0</ele><time>2026-04-18T17:33:06.992Z</time></trkpt><trkpt lat="44.7257567" lon="10.80082"><ele>34.0</ele><time>2026-04-18T17:33:07.991Z</time></trkpt><trkpt lat="44.7258783" lon="10.8007483"><ele>34.0</ele><time>2026-04-18T17:33:08.992Z</time></trkpt><trkpt lat="44.725985" lon="10.8006267"><ele>34.0</ele><time>2026-04-18T17:33:09.991Z</time></trkpt><trkpt lat="44.7260883" lon="10.800465"><ele>34.0</ele><time>2026-04-18T17:33:10.992Z</time></trkpt><trkpt lat="44.7261867" lon="10.8002667"><ele>34.0</ele><time>2026-04-18T17:33:11.991Z</time></trkpt><trkpt lat="44.7262817" lon="10.8000467"><ele>34.0</ele><time>2026-04-18T17:33:12.992Z</time></trkpt><trkpt lat="44.7263867" lon="10.7998067"><ele>34.0</ele><time>2026-04-18T17:33:13.991Z</time></trkpt><trkpt lat="44.7264983" lon="10.799565"><ele>34.0</ele><time>2026-04-18T17:33:14.991Z</time></trkpt><trkpt lat="44.7266133" lon="10.7993167"><ele>34.0</ele><time>2026-04-18T17:33:15.992Z</time></trkpt><trkpt lat="44.7267233" lon="10.7990633"><ele>34.0</ele><time>2026-04-18T17:33:16.991Z</time></trkpt><trkpt lat="44.72682" lon="10.798825"><ele>33.66666666666667</ele><time>2026-04-18T17:33:17.991Z</time></trkpt><trkpt lat="44.7269083" lon="10.7985983"><ele>33.333333333333336</ele><time>2026-04-18T17:33:18.992Z</time></trkpt><trkpt lat="44.727" lon="10.7983867"><ele>33.0</ele><time>2026-04-18T17:33:19.992Z</time></trkpt><trkpt lat="44.72708" lon="10.79818"><ele>33.0</ele><time>2026-04-18T17:33:20.992Z</time></trkpt><trkpt lat="44.727165" lon="10.7979767"><ele>33.0</ele><time>2026-04-18T17:33:21.991Z</time></trkpt><trkpt lat="44.7272533" lon="10.7977617"><ele>33.0</ele><time>2026-04-18T17:33:22.991Z</time></trkpt><trkpt lat="44.7273433" lon="10.7975517"><ele>33.0</ele><time>2026-04-18T17:33:23.991Z</time></trkpt><trkpt lat="44.72743" lon="10.7973517"><ele>33.0</ele><time>2026-04-18T17:33:24.991Z</time></trkpt><trkpt lat="44.7275233" lon="10.7971417"><ele>33.0</ele><time>2026-04-18T17:33:25.992Z</time></trkpt><trkpt lat="44.7276167" lon="10.7969283"><ele>33.333333333333336</ele><time>2026-04-18T17:33:26.992Z</time></trkpt><trkpt lat="44.7277133" lon="10.796715"><ele>33.66666666666667</ele><time>2026-04-18T17:33:27.991Z</time></trkpt><trkpt lat="44.7278217" lon="10.7965167"><ele>34.0</ele><time>2026-04-18T17:33:28.992Z</time></trkpt><trkpt lat="44.727925" lon="10.7963183"><ele>34.0</ele><time>2026-04-18T17:33:29.991Z</time></trkpt><trkpt lat="44.72803" lon="10.796135"><ele>34.0</ele><time>2026-04-18T17:33:30.992Z</time></trkpt><trkpt lat="44.7281233" lon="10.7959717"><ele>34.0</ele><time>2026-04-18T17:33:31.991Z</time></trkpt><trkpt lat="44.7282133" lon="10.795815"><ele>34.0</ele><time>2026-04-18T17:33:32.991Z</time></trkpt><trkpt lat="44.728295" lon="10.795665"><ele>34.0</ele><time>2026-04-18T17:33:33.991Z</time></trkpt><trkpt lat="44.7283667" lon="10.7955167"><ele>34.0</ele><time>2026-04-18T17:33:34.991Z</time></trkpt><trkpt lat="44.7284333" lon="10.7953683"><ele>34.0</ele><time>2026-04-18T17:33:35.991Z</time></trkpt><trkpt lat="44.7285033" lon="10.7952183"><ele>34.75</ele><time>2026-04-18T17:33:36.992Z</time></trkpt><trkpt lat="44.7285733" lon="10.7950633"><ele>35.5</ele><time>2026-04-18T17:33:37.991Z</time></trkpt><trkpt lat="44.7286483" lon="10.7949"><ele>36.25</ele><time>2026-04-18T17:33:38.992Z</time></trkpt><trkpt lat="44.72872" lon="10.7947333"><ele>37.0</ele><time>2026-04-18T17:33:39.991Z</time></trkpt><trkpt lat="44.7287883" lon="10.7945717"><ele>37.0</ele><time>2026-04-18T17:33:40.992Z</time></trkpt><trkpt lat="44.728865" lon="10.794415"><ele>37.0</ele><time>2026-04-18T17:33:41.991Z</time></trkpt><trkpt lat="44.7289467" lon="10.7942633"><ele>37.0</ele><time>2026-04-18T17:33:42.992Z</time></trkpt><trkpt lat="44.7290317" lon="10.79411"><ele>37.0</ele><time>2026-04-18T17:33:43.991Z</time></trkpt><trkpt lat="44.7291033" lon="10.7939617"><ele>37.0</ele><time>2026-04-18T17:33:44.991Z</time></trkpt><trkpt lat="44.72918" lon="10.7938283"><ele>37.0</ele><time>2026-04-18T17:33:45.991Z</time></trkpt><trkpt lat="44.729245" lon="10.7937017"><ele>37.0</ele><time>2026-04-18T17:33:46.991Z</time></trkpt><trkpt lat="44.72931" lon="10.7935867"><ele>37.0</ele><time>2026-04-18T17:33:47.991Z</time></trkpt><trkpt lat="44.7293717" lon="10.7934867"><ele>37.0</ele><time>2026-04-18T17:33:48.992Z</time></trkpt><trkpt lat="44.7294317" lon="10.793395"><ele>36.833333333333336</ele><time>2026-04-18T17:33:49.991Z</time></trkpt><trkpt lat="44.7295" lon="10.7933117"><ele>36.66666666666667</ele><time>2026-04-18T17:33:50.992Z</time></trkpt><trkpt lat="44.7295667" lon="10.7932417"><ele>36.5</ele><time>2026-04-18T17:33:51.992Z</time></trkpt><trkpt lat="44.72964" lon="10.7931933"><ele>36.333333333333336</ele><time>2026-04-18T17:33:52.991Z</time></trkpt><trkpt lat="44.7297183" lon="10.7931717"><ele>36.166666666666664</ele><time>2026-04-18T17:33:53.992Z</time></trkpt><trkpt lat="44.72981" lon="10.79318"><ele>36.0</ele><time>2026-04-18T17:33:54.992Z</time></trkpt><trkpt lat="44.7298983" lon="10.7932367"><ele>36.0</ele><time>2026-04-18T17:33:55.992Z</time></trkpt><trkpt lat="44.73" lon="10.7933233"><ele>36.0</ele><time>2026-04-18T17:33:56.992Z</time></trkpt><trkpt lat="44.73013" lon="10.7934317"><ele>36.0</ele><time>2026-04-18T17:33:57.992Z</time></trkpt><trkpt lat="44.7302633" lon="10.7935417"><ele>36.0</ele><time>2026-04-18T17:33:58.991Z</time></trkpt><trkpt lat="44.7304" lon="10.793645"><ele>35.0</ele><time>2026-04-18T17:33:59.992Z</time></trkpt><trkpt lat="44.7305367" lon="10.79374"><ele>34.0</ele><time>2026-04-18T17:34:00.992Z</time></trkpt><trkpt lat="44.7306767" lon="10.7938417"><ele>33.0</ele><time>2026-04-18T17:34:01.992Z</time></trkpt><trkpt lat="44.7308233" lon="10.79394"><ele>33.0</ele><time>2026-04-18T17:34:02.991Z</time></trkpt><trkpt lat="44.7309733" lon="10.79403"><ele>33.0</ele><time>2026-04-18T17:34:03.991Z</time></trkpt><trkpt lat="44.7311417" lon="10.7940933"><ele>33.0</ele><time>2026-04-18T17:34:04.991Z</time></trkpt><trkpt lat="44.731315" lon="10.7941483"><ele>33.0</ele><time>2026-04-18T17:34:05.991Z</time></trkpt><trkpt lat="44.731485" lon="10.7942033"><ele>33.0</ele><time>2026-04-18T17:34:06.992Z</time></trkpt><trkpt lat="44.7316567" lon="10.7942583"><ele>33.0</ele><time>2026-04-18T17:34:07.992Z</time></trkpt><trkpt lat="44.7318233" lon="10.794315"><ele>32.666666666666664</ele><time>2026-04-18T17:34:08.991Z</time></trkpt><trkpt lat="44.73199" lon="10.7943633"><ele>32.33333333333333</ele><time>2026-04-18T17:34:09.992Z</time></trkpt><trkpt lat="44.732155" lon="10.7944133"><ele>32.0</ele><time>2026-04-18T17:34:10.991Z</time></trkpt><trkpt lat="44.732315" lon="10.7944617"><ele>32.0</ele><time>2026-04-18T17:34:11.992Z</time></trkpt><trkpt lat="44.732465" lon="10.7945133"><ele>32.0</ele><time>2026-04-18T17:34:12.991Z</time></trkpt><trkpt lat="44.7326133" lon="10.794565"><ele>32.0</ele><time>2026-04-18T17:34:13.991Z</time></trkpt><trkpt lat="44.732745" lon="10.7946083"><ele>32.0</ele><time>2026-04-18T17:34:14.992Z</time></trkpt><trkpt lat="44.7328717" lon="10.79465"><ele>31.8</ele><time>2026-04-18T17:34:15.992Z</time></trkpt><trkpt lat="44.73299" lon="10.7946933"><ele>31.6</ele><time>2026-04-18T17:34:16.992Z</time></trkpt><trkpt lat="44.7331017" lon="10.7947267"><ele>31.400000000000002</ele><time>2026-04-18T17:34:17.992Z</time></trkpt><trkpt lat="44.7332067" lon="10.7947633"><ele>31.200000000000003</ele><time>2026-04-18T17:34:18.991Z</time></trkpt><trkpt lat="44.7333067" lon="10.7947933"><ele>31.0</ele><time>2026-04-18T17:34:19.991Z</time></trkpt><trkpt lat="44.7333967" lon="10.7948233"><ele>31.0</ele><time>2026-04-18T17:34:20.992Z</time></trkpt><trkpt lat="44.7334817" lon="10.7948533"><ele>31.0</ele><time>2026-04-18T17:34:21.992Z</time></trkpt><trkpt lat="44.733565" lon="10.794895"><ele>31.0</ele><time>2026-04-18T17:34:22.992Z</time></trkpt><trkpt lat="44.73365" lon="10.7949467"><ele>31.0</ele><time>2026-04-18T17:34:23.991Z</time></trkpt><trkpt lat="44.7337383" lon="10.794985"><ele>31.0</ele><time>2026-04-18T17:34:24.992Z</time></trkpt><trkpt lat="44.7338533" lon="10.7950067"><ele>31.0</ele><time>2026-04-18T17:34:25.991Z</time></trkpt><trkpt lat="44.733975" lon="10.795025"><ele>31.0</ele><time>2026-04-18T17:34:26.991Z</time></trkpt><trkpt lat="44.7341117" lon="10.7950617"><ele>31.0</ele><time>2026-04-18T17:34:27.991Z</time></trkpt><trkpt lat="44.73425" lon="10.7951067"><ele>31.0</ele><time>2026-04-18T17:34:28.992Z</time></trkpt><trkpt lat="44.734385" lon="10.795145"><ele>30.75</ele><time>2026-04-18T17:34:29.991Z</time></trkpt><trkpt lat="44.7345217" lon="10.795185"><ele>30.5</ele><time>2026-04-18T17:34:30.991Z</time></trkpt><trkpt lat="44.7346633" lon="10.7952267"><ele>30.25</ele><time>2026-04-18T17:34:31.991Z</time></trkpt><trkpt lat="44.7347983" lon="10.7952617"><ele>30.0</ele><time>2026-04-18T17:34:32.992Z</time></trkpt><trkpt lat="44.734925" lon="10.7952883"><ele>30.0</ele><time>2026-04-18T17:34:33.992Z</time></trkpt><trkpt lat="44.7350383" lon="10.7953167"><ele>30.0</ele><time>2026-04-18T17:34:34.991Z</time></trkpt><trkpt lat="44.7351483" lon="10.7953367"><ele>30.0</ele><time>2026-04-18T17:34:35.992Z</time></trkpt><trkpt lat="44.7352483" lon="10.7953583"><ele>30.0</ele><time>2026-04-18T17:34:36.991Z</time></trkpt><trkpt lat="44.73534" lon="10.795385"><ele>30.0</ele><time>2026-04-18T17:34:37.991Z</time></trkpt><trkpt lat="44.7354283" lon="10.7954083"><ele>30.0</ele><time>2026-04-18T17:34:38.991Z</time></trkpt><trkpt lat="44.7355183" lon="10.795425"><ele>30.0</ele><time>2026-04-18T17:34:39.991Z</time></trkpt><trkpt lat="44.7356167" lon="10.7954317"><ele>30.0</ele><time>2026-04-18T17:34:40.992Z</time></trkpt><trkpt lat="44.7357217" lon="10.795435"><ele>30.0</ele><time>2026-04-18T17:34:41.991Z</time></trkpt><trkpt lat="44.7358333" lon="10.7954133"><ele>30.0</ele><time>2026-04-18T17:34:42.992Z</time></trkpt><trkpt lat="44.735955" lon="10.79537"><ele>30.0</ele><time>2026-04-18T17:34:43.991Z</time></trkpt><trkpt lat="44.7360867" lon="10.7953117"><ele>30.0</ele><time>2026-04-18T17:34:44.991Z</time></trkpt><trkpt lat="44.7362217" lon="10.7952233"><ele>30.0</ele><time>2026-04-18T17:34:45.992Z</time></trkpt><trkpt lat="44.7363583" lon="10.795115"><ele>30.0</ele><time>2026-04-18T17:34:46.992Z</time></trkpt><trkpt lat="44.73649" lon="10.79498"><ele>30.0</ele><time>2026-04-18T17:34:47.991Z</time></trkpt><trkpt lat="44.7366067" lon="10.7948033"><ele>30.0</ele><time>2026-04-18T17:34:48.992Z</time></trkpt><trkpt lat="44.7367067" lon="10.79461"><ele>30.0</ele><time>2026-04-18T17:34:49.991Z</time></trkpt><trkpt lat="44.7367967" lon="10.79439"><ele>30.666666666666664</ele><time>2026-04-18T17:34:50.992Z</time></trkpt><trkpt lat="44.7368733" lon="10.7941583"><ele>31.333333333333332</ele><time>2026-04-18T17:34:51.992Z</time></trkpt><trkpt lat="44.73694" lon="10.793945"><ele>32.0</ele><time>2026-04-18T17:34:52.992Z</time></trkpt><trkpt lat="44.7370033" lon="10.793745"><ele>32.25</ele><time>2026-04-18T17:34:53.991Z</time></trkpt><trkpt lat="44.7370667" lon="10.7935583"><ele>32.5</ele><time>2026-04-18T17:34:54.992Z</time></trkpt><trkpt lat="44.7371217" lon="10.793385"><ele>32.75</ele><time>2026-04-18T17:34:55.992Z</time></trkpt><trkpt lat="44.7371733" lon="10.7932233"><ele>33.0</ele><time>2026-04-18T17:34:56.992Z</time></trkpt><trkpt lat="44.7372217" lon="10.7930817"><ele>33.0</ele><time>2026-04-18T17:34:57.992Z</time></trkpt><trkpt lat="44.73728" lon="10.7929583"><ele>33.0</ele><time>2026-04-18T17:34:58.992Z</time></trkpt><trkpt lat="44.7373383" lon="10.7928517"><ele>33.0</ele><time>2026-04-18T17:34:59.992Z</time></trkpt><trkpt lat="44.7373783" lon="10.7927367"><ele>33.0</ele><time>2026-04-18T17:35:00.991Z</time></trkpt><trkpt lat="44.7373983" lon="10.7926033"><ele>33.0</ele><time>2026-04-18T17:35:01.991Z</time></trkpt><trkpt lat="44.7374183" lon="10.7924517"><ele>33.5</ele><time>2026-04-18T17:35:02.992Z</time></trkpt><trkpt lat="44.7374517" lon="10.7922917"><ele>34.0</ele><time>2026-04-18T17:35:03.992Z</time></trkpt><trkpt lat="44.7374933" lon="10.792115"><ele>34.5</ele><time>2026-04-18T17:35:04.992Z</time></trkpt><trkpt lat="44.7375317" lon="10.79194"><ele>35.0</ele><time>2026-04-18T17:35:05.992Z</time></trkpt><trkpt lat="44.7375683" lon="10.7917617"><ele>35.0</ele><time>2026-04-18T17:35:06.991Z</time></trkpt><trkpt lat="44.7376067" lon="10.7915783"><ele>35.0</ele><time>2026-04-18T17:35:07.992Z</time></trkpt><trkpt lat="44.7376567" lon="10.7913967"><ele>35.0</ele><time>2026-04-18T17:35:08.992Z</time></trkpt><trkpt lat="44.7377117" lon="10.7912133"><ele>35.0</ele><time>2026-04-18T17:35:09.991Z</time></trkpt><trkpt lat="44.7377683" lon="10.7910267"><ele>34.5</ele><time>2026-04-18T17:35:10.992Z</time></trkpt><trkpt lat="44.7378233" lon="10.790835"><ele>34.0</ele><time>2026-04-18T17:35:11.992Z</time></trkpt><trkpt lat="44.737875" lon="10.7906417"><ele>33.5</ele><time>2026-04-18T17:35:12.992Z</time></trkpt><trkpt lat="44.7379267" lon="10.7904483"><ele>33.0</ele><time>2026-04-18T17:35:13.991Z</time></trkpt><trkpt lat="44.737975" lon="10.79027"><ele>33.25</ele><time>2026-04-18T17:35:14.991Z</time></trkpt><trkpt lat="44.7380233" lon="10.7901033"><ele>33.5</ele><time>2026-04-18T17:35:15.991Z</time></trkpt><trkpt lat="44.73807" lon="10.7899367"><ele>33.75</ele><time>2026-04-18T17:35:16.991Z</time></trkpt><trkpt lat="44.7381133" lon="10.7897683"><ele>34.0</ele><time>2026-04-18T17:35:17.992Z</time></trkpt><trkpt lat="44.73816" lon="10.7895983"><ele>34.0</ele><time>2026-04-18T17:35:18.991Z</time></trkpt><trkpt lat="44.7382033" lon="10.7894217"><ele>34.0</ele><time>2026-04-18T17:35:19.991Z</time></trkpt><trkpt lat="44.73825" lon="10.7892367"><ele>34.0</ele><time>2026-04-18T17:35:20.991Z</time></trkpt><trkpt lat="44.738305" lon="10.78905"><ele>34.0</ele><time>2026-04-18T17:35:21.992Z</time></trkpt><trkpt lat="44.7383617" lon="10.78885"><ele>34.0</ele><time>2026-04-18T17:35:22.992Z</time></trkpt><trkpt lat="44.73842" lon="10.78865"><ele>34.0</ele><time>2026-04-18T17:35:23.991Z</time></trkpt><trkpt lat="44.7384783" lon="10.7884583"><ele>34.0</ele><time>2026-04-18T17:35:24.991Z</time></trkpt><trkpt lat="44.7385267" lon="10.7882667"><ele>34.0</ele><time>2026-04-18T17:35:25.992Z</time></trkpt><trkpt lat="44.738585" lon="10.78808"><ele>34.0</ele><time>2026-04-18T17:35:26.992Z</time></trkpt><trkpt lat="44.7386533" lon="10.7878867"><ele>34.0</ele><time>2026-04-18T17:35:27.992Z</time></trkpt><trkpt lat="44.738725" lon="10.78769"><ele>34.0</ele><time>2026-04-18T17:35:28.991Z</time></trkpt><trkpt lat="44.7388033" lon="10.7874883"><ele>34.25</ele><time>2026-04-18T17:35:29.991Z</time></trkpt><trkpt lat="44.7388733" lon="10.7873017"><ele>34.5</ele><time>2026-04-18T17:35:30.991Z</time></trkpt><trkpt lat="44.7389383" lon="10.7871333"><ele>34.75</ele><time>2026-04-18T17:35:31.991Z</time></trkpt><trkpt lat="44.739" lon="10.7869917"><ele>35.0</ele><time>2026-04-18T17:35:32.991Z</time></trkpt><trkpt lat="44.73904" lon="10.7869"><ele>35.166666666666664</ele><time>2026-04-18T17:35:33.992Z</time></trkpt><trkpt lat="44.7391083" lon="10.7867833"><ele>35.33333333333333</ele><time>2026-04-18T17:35:35.992Z</time></trkpt><trkpt lat="44.7391617" lon="10.78673"><ele>35.5</ele><time>2026-04-18T17:35:36.991Z</time></trkpt><trkpt lat="44.73922" lon="10.7866683"><ele>35.666666666666664</ele><time>2026-04-18T17:35:37.992Z</time></trkpt><trkpt lat="44.7392733" lon="10.7865767"><ele>35.833333333333336</ele><time>2026-04-18T17:35:38.991Z</time></trkpt><trkpt lat="44.7393083" lon="10.78645"><ele>36.0</ele><time>2026-04-18T17:35:39.991Z</time></trkpt><trkpt lat="44.7393283" lon="10.786305"><ele>36.0</ele><time>2026-04-18T17:35:40.992Z</time></trkpt><trkpt lat="44.739365" lon="10.7861517"><ele>36.0</ele><time>2026-04-18T17:35:41.992Z</time></trkpt><trkpt lat="44.739405" lon="10.7859817"><ele>36.0</ele><time>2026-04-18T17:35:42.992Z</time></trkpt><trkpt lat="44.7394683" lon="10.78581"><ele>36.0</ele><time>2026-04-18T17:35:43.991Z</time></trkpt><trkpt lat="44.7395317" lon="10.7856317"><ele>36.25</ele><time>2026-04-18T17:35:44.991Z</time></trkpt><trkpt lat="44.7395867" lon="10.785455"><ele>36.5</ele><time>2026-04-18T17:35:45.992Z</time></trkpt><trkpt lat="44.7396367" lon="10.7852817"><ele>36.75</ele><time>2026-04-18T17:35:46.992Z</time></trkpt><trkpt lat="44.7396917" lon="10.7851083"><ele>37.0</ele><time>2026-04-18T17:35:47.992Z</time></trkpt><trkpt lat="44.7397417" lon="10.7849583"><ele>36.66666666666667</ele><time>2026-04-18T17:35:48.992Z</time></trkpt><trkpt lat="44.7397783" lon="10.7848167"><ele>36.333333333333336</ele><time>2026-04-18T17:35:49.992Z</time></trkpt><trkpt lat="44.7398133" lon="10.7846967"><ele>36.0</ele><time>2026-04-18T17:35:50.991Z</time></trkpt><trkpt lat="44.7398367" lon="10.7845983"><ele>35.666666666666664</ele><time>2026-04-18T17:35:51.992Z</time></trkpt><trkpt lat="44.7398567" lon="10.7845133"><ele>35.33333333333333</ele><time>2026-04-18T17:35:52.992Z</time></trkpt><trkpt lat="44.739925" lon="10.7844017"><ele>35.0</ele><time>2026-04-18T17:35:54.992Z</time></trkpt><trkpt lat="44.740025" lon="10.7843833"><ele>35.0</ele><time>2026-04-18T17:35:56.991Z</time></trkpt><trkpt lat="44.740105" lon="10.784445"><ele>35.0</ele><time>2026-04-18T17:35:57.992Z</time></trkpt><trkpt lat="44.740195" lon="10.78452"><ele>35.0</ele><time>2026-04-18T17:35:58.991Z</time></trkpt><trkpt lat="44.7403133" lon="10.784605"><ele>35.0</ele><time>2026-04-18T17:35:59.991Z</time></trkpt><trkpt lat="44.7404317" lon="10.7846733"><ele>35.0</ele><time>2026-04-18T17:36:00.991Z</time></trkpt><trkpt lat="44.7405517" lon="10.7847433"><ele>35.0</ele><time>2026-04-18T17:36:01.992Z</time></trkpt><trkpt lat="44.74068" lon="10.78482"><ele>35.0</ele><time>2026-04-18T17:36:02.991Z</time></trkpt><trkpt lat="44.7408083" lon="10.7849017"><ele>35.0</ele><time>2026-04-18T17:36:03.992Z</time></trkpt><trkpt lat="44.7409333" lon="10.784985"><ele>35.25</ele><time>2026-04-18T17:36:04.992Z</time></trkpt><trkpt lat="44.7410633" lon="10.7850617"><ele>35.5</ele><time>2026-04-18T17:36:05.992Z</time></trkpt><trkpt lat="44.7412017" lon="10.785145"><ele>35.75</ele><time>2026-04-18T17:36:06.991Z</time></trkpt><trkpt lat="44.741335" lon="10.785225"><ele>36.0</ele><time>2026-04-18T17:36:07.991Z</time></trkpt><trkpt lat="44.7414683" lon="10.785305"><ele>35.5</ele><time>2026-04-18T17:36:08.992Z</time></trkpt><trkpt lat="44.7415983" lon="10.785385"><ele>35.0</ele><time>2026-04-18T17:36:09.992Z</time></trkpt><trkpt lat="44.741735" lon="10.7854633"><ele>34.5</ele><time>2026-04-18T17:36:10.992Z</time></trkpt><trkpt lat="44.7418733" lon="10.785545"><ele>34.0</ele><time>2026-04-18T17:36:11.992Z</time></trkpt><trkpt lat="44.742015" lon="10.78563"><ele>33.66666666666667</ele><time>2026-04-18T17:36:12.992Z</time></trkpt><trkpt lat="44.7421583" lon="10.785715"><ele>33.333333333333336</ele><time>2026-04-18T17:36:13.992Z</time></trkpt><trkpt lat="44.7422983" lon="10.7858017"><ele>33.0</ele><time>2026-04-18T17:36:14.991Z</time></trkpt><trkpt lat="44.74244" lon="10.7858867"><ele>33.0</ele><time>2026-04-18T17:36:15.991Z</time></trkpt><trkpt lat="44.7425767" lon="10.7859717"><ele>33.0</ele><time>2026-04-18T17:36:16.991Z</time></trkpt><trkpt lat="44.742715" lon="10.7860483"><ele>33.0</ele><time>2026-04-18T17:36:17.991Z</time></trkpt><trkpt lat="44.742845" lon="10.786125"><ele>33.0</ele><time>2026-04-18T17:36:18.992Z</time></trkpt><trkpt lat="44.7429583" lon="10.7862"><ele>33.0</ele><time>2026-04-18T17:36:19.991Z</time></trkpt><trkpt lat="44.7430717" lon="10.7862633"><ele>33.0</ele><time>2026-04-18T17:36:20.992Z</time></trkpt><trkpt lat="44.7431867" lon="10.78633"><ele>33.0</ele><time>2026-04-18T17:36:21.992Z</time></trkpt><trkpt lat="44.7433067" lon="10.7864017"><ele>33.0</ele><time>2026-04-18T17:36:22.991Z</time></trkpt><trkpt lat="44.743435" lon="10.78648"><ele>33.0</ele><time>2026-04-18T17:36:23.991Z</time></trkpt><trkpt lat="44.7435667" lon="10.78656"><ele>33.0</ele><time>2026-04-18T17:36:24.991Z</time></trkpt><trkpt lat="44.7436967" lon="10.78664"><ele>33.0</ele><time>2026-04-18T17:36:25.992Z</time></trkpt><trkpt lat="44.7438183" lon="10.78671"><ele>33.0</ele><time>2026-04-18T17:36:26.991Z</time></trkpt><trkpt lat="44.7439383" lon="10.786785"><ele>32.5</ele><time>2026-04-18T17:36:27.991Z</time></trkpt><trkpt lat="44.744065" lon="10.78686"><ele>32.0</ele><time>2026-04-18T17:36:28.991Z</time></trkpt><trkpt lat="44.7441867" lon="10.786935"><ele>31.5</ele><time>2026-04-18T17:36:29.992Z</time></trkpt><trkpt lat="44.7443033" lon="10.7869933"><ele>31.0</ele><time>2026-04-18T17:36:30.991Z</time></trkpt><trkpt lat="44.744415" lon="10.78706"><ele>31.0</ele><time>2026-04-18T17:36:31.992Z</time></trkpt><trkpt lat="44.744525" lon="10.7871317"><ele>31.0</ele><time>2026-04-18T17:36:32.991Z</time></trkpt><trkpt lat="44.744635" lon="10.7871967"><ele>31.0</ele><time>2026-04-18T17:36:33.992Z</time></trkpt><trkpt lat="44.7447417" lon="10.7872633"><ele>31.0</ele><time>2026-04-18T17:36:34.992Z</time></trkpt><trkpt lat="44.7448567" lon="10.7873333"><ele>31.0</ele><time>2026-04-18T17:36:35.991Z</time></trkpt><trkpt lat="44.7449817" lon="10.7874083"><ele>31.0</ele><time>2026-04-18T17:36:36.992Z</time></trkpt><trkpt lat="44.745105" lon="10.7874867"><ele>31.0</ele><time>2026-04-18T17:36:37.992Z</time></trkpt><trkpt lat="44.7452283" lon="10.7875617"><ele>31.0</ele><time>2026-04-18T17:36:38.992Z</time></trkpt><trkpt lat="44.74535" lon="10.7876367"><ele>31.25</ele><time>2026-04-18T17:36:39.991Z</time></trkpt><trkpt lat="44.7454717" lon="10.7877033"><ele>31.5</ele><time>2026-04-18T17:36:40.992Z</time></trkpt><trkpt lat="44.7455933" lon="10.7877833"><ele>31.75</ele><time>2026-04-18T17:36:41.992Z</time></trkpt><trkpt lat="44.7457167" lon="10.78786"><ele>32.0</ele><time>2026-04-18T17:36:42.992Z</time></trkpt><trkpt lat="44.7458433" lon="10.7879367"><ele>32.0</ele><time>2026-04-18T17:36:43.992Z</time></trkpt><trkpt lat="44.7459733" lon="10.7880117"><ele>32.0</ele><time>2026-04-18T17:36:44.992Z</time></trkpt><trkpt lat="44.7460983" lon="10.7880917"><ele>32.0</ele><time>2026-04-18T17:36:45.992Z</time></trkpt><trkpt lat="44.7462233" lon="10.78816"><ele>32.0</ele><time>2026-04-18T17:36:46.991Z</time></trkpt><trkpt lat="44.7463467" lon="10.78823"><ele>32.25</ele><time>2026-04-18T17:36:47.992Z</time></trkpt><trkpt lat="44.7464717" lon="10.7882933"><ele>32.5</ele><time>2026-04-18T17:36:48.992Z</time></trkpt><trkpt lat="44.7466033" lon="10.788355"><ele>32.75</ele><time>2026-04-18T17:36:49.992Z</time></trkpt><trkpt lat="44.7467383" lon="10.78842"><ele>33.0</ele><time>2026-04-18T17:36:50.991Z</time></trkpt><trkpt lat="44.7468733" lon="10.7884883"><ele>33.5</ele><time>2026-04-18T17:36:51.991Z</time></trkpt><trkpt lat="44.7470067" lon="10.7885567"><ele>34.0</ele><time>2026-04-18T17:36:52.992Z</time></trkpt><trkpt lat="44.7471367" lon="10.7886317"><ele>34.5</ele><time>2026-04-18T17:36:53.992Z</time></trkpt><trkpt lat="44.74727" lon="10.7887017"><ele>35.0</ele><time>2026-04-18T17:36:54.992Z</time></trkpt><trkpt lat="44.7473983" lon="10.7887717"><ele>35.0</ele><time>2026-04-18T17:36:55.992Z</time></trkpt><trkpt lat="44.7475167" lon="10.7888383"><ele>35.0</ele><time>2026-04-18T17:36:56.992Z</time></trkpt><trkpt lat="44.7476367" lon="10.7889067"><ele>35.0</ele><time>2026-04-18T17:36:57.992Z</time></trkpt><trkpt lat="44.7477517" lon="10.788975"><ele>35.0</ele><time>2026-04-18T17:36:58.992Z</time></trkpt><trkpt lat="44.7478633" lon="10.7890433"><ele>34.5</ele><time>2026-04-18T17:36:59.992Z</time></trkpt><trkpt lat="44.7479733" lon="10.789115"><ele>34.0</ele><time>2026-04-18T17:37:00.992Z</time></trkpt><trkpt lat="44.74808" lon="10.78918"><ele>33.5</ele><time>2026-04-18T17:37:01.992Z</time></trkpt><trkpt lat="44.7481783" lon="10.78924"><ele>33.0</ele><time>2026-04-18T17:37:02.992Z</time></trkpt><trkpt lat="44.7482783" lon="10.7893017"><ele>33.0</ele><time>2026-04-18T17:37:03.991Z</time></trkpt><trkpt lat="44.7483817" lon="10.78936"><ele>33.0</ele><time>2026-04-18T17:37:04.992Z</time></trkpt><trkpt lat="44.7484833" lon="10.7894267"><ele>33.0</ele><time>2026-04-18T17:37:05.991Z</time></trkpt><trkpt lat="44.74858" lon="10.78948"><ele>33.0</ele><time>2026-04-18T17:37:06.992Z</time></trkpt><trkpt lat="44.7486683" lon="10.7895417"><ele>33.0</ele><time>2026-04-18T17:37:07.992Z</time></trkpt><trkpt lat="44.7487467" lon="10.7895917"><ele>33.14285714285714</ele><time>2026-04-18T17:37:08.992Z</time></trkpt><trkpt lat="44.7488183" lon="10.7896317"><ele>33.285714285714285</ele><time>2026-04-18T17:37:09.991Z</time></trkpt><trkpt lat="44.74888" lon="10.789655"><ele>33.42857142857143</ele><time>2026-04-18T17:37:10.991Z</time></trkpt><trkpt lat="44.7489433" lon="10.78965"><ele>33.57142857142857</ele><time>2026-04-18T17:37:11.992Z</time></trkpt><trkpt lat="44.7490067" lon="10.78961"><ele>33.714285714285715</ele><time>2026-04-18T17:37:12.992Z</time></trkpt><trkpt lat="44.7490633" lon="10.789535"><ele>33.857142857142854</ele><time>2026-04-18T17:37:13.992Z</time></trkpt><trkpt lat="44.7491167" lon="10.7894383"><ele>34.0</ele><time>2026-04-18T17:37:14.991Z</time></trkpt><trkpt lat="44.74916" lon="10.7893017"><ele>33.8</ele><time>2026-04-18T17:37:15.991Z</time></trkpt><trkpt lat="44.7492017" lon="10.7891667"><ele>33.599999999999994</ele><time>2026-04-18T17:37:16.991Z</time></trkpt><trkpt lat="44.7492433" lon="10.7890283"><ele>33.4</ele><time>2026-04-18T17:37:17.991Z</time></trkpt><trkpt lat="44.74929" lon="10.788885"><ele>33.199999999999996</ele><time>2026-04-18T17:37:18.991Z</time></trkpt><trkpt lat="44.7493383" lon="10.7887433"><ele>33.0</ele><time>2026-04-18T17:37:19.991Z</time></trkpt><trkpt lat="44.74938" lon="10.7886"><ele>33.0</ele><time>2026-04-18T17:37:20.992Z</time></trkpt><trkpt lat="44.74943" lon="10.78845"><ele>33.0</ele><time>2026-04-18T17:37:21.991Z</time></trkpt><trkpt lat="44.7494817" lon="10.7882883"><ele>33.0</ele><time>2026-04-18T17:37:22.991Z</time></trkpt><trkpt lat="44.7495317" lon="10.7881217"><ele>33.0</ele><time>2026-04-18T17:37:23.992Z</time></trkpt><trkpt lat="44.74958" lon="10.7879717"><ele>33.0</ele><time>2026-04-18T17:37:24.991Z</time></trkpt><trkpt lat="44.7496617" lon="10.7876983"><ele>33.0</ele><time>2026-04-18T17:37:26.991Z</time></trkpt><trkpt lat="44.7496983" lon="10.78759"><ele>33.0</ele><time>2026-04-18T17:37:27.991Z</time></trkpt><trkpt lat="44.7497233" lon="10.787495"><ele>33.0</ele><time>2026-04-18T17:37:28.991Z</time></trkpt><trkpt lat="44.7497517" lon="10.7873983"><ele>33.0</ele><time>2026-04-18T17:37:29.992Z</time></trkpt><trkpt lat="44.74978" lon="10.7873"><ele>33.0</ele><time>2026-04-18T17:37:30.992Z</time></trkpt><trkpt lat="44.7498167" lon="10.787195"><ele>33.0</ele><time>2026-04-18T17:37:31.991Z</time></trkpt><trkpt lat="44.7498533" lon="10.787085"><ele>33.0</ele><time>2026-04-18T17:37:32.992Z</time></trkpt><trkpt lat="44.7498883" lon="10.7869617"><ele>33.0</ele><time>2026-04-18T17:37:33.992Z</time></trkpt><trkpt lat="44.7499317" lon="10.786835"><ele>33.0</ele><time>2026-04-18T17:37:34.991Z</time></trkpt><trkpt lat="44.749965" lon="10.7867167"><ele>33.166666666666664</ele><time>2026-04-18T17:37:35.992Z</time></trkpt><trkpt lat="44.749995" lon="10.7866117"><ele>33.333333333333336</ele><time>2026-04-18T17:37:36.991Z</time></trkpt><trkpt lat="44.7500317" lon="10.786515"><ele>33.5</ele><time>2026-04-18T17:37:37.992Z</time></trkpt><trkpt lat="44.75007" lon="10.78643"><ele>33.66666666666667</ele><time>2026-04-18T17:37:38.992Z</time></trkpt><trkpt lat="44.75011" lon="10.786355"><ele>33.833333333333336</ele><time>2026-04-18T17:37:39.991Z</time></trkpt><trkpt lat="44.7502183" lon="10.7862517"><ele>34.0</ele><time>2026-04-18T17:37:41.992Z</time></trkpt><trkpt lat="44.750295" lon="10.7862283"><ele>33.2</ele><time>2026-04-18T17:37:42.992Z</time></trkpt><trkpt lat="44.7503817" lon="10.7862133"><ele>32.4</ele><time>2026-04-18T17:37:43.991Z</time></trkpt><trkpt lat="44.75047" lon="10.7861717"><ele>31.6</ele><time>2026-04-18T17:37:44.992Z</time></trkpt><trkpt lat="44.7505467" lon="10.7860933"><ele>30.8</ele><time>2026-04-18T17:37:45.992Z</time></trkpt><trkpt lat="44.750605" lon="10.78599"><ele>30.0</ele><time>2026-04-18T17:37:46.992Z</time></trkpt><trkpt lat="44.7506317" lon="10.78587"><ele>30.0</ele><time>2026-04-18T17:37:47.991Z</time></trkpt><trkpt lat="44.750625" lon="10.7857483"><ele>30.0</ele><time>2026-04-18T17:37:48.991Z</time></trkpt><trkpt lat="44.75059" lon="10.785615"><ele>30.0</ele><time>2026-04-18T17:37:49.992Z</time></trkpt><trkpt lat="44.7505483" lon="10.7854783"><ele>30.0</ele><time>2026-04-18T17:37:50.991Z</time></trkpt><trkpt lat="44.75052" lon="10.7853233"><ele>30.0</ele><time>2026-04-18T17:37:51.992Z</time></trkpt><trkpt lat="44.7505267" lon="10.785155"><ele>30.0</ele><time>2026-04-18T17:37:52.992Z</time></trkpt><trkpt lat="44.750555" lon="10.7849817"><ele>30.0</ele><time>2026-04-18T17:37:53.992Z</time></trkpt><trkpt lat="44.7505983" lon="10.7847967"><ele>30.0</ele><time>2026-04-18T17:37:54.992Z</time></trkpt><trkpt lat="44.7506567" lon="10.78459"><ele>30.0</ele><time>2026-04-18T17:37:55.992Z</time></trkpt><trkpt lat="44.7507183" lon="10.7843733"><ele>30.666666666666664</ele><time>2026-04-18T17:37:56.991Z</time></trkpt><trkpt lat="44.7507817" lon="10.7841517"><ele>31.333333333333332</ele><time>2026-04-18T17:37:57.991Z</time></trkpt><trkpt lat="44.7508533" lon="10.7839217"><ele>32.0</ele><time>2026-04-18T17:37:58.992Z</time></trkpt><trkpt lat="44.7509167" lon="10.78371"><ele>32.0</ele><time>2026-04-18T17:37:59.992Z</time></trkpt><trkpt lat="44.7509767" lon="10.7835067"><ele>32.0</ele><time>2026-04-18T17:38:00.991Z</time></trkpt><trkpt lat="44.75103" lon="10.783325"><ele>32.0</ele><time>2026-04-18T17:38:01.991Z</time></trkpt><trkpt lat="44.7510833" lon="10.7831583"><ele>32.0</ele><time>2026-04-18T17:38:02.991Z</time></trkpt><trkpt lat="44.75113" lon="10.783005"><ele>32.0</ele><time>2026-04-18T17:38:03.991Z</time></trkpt><trkpt lat="44.7511733" lon="10.782865"><ele>32.0</ele><time>2026-04-18T17:38:04.992Z</time></trkpt><trkpt lat="44.751215" lon="10.782735"><ele>32.0</ele><time>2026-04-18T17:38:05.991Z</time></trkpt><trkpt lat="44.7512467" lon="10.782615"><ele>32.0</ele><time>2026-04-18T17:38:06.992Z</time></trkpt><trkpt lat="44.7512767" lon="10.7825133"><ele>32.0</ele><time>2026-04-18T17:38:07.991Z</time></trkpt><trkpt lat="44.7513067" lon="10.7824183"><ele>31.833333333333332</ele><time>2026-04-18T17:38:08.992Z</time></trkpt><trkpt lat="44.7513317" lon="10.7823283"><ele>31.666666666666664</ele><time>2026-04-18T17:38:09.992Z</time></trkpt><trkpt lat="44.751355" lon="10.7822367"><ele>31.5</ele><time>2026-04-18T17:38:10.992Z</time></trkpt><trkpt lat="44.751385" lon="10.7821483"><ele>31.333333333333336</ele><time>2026-04-18T17:38:11.992Z</time></trkpt><trkpt lat="44.7514167" lon="10.7820483"><ele>31.166666666666668</ele><time>2026-04-18T17:38:12.991Z</time></trkpt><trkpt lat="44.75145" lon="10.78194"><ele>31.0</ele><time>2026-04-18T17:38:13.991Z</time></trkpt><trkpt lat="44.7514883" lon="10.7818133"><ele>31.0</ele><time>2026-04-18T17:38:14.992Z</time></trkpt><trkpt lat="44.7515317" lon="10.781675"><ele>31.0</ele><time>2026-04-18T17:38:15.992Z</time></trkpt><trkpt lat="44.75157" lon="10.781525"><ele>31.0</ele><time>2026-04-18T17:38:16.992Z</time></trkpt><trkpt lat="44.75161" lon="10.7813583"><ele>31.0</ele><time>2026-04-18T17:38:17.992Z</time></trkpt><trkpt lat="44.75166" lon="10.781195"><ele>31.0</ele><time>2026-04-18T17:38:18.991Z</time></trkpt><trkpt lat="44.7517067" lon="10.7810267"><ele>31.0</ele><time>2026-04-18T17:38:19.991Z</time></trkpt><trkpt lat="44.75175" lon="10.780865"><ele>31.0</ele><time>2026-04-18T17:38:20.991Z</time></trkpt><trkpt lat="44.7517983" lon="10.7807067"><ele>31.0</ele><time>2026-04-18T17:38:21.991Z</time></trkpt><trkpt lat="44.75184" lon="10.7805467"><ele>31.0</ele><time>2026-04-18T17:38:22.992Z</time></trkpt><trkpt lat="44.7518883" lon="10.7803883"><ele>31.0</ele><time>2026-04-18T17:38:23.992Z</time></trkpt><trkpt lat="44.7519417" lon="10.7802167"><ele>31.0</ele><time>2026-04-18T17:38:24.991Z</time></trkpt><trkpt lat="44.751995" lon="10.7800467"><ele>31.0</ele><time>2026-04-18T17:38:25.992Z</time></trkpt><trkpt lat="44.7520467" lon="10.7798833"><ele>31.0</ele><time>2026-04-18T17:38:26.992Z</time></trkpt><trkpt lat="44.75209" lon="10.77973"><ele>31.0</ele><time>2026-04-18T17:38:27.991Z</time></trkpt><trkpt lat="44.75213" lon="10.7795917"><ele>31.0</ele><time>2026-04-18T17:38:28.992Z</time></trkpt><trkpt lat="44.7521733" lon="10.7794733"><ele>31.0</ele><time>2026-04-18T17:38:29.992Z</time></trkpt><trkpt lat="44.7522233" lon="10.7793633"><ele>31.0</ele><time>2026-04-18T17:38:30.991Z</time></trkpt><trkpt lat="44.7522817" lon="10.7792533"><ele>30.8</ele><time>2026-04-18T17:38:31.991Z</time></trkpt><trkpt lat="44.7523233" lon="10.7791433"><ele>30.6</ele><time>2026-04-18T17:38:32.991Z</time></trkpt><trkpt lat="44.752345" lon="10.7790117"><ele>30.4</ele><time>2026-04-18T17:38:33.991Z</time></trkpt><trkpt lat="44.7523533" lon="10.7788667"><ele>30.2</ele><time>2026-04-18T17:38:34.992Z</time></trkpt><trkpt lat="44.75237" lon="10.7787067"><ele>30.0</ele><time>2026-04-18T17:38:35.992Z</time></trkpt><trkpt lat="44.7524033" lon="10.778535"><ele>30.25</ele><time>2026-04-18T17:38:36.992Z</time></trkpt><trkpt lat="44.752445" lon="10.778355"><ele>30.5</ele><time>2026-04-18T17:38:37.992Z</time></trkpt><trkpt lat="44.7524817" lon="10.7781617"><ele>30.75</ele><time>2026-04-18T17:38:38.991Z</time></trkpt><trkpt lat="44.7525233" lon="10.7779733"><ele>31.0</ele><time>2026-04-18T17:38:39.991Z</time></trkpt><trkpt lat="44.7525683" lon="10.7777817"><ele>31.333333333333336</ele><time>2026-04-18T17:38:40.992Z</time></trkpt><trkpt lat="44.7526133" lon="10.7775817"><ele>31.666666666666664</ele><time>2026-04-18T17:38:41.991Z</time></trkpt><trkpt lat="44.7526667" lon="10.77738"><ele>32.0</ele><time>2026-04-18T17:38:42.991Z</time></trkpt><trkpt lat="44.7527217" lon="10.7771683"><ele>32.0</ele><time>2026-04-18T17:38:43.992Z</time></trkpt><trkpt lat="44.7527833" lon="10.77695"><ele>32.0</ele><time>2026-04-18T17:38:44.992Z</time></trkpt><trkpt lat="44.75284" lon="10.776725"><ele>32.0</ele><time>2026-04-18T17:38:45.992Z</time></trkpt><trkpt lat="44.7528967" lon="10.776505"><ele>32.33333333333333</ele><time>2026-04-18T17:38:46.992Z</time></trkpt><trkpt lat="44.7529533" lon="10.7762767"><ele>32.666666666666664</ele><time>2026-04-18T17:38:47.991Z</time></trkpt><trkpt lat="44.7530183" lon="10.77605"><ele>33.0</ele><time>2026-04-18T17:38:48.991Z</time></trkpt><trkpt lat="44.753075" lon="10.7758217"><ele>32.333333333333336</ele><time>2026-04-18T17:38:49.992Z</time></trkpt><trkpt lat="44.7531467" lon="10.7755833"><ele>31.666666666666668</ele><time>2026-04-18T17:38:50.991Z</time></trkpt><trkpt lat="44.75321" lon="10.7753417"><ele>31.0</ele><time>2026-04-18T17:38:51.991Z</time></trkpt><trkpt lat="44.7532867" lon="10.7751017"><ele>31.0</ele><time>2026-04-18T17:38:52.991Z</time></trkpt><trkpt lat="44.753375" lon="10.7748583"><ele>31.0</ele><time>2026-04-18T17:38:53.992Z</time></trkpt><trkpt lat="44.7534667" lon="10.77461"><ele>31.0</ele><time>2026-04-18T17:38:54.991Z</time></trkpt><trkpt lat="44.753565" lon="10.774365"><ele>31.0</ele><time>2026-04-18T17:38:55.991Z</time></trkpt><trkpt lat="44.7536667" lon="10.774115"><ele>31.0</ele><time>2026-04-18T17:38:56.991Z</time></trkpt><trkpt lat="44.7537683" lon="10.773865"><ele>31.0</ele><time>2026-04-18T17:38:57.992Z</time></trkpt><trkpt lat="44.7538733" lon="10.7736183"><ele>31.333333333333336</ele><time>2026-04-18T17:38:58.991Z</time></trkpt><trkpt lat="44.7539767" lon="10.7733667"><ele>31.666666666666664</ele><time>2026-04-18T17:38:59.992Z</time></trkpt><trkpt lat="44.7540783" lon="10.7731083"><ele>32.0</ele><time>2026-04-18T17:39:00.991Z</time></trkpt><trkpt lat="44.7541767" lon="10.7728483"><ele>31.333333333333332</ele><time>2026-04-18T17:39:01.991Z</time></trkpt><trkpt lat="44.7542717" lon="10.7726033"><ele>30.666666666666664</ele><time>2026-04-18T17:39:02.992Z</time></trkpt><trkpt lat="44.7543583" lon="10.7723783"><ele>30.0</ele><time>2026-04-18T17:39:03.991Z</time></trkpt><trkpt lat="44.7544417" lon="10.77217"><ele>30.0</ele><time>2026-04-18T17:39:04.992Z</time></trkpt><trkpt lat="44.75452" lon="10.771965"><ele>30.0</ele><time>2026-04-18T17:39:05.991Z</time></trkpt><trkpt lat="44.7545867" lon="10.77177"><ele>30.0</ele><time>2026-04-18T17:39:06.992Z</time></trkpt><trkpt lat="44.754655" lon="10.77158"><ele>30.333333333333336</ele><time>2026-04-18T17:39:07.991Z</time></trkpt><trkpt lat="44.7547083" lon="10.7714"><ele>30.666666666666668</ele><time>2026-04-18T17:39:08.991Z</time></trkpt><trkpt lat="44.7547567" lon="10.7712317"><ele>31.0</ele><time>2026-04-18T17:39:09.992Z</time></trkpt><trkpt lat="44.7547917" lon="10.770925"><ele>31.166666666666668</ele><time>2026-04-18T17:39:11.991Z</time></trkpt><trkpt lat="44.7548" lon="10.7707917"><ele>31.333333333333336</ele><time>2026-04-18T17:39:12.991Z</time></trkpt><trkpt lat="44.7548117" lon="10.7706783"><ele>31.5</ele><time>2026-04-18T17:39:13.992Z</time></trkpt><trkpt lat="44.7548383" lon="10.77056"><ele>31.666666666666664</ele><time>2026-04-18T17:39:14.992Z</time></trkpt><trkpt lat="44.754885" lon="10.770465"><ele>31.833333333333332</ele><time>2026-04-18T17:39:15.992Z</time></trkpt><trkpt lat="44.75495" lon="10.770395"><ele>32.0</ele><time>2026-04-18T17:39:16.992Z</time></trkpt><trkpt lat="44.7550367" lon="10.7703583"><ele>32.0</ele><time>2026-04-18T17:39:17.992Z</time></trkpt><trkpt lat="44.7551417" lon="10.77036"><ele>32.0</ele><time>2026-04-18T17:39:18.992Z</time></trkpt><trkpt lat="44.755265" lon="10.7703883"><ele>32.0</ele><time>2026-04-18T17:39:19.991Z</time></trkpt><trkpt lat="44.7554017" lon="10.77042"><ele>32.0</ele><time>2026-04-18T17:39:20.992Z</time></trkpt><trkpt lat="44.7555433" lon="10.77045"><ele>32.0</ele><time>2026-04-18T17:39:21.991Z</time></trkpt><trkpt lat="44.755695" lon="10.7704733"><ele>32.0</ele><time>2026-04-18T17:39:22.991Z</time></trkpt><trkpt lat="44.7558533" lon="10.7705067"><ele>32.0</ele><time>2026-04-18T17:39:23.992Z</time></trkpt><trkpt lat="44.7560033" lon="10.77052"><ele>31.75</ele><time>2026-04-18T17:39:24.991Z</time></trkpt><trkpt lat="44.7561483" lon="10.770545"><ele>31.5</ele><time>2026-04-18T17:39:25.992Z</time></trkpt><trkpt lat="44.75628" lon="10.7705767"><ele>31.25</ele><time>2026-04-18T17:39:26.991Z</time></trkpt><trkpt lat="44.7564017" lon="10.77059"><ele>31.0</ele><time>2026-04-18T17:39:27.992Z</time></trkpt><trkpt lat="44.7565167" lon="10.770615"><ele>31.0</ele><time>2026-04-18T17:39:28.991Z</time></trkpt><trkpt lat="44.7566233" lon="10.7706283"><ele>31.0</ele><time>2026-04-18T17:39:29.991Z</time></trkpt><trkpt lat="44.7567233" lon="10.7706483"><ele>31.0</ele><time>2026-04-18T17:39:30.992Z</time></trkpt><trkpt lat="44.7568233" lon="10.7706767"><ele>31.0</ele><time>2026-04-18T17:39:31.991Z</time></trkpt><trkpt lat="44.7569217" lon="10.7707033"><ele>31.0</ele><time>2026-04-18T17:39:32.992Z</time></trkpt><trkpt lat="44.75703" lon="10.7707217"><ele>31.0</ele><time>2026-04-18T17:39:33.992Z</time></trkpt><trkpt lat="44.75715" lon="10.77074"><ele>31.0</ele><time>2026-04-18T17:39:34.991Z</time></trkpt><trkpt lat="44.7572767" lon="10.77075"><ele>31.0</ele><time>2026-04-18T17:39:35.991Z</time></trkpt><trkpt lat="44.7574083" lon="10.7707717"><ele>31.0</ele><time>2026-04-18T17:39:36.992Z</time></trkpt><trkpt lat="44.75754" lon="10.770785"><ele>31.0</ele><time>2026-04-18T17:39:37.992Z</time></trkpt><trkpt lat="44.75766" lon="10.770805"><ele>31.0</ele><time>2026-04-18T17:39:38.991Z</time></trkpt><trkpt lat="44.7577717" lon="10.7708267"><ele>31.0</ele><time>2026-04-18T17:39:39.992Z</time></trkpt><trkpt lat="44.7578783" lon="10.770855"><ele>31.0</ele><time>2026-04-18T17:39:40.991Z</time></trkpt><trkpt lat="44.7579717" lon="10.77087"><ele>31.0</ele><time>2026-04-18T17:39:41.991Z</time></trkpt><trkpt lat="44.7580533" lon="10.7708783"><ele>31.0</ele><time>2026-04-18T17:39:42.991Z</time></trkpt><trkpt lat="44.7581267" lon="10.77088"><ele>31.000000000000004</ele><time>2026-04-18T17:39:43.992Z</time></trkpt><trkpt lat="44.7582067" lon="10.7708583"><ele>31.0</ele><time>2026-04-18T17:39:44.992Z</time></trkpt><trkpt lat="44.7582833" lon="10.7708383"><ele>31.0</ele><time>2026-04-18T17:39:45.991Z</time></trkpt><trkpt lat="44.7583533" lon="10.7708267"><ele>31.000000000000004</ele><time>2026-04-18T17:39:46.991Z</time></trkpt><trkpt lat="44.7584233" lon="10.770815"><ele>31.0</ele><time>2026-04-18T17:39:47.992Z</time></trkpt><trkpt lat="44.75849" lon="10.7707917"><ele>31.0</ele><time>2026-04-18T17:39:48.991Z</time></trkpt><trkpt lat="44.7585383" lon="10.77073"><ele>31.0</ele><time>2026-04-18T17:39:49.992Z</time></trkpt><trkpt lat="44.758565" lon="10.770645"><ele>31.0</ele><time>2026-04-18T17:39:50.991Z</time></trkpt><trkpt lat="44.7585683" lon="10.7705267"><ele>31.0</ele><time>2026-04-18T17:39:51.992Z</time></trkpt><trkpt lat="44.75857" lon="10.77039"><ele>31.0</ele><time>2026-04-18T17:39:52.991Z</time></trkpt><trkpt lat="44.75858" lon="10.7702467"><ele>31.0</ele><time>2026-04-18T17:39:53.992Z</time></trkpt><trkpt lat="44.7586183" lon="10.770095"><ele>30.75</ele><time>2026-04-18T17:39:54.991Z</time></trkpt><trkpt lat="44.7586633" lon="10.7699283"><ele>30.5</ele><time>2026-04-18T17:39:55.992Z</time></trkpt><trkpt lat="44.7587333" lon="10.76975"><ele>30.25</ele><time>2026-04-18T17:39:56.991Z</time></trkpt><trkpt lat="44.7588067" lon="10.76956"><ele>30.0</ele><time>2026-04-18T17:39:57.991Z</time></trkpt><trkpt lat="44.7588783" lon="10.7693767"><ele>30.0</ele><time>2026-04-18T17:39:58.991Z</time></trkpt><trkpt lat="44.7589517" lon="10.7692033"><ele>30.0</ele><time>2026-04-18T17:39:59.991Z</time></trkpt><trkpt lat="44.7590183" lon="10.7690333"><ele>30.0</ele><time>2026-04-18T17:40:00.992Z</time></trkpt><trkpt lat="44.75909" lon="10.7688483"><ele>30.0</ele><time>2026-04-18T17:40:01.991Z</time></trkpt><trkpt lat="44.759165" lon="10.7686733"><ele>30.0</ele><time>2026-04-18T17:40:02.992Z</time></trkpt><trkpt lat="44.759245" lon="10.7684867"><ele>30.0</ele><time>2026-04-18T17:40:03.992Z</time></trkpt><trkpt lat="44.7593283" lon="10.7682983"><ele>30.0</ele><time>2026-04-18T17:40:04.991Z</time></trkpt><trkpt lat="44.7594067" lon="10.768115"><ele>30.0</ele><time>2026-04-18T17:40:05.992Z</time></trkpt><trkpt lat="44.75948" lon="10.7679183"><ele>30.0</ele><time>2026-04-18T17:40:06.991Z</time></trkpt><trkpt lat="44.759555" lon="10.7677233"><ele>30.0</ele><time>2026-04-18T17:40:07.992Z</time></trkpt><trkpt lat="44.75963" lon="10.7675233"><ele>30.25</ele><time>2026-04-18T17:40:08.991Z</time></trkpt><trkpt lat="44.7597" lon="10.767325"><ele>30.5</ele><time>2026-04-18T17:40:09.991Z</time></trkpt><trkpt lat="44.7597567" lon="10.7671417"><ele>30.75</ele><time>2026-04-18T17:40:10.992Z</time></trkpt><trkpt lat="44.7598133" lon="10.7669583"><ele>31.0</ele><time>2026-04-18T17:40:11.992Z</time></trkpt><trkpt lat="44.7598717" lon="10.76676"><ele>31.0</ele><time>2026-04-18T17:40:12.992Z</time></trkpt><trkpt lat="44.75993" lon="10.7665683"><ele>31.0</ele><time>2026-04-18T17:40:13.992Z</time></trkpt><trkpt lat="44.75999" lon="10.7663717"><ele>31.0</ele><time>2026-04-18T17:40:14.991Z</time></trkpt><trkpt lat="44.7600533" lon="10.7661717"><ele>31.0</ele><time>2026-04-18T17:40:15.991Z</time></trkpt><trkpt lat="44.7601217" lon="10.7659533"><ele>31.0</ele><time>2026-04-18T17:40:16.992Z</time></trkpt><trkpt lat="44.7602" lon="10.7657417"><ele>31.0</ele><time>2026-04-18T17:40:17.992Z</time></trkpt><trkpt lat="44.7602617" lon="10.76554"><ele>31.0</ele><time>2026-04-18T17:40:18.991Z</time></trkpt><trkpt lat="44.7603217" lon="10.765355"><ele>31.0</ele><time>2026-04-18T17:40:19.991Z</time></trkpt><trkpt lat="44.760375" lon="10.765185"><ele>31.0</ele><time>2026-04-18T17:40:20.992Z</time></trkpt><trkpt lat="44.7604233" lon="10.765025"><ele>31.0</ele><time>2026-04-18T17:40:21.992Z</time></trkpt><trkpt lat="44.7604717" lon="10.7648733"><ele>31.0</ele><time>2026-04-18T17:40:22.992Z</time></trkpt><trkpt lat="44.76052" lon="10.76472"><ele>31.0</ele><time>2026-04-18T17:40:23.992Z</time></trkpt><trkpt lat="44.760565" lon="10.7645667"><ele>31.0</ele><time>2026-04-18T17:40:24.991Z</time></trkpt><trkpt lat="44.76061" lon="10.76441"><ele>31.0</ele><time>2026-04-18T17:40:25.991Z</time></trkpt><trkpt lat="44.7606517" lon="10.7642517"><ele>30.8</ele><time>2026-04-18T17:40:26.992Z</time></trkpt><trkpt lat="44.7606933" lon="10.7641067"><ele>30.6</ele><time>2026-04-18T17:40:27.991Z</time></trkpt><trkpt lat="44.7607233" lon="10.763985"><ele>30.4</ele><time>2026-04-18T17:40:28.992Z</time></trkpt><trkpt lat="44.7607483" lon="10.763875"><ele>30.2</ele><time>2026-04-18T17:40:29.991Z</time></trkpt><trkpt lat="44.760775" lon="10.7637567"><ele>30.0</ele><time>2026-04-18T17:40:30.991Z</time></trkpt><trkpt lat="44.7608067" lon="10.763625"><ele>30.2</ele><time>2026-04-18T17:40:31.992Z</time></trkpt><trkpt lat="44.7608467" lon="10.7634733"><ele>30.4</ele><time>2026-04-18T17:40:32.992Z</time></trkpt><trkpt lat="44.760885" lon="10.76332"><ele>30.6</ele><time>2026-04-18T17:40:33.991Z</time></trkpt><trkpt lat="44.76092" lon="10.7631667"><ele>30.8</ele><time>2026-04-18T17:40:34.991Z</time></trkpt><trkpt lat="44.7609567" lon="10.76303"><ele>31.0</ele><time>2026-04-18T17:40:35.992Z</time></trkpt><trkpt lat="44.760985" lon="10.7628817"><ele>31.0</ele><time>2026-04-18T17:40:36.992Z</time></trkpt><trkpt lat="44.761015" lon="10.762735"><ele>31.0</ele><time>2026-04-18T17:40:37.991Z</time></trkpt><trkpt lat="44.7610467" lon="10.7626017"><ele>31.0</ele><time>2026-04-18T17:40:38.991Z</time></trkpt><trkpt lat="44.761075" lon="10.76248"><ele>31.0</ele><time>2026-04-18T17:40:39.992Z</time></trkpt><trkpt lat="44.7611017" lon="10.76237"><ele>31.0</ele><time>2026-04-18T17:40:40.991Z</time></trkpt><trkpt lat="44.76113" lon="10.76228"><ele>31.166666666666668</ele><time>2026-04-18T17:40:41.992Z</time></trkpt><trkpt lat="44.7611933" lon="10.7621333"><ele>31.333333333333336</ele><time>2026-04-18T17:40:43.992Z</time></trkpt><trkpt lat="44.761235" lon="10.7620517"><ele>31.5</ele><time>2026-04-18T17:40:44.991Z</time></trkpt><trkpt lat="44.7612767" lon="10.76197"><ele>31.666666666666664</ele><time>2026-04-18T17:40:45.992Z</time></trkpt><trkpt lat="44.7613167" lon="10.76189"><ele>31.833333333333332</ele><time>2026-04-18T17:40:46.992Z</time></trkpt><trkpt lat="44.7613583" lon="10.7618"><ele>32.0</ele><time>2026-04-18T17:40:47.991Z</time></trkpt><trkpt lat="44.7614133" lon="10.761705"><ele>31.6</ele><time>2026-04-18T17:40:48.991Z</time></trkpt><trkpt lat="44.7614717" lon="10.7616"><ele>31.200000000000003</ele><time>2026-04-18T17:40:49.991Z</time></trkpt><trkpt lat="44.7615217" lon="10.7614783"><ele>30.8</ele><time>2026-04-18T17:40:50.992Z</time></trkpt><trkpt lat="44.7615883" lon="10.7613633"><ele>30.4</ele><time>2026-04-18T17:40:51.992Z</time></trkpt><trkpt lat="44.7616583" lon="10.761255"><ele>30.0</ele><time>2026-04-18T17:40:52.991Z</time></trkpt><trkpt lat="44.76174" lon="10.76114"><ele>30.0</ele><time>2026-04-18T17:40:53.992Z</time></trkpt><trkpt lat="44.7618267" lon="10.7610383"><ele>30.0</ele><time>2026-04-18T17:40:54.992Z</time></trkpt><trkpt lat="44.761925" lon="10.76095"><ele>30.0</ele><time>2026-04-18T17:40:55.992Z</time></trkpt><trkpt lat="44.7620367" lon="10.76089"><ele>30.0</ele><time>2026-04-18T17:40:56.991Z</time></trkpt><trkpt lat="44.76215" lon="10.7608467"><ele>30.2</ele><time>2026-04-18T17:40:57.991Z</time></trkpt><trkpt lat="44.7622567" lon="10.7608083"><ele>30.4</ele><time>2026-04-18T17:40:58.992Z</time></trkpt><trkpt lat="44.7623467" lon="10.76078"><ele>30.6</ele><time>2026-04-18T17:40:59.991Z</time></trkpt><trkpt lat="44.7624417" lon="10.7607533"><ele>30.8</ele><time>2026-04-18T17:41:00.992Z</time></trkpt><trkpt lat="44.7625417" lon="10.7607183"><ele>31.0</ele><time>2026-04-18T17:41:01.991Z</time></trkpt><trkpt lat="44.76265" lon="10.7606783"><ele>31.4</ele><time>2026-04-18T17:41:02.991Z</time></trkpt><trkpt lat="44.7627617" lon="10.76063"><ele>31.8</ele><time>2026-04-18T17:41:03.992Z</time></trkpt><trkpt lat="44.7628633" lon="10.7605833"><ele>32.199999999999996</ele><time>2026-04-18T17:41:04.992Z</time></trkpt><trkpt lat="44.7629617" lon="10.76053"><ele>32.6</ele><time>2026-04-18T17:41:05.991Z</time></trkpt><trkpt lat="44.7630583" lon="10.760475"><ele>33.0</ele><time>2026-04-18T17:41:06.992Z</time></trkpt><trkpt lat="44.763155" lon="10.76041"><ele>33.0</ele><time>2026-04-18T17:41:07.991Z</time></trkpt><trkpt lat="44.763255" lon="10.7603383"><ele>33.0</ele><time>2026-04-18T17:41:08.992Z</time></trkpt><trkpt lat="44.76335" lon="10.76027"><ele>33.0</ele><time>2026-04-18T17:41:09.991Z</time></trkpt><trkpt lat="44.7634383" lon="10.7602083"><ele>33.0</ele><time>2026-04-18T17:41:10.992Z</time></trkpt><trkpt lat="44.7635117" lon="10.760155"><ele>33.0</ele><time>2026-04-18T17:41:11.992Z</time></trkpt><trkpt lat="44.76361" lon="10.7601033"><ele>32.8</ele><time>2026-04-18T17:41:13.992Z</time></trkpt><trkpt lat="44.763695" lon="10.760135"><ele>32.599999999999994</ele><time>2026-04-18T17:41:15.991Z</time></trkpt><trkpt lat="44.7637533" lon="10.76018"><ele>32.400000000000006</ele><time>2026-04-18T17:41:16.991Z</time></trkpt><trkpt lat="44.7638267" lon="10.76024"><ele>32.2</ele><time>2026-04-18T17:41:17.992Z</time></trkpt><trkpt lat="44.7639167" lon="10.7603317"><ele>32.0</ele><time>2026-04-18T17:41:18.992Z</time></trkpt><trkpt lat="44.7640233" lon="10.760445"><ele>32.5</ele><time>2026-04-18T17:41:19.991Z</time></trkpt><trkpt lat="44.7641383" lon="10.7605633"><ele>33.0</ele><time>2026-04-18T17:41:20.991Z</time></trkpt><trkpt lat="44.7642633" lon="10.7606767"><ele>33.5</ele><time>2026-04-18T17:41:21.991Z</time></trkpt><trkpt lat="44.7643933" lon="10.7607967"><ele>34.0</ele><time>2026-04-18T17:41:22.992Z</time></trkpt><trkpt lat="44.7645267" lon="10.760925"><ele>34.333333333333336</ele><time>2026-04-18T17:41:23.992Z</time></trkpt><trkpt lat="44.7646567" lon="10.7610617"><ele>34.666666666666664</ele><time>2026-04-18T17:41:24.991Z</time></trkpt><trkpt lat="44.7647867" lon="10.76117"><ele>35.0</ele><time>2026-04-18T17:41:25.992Z</time></trkpt><trkpt lat="44.764905" lon="10.76128"><ele>35.0</ele><time>2026-04-18T17:41:26.991Z</time></trkpt><trkpt lat="44.7650167" lon="10.761395"><ele>35.0</ele><time>2026-04-18T17:41:27.992Z</time></trkpt><trkpt lat="44.7651367" lon="10.7615117"><ele>35.0</ele><time>2026-04-18T17:41:28.992Z</time></trkpt><trkpt lat="44.76526" lon="10.7616317"><ele>35.0</ele><time>2026-04-18T17:41:29.992Z</time></trkpt><trkpt lat="44.7653733" lon="10.7617483"><ele>34.25</ele><time>2026-04-18T17:41:30.992Z</time></trkpt><trkpt lat="44.7654883" lon="10.7618533"><ele>33.5</ele><time>2026-04-18T17:41:31.992Z</time></trkpt><trkpt lat="44.7655933" lon="10.7619683"><ele>32.75</ele><time>2026-04-18T17:41:32.992Z</time></trkpt><trkpt lat="44.76571" lon="10.7620667"><ele>32.0</ele><time>2026-04-18T17:41:33.991Z</time></trkpt><trkpt lat="44.76583" lon="10.7621717"><ele>32.0</ele><time>2026-04-18T17:41:34.991Z</time></trkpt><trkpt lat="44.7659483" lon="10.7622817"><ele>32.0</ele><time>2026-04-18T17:41:35.991Z</time></trkpt><trkpt lat="44.7660667" lon="10.7623933"><ele>32.0</ele><time>2026-04-18T17:41:36.991Z</time></trkpt><trkpt lat="44.7661883" lon="10.7625017"><ele>32.0</ele><time>2026-04-18T17:41:37.992Z</time></trkpt><trkpt lat="44.76631" lon="10.762605"><ele>32.0</ele><time>2026-04-18T17:41:38.991Z</time></trkpt><trkpt lat="44.766425" lon="10.7627133"><ele>32.0</ele><time>2026-04-18T17:41:39.991Z</time></trkpt><trkpt lat="44.7665467" lon="10.7628233"><ele>32.0</ele><time>2026-04-18T17:41:40.992Z</time></trkpt><trkpt lat="44.7666717" lon="10.7629417"><ele>32.0</ele><time>2026-04-18T17:41:41.991Z</time></trkpt><trkpt lat="44.7667933" lon="10.763055"><ele>31.333333333333332</ele><time>2026-04-18T17:41:42.992Z</time></trkpt><trkpt lat="44.7669217" lon="10.7631617"><ele>30.666666666666664</ele><time>2026-04-18T17:41:43.992Z</time></trkpt><trkpt lat="44.76706" lon="10.7632583"><ele>30.0</ele><time>2026-04-18T17:41:44.991Z</time></trkpt><trkpt lat="44.7671933" lon="10.7633617"><ele>30.0</ele><time>2026-04-18T17:41:45.991Z</time></trkpt><trkpt lat="44.7673283" lon="10.763455"><ele>30.0</ele><time>2026-04-18T17:41:46.99Z</time></trkpt><trkpt lat="44.7674683" lon="10.7635417"><ele>30.0</ele><time>2026-04-18T17:41:47.99Z</time></trkpt><trkpt lat="44.76761" lon="10.7636267"><ele>31.0</ele><time>2026-04-18T17:41:48.991Z</time></trkpt><trkpt lat="44.7677467" lon="10.7637183"><ele>32.0</ele><time>2026-04-18T17:41:49.991Z</time></trkpt><trkpt lat="44.7678833" lon="10.7638083"><ele>33.0</ele><time>2026-04-18T17:41:50.991Z</time></trkpt><trkpt lat="44.7680217" lon="10.7639"><ele>33.0</ele><time>2026-04-18T17:41:51.99Z</time></trkpt><trkpt lat="44.7681633" lon="10.76399"><ele>33.0</ele><time>2026-04-18T17:41:52.991Z</time></trkpt><trkpt lat="44.76829" lon="10.7640883"><ele>33.0</ele><time>2026-04-18T17:41:53.991Z</time></trkpt><trkpt lat="44.768425" lon="10.764175"><ele>33.0</ele><time>2026-04-18T17:41:54.99Z</time></trkpt><trkpt lat="44.7685567" lon="10.7642783"><ele>33.0</ele><time>2026-04-18T17:41:55.991Z</time></trkpt><trkpt lat="44.7686917" lon="10.7643833"><ele>33.0</ele><time>2026-04-18T17:41:56.991Z</time></trkpt><trkpt lat="44.7688167" lon="10.764495"><ele>33.0</ele><time>2026-04-18T17:41:57.991Z</time></trkpt><trkpt lat="44.7689467" lon="10.7646117"><ele>33.0</ele><time>2026-04-18T17:41:58.991Z</time></trkpt><trkpt lat="44.7690733" lon="10.7647467"><ele>33.0</ele><time>2026-04-18T17:41:59.991Z</time></trkpt><trkpt lat="44.7692" lon="10.7648917"><ele>33.0</ele><time>2026-04-18T17:42:00.99Z</time></trkpt><trkpt lat="44.76932" lon="10.7650467"><ele>32.666666666666664</ele><time>2026-04-18T17:42:01.991Z</time></trkpt><trkpt lat="44.7694267" lon="10.7652117"><ele>32.33333333333333</ele><time>2026-04-18T17:42:02.99Z</time></trkpt><trkpt lat="44.769525" lon="10.76538"><ele>32.0</ele><time>2026-04-18T17:42:03.99Z</time></trkpt><trkpt lat="44.7696233" lon="10.765545"><ele>32.0</ele><time>2026-04-18T17:42:04.991Z</time></trkpt><trkpt lat="44.7697317" lon="10.7657183"><ele>32.0</ele><time>2026-04-18T17:42:05.99Z</time></trkpt><trkpt lat="44.76984" lon="10.76588"><ele>32.0</ele><time>2026-04-18T17:42:06.991Z</time></trkpt><trkpt lat="44.7699517" lon="10.76606"><ele>32.0</ele><time>2026-04-18T17:42:07.99Z</time></trkpt><trkpt lat="44.7700583" lon="10.7662317"><ele>32.0</ele><time>2026-04-18T17:42:08.99Z</time></trkpt><trkpt lat="44.77017" lon="10.766395"><ele>32.0</ele><time>2026-04-18T17:42:09.991Z</time></trkpt><trkpt lat="44.7702783" lon="10.7665467"><ele>32.33333333333333</ele><time>2026-04-18T17:42:10.991Z</time></trkpt><trkpt lat="44.7703967" lon="10.766695"><ele>32.666666666666664</ele><time>2026-04-18T17:42:11.991Z</time></trkpt><trkpt lat="44.7705067" lon="10.7668433"><ele>33.0</ele><time>2026-04-18T17:42:12.991Z</time></trkpt><trkpt lat="44.7706167" lon="10.76699"><ele>33.0</ele><time>2026-04-18T17:42:13.99Z</time></trkpt><trkpt lat="44.7707233" lon="10.76713"><ele>33.0</ele><time>2026-04-18T17:42:14.991Z</time></trkpt><trkpt lat="44.770815" lon="10.7672567"><ele>33.0</ele><time>2026-04-18T17:42:15.991Z</time></trkpt><trkpt lat="44.7708967" lon="10.7673733"><ele>33.0</ele><time>2026-04-18T17:42:16.99Z</time></trkpt><trkpt lat="44.7709633" lon="10.7674733"><ele>33.0</ele><time>2026-04-18T17:42:17.99Z</time></trkpt><trkpt lat="44.77102" lon="10.767575"><ele>33.0</ele><time>2026-04-18T17:42:18.991Z</time></trkpt><trkpt lat="44.77106" lon="10.7676867"><ele>33.0</ele><time>2026-04-18T17:42:19.991Z</time></trkpt><trkpt lat="44.7710883" lon="10.767795"><ele>33.0</ele><time>2026-04-18T17:42:20.991Z</time></trkpt><trkpt lat="44.7711017" lon="10.7678933"><ele>33.0</ele><time>2026-04-18T17:42:21.99Z</time></trkpt><trkpt lat="44.7711467" lon="10.768055"><ele>32.8</ele><time>2026-04-18T17:42:23.991Z</time></trkpt><trkpt lat="44.7712433" lon="10.768105"><ele>32.599999999999994</ele><time>2026-04-18T17:42:25.991Z</time></trkpt><trkpt lat="44.7713733" lon="10.7680833"><ele>32.400000000000006</ele><time>2026-04-18T17:42:27.991Z</time></trkpt><trkpt lat="44.7714517" lon="10.7680817"><ele>32.2</ele><time>2026-04-18T17:42:28.991Z</time></trkpt><trkpt lat="44.77154" lon="10.768115"><ele>32.0</ele><time>2026-04-18T17:42:29.991Z</time></trkpt><trkpt lat="44.77163" lon="10.76818"><ele>31.999999999999996</ele><time>2026-04-18T17:42:30.991Z</time></trkpt><trkpt lat="44.7717" lon="10.7682617"><ele>32.0</ele><time>2026-04-18T17:42:31.991Z</time></trkpt><trkpt lat="44.7717633" lon="10.768345"><ele>32.0</ele><time>2026-04-18T17:42:32.991Z</time></trkpt><trkpt lat="44.7718217" lon="10.7684267"><ele>32.0</ele><time>2026-04-18T17:42:33.991Z</time></trkpt><trkpt lat="44.7718783" lon="10.7684967"><ele>31.999999999999996</ele><time>2026-04-18T17:42:34.99Z</time></trkpt><trkpt lat="44.7719233" lon="10.7685633"><ele>32.0</ele><time>2026-04-18T17:42:35.99Z</time></trkpt><trkpt lat="44.7719967" lon="10.7686833"><ele>32.0</ele><time>2026-04-18T17:42:37.991Z</time></trkpt><trkpt lat="44.7720833" lon="10.7686933"><ele>32.0</ele><time>2026-04-18T17:42:39.99Z</time></trkpt><trkpt lat="44.77221" lon="10.7684567"><ele>32.0</ele><time>2026-04-18T17:42:42.991Z</time></trkpt><trkpt lat="44.7722717" lon="10.7683267"><ele>32.0</ele><time>2026-04-18T17:42:43.991Z</time></trkpt><trkpt lat="44.7723383" lon="10.7681917"><ele>32.0</ele><time>2026-04-18T17:42:44.99Z</time></trkpt><trkpt lat="44.7724133" lon="10.7680483"><ele>32.0</ele><time>2026-04-18T17:42:45.991Z</time></trkpt><trkpt lat="44.77249" lon="10.7678933"><ele>32.0</ele><time>2026-04-18T17:42:46.99Z</time></trkpt><trkpt lat="44.77258" lon="10.767725"><ele>32.0</ele><time>2026-04-18T17:42:47.991Z</time></trkpt><trkpt lat="44.7726733" lon="10.7675483"><ele>31.333333333333332</ele><time>2026-04-18T17:42:48.991Z</time></trkpt><trkpt lat="44.7727767" lon="10.7673617"><ele>30.666666666666664</ele><time>2026-04-18T17:42:49.991Z</time></trkpt><trkpt lat="44.772875" lon="10.7671733"><ele>30.0</ele><time>2026-04-18T17:42:50.99Z</time></trkpt><trkpt lat="44.77298" lon="10.7669783"><ele>30.0</ele><time>2026-04-18T17:42:51.991Z</time></trkpt><trkpt lat="44.7730783" lon="10.7667883"><ele>30.0</ele><time>2026-04-18T17:42:52.99Z</time></trkpt><trkpt lat="44.773175" lon="10.7665917"><ele>30.0</ele><time>2026-04-18T17:42:53.991Z</time></trkpt><trkpt lat="44.7732733" lon="10.7663983"><ele>30.0</ele><time>2026-04-18T17:42:54.991Z</time></trkpt><trkpt lat="44.7733683" lon="10.76622"><ele>30.0</ele><time>2026-04-18T17:42:55.991Z</time></trkpt><trkpt lat="44.7734533" lon="10.766055"><ele>30.0</ele><time>2026-04-18T17:42:56.99Z</time></trkpt><trkpt lat="44.773535" lon="10.7658983"><ele>30.0</ele><time>2026-04-18T17:42:57.991Z</time></trkpt><trkpt lat="44.7736117" lon="10.7657417"><ele>30.25</ele><time>2026-04-18T17:42:58.991Z</time></trkpt><trkpt lat="44.7736917" lon="10.76558"><ele>30.5</ele><time>2026-04-18T17:42:59.99Z</time></trkpt><trkpt lat="44.7737683" lon="10.7654317"><ele>30.75</ele><time>2026-04-18T17:43:00.991Z</time></trkpt><trkpt lat="44.7738317" lon="10.765305"><ele>31.0</ele><time>2026-04-18T17:43:01.99Z</time></trkpt><trkpt lat="44.7738867" lon="10.7651917"><ele>30.4</ele><time>2026-04-18T17:43:02.991Z</time></trkpt><trkpt lat="44.77394" lon="10.7650867"><ele>29.8</ele><time>2026-04-18T17:43:03.991Z</time></trkpt><trkpt lat="44.7739833" lon="10.764985"><ele>29.199999999999996</ele><time>2026-04-18T17:43:04.991Z</time></trkpt><trkpt lat="44.7740367" lon="10.7648867"><ele>28.599999999999998</ele><time>2026-04-18T17:43:05.991Z</time></trkpt><trkpt lat="44.7740917" lon="10.7647783"><ele>28.0</ele><time>2026-04-18T17:43:06.99Z</time></trkpt><trkpt lat="44.7741533" lon="10.7646583"><ele>28.0</ele><time>2026-04-18T17:43:07.99Z</time></trkpt><trkpt lat="44.77422" lon="10.76453"><ele>28.0</ele><time>2026-04-18T17:43:08.991Z</time></trkpt><trkpt lat="44.7742933" lon="10.7643883"><ele>28.0</ele><time>2026-04-18T17:43:09.99Z</time></trkpt><trkpt lat="44.7743617" lon="10.76424"><ele>28.0</ele><time>2026-04-18T17:43:10.99Z</time></trkpt><trkpt lat="44.7744317" lon="10.764085"><ele>28.666666666666668</ele><time>2026-04-18T17:43:11.991Z</time></trkpt><trkpt lat="44.7745067" lon="10.7639167"><ele>29.333333333333336</ele><time>2026-04-18T17:43:12.991Z</time></trkpt><trkpt lat="44.7745883" lon="10.7637433"><ele>30.0</ele><time>2026-04-18T17:43:13.99Z</time></trkpt><trkpt lat="44.774685" lon="10.7635483"><ele>30.0</ele><time>2026-04-18T17:43:14.991Z</time></trkpt><trkpt lat="44.7747817" lon="10.7633433"><ele>30.0</ele><time>2026-04-18T17:43:15.991Z</time></trkpt><trkpt lat="44.7748683" lon="10.763165"><ele>30.0</ele><time>2026-04-18T17:43:16.99Z</time></trkpt><trkpt lat="44.7749483" lon="10.7629933"><ele>30.0</ele><time>2026-04-18T17:43:17.99Z</time></trkpt><trkpt lat="44.775025" lon="10.7628383"><ele>30.0</ele><time>2026-04-18T17:43:18.99Z</time></trkpt><trkpt lat="44.7750933" lon="10.762695"><ele>30.0</ele><time>2026-04-18T17:43:19.99Z</time></trkpt><trkpt lat="44.7751633" lon="10.76255"><ele>30.0</ele><time>2026-04-18T17:43:20.991Z</time></trkpt><trkpt lat="44.7752383" lon="10.7624"><ele>30.0</ele><time>2026-04-18T17:43:21.991Z</time></trkpt><trkpt lat="44.7753083" lon="10.7622517"><ele>30.0</ele><time>2026-04-18T17:43:22.991Z</time></trkpt><trkpt lat="44.7753767" lon="10.7621033"><ele>30.0</ele><time>2026-04-18T17:43:23.99Z</time></trkpt><trkpt lat="44.775435" lon="10.7619667"><ele>30.0</ele><time>2026-04-18T17:43:24.991Z</time></trkpt><trkpt lat="44.77548" lon="10.7618533"><ele>30.0</ele><time>2026-04-18T17:43:25.991Z</time></trkpt><trkpt lat="44.7755133" lon="10.7617717"><ele>30.0</ele><time>2026-04-18T17:43:26.991Z</time></trkpt><trkpt lat="44.775575" lon="10.76167"><ele>30.0</ele><time>2026-04-18T17:43:28.991Z</time></trkpt><trkpt lat="44.77567" lon="10.7616483"><ele>30.0</ele><time>2026-04-18T17:43:30.99Z</time></trkpt><trkpt lat="44.7758" lon="10.7616717"><ele>30.0</ele><time>2026-04-18T17:43:32.991Z</time></trkpt><trkpt lat="44.7758767" lon="10.7616833"><ele>30.0</ele><time>2026-04-18T17:43:33.991Z</time></trkpt><trkpt lat="44.7759633" lon="10.7616883"><ele>30.0</ele><time>2026-04-18T17:43:34.99Z</time></trkpt><trkpt lat="44.7760517" lon="10.7616933"><ele>30.0</ele><time>2026-04-18T17:43:35.991Z</time></trkpt><trkpt lat="44.7761383" lon="10.761705"><ele>30.0</ele><time>2026-04-18T17:43:36.991Z</time></trkpt><trkpt lat="44.776225" lon="10.7617033"><ele>30.0</ele><time>2026-04-18T17:43:37.991Z</time></trkpt><trkpt lat="44.7763133" lon="10.7617017"><ele>30.0</ele><time>2026-04-18T17:43:38.991Z</time></trkpt><trkpt lat="44.7763933" lon="10.7617033"><ele>30.0</ele><time>2026-04-18T17:43:39.99Z</time></trkpt><trkpt lat="44.77647" lon="10.761705"><ele>30.0</ele><time>2026-04-18T17:43:40.991Z</time></trkpt><trkpt lat="44.77655" lon="10.7617167"><ele>30.0</ele><time>2026-04-18T17:43:41.991Z</time></trkpt><trkpt lat="44.7766333" lon="10.761725"><ele>30.0</ele><time>2026-04-18T17:43:42.99Z</time></trkpt><trkpt lat="44.77672" lon="10.7617317"><ele>30.0</ele><time>2026-04-18T17:43:43.991Z</time></trkpt><trkpt lat="44.7768083" lon="10.7617417"><ele>30.0</ele><time>2026-04-18T17:43:44.991Z</time></trkpt><trkpt lat="44.776885" lon="10.7617533"><ele>30.0</ele><time>2026-04-18T17:43:45.99Z</time></trkpt><trkpt lat="44.7769583" lon="10.76175"><ele>30.0</ele><time>2026-04-18T17:43:46.991Z</time></trkpt><trkpt lat="44.7770383" lon="10.7617483"><ele>30.0</ele><time>2026-04-18T17:43:47.991Z</time></trkpt><trkpt lat="44.777115" lon="10.7617467"><ele>30.0</ele><time>2026-04-18T17:43:48.99Z</time></trkpt><trkpt lat="44.777195" lon="10.7617483"><ele>30.0</ele><time>2026-04-18T17:43:49.991Z</time></trkpt><trkpt lat="44.7772767" lon="10.7617567"><ele>30.0</ele><time>2026-04-18T17:43:50.991Z</time></trkpt><trkpt lat="44.7773567" lon="10.7617667"><ele>30.0</ele><time>2026-04-18T17:43:51.99Z</time></trkpt><trkpt lat="44.777435" lon="10.7617733"><ele>30.0</ele><time>2026-04-18T17:43:52.991Z</time></trkpt><trkpt lat="44.77752" lon="10.7617733"><ele>30.0</ele><time>2026-04-18T17:43:53.99Z</time></trkpt><trkpt lat="44.77761" lon="10.7617633"><ele>30.0</ele><time>2026-04-18T17:43:54.991Z</time></trkpt><trkpt lat="44.7777" lon="10.761765"><ele>30.0</ele><time>2026-04-18T17:43:55.99Z</time></trkpt><trkpt lat="44.7777883" lon="10.7617717"><ele>30.0</ele><time>2026-04-18T17:43:56.991Z</time></trkpt><trkpt lat="44.7778683" lon="10.7617817"><ele>29.666666666666668</ele><time>2026-04-18T17:43:57.991Z</time></trkpt><trkpt lat="44.7779467" lon="10.76178"><ele>29.333333333333336</ele><time>2026-04-18T17:43:58.99Z</time></trkpt><trkpt lat="44.7780217" lon="10.7617767"><ele>29.0</ele><time>2026-04-18T17:43:59.991Z</time></trkpt><trkpt lat="44.7781" lon="10.7617833"><ele>28.666666666666668</ele><time>2026-04-18T17:44:00.991Z</time></trkpt><trkpt lat="44.7781817" lon="10.7617917"><ele>28.333333333333336</ele><time>2026-04-18T17:44:01.99Z</time></trkpt><trkpt lat="44.7782617" lon="10.7617983"><ele>28.0</ele><time>2026-04-18T17:44:02.99Z</time></trkpt><trkpt lat="44.7783317" lon="10.7618033"><ele>28.000000000000004</ele><time>2026-04-18T17:44:03.99Z</time></trkpt><trkpt lat="44.7784" lon="10.7618083"><ele>28.0</ele><time>2026-04-18T17:44:04.991Z</time></trkpt><trkpt lat="44.7785167" lon="10.7618133"><ele>28.0</ele><time>2026-04-18T17:44:06.991Z</time></trkpt><trkpt lat="44.778585" lon="10.7618117"><ele>28.0</ele><time>2026-04-18T17:44:07.99Z</time></trkpt><trkpt lat="44.778655" lon="10.7618067"><ele>28.000000000000004</ele><time>2026-04-18T17:44:08.99Z</time></trkpt><trkpt lat="44.778725" lon="10.7618017"><ele>28.0</ele><time>2026-04-18T17:44:09.991Z</time></trkpt><trkpt lat="44.7787933" lon="10.7618"><ele>27.857142857142858</ele><time>2026-04-18T17:44:10.991Z</time></trkpt><trkpt lat="44.7788567" lon="10.7618033"><ele>27.714285714285715</ele><time>2026-04-18T17:44:11.99Z</time></trkpt><trkpt lat="44.77892" lon="10.761805"><ele>27.57142857142857</ele><time>2026-04-18T17:44:12.99Z</time></trkpt><trkpt lat="44.7789833" lon="10.7618083"><ele>27.42857142857143</ele><time>2026-04-18T17:44:13.99Z</time></trkpt><trkpt lat="44.7790517" lon="10.7618117"><ele>27.285714285714285</ele><time>2026-04-18T17:44:14.99Z</time></trkpt><trkpt lat="44.779125" lon="10.7618167"><ele>27.142857142857142</ele><time>2026-04-18T17:44:15.99Z</time></trkpt><trkpt lat="44.7791933" lon="10.7618217"><ele>27.0</ele><time>2026-04-18T17:44:16.991Z</time></trkpt><trkpt lat="44.77926" lon="10.7618283"><ele>27.0</ele><time>2026-04-18T17:44:17.991Z</time></trkpt><trkpt lat="44.7793317" lon="10.7618283"><ele>27.0</ele><time>2026-04-18T17:44:18.991Z</time></trkpt><trkpt lat="44.7794067" lon="10.7618317"><ele>27.0</ele><time>2026-04-18T17:44:19.991Z</time></trkpt><trkpt lat="44.77949" lon="10.7618367"><ele>27.0</ele><time>2026-04-18T17:44:20.991Z</time></trkpt><trkpt lat="44.7795717" lon="10.7618467"><ele>27.0</ele><time>2026-04-18T17:44:21.99Z</time></trkpt><trkpt lat="44.7796467" lon="10.7618533"><ele>27.0</ele><time>2026-04-18T17:44:22.99Z</time></trkpt><trkpt lat="44.77972" lon="10.76186"><ele>27.0</ele><time>2026-04-18T17:44:23.991Z</time></trkpt><trkpt lat="44.779785" lon="10.7618617"><ele>27.000000000000004</ele><time>2026-04-18T17:44:24.991Z</time></trkpt><trkpt lat="44.7799" lon="10.7618617"><ele>27.000000000000004</ele><time>2026-04-18T17:44:26.991Z</time></trkpt><trkpt lat="44.7800133" lon="10.7618633"><ele>27.0</ele><time>2026-04-18T17:44:28.99Z</time></trkpt><trkpt lat="44.7801133" lon="10.7618767"><ele>27.0</ele><time>2026-04-18T17:44:30.99Z</time></trkpt><trkpt lat="44.78021" lon="10.7618767"><ele>27.166666666666668</ele><time>2026-04-18T17:44:32.991Z</time></trkpt><trkpt lat="44.7803083" lon="10.76189"><ele>27.333333333333336</ele><time>2026-04-18T17:44:34.99Z</time></trkpt><trkpt lat="44.7803917" lon="10.7618867"><ele>27.5</ele><time>2026-04-18T17:44:36.99Z</time></trkpt><trkpt lat="44.7804783" lon="10.7619017"><ele>27.666666666666668</ele><time>2026-04-18T17:44:38.99Z</time></trkpt><trkpt lat="44.7805583" lon="10.76192"><ele>27.833333333333336</ele><time>2026-04-18T17:44:40.991Z</time></trkpt><trkpt lat="44.78063" lon="10.7619167"><ele>28.0</ele><time>2026-04-18T17:44:42.991Z</time></trkpt><trkpt lat="44.7806933" lon="10.7618667"><ele>28.333333333333336</ele><time>2026-04-18T17:44:44.991Z</time></trkpt><trkpt lat="44.78074" lon="10.7617833"><ele>28.666666666666668</ele><time>2026-04-18T17:44:46.99Z</time></trkpt><trkpt lat="44.78078" lon="10.7616983"><ele>29.0</ele><time>2026-04-18T17:44:48.99Z</time></trkpt><trkpt lat="44.78084" lon="10.76161"><ele>29.333333333333336</ele><time>2026-04-18T17:44:51.99Z</time></trkpt><trkpt lat="44.7809217" lon="10.7616267"><ele>29.666666666666668</ele><time>2026-04-18T17:44:55.991Z</time></trkpt><trkpt lat="44.7809817" lon="10.7616667"><ele>30.0</ele><time>2026-04-18T17:44:58.99Z</time></trkpt><trkpt lat="44.7809333" lon="10.7615917"><ele>30.0</ele><time>2026-04-18T17:45:07.99Z</time></trkpt><trkpt lat="44.780855" lon="10.76158"><ele>30.0</ele><time>2026-04-18T17:45:10.99Z</time></trkpt><trkpt lat="44.78078" lon="10.761655"><ele>30.0</ele><time>2026-04-18T17:45:13.991Z</time></trkpt><trkpt lat="44.780735" lon="10.7617467"><ele>30.0</ele><time>2026-04-18T17:45:15.991Z</time></trkpt><trkpt lat="44.7807" lon="10.761825"><ele>30.0</ele><time>2026-04-18T17:45:17.99Z</time></trkpt><trkpt lat="44.7806483" lon="10.76188"><ele>30.0</ele><time>2026-04-18T17:45:19.991Z</time></trkpt><trkpt lat="44.78057" lon="10.7619067"><ele>29.6</ele><time>2026-04-18T17:45:21.991Z</time></trkpt><trkpt lat="44.780475" lon="10.7618867"><ele>29.2</ele><time>2026-04-18T17:45:23.99Z</time></trkpt><trkpt lat="44.7803817" lon="10.7618717"><ele>28.799999999999997</ele><time>2026-04-18T17:45:25.991Z</time></trkpt><trkpt lat="44.7802883" lon="10.7618733"><ele>28.4</ele><time>2026-04-18T17:45:27.99Z</time></trkpt><trkpt lat="44.7801917" lon="10.76187"><ele>28.0</ele><time>2026-04-18T17:45:29.99Z</time></trkpt><trkpt lat="44.7801017" lon="10.7618617"><ele>27.799999999999997</ele><time>2026-04-18T17:45:31.991Z</time></trkpt><trkpt lat="44.7800033" lon="10.7618467"><ele>27.599999999999998</ele><time>2026-04-18T17:45:33.991Z</time></trkpt><trkpt lat="44.7798883" lon="10.761845"><ele>27.400000000000002</ele><time>2026-04-18T17:45:35.99Z</time></trkpt><trkpt lat="44.7797617" lon="10.7618417"><ele>27.200000000000003</ele><time>2026-04-18T17:45:37.99Z</time></trkpt><trkpt lat="44.7796933" lon="10.7618333"><ele>27.0</ele><time>2026-04-18T17:45:38.99Z</time></trkpt><trkpt lat="44.7795783" lon="10.761835"><ele>27.0</ele><time>2026-04-18T17:45:40.99Z</time></trkpt><trkpt lat="44.7794833" lon="10.76183"><ele>27.000000000000004</ele><time>2026-04-18T17:45:42.99Z</time></trkpt><trkpt lat="44.7793683" lon="10.7618217"><ele>27.000000000000004</ele><time>2026-04-18T17:45:44.99Z</time></trkpt><trkpt lat="44.779245" lon="10.7618183"><ele>27.0</ele><time>2026-04-18T17:45:46.991Z</time></trkpt><trkpt lat="44.7791817" lon="10.7618133"><ele>27.0</ele><time>2026-04-18T17:45:47.99Z</time></trkpt><trkpt lat="44.779065" lon="10.7618"><ele>27.0</ele><time>2026-04-18T17:45:49.99Z</time></trkpt><trkpt lat="44.7789433" lon="10.761795"><ele>27.0</ele><time>2026-04-18T17:45:51.99Z</time></trkpt><trkpt lat="44.7788783" lon="10.7617917"><ele>27.0</ele><time>2026-04-18T17:45:52.991Z</time></trkpt><trkpt lat="44.7788117" lon="10.7617933"><ele>27.0</ele><time>2026-04-18T17:45:53.991Z</time></trkpt><trkpt lat="44.778745" lon="10.7617917"><ele>27.0</ele><time>2026-04-18T17:45:54.991Z</time></trkpt><trkpt lat="44.7786783" lon="10.76179"><ele>27.0</ele><time>2026-04-18T17:45:55.991Z</time></trkpt><trkpt lat="44.7785683" lon="10.76179"><ele>27.200000000000003</ele><time>2026-04-18T17:45:57.991Z</time></trkpt><trkpt lat="44.7784417" lon="10.7617967"><ele>27.400000000000002</ele><time>2026-04-18T17:45:59.991Z</time></trkpt><trkpt lat="44.7783783" lon="10.7617933"><ele>27.599999999999998</ele><time>2026-04-18T17:46:00.99Z</time></trkpt><trkpt lat="44.7782517" lon="10.7617767"><ele>27.799999999999997</ele><time>2026-04-18T17:46:02.99Z</time></trkpt><trkpt lat="44.7781817" lon="10.7617717"><ele>28.0</ele><time>2026-04-18T17:46:03.991Z</time></trkpt><trkpt lat="44.7781133" lon="10.7617667"><ele>28.0</ele><time>2026-04-18T17:46:04.991Z</time></trkpt><trkpt lat="44.77805" lon="10.7617617"><ele>27.999999999999996</ele><time>2026-04-18T17:46:05.99Z</time></trkpt><trkpt lat="44.7779317" lon="10.7617583"><ele>27.999999999999996</ele><time>2026-04-18T17:46:07.99Z</time></trkpt><trkpt lat="44.77783" lon="10.7617583"><ele>28.0</ele><time>2026-04-18T17:46:09.991Z</time></trkpt><trkpt lat="44.7777217" lon="10.7617567"><ele>28.0</ele><time>2026-04-18T17:46:11.99Z</time></trkpt><trkpt lat="44.7776317" lon="10.76175"><ele>28.333333333333336</ele><time>2026-04-18T17:46:13.99Z</time></trkpt><trkpt lat="44.7775483" lon="10.7617667"><ele>28.666666666666668</ele><time>2026-04-18T17:46:15.991Z</time></trkpt><trkpt lat="44.7774633" lon="10.7617767"><ele>29.0</ele><time>2026-04-18T17:46:17.991Z</time></trkpt><trkpt lat="44.7773683" lon="10.76176"><ele>29.333333333333336</ele><time>2026-04-18T17:46:19.991Z</time></trkpt><trkpt lat="44.777275" lon="10.7617517"><ele>29.666666666666668</ele><time>2026-04-18T17:46:21.991Z</time></trkpt><trkpt lat="44.777185" lon="10.76174"><ele>30.0</ele><time>2026-04-18T17:46:23.991Z</time></trkpt><trkpt lat="44.777105" lon="10.7617267"><ele>30.0</ele><time>2026-04-18T17:46:25.99Z</time></trkpt><trkpt lat="44.7770217" lon="10.7617267"><ele>30.0</ele><time>2026-04-18T17:46:27.991Z</time></trkpt><trkpt lat="44.7769333" lon="10.7617267"><ele>30.0</ele><time>2026-04-18T17:46:29.99Z</time></trkpt><trkpt lat="44.7768617" lon="10.76173"><ele>30.0</ele><time>2026-04-18T17:46:31.99Z</time></trkpt><trkpt lat="44.7767717" lon="10.7617233"><ele>30.0</ele><time>2026-04-18T17:46:33.991Z</time></trkpt><trkpt lat="44.7766733" lon="10.76171"><ele>30.0</ele><time>2026-04-18T17:46:35.99Z</time></trkpt><trkpt lat="44.7765633" lon="10.7616967"><ele>30.0</ele><time>2026-04-18T17:46:37.991Z</time></trkpt><trkpt lat="44.7764667" lon="10.761685"><ele>30.0</ele><time>2026-04-18T17:46:39.991Z</time></trkpt><trkpt lat="44.7763767" lon="10.76168"><ele>30.0</ele><time>2026-04-18T17:46:41.99Z</time></trkpt><trkpt lat="44.77628" lon="10.761675"><ele>30.0</ele><time>2026-04-18T17:46:43.99Z</time></trkpt><trkpt lat="44.776175" lon="10.7616667"><ele>30.0</ele><time>2026-04-18T17:46:45.991Z</time></trkpt><trkpt lat="44.77606" lon="10.7616517"><ele>30.0</ele><time>2026-04-18T17:46:47.991Z</time></trkpt><trkpt lat="44.7759517" lon="10.7616583"><ele>30.0</ele><time>2026-04-18T17:46:49.99Z</time></trkpt><trkpt lat="44.7758517" lon="10.76164"><ele>30.0</ele><time>2026-04-18T17:46:51.991Z</time></trkpt><trkpt lat="44.7757533" lon="10.76164"><ele>30.0</ele><time>2026-04-18T17:46:53.991Z</time></trkpt><trkpt lat="44.77567" lon="10.76163"><ele>30.0</ele><time>2026-04-18T17:46:55.99Z</time></trkpt><trkpt lat="44.7755967" lon="10.7616133"><ele>30.0</ele><time>2026-04-18T17:46:58.99Z</time></trkpt><trkpt lat="44.77557" lon="10.7615083"><ele>30.0</ele><time>2026-04-18T17:47:06.991Z</time></trkpt><trkpt lat="44.7756083" lon="10.76131"><ele>30.0</ele><time>2026-04-18T17:47:08.991Z</time></trkpt><trkpt lat="44.7756433" lon="10.761165"><ele>30.0</ele><time>2026-04-18T17:47:09.991Z</time></trkpt><trkpt lat="44.775695" lon="10.760985"><ele>30.0</ele><time>2026-04-18T17:47:10.991Z</time></trkpt><trkpt lat="44.775745" lon="10.7608017"><ele>30.0</ele><time>2026-04-18T17:47:11.99Z</time></trkpt><trkpt lat="44.7757917" lon="10.7606133"><ele>30.0</ele><time>2026-04-18T17:47:12.991Z</time></trkpt><trkpt lat="44.775825" lon="10.7604233"><ele>30.0</ele><time>2026-04-18T17:47:13.99Z</time></trkpt><trkpt lat="44.7758433" lon="10.760235"><ele>30.0</ele><time>2026-04-18T17:47:14.991Z</time></trkpt><trkpt lat="44.7758567" lon="10.7600483"><ele>30.0</ele><time>2026-04-18T17:47:15.991Z</time></trkpt><trkpt lat="44.7758683" lon="10.75986"><ele>30.0</ele><time>2026-04-18T17:47:16.991Z</time></trkpt><trkpt lat="44.77588" lon="10.7596633"><ele>30.0</ele><time>2026-04-18T17:47:17.991Z</time></trkpt><trkpt lat="44.7758883" lon="10.759465"><ele>30.0</ele><time>2026-04-18T17:47:18.99Z</time></trkpt><trkpt lat="44.7759017" lon="10.7592533"><ele>30.0</ele><time>2026-04-18T17:47:19.99Z</time></trkpt><trkpt lat="44.77591" lon="10.7590467"><ele>30.0</ele><time>2026-04-18T17:47:20.99Z</time></trkpt><trkpt lat="44.77592" lon="10.7588633"><ele>30.0</ele><time>2026-04-18T17:47:21.991Z</time></trkpt><trkpt lat="44.77593" lon="10.7586817"><ele>30.0</ele><time>2026-04-18T17:47:22.99Z</time></trkpt><trkpt lat="44.7759467" lon="10.7584967"><ele>30.0</ele><time>2026-04-18T17:47:23.991Z</time></trkpt><trkpt lat="44.775955" lon="10.7583033"><ele>30.0</ele><time>2026-04-18T17:47:24.991Z</time></trkpt><trkpt lat="44.775965" lon="10.758105"><ele>30.0</ele><time>2026-04-18T17:47:25.991Z</time></trkpt><trkpt lat="44.7759717" lon="10.7579"><ele>30.0</ele><time>2026-04-18T17:47:26.991Z</time></trkpt><trkpt lat="44.7759833" lon="10.7576967"><ele>30.0</ele><time>2026-04-18T17:47:27.991Z</time></trkpt><trkpt lat="44.7759933" lon="10.7574933"><ele>30.0</ele><time>2026-04-18T17:47:28.991Z</time></trkpt><trkpt lat="44.7759983" lon="10.7573033"><ele>30.0</ele><time>2026-04-18T17:47:29.991Z</time></trkpt><trkpt lat="44.7760067" lon="10.7571267"><ele>30.0</ele><time>2026-04-18T17:47:30.99Z</time></trkpt><trkpt lat="44.7760167" lon="10.7569633"><ele>30.0</ele><time>2026-04-18T17:47:31.991Z</time></trkpt><trkpt lat="44.77602" lon="10.7568117"><ele>30.0</ele><time>2026-04-18T17:47:32.991Z</time></trkpt><trkpt lat="44.7760183" lon="10.7566683"><ele>30.0</ele><time>2026-04-18T17:47:33.991Z</time></trkpt><trkpt lat="44.7760133" lon="10.7565367"><ele>30.0</ele><time>2026-04-18T17:47:34.99Z</time></trkpt><trkpt lat="44.7760117" lon="10.7564183"><ele>29.833333333333332</ele><time>2026-04-18T17:47:35.99Z</time></trkpt><trkpt lat="44.7760183" lon="10.75631"><ele>29.666666666666664</ele><time>2026-04-18T17:47:36.99Z</time></trkpt><trkpt lat="44.7760233" lon="10.7562133"><ele>29.5</ele><time>2026-04-18T17:47:37.99Z</time></trkpt><trkpt lat="44.7759867" lon="10.75606"><ele>29.333333333333332</ele><time>2026-04-18T17:47:39.99Z</time></trkpt><trkpt lat="44.7758933" lon="10.75602"><ele>29.166666666666664</ele><time>2026-04-18T17:47:41.991Z</time></trkpt><trkpt lat="44.77583" lon="10.7560583"><ele>29.0</ele><time>2026-04-18T17:47:42.991Z</time></trkpt><trkpt lat="44.7757733" lon="10.7561267"><ele>28.999999999999996</ele><time>2026-04-18T17:47:43.991Z</time></trkpt><trkpt lat="44.775695" lon="10.7562017"><ele>29.0</ele><time>2026-04-18T17:47:44.991Z</time></trkpt><trkpt lat="44.77562" lon="10.7562583"><ele>29.0</ele><time>2026-04-18T17:47:45.991Z</time></trkpt><trkpt lat="44.775545" lon="10.75628"><ele>29.0</ele><time>2026-04-18T17:47:46.99Z</time></trkpt><trkpt lat="44.7754633" lon="10.7562517"><ele>28.999999999999996</ele><time>2026-04-18T17:47:47.99Z</time></trkpt><trkpt lat="44.7753917" lon="10.7561833"><ele>29.0</ele><time>2026-04-18T17:47:48.991Z</time></trkpt><trkpt lat="44.7753617" lon="10.7560383"><ele>29.0</ele><time>2026-04-18T17:47:49.991Z</time></trkpt><trkpt lat="44.77534" lon="10.7558833"><ele>29.0</ele><time>2026-04-18T17:47:50.99Z</time></trkpt><trkpt lat="44.7753283" lon="10.7557317"><ele>29.0</ele><time>2026-04-18T17:47:51.991Z</time></trkpt><trkpt lat="44.7753117" lon="10.755575"><ele>29.0</ele><time>2026-04-18T17:47:52.99Z</time></trkpt><trkpt lat="44.7753" lon="10.755395"><ele>29.0</ele><time>2026-04-18T17:47:53.991Z</time></trkpt><trkpt lat="44.77529" lon="10.7552167"><ele>29.0</ele><time>2026-04-18T17:47:54.991Z</time></trkpt><trkpt lat="44.775285" lon="10.7550183"><ele>29.0</ele><time>2026-04-18T17:47:55.99Z</time></trkpt><trkpt lat="44.7752867" lon="10.754825"><ele>29.0</ele><time>2026-04-18T17:47:56.991Z</time></trkpt><trkpt lat="44.7752933" lon="10.75463"><ele>29.0</ele><time>2026-04-18T17:47:57.991Z</time></trkpt><trkpt lat="44.7753017" lon="10.7544433"><ele>29.0</ele><time>2026-04-18T17:47:58.991Z</time></trkpt><trkpt lat="44.7753083" lon="10.754265"><ele>29.0</ele><time>2026-04-18T17:47:59.991Z</time></trkpt><trkpt lat="44.7753183" lon="10.754085"><ele>29.0</ele><time>2026-04-18T17:48:00.99Z</time></trkpt><trkpt lat="44.77532" lon="10.7538983"><ele>29.0</ele><time>2026-04-18T17:48:01.991Z</time></trkpt><trkpt lat="44.77532" lon="10.7537083"><ele>29.0</ele><time>2026-04-18T17:48:02.991Z</time></trkpt><trkpt lat="44.7753083" lon="10.7535167"><ele>29.0</ele><time>2026-04-18T17:48:03.991Z</time></trkpt><trkpt lat="44.7752883" lon="10.7533217"><ele>29.0</ele><time>2026-04-18T17:48:04.99Z</time></trkpt><trkpt lat="44.7752617" lon="10.75312"><ele>29.25</ele><time>2026-04-18T17:48:05.991Z</time></trkpt><trkpt lat="44.7752367" lon="10.7529183"><ele>29.5</ele><time>2026-04-18T17:48:06.99Z</time></trkpt><trkpt lat="44.7752083" lon="10.7527117"><ele>29.75</ele><time>2026-04-18T17:48:07.99Z</time></trkpt><trkpt lat="44.7751767" lon="10.75251"><ele>30.0</ele><time>2026-04-18T17:48:08.99Z</time></trkpt><trkpt lat="44.775155" lon="10.752295"><ele>30.0</ele><time>2026-04-18T17:48:09.991Z</time></trkpt><trkpt lat="44.77514" lon="10.752075"><ele>30.0</ele><time>2026-04-18T17:48:10.991Z</time></trkpt><trkpt lat="44.7751333" lon="10.7518633"><ele>30.0</ele><time>2026-04-18T17:48:11.99Z</time></trkpt><trkpt lat="44.7751433" lon="10.75164"><ele>30.0</ele><time>2026-04-18T17:48:12.991Z</time></trkpt><trkpt lat="44.7751767" lon="10.7514233"><ele>30.0</ele><time>2026-04-18T17:48:13.99Z</time></trkpt><trkpt lat="44.7752217" lon="10.7512133"><ele>30.0</ele><time>2026-04-18T17:48:14.99Z</time></trkpt><trkpt lat="44.7752717" lon="10.7510183"><ele>30.0</ele><time>2026-04-18T17:48:15.991Z</time></trkpt><trkpt lat="44.7753267" lon="10.750835"><ele>30.0</ele><time>2026-04-18T17:48:16.99Z</time></trkpt><trkpt lat="44.775375" lon="10.75067"><ele>30.0</ele><time>2026-04-18T17:48:17.991Z</time></trkpt><trkpt lat="44.7754233" lon="10.7505233"><ele>30.0</ele><time>2026-04-18T17:48:18.991Z</time></trkpt><trkpt lat="44.77547" lon="10.7503917"><ele>30.0</ele><time>2026-04-18T17:48:19.991Z</time></trkpt><trkpt lat="44.77551" lon="10.7502667"><ele>30.0</ele><time>2026-04-18T17:48:20.991Z</time></trkpt><trkpt lat="44.775545" lon="10.75015"><ele>30.0</ele><time>2026-04-18T17:48:21.99Z</time></trkpt><trkpt lat="44.7755667" lon="10.7500333"><ele>30.0</ele><time>2026-04-18T17:48:22.99Z</time></trkpt><trkpt lat="44.775565" lon="10.7499183"><ele>30.0</ele><time>2026-04-18T17:48:23.991Z</time></trkpt><trkpt lat="44.7755383" lon="10.7498033"><ele>30.0</ele><time>2026-04-18T17:48:24.99Z</time></trkpt><trkpt lat="44.77548" lon="10.749705"><ele>30.25</ele><time>2026-04-18T17:48:25.991Z</time></trkpt><trkpt lat="44.775385" lon="10.749645"><ele>30.5</ele><time>2026-04-18T17:48:26.99Z</time></trkpt><trkpt lat="44.775275" lon="10.749595"><ele>30.75</ele><time>2026-04-18T17:48:27.99Z</time></trkpt><trkpt lat="44.7751617" lon="10.749535"><ele>31.0</ele><time>2026-04-18T17:48:28.99Z</time></trkpt><trkpt lat="44.7750533" lon="10.7494667"><ele>31.0</ele><time>2026-04-18T17:48:29.991Z</time></trkpt><trkpt lat="44.7749567" lon="10.7493967"><ele>31.0</ele><time>2026-04-18T17:48:30.99Z</time></trkpt><trkpt lat="44.7747917" lon="10.74917"><ele>31.0</ele><time>2026-04-18T17:48:32.991Z</time></trkpt><trkpt lat="44.7747483" lon="10.7490067"><ele>30.75</ele><time>2026-04-18T17:48:33.99Z</time></trkpt><trkpt lat="44.7747267" lon="10.7488233"><ele>30.5</ele><time>2026-04-18T17:48:34.991Z</time></trkpt><trkpt lat="44.7747083" lon="10.7486283"><ele>30.25</ele><time>2026-04-18T17:48:35.99Z</time></trkpt><trkpt lat="44.7746983" lon="10.74842"><ele>30.0</ele><time>2026-04-18T17:48:36.991Z</time></trkpt><trkpt lat="44.7746917" lon="10.7482067"><ele>30.5</ele><time>2026-04-18T17:48:37.99Z</time></trkpt><trkpt lat="44.7746767" lon="10.748"><ele>31.0</ele><time>2026-04-18T17:48:38.991Z</time></trkpt><trkpt lat="44.7746717" lon="10.747795"><ele>31.5</ele><time>2026-04-18T17:48:39.991Z</time></trkpt><trkpt lat="44.77467" lon="10.7475933"><ele>32.0</ele><time>2026-04-18T17:48:40.99Z</time></trkpt><trkpt lat="44.7746667" lon="10.7473867"><ele>32.0</ele><time>2026-04-18T17:48:41.991Z</time></trkpt><trkpt lat="44.7746583" lon="10.74718"><ele>32.0</ele><time>2026-04-18T17:48:42.99Z</time></trkpt><trkpt lat="44.7746533" lon="10.74698"><ele>32.0</ele><time>2026-04-18T17:48:43.991Z</time></trkpt><trkpt lat="44.7746483" lon="10.74679"><ele>32.0</ele><time>2026-04-18T17:48:44.991Z</time></trkpt><trkpt lat="44.77464" lon="10.74661"><ele>31.5</ele><time>2026-04-18T17:48:45.991Z</time></trkpt><trkpt lat="44.7746267" lon="10.7464383"><ele>31.0</ele><time>2026-04-18T17:48:46.991Z</time></trkpt><trkpt lat="44.774625" lon="10.7462567"><ele>30.5</ele><time>2026-04-18T17:48:47.991Z</time></trkpt><trkpt lat="44.7746217" lon="10.7460667"><ele>30.0</ele><time>2026-04-18T17:48:48.99Z</time></trkpt><trkpt lat="44.7746167" lon="10.7458733"><ele>30.0</ele><time>2026-04-18T17:48:49.991Z</time></trkpt><trkpt lat="44.7746067" lon="10.745685"><ele>30.0</ele><time>2026-04-18T17:48:50.991Z</time></trkpt><trkpt lat="44.7745983" lon="10.745495"><ele>30.0</ele><time>2026-04-18T17:48:51.99Z</time></trkpt><trkpt lat="44.77459" lon="10.7452967"><ele>30.0</ele><time>2026-04-18T17:48:52.991Z</time></trkpt><trkpt lat="44.7745817" lon="10.7450983"><ele>30.0</ele><time>2026-04-18T17:48:53.991Z</time></trkpt><trkpt lat="44.7745717" lon="10.7448933"><ele>30.0</ele><time>2026-04-18T17:48:54.991Z</time></trkpt><trkpt lat="44.77456" lon="10.7446817"><ele>30.0</ele><time>2026-04-18T17:48:55.991Z</time></trkpt><trkpt lat="44.7745433" lon="10.7444667"><ele>30.333333333333336</ele><time>2026-04-18T17:48:56.99Z</time></trkpt><trkpt lat="44.774525" lon="10.7442533"><ele>30.666666666666668</ele><time>2026-04-18T17:48:57.991Z</time></trkpt><trkpt lat="44.7745067" lon="10.7440317"><ele>31.0</ele><time>2026-04-18T17:48:58.99Z</time></trkpt><trkpt lat="44.7744883" lon="10.7438067"><ele>31.0</ele><time>2026-04-18T17:48:59.99Z</time></trkpt><trkpt lat="44.77448" lon="10.7435767"><ele>31.0</ele><time>2026-04-18T17:49:00.99Z</time></trkpt><trkpt lat="44.7744717" lon="10.74333"><ele>31.0</ele><time>2026-04-18T17:49:01.99Z</time></trkpt><trkpt lat="44.7744567" lon="10.7430867"><ele>30.333333333333336</ele><time>2026-04-18T17:49:02.991Z</time></trkpt><trkpt lat="44.7744417" lon="10.742835"><ele>29.666666666666664</ele><time>2026-04-18T17:49:03.99Z</time></trkpt><trkpt lat="44.7744333" lon="10.7426033"><ele>29.0</ele><time>2026-04-18T17:49:04.99Z</time></trkpt><trkpt lat="44.7744267" lon="10.7423867"><ele>29.0</ele><time>2026-04-18T17:49:05.991Z</time></trkpt><trkpt lat="44.7744167" lon="10.742185"><ele>29.0</ele><time>2026-04-18T17:49:06.991Z</time></trkpt><trkpt lat="44.77441" lon="10.7419933"><ele>29.0</ele><time>2026-04-18T17:49:07.991Z</time></trkpt><trkpt lat="44.7744067" lon="10.741815"><ele>29.0</ele><time>2026-04-18T17:49:08.991Z</time></trkpt><trkpt lat="44.7744117" lon="10.7416483"><ele>29.0</ele><time>2026-04-18T17:49:09.991Z</time></trkpt><trkpt lat="44.77441" lon="10.7414733"><ele>29.0</ele><time>2026-04-18T17:49:10.99Z</time></trkpt><trkpt lat="44.7744083" lon="10.7412983"><ele>29.0</ele><time>2026-04-18T17:49:11.99Z</time></trkpt><trkpt lat="44.7744117" lon="10.7411117"><ele>29.0</ele><time>2026-04-18T17:49:12.99Z</time></trkpt><trkpt lat="44.7744317" lon="10.7409167"><ele>29.333333333333332</ele><time>2026-04-18T17:49:13.991Z</time></trkpt><trkpt lat="44.7744633" lon="10.7407133"><ele>29.666666666666664</ele><time>2026-04-18T17:49:14.991Z</time></trkpt><trkpt lat="44.77451" lon="10.7405017"><ele>30.0</ele><time>2026-04-18T17:49:15.991Z</time></trkpt><trkpt lat="44.7745483" lon="10.7403017"><ele>30.5</ele><time>2026-04-18T17:49:16.99Z</time></trkpt><trkpt lat="44.7745883" lon="10.7401167"><ele>31.0</ele><time>2026-04-18T17:49:17.991Z</time></trkpt><trkpt lat="44.774625" lon="10.7399417"><ele>31.5</ele><time>2026-04-18T17:49:18.99Z</time></trkpt><trkpt lat="44.7746617" lon="10.7397883"><ele>32.0</ele><time>2026-04-18T17:49:19.991Z</time></trkpt><trkpt lat="44.7746917" lon="10.7396483"><ele>31.999999999999996</ele><time>2026-04-18T17:49:20.991Z</time></trkpt><trkpt lat="44.7747217" lon="10.7395183"><ele>32.0</ele><time>2026-04-18T17:49:21.99Z</time></trkpt><trkpt lat="44.77475" lon="10.7394117"><ele>32.0</ele><time>2026-04-18T17:49:22.99Z</time></trkpt><trkpt lat="44.7747633" lon="10.739315"><ele>32.0</ele><time>2026-04-18T17:49:23.991Z</time></trkpt><trkpt lat="44.7747433" lon="10.7391883"><ele>31.999999999999996</ele><time>2026-04-18T17:49:25.991Z</time></trkpt><trkpt lat="44.7746433" lon="10.739145"><ele>32.0</ele><time>2026-04-18T17:49:27.991Z</time></trkpt><trkpt lat="44.7745667" lon="10.7391683"><ele>32.0</ele><time>2026-04-18T17:49:28.99Z</time></trkpt><trkpt lat="44.7744667" lon="10.7392"><ele>32.0</ele><time>2026-04-18T17:49:29.991Z</time></trkpt><trkpt lat="44.7743633" lon="10.7392417"><ele>32.0</ele><time>2026-04-18T17:49:30.991Z</time></trkpt><trkpt lat="44.7742533" lon="10.7392783"><ele>32.0</ele><time>2026-04-18T17:49:31.991Z</time></trkpt><trkpt lat="44.7741367" lon="10.7393117"><ele>32.0</ele><time>2026-04-18T17:49:32.991Z</time></trkpt><trkpt lat="44.774015" lon="10.739355"><ele>31.75</ele><time>2026-04-18T17:49:33.99Z</time></trkpt><trkpt lat="44.773875" lon="10.73939"><ele>31.5</ele><time>2026-04-18T17:49:34.99Z</time></trkpt><trkpt lat="44.7737367" lon="10.7394417"><ele>31.25</ele><time>2026-04-18T17:49:35.99Z</time></trkpt><trkpt lat="44.7735917" lon="10.73949"><ele>31.0</ele><time>2026-04-18T17:49:36.991Z</time></trkpt><trkpt lat="44.77344" lon="10.739535"><ele>31.0</ele><time>2026-04-18T17:49:37.991Z</time></trkpt><trkpt lat="44.77328" lon="10.7395617"><ele>31.0</ele><time>2026-04-18T17:49:38.991Z</time></trkpt><trkpt lat="44.7731133" lon="10.7395833"><ele>31.0</ele><time>2026-04-18T17:49:39.991Z</time></trkpt><trkpt lat="44.772955" lon="10.7396067"><ele>31.0</ele><time>2026-04-18T17:49:40.99Z</time></trkpt><trkpt lat="44.7728" lon="10.7396283"><ele>31.0</ele><time>2026-04-18T17:49:41.99Z</time></trkpt><trkpt lat="44.772645" lon="10.739645"><ele>31.0</ele><time>2026-04-18T17:49:42.991Z</time></trkpt><trkpt lat="44.7724933" lon="10.7396567"><ele>31.0</ele><time>2026-04-18T17:49:43.99Z</time></trkpt><trkpt lat="44.7723517" lon="10.7396767"><ele>31.0</ele><time>2026-04-18T17:49:44.991Z</time></trkpt><trkpt lat="44.7722117" lon="10.7397017"><ele>31.0</ele><time>2026-04-18T17:49:45.99Z</time></trkpt><trkpt lat="44.7720667" lon="10.7397383"><ele>31.0</ele><time>2026-04-18T17:49:46.991Z</time></trkpt><trkpt lat="44.771925" lon="10.7397917"><ele>31.25</ele><time>2026-04-18T17:49:47.99Z</time></trkpt><trkpt lat="44.77179" lon="10.73983"><ele>31.5</ele><time>2026-04-18T17:49:48.99Z</time></trkpt><trkpt lat="44.7716633" lon="10.7398717"><ele>31.75</ele><time>2026-04-18T17:49:49.991Z</time></trkpt><trkpt lat="44.7715367" lon="10.739905"><ele>32.0</ele><time>2026-04-18T17:49:50.991Z</time></trkpt><trkpt lat="44.7713967" lon="10.7399433"><ele>32.0</ele><time>2026-04-18T17:49:51.99Z</time></trkpt><trkpt lat="44.7712533" lon="10.73998"><ele>32.0</ele><time>2026-04-18T17:49:52.991Z</time></trkpt><trkpt lat="44.7711033" lon="10.74002"><ele>32.0</ele><time>2026-04-18T17:49:53.99Z</time></trkpt><trkpt lat="44.7709483" lon="10.7400767"><ele>31.666666666666664</ele><time>2026-04-18T17:49:54.991Z</time></trkpt><trkpt lat="44.7707933" lon="10.7401333"><ele>31.333333333333336</ele><time>2026-04-18T17:49:55.99Z</time></trkpt><trkpt lat="44.77065" lon="10.7401933"><ele>31.0</ele><time>2026-04-18T17:49:56.99Z</time></trkpt><trkpt lat="44.770515" lon="10.7402483"><ele>30.8</ele><time>2026-04-18T17:49:57.99Z</time></trkpt><trkpt lat="44.7703917" lon="10.740285"><ele>30.6</ele><time>2026-04-18T17:49:58.991Z</time></trkpt><trkpt lat="44.77028" lon="10.740325"><ele>30.4</ele><time>2026-04-18T17:49:59.991Z</time></trkpt><trkpt lat="44.7701833" lon="10.74037"><ele>30.2</ele><time>2026-04-18T17:50:00.99Z</time></trkpt><trkpt lat="44.7700967" lon="10.7404167"><ele>30.0</ele><time>2026-04-18T17:50:01.99Z</time></trkpt><trkpt lat="44.7700267" lon="10.74045"><ele>30.0</ele><time>2026-04-18T17:50:02.99Z</time></trkpt><trkpt lat="44.7699117" lon="10.7404967"><ele>30.0</ele><time>2026-04-18T17:50:04.99Z</time></trkpt><trkpt lat="44.7698617" lon="10.7406167"><ele>30.0</ele><time>2026-04-18T17:50:06.991Z</time></trkpt><trkpt lat="44.7698767" lon="10.7407133"><ele>30.0</ele><time>2026-04-18T17:50:07.991Z</time></trkpt><trkpt lat="44.7698967" lon="10.7408283"><ele>30.0</ele><time>2026-04-18T17:50:08.99Z</time></trkpt><trkpt lat="44.76992" lon="10.7409617"><ele>30.25</ele><time>2026-04-18T17:50:09.991Z</time></trkpt><trkpt lat="44.76994" lon="10.7411033"><ele>30.5</ele><time>2026-04-18T17:50:10.99Z</time></trkpt><trkpt lat="44.7699533" lon="10.7412633"><ele>30.75</ele><time>2026-04-18T17:50:11.99Z</time></trkpt><trkpt lat="44.7699717" lon="10.7414267"><ele>31.0</ele><time>2026-04-18T17:50:12.991Z</time></trkpt><trkpt lat="44.7699933" lon="10.741595"><ele>31.0</ele><time>2026-04-18T17:50:13.991Z</time></trkpt><trkpt lat="44.7700183" lon="10.7417783"><ele>31.0</ele><time>2026-04-18T17:50:14.99Z</time></trkpt><trkpt lat="44.7700383" lon="10.741965"><ele>31.0</ele><time>2026-04-18T17:50:15.99Z</time></trkpt><trkpt lat="44.770055" lon="10.7421633"><ele>31.0</ele><time>2026-04-18T17:50:16.99Z</time></trkpt><trkpt lat="44.770075" lon="10.7423583"><ele>31.0</ele><time>2026-04-18T17:50:17.99Z</time></trkpt><trkpt lat="44.7700983" lon="10.7425433"><ele>31.0</ele><time>2026-04-18T17:50:18.991Z</time></trkpt><trkpt lat="44.7701267" lon="10.742725"><ele>31.0</ele><time>2026-04-18T17:50:19.991Z</time></trkpt><trkpt lat="44.770155" lon="10.742905"><ele>31.0</ele><time>2026-04-18T17:50:20.99Z</time></trkpt><trkpt lat="44.7701833" lon="10.743085"><ele>31.0</ele><time>2026-04-18T17:50:21.991Z</time></trkpt><trkpt lat="44.7702083" lon="10.7432617"><ele>31.0</ele><time>2026-04-18T17:50:22.991Z</time></trkpt><trkpt lat="44.7702333" lon="10.7434333"><ele>31.0</ele><time>2026-04-18T17:50:23.991Z</time></trkpt><trkpt lat="44.770255" lon="10.7435983"><ele>31.0</ele><time>2026-04-18T17:50:24.99Z</time></trkpt><trkpt lat="44.77028" lon="10.7437733"><ele>31.0</ele><time>2026-04-18T17:50:25.99Z</time></trkpt><trkpt lat="44.7703017" lon="10.743945"><ele>31.0</ele><time>2026-04-18T17:50:26.991Z</time></trkpt><trkpt lat="44.7703283" lon="10.7441233"><ele>31.0</ele><time>2026-04-18T17:50:27.99Z</time></trkpt><trkpt lat="44.7703533" lon="10.744295"><ele>31.0</ele><time>2026-04-18T17:50:28.991Z</time></trkpt><trkpt lat="44.77038" lon="10.74446"><ele>30.6</ele><time>2026-04-18T17:50:29.99Z</time></trkpt><trkpt lat="44.7704017" lon="10.7446083"><ele>30.200000000000003</ele><time>2026-04-18T17:50:30.99Z</time></trkpt><trkpt lat="44.7704117" lon="10.74475"><ele>29.799999999999997</ele><time>2026-04-18T17:50:31.99Z</time></trkpt><trkpt lat="44.77043" lon="10.7448767"><ele>29.4</ele><time>2026-04-18T17:50:32.99Z</time></trkpt><trkpt lat="44.77045" lon="10.744995"><ele>29.0</ele><time>2026-04-18T17:50:33.991Z</time></trkpt><trkpt lat="44.7704617" lon="10.7450867"><ele>29.166666666666664</ele><time>2026-04-18T17:50:34.99Z</time></trkpt><trkpt lat="44.7704667" lon="10.745225"><ele>29.333333333333332</ele><time>2026-04-18T17:50:36.99Z</time></trkpt><trkpt lat="44.7704517" lon="10.7453867"><ele>29.5</ele><time>2026-04-18T17:50:38.99Z</time></trkpt><trkpt lat="44.7704367" lon="10.745485"><ele>29.666666666666664</ele><time>2026-04-18T17:50:39.991Z</time></trkpt><trkpt lat="44.7704167" lon="10.7455883"><ele>29.833333333333332</ele><time>2026-04-18T17:50:40.991Z</time></trkpt><trkpt lat="44.7704" lon="10.745675"><ele>30.0</ele><time>2026-04-18T17:50:41.991Z</time></trkpt><trkpt lat="44.7703783" lon="10.745765"><ele>30.0</ele><time>2026-04-18T17:50:42.991Z</time></trkpt><trkpt lat="44.7703567" lon="10.745855"><ele>30.0</ele><time>2026-04-18T17:50:43.99Z</time></trkpt><trkpt lat="44.7703367" lon="10.7459483"><ele>30.0</ele><time>2026-04-18T17:50:44.991Z</time></trkpt><trkpt lat="44.770315" lon="10.7460483"><ele>30.0</ele><time>2026-04-18T17:50:45.991Z</time></trkpt><trkpt lat="44.7702917" lon="10.746155"><ele>30.0</ele><time>2026-04-18T17:50:46.991Z</time></trkpt><trkpt lat="44.7702667" lon="10.746265"><ele>30.0</ele><time>2026-04-18T17:50:47.991Z</time></trkpt><trkpt lat="44.77024" lon="10.7463817"><ele>30.166666666666668</ele><time>2026-04-18T17:50:48.991Z</time></trkpt><trkpt lat="44.770215" lon="10.7464917"><ele>30.333333333333336</ele><time>2026-04-18T17:50:49.991Z</time></trkpt><trkpt lat="44.7701883" lon="10.746605"><ele>30.5</ele><time>2026-04-18T17:50:50.99Z</time></trkpt><trkpt lat="44.7701667" lon="10.7467033"><ele>30.666666666666668</ele><time>2026-04-18T17:50:51.991Z</time></trkpt><trkpt lat="44.770145" lon="10.7468033"><ele>30.833333333333336</ele><time>2026-04-18T17:50:52.99Z</time></trkpt><trkpt lat="44.7701267" lon="10.7469067"><ele>31.0</ele><time>2026-04-18T17:50:53.99Z</time></trkpt><trkpt lat="44.7701083" lon="10.74701"><ele>31.000000000000004</ele><time>2026-04-18T17:50:54.99Z</time></trkpt><trkpt lat="44.7700917" lon="10.74711"><ele>31.0</ele><time>2026-04-18T17:50:55.99Z</time></trkpt><trkpt lat="44.7700733" lon="10.7472033"><ele>31.0</ele><time>2026-04-18T17:50:56.99Z</time></trkpt><trkpt lat="44.77006" lon="10.7473"><ele>31.0</ele><time>2026-04-18T17:50:57.99Z</time></trkpt><trkpt lat="44.77005" lon="10.7474067"><ele>31.000000000000004</ele><time>2026-04-18T17:50:58.991Z</time></trkpt><trkpt lat="44.7700433" lon="10.7475167"><ele>31.0</ele><time>2026-04-18T17:50:59.99Z</time></trkpt><trkpt lat="44.7700417" lon="10.7476367"><ele>31.166666666666668</ele><time>2026-04-18T17:51:00.991Z</time></trkpt><trkpt lat="44.7700367" lon="10.7477517"><ele>31.333333333333336</ele><time>2026-04-18T17:51:01.99Z</time></trkpt><trkpt lat="44.7700283" lon="10.7478683"><ele>31.5</ele><time>2026-04-18T17:51:02.991Z</time></trkpt><trkpt lat="44.770025" lon="10.7479867"><ele>31.666666666666664</ele><time>2026-04-18T17:51:03.991Z</time></trkpt><trkpt lat="44.7700233" lon="10.74811"><ele>31.833333333333332</ele><time>2026-04-18T17:51:04.99Z</time></trkpt><trkpt lat="44.7700217" lon="10.7482333"><ele>32.0</ele><time>2026-04-18T17:51:05.991Z</time></trkpt><trkpt lat="44.770015" lon="10.7483567"><ele>31.999999999999996</ele><time>2026-04-18T17:51:06.991Z</time></trkpt><trkpt lat="44.7700083" lon="10.748475"><ele>32.0</ele><time>2026-04-18T17:51:07.991Z</time></trkpt><trkpt lat="44.7700083" lon="10.7486067"><ele>32.0</ele><time>2026-04-18T17:51:08.99Z</time></trkpt><trkpt lat="44.7700083" lon="10.748735"><ele>32.0</ele><time>2026-04-18T17:51:09.99Z</time></trkpt><trkpt lat="44.7700067" lon="10.7488483"><ele>31.999999999999996</ele><time>2026-04-18T17:51:10.991Z</time></trkpt><trkpt lat="44.77001" lon="10.74896"><ele>32.0</ele><time>2026-04-18T17:51:11.99Z</time></trkpt><trkpt lat="44.7700183" lon="10.7490817"><ele>31.999999999999996</ele><time>2026-04-18T17:51:12.991Z</time></trkpt><trkpt lat="44.7700267" lon="10.74921"><ele>32.0</ele><time>2026-04-18T17:51:13.991Z</time></trkpt><trkpt lat="44.7700333" lon="10.7493383"><ele>32.0</ele><time>2026-04-18T17:51:14.991Z</time></trkpt><trkpt lat="44.77004" lon="10.7494567"><ele>32.0</ele><time>2026-04-18T17:51:15.99Z</time></trkpt><trkpt lat="44.7700433" lon="10.7495733"><ele>31.999999999999996</ele><time>2026-04-18T17:51:16.991Z</time></trkpt><trkpt lat="44.7700417" lon="10.749685"><ele>32.0</ele><time>2026-04-18T17:51:17.99Z</time></trkpt><trkpt lat="44.7700467" lon="10.7497917"><ele>31.857142857142854</ele><time>2026-04-18T17:51:18.99Z</time></trkpt><trkpt lat="44.7700517" lon="10.7498967"><ele>31.71428571428571</ele><time>2026-04-18T17:51:19.991Z</time></trkpt><trkpt lat="44.7700583" lon="10.750005"><ele>31.57142857142857</ele><time>2026-04-18T17:51:20.99Z</time></trkpt><trkpt lat="44.7700633" lon="10.7500983"><ele>31.42857142857143</ele><time>2026-04-18T17:51:21.991Z</time></trkpt><trkpt lat="44.7700667" lon="10.7501933"><ele>31.28571428571429</ele><time>2026-04-18T17:51:22.99Z</time></trkpt><trkpt lat="44.7700733" lon="10.75029"><ele>31.142857142857146</ele><time>2026-04-18T17:51:23.991Z</time></trkpt><trkpt lat="44.7700617" lon="10.75039"><ele>31.0</ele><time>2026-04-18T17:51:24.991Z</time></trkpt><trkpt lat="44.7700467" lon="10.7504917"><ele>31.000000000000004</ele><time>2026-04-18T17:51:25.991Z</time></trkpt><trkpt lat="44.7700283" lon="10.7505917"><ele>31.0</ele><time>2026-04-18T17:51:26.99Z</time></trkpt><trkpt lat="44.7700033" lon="10.7506817"><ele>31.0</ele><time>2026-04-18T17:51:27.99Z</time></trkpt><trkpt lat="44.7699817" lon="10.75077"><ele>31.0</ele><time>2026-04-18T17:51:28.991Z</time></trkpt><trkpt lat="44.7699533" lon="10.7509533"><ele>31.000000000000004</ele><time>2026-04-18T17:51:30.99Z</time></trkpt><trkpt lat="44.769935" lon="10.751065"><ele>31.0</ele><time>2026-04-18T17:51:31.991Z</time></trkpt><trkpt lat="44.769925" lon="10.7511767"><ele>31.166666666666668</ele><time>2026-04-18T17:51:32.991Z</time></trkpt><trkpt lat="44.7699133" lon="10.751285"><ele>31.333333333333336</ele><time>2026-04-18T17:51:33.991Z</time></trkpt><trkpt lat="44.7699083" lon="10.7513983"><ele>31.5</ele><time>2026-04-18T17:51:34.991Z</time></trkpt><trkpt lat="44.7699067" lon="10.751525"><ele>31.666666666666664</ele><time>2026-04-18T17:51:35.991Z</time></trkpt><trkpt lat="44.7699117" lon="10.75165"><ele>31.833333333333332</ele><time>2026-04-18T17:51:36.99Z</time></trkpt><trkpt lat="44.769915" lon="10.7517667"><ele>32.0</ele><time>2026-04-18T17:51:37.99Z</time></trkpt><trkpt lat="44.7699217" lon="10.7518833"><ele>32.166666666666664</ele><time>2026-04-18T17:51:38.99Z</time></trkpt><trkpt lat="44.769925" lon="10.7519967"><ele>32.33333333333333</ele><time>2026-04-18T17:51:39.991Z</time></trkpt><trkpt lat="44.7699283" lon="10.7521067"><ele>32.5</ele><time>2026-04-18T17:51:40.99Z</time></trkpt><trkpt lat="44.7699283" lon="10.752215"><ele>32.666666666666664</ele><time>2026-04-18T17:51:41.99Z</time></trkpt><trkpt lat="44.7699267" lon="10.7523333"><ele>32.833333333333336</ele><time>2026-04-18T17:51:42.99Z</time></trkpt><trkpt lat="44.7699217" lon="10.7524517"><ele>33.0</ele><time>2026-04-18T17:51:43.99Z</time></trkpt><trkpt lat="44.7699267" lon="10.752575"><ele>33.0</ele><time>2026-04-18T17:51:44.99Z</time></trkpt><trkpt lat="44.76993" lon="10.7527"><ele>33.0</ele><time>2026-04-18T17:51:45.991Z</time></trkpt><trkpt lat="44.7699283" lon="10.7528183"><ele>33.0</ele><time>2026-04-18T17:51:46.99Z</time></trkpt><trkpt lat="44.7699367" lon="10.75294"><ele>33.0</ele><time>2026-04-18T17:51:47.991Z</time></trkpt><trkpt lat="44.7699417" lon="10.7530483"><ele>33.0</ele><time>2026-04-18T17:51:48.991Z</time></trkpt><trkpt lat="44.7699467" lon="10.75315"><ele>33.0</ele><time>2026-04-18T17:51:49.99Z</time></trkpt><trkpt lat="44.769955" lon="10.7532583"><ele>32.833333333333336</ele><time>2026-04-18T17:51:50.99Z</time></trkpt><trkpt lat="44.76996" lon="10.7533683"><ele>32.666666666666664</ele><time>2026-04-18T17:51:51.991Z</time></trkpt><trkpt lat="44.769965" lon="10.7534783"><ele>32.5</ele><time>2026-04-18T17:51:52.99Z</time></trkpt><trkpt lat="44.7699583" lon="10.7535917"><ele>32.33333333333333</ele><time>2026-04-18T17:51:53.991Z</time></trkpt><trkpt lat="44.7699583" lon="10.7537033"><ele>32.166666666666664</ele><time>2026-04-18T17:51:54.991Z</time></trkpt><trkpt lat="44.7699583" lon="10.7538283"><ele>32.0</ele><time>2026-04-18T17:51:55.991Z</time></trkpt><trkpt lat="44.769965" lon="10.7539483"><ele>31.833333333333332</ele><time>2026-04-18T17:51:56.991Z</time></trkpt><trkpt lat="44.769965" lon="10.7540567"><ele>31.666666666666664</ele><time>2026-04-18T17:51:57.99Z</time></trkpt><trkpt lat="44.7699683" lon="10.7541483"><ele>31.5</ele><time>2026-04-18T17:51:58.991Z</time></trkpt><trkpt lat="44.76997" lon="10.7542817"><ele>31.333333333333336</ele><time>2026-04-18T17:52:00.99Z</time></trkpt><trkpt lat="44.7699683" lon="10.7544383"><ele>31.166666666666668</ele><time>2026-04-18T17:52:02.991Z</time></trkpt><trkpt lat="44.7699717" lon="10.7545733"><ele>31.0</ele><time>2026-04-18T17:52:04.99Z</time></trkpt><trkpt lat="44.769975" lon="10.754685"><ele>31.000000000000004</ele><time>2026-04-18T17:52:06.99Z</time></trkpt><trkpt lat="44.7699767" lon="10.7548383"><ele>31.0</ele><time>2026-04-18T17:52:08.991Z</time></trkpt><trkpt lat="44.7699817" lon="10.7549283"><ele>31.0</ele><time>2026-04-18T17:52:09.991Z</time></trkpt><trkpt lat="44.769985" lon="10.755035"><ele>31.0</ele><time>2026-04-18T17:52:10.991Z</time></trkpt><trkpt lat="44.769985" lon="10.755135"><ele>31.000000000000004</ele><time>2026-04-18T17:52:11.99Z</time></trkpt><trkpt lat="44.7699867" lon="10.7552517"><ele>31.0</ele><time>2026-04-18T17:52:12.99Z</time></trkpt><trkpt lat="44.7699917" lon="10.75538"><ele>30.6</ele><time>2026-04-18T17:52:13.991Z</time></trkpt><trkpt lat="44.77" lon="10.7555183"><ele>30.200000000000003</ele><time>2026-04-18T17:52:14.991Z</time></trkpt><trkpt lat="44.7700033" lon="10.7556517"><ele>29.799999999999997</ele><time>2026-04-18T17:52:15.991Z</time></trkpt><trkpt lat="44.7700067" lon="10.7557767"><ele>29.4</ele><time>2026-04-18T17:52:16.991Z</time></trkpt><trkpt lat="44.7700083" lon="10.755895"><ele>29.0</ele><time>2026-04-18T17:52:17.99Z</time></trkpt><trkpt lat="44.7700067" lon="10.756015"><ele>29.166666666666664</ele><time>2026-04-18T17:52:18.991Z</time></trkpt><trkpt lat="44.7700083" lon="10.756135"><ele>29.333333333333332</ele><time>2026-04-18T17:52:19.99Z</time></trkpt><trkpt lat="44.7700117" lon="10.7562533"><ele>29.5</ele><time>2026-04-18T17:52:20.991Z</time></trkpt><trkpt lat="44.770015" lon="10.7563683"><ele>29.666666666666664</ele><time>2026-04-18T17:52:21.99Z</time></trkpt><trkpt lat="44.7700167" lon="10.7564817"><ele>29.833333333333332</ele><time>2026-04-18T17:52:22.991Z</time></trkpt><trkpt lat="44.7700133" lon="10.7565867"><ele>30.0</ele><time>2026-04-18T17:52:23.991Z</time></trkpt><trkpt lat="44.770015" lon="10.7566967"><ele>30.0</ele><time>2026-04-18T17:52:24.991Z</time></trkpt><trkpt lat="44.7700133" lon="10.7568083"><ele>30.0</ele><time>2026-04-18T17:52:25.99Z</time></trkpt><trkpt lat="44.7700133" lon="10.7569217"><ele>30.0</ele><time>2026-04-18T17:52:26.99Z</time></trkpt><trkpt lat="44.770015" lon="10.757035"><ele>30.0</ele><time>2026-04-18T17:52:27.991Z</time></trkpt><trkpt lat="44.7700117" lon="10.7571483"><ele>30.0</ele><time>2026-04-18T17:52:28.99Z</time></trkpt><trkpt lat="44.77001" lon="10.7572533"><ele>30.0</ele><time>2026-04-18T17:52:29.991Z</time></trkpt><trkpt lat="44.7700233" lon="10.7574183"><ele>30.4</ele><time>2026-04-18T17:52:31.99Z</time></trkpt><trkpt lat="44.7700217" lon="10.7575633"><ele>30.8</ele><time>2026-04-18T17:52:33.99Z</time></trkpt><trkpt lat="44.77003" lon="10.7577017"><ele>31.200000000000003</ele><time>2026-04-18T17:52:35.991Z</time></trkpt><trkpt lat="44.770045" lon="10.75785"><ele>31.6</ele><time>2026-04-18T17:52:37.99Z</time></trkpt><trkpt lat="44.7701367" lon="10.757965"><ele>32.0</ele><time>2026-04-18T17:52:39.991Z</time></trkpt><trkpt lat="44.77021" lon="10.7579967"><ele>31.999999999999996</ele><time>2026-04-18T17:52:40.991Z</time></trkpt><trkpt lat="44.7702917" lon="10.7580233"><ele>32.0</ele><time>2026-04-18T17:52:41.991Z</time></trkpt><trkpt lat="44.7703767" lon="10.75804"><ele>32.0</ele><time>2026-04-18T17:52:42.99Z</time></trkpt><trkpt lat="44.7704667" lon="10.75806"><ele>32.0</ele><time>2026-04-18T17:52:43.99Z</time></trkpt><trkpt lat="44.770555" lon="10.7580783"><ele>31.999999999999996</ele><time>2026-04-18T17:52:44.99Z</time></trkpt><trkpt lat="44.7706367" lon="10.7580983"><ele>32.0</ele><time>2026-04-18T17:52:45.991Z</time></trkpt><trkpt lat="44.7707083" lon="10.758115"><ele>32.0</ele><time>2026-04-18T17:52:46.99Z</time></trkpt><trkpt lat="44.7707867" lon="10.7581333"><ele>31.999999999999996</ele><time>2026-04-18T17:52:47.99Z</time></trkpt><trkpt lat="44.7708567" lon="10.7581533"><ele>32.0</ele><time>2026-04-18T17:52:48.991Z</time></trkpt><trkpt lat="44.77092" lon="10.7581717"><ele>32.0</ele><time>2026-04-18T17:52:49.991Z</time></trkpt><trkpt lat="44.770985" lon="10.7581867"><ele>31.999999999999996</ele><time>2026-04-18T17:52:50.991Z</time></trkpt><trkpt lat="44.771055" lon="10.7582017"><ele>32.0</ele><time>2026-04-18T17:52:51.991Z</time></trkpt><trkpt lat="44.7711283" lon="10.7582183"><ele>32.0</ele><time>2026-04-18T17:52:52.991Z</time></trkpt><trkpt lat="44.7711967" lon="10.7582367"><ele>31.833333333333332</ele><time>2026-04-18T17:52:53.99Z</time></trkpt><trkpt lat="44.7712717" lon="10.7582667"><ele>31.666666666666664</ele><time>2026-04-18T17:52:54.991Z</time></trkpt><trkpt lat="44.771355" lon="10.7582817"><ele>31.5</ele><time>2026-04-18T17:52:55.99Z</time></trkpt><trkpt lat="44.771435" lon="10.7583033"><ele>31.333333333333336</ele><time>2026-04-18T17:52:56.99Z</time></trkpt><trkpt lat="44.7715233" lon="10.7583283"><ele>31.166666666666668</ele><time>2026-04-18T17:52:57.991Z</time></trkpt><trkpt lat="44.771605" lon="10.7583567"><ele>31.0</ele><time>2026-04-18T17:52:58.991Z</time></trkpt><trkpt lat="44.771675" lon="10.7583767"><ele>31.0</ele><time>2026-04-18T17:52:59.991Z</time></trkpt><trkpt lat="44.7717883" lon="10.7584133"><ele>31.0</ele><time>2026-04-18T17:53:01.991Z</time></trkpt><trkpt lat="44.7718983" lon="10.758445"><ele>31.0</ele><time>2026-04-18T17:53:03.991Z</time></trkpt><trkpt lat="44.7720033" lon="10.7584817"><ele>31.0</ele><time>2026-04-18T17:53:05.99Z</time></trkpt><trkpt lat="44.7720933" lon="10.758505"><ele>31.0</ele><time>2026-04-18T17:53:07.991Z</time></trkpt><trkpt lat="44.7721583" lon="10.758525"><ele>30.8</ele><time>2026-04-18T17:53:09.99Z</time></trkpt><trkpt lat="44.7721917" lon="10.758635"><ele>30.6</ele><time>2026-04-18T17:53:12.991Z</time></trkpt><trkpt lat="44.7721867" lon="10.7587867"><ele>30.4</ele><time>2026-04-18T17:53:14.991Z</time></trkpt><trkpt lat="44.7722" lon="10.7589717"><ele>30.2</ele><time>2026-04-18T17:53:16.99Z</time></trkpt><trkpt lat="44.7722033" lon="10.759075"><ele>30.0</ele><time>2026-04-18T17:53:17.991Z</time></trkpt><trkpt lat="44.77221" lon="10.7591767"><ele>30.0</ele><time>2026-04-18T17:53:18.99Z</time></trkpt><trkpt lat="44.772215" lon="10.75928"><ele>30.0</ele><time>2026-04-18T17:53:19.99Z</time></trkpt><trkpt lat="44.7722217" lon="10.7593817"><ele>30.0</ele><time>2026-04-18T17:53:20.991Z</time></trkpt><trkpt lat="44.7722267" lon="10.7594917"><ele>30.0</ele><time>2026-04-18T17:53:21.99Z</time></trkpt><trkpt lat="44.7722283" lon="10.7596017"><ele>30.0</ele><time>2026-04-18T17:53:22.99Z</time></trkpt><trkpt lat="44.7722333" lon="10.7597067"><ele>30.0</ele><time>2026-04-18T17:53:23.991Z</time></trkpt><trkpt lat="44.7722367" lon="10.7598083"><ele>30.0</ele><time>2026-04-18T17:53:24.99Z</time></trkpt><trkpt lat="44.77224" lon="10.759915"><ele>29.8</ele><time>2026-04-18T17:53:25.99Z</time></trkpt><trkpt lat="44.7722417" lon="10.7600167"><ele>29.6</ele><time>2026-04-18T17:53:26.991Z</time></trkpt><trkpt lat="44.772245" lon="10.76011"><ele>29.4</ele><time>2026-04-18T17:53:27.991Z</time></trkpt><trkpt lat="44.772245" lon="10.7602017"><ele>29.2</ele><time>2026-04-18T17:53:28.991Z</time></trkpt><trkpt lat="44.7722517" lon="10.7603767"><ele>29.0</ele><time>2026-04-18T17:53:30.991Z</time></trkpt><trkpt lat="44.77225" lon="10.7605583"><ele>28.75</ele><time>2026-04-18T17:53:32.991Z</time></trkpt><trkpt lat="44.772245" lon="10.760725"><ele>28.5</ele><time>2026-04-18T17:53:34.991Z</time></trkpt><trkpt lat="44.7722383" lon="10.7609017"><ele>28.25</ele><time>2026-04-18T17:53:36.99Z</time></trkpt><trkpt lat="44.7722317" lon="10.76108"><ele>28.0</ele><time>2026-04-18T17:53:38.991Z</time></trkpt><trkpt lat="44.7722133" lon="10.7612483"><ele>28.285714285714285</ele><time>2026-04-18T17:53:40.991Z</time></trkpt><trkpt lat="44.77221" lon="10.7613433"><ele>28.57142857142857</ele><time>2026-04-18T17:53:41.991Z</time></trkpt><trkpt lat="44.7722" lon="10.7614433"><ele>28.857142857142858</ele><time>2026-04-18T17:53:42.991Z</time></trkpt><trkpt lat="44.7721967" lon="10.76154"><ele>29.142857142857142</ele><time>2026-04-18T17:53:43.991Z</time></trkpt><trkpt lat="44.7721917" lon="10.7616317"><ele>29.428571428571427</ele><time>2026-04-18T17:53:44.991Z</time></trkpt><trkpt lat="44.772185" lon="10.76172"><ele>29.714285714285715</ele><time>2026-04-18T17:53:45.99Z</time></trkpt><trkpt lat="44.77218" lon="10.76181"><ele>30.0</ele><time>2026-04-18T17:53:46.99Z</time></trkpt><trkpt lat="44.772175" lon="10.761905"><ele>30.0</ele><time>2026-04-18T17:53:47.99Z</time></trkpt><trkpt lat="44.7721683" lon="10.761995"><ele>30.0</ele><time>2026-04-18T17:53:48.991Z</time></trkpt><trkpt lat="44.772165" lon="10.7620967"><ele>30.0</ele><time>2026-04-18T17:53:49.991Z</time></trkpt><trkpt lat="44.772155" lon="10.7622067"><ele>30.0</ele><time>2026-04-18T17:53:50.99Z</time></trkpt><trkpt lat="44.772145" lon="10.7623117"><ele>30.0</ele><time>2026-04-18T17:53:51.99Z</time></trkpt><trkpt lat="44.7721367" lon="10.7624067"><ele>30.0</ele><time>2026-04-18T17:53:52.99Z</time></trkpt><trkpt lat="44.7721283" lon="10.7625517"><ele>30.0</ele><time>2026-04-18T17:53:54.99Z</time></trkpt><trkpt lat="44.7721267" lon="10.7626717"><ele>30.0</ele><time>2026-04-18T17:53:56.991Z</time></trkpt><trkpt lat="44.7721133" lon="10.7627633"><ele>30.0</ele><time>2026-04-18T17:53:58.991Z</time></trkpt><trkpt lat="44.7721183" lon="10.7628617"><ele>30.0</ele><time>2026-04-18T17:54:00.991Z</time></trkpt><trkpt lat="44.772195" lon="10.762945"><ele>30.0</ele><time>2026-04-18T17:54:02.991Z</time></trkpt><trkpt lat="44.772265" lon="10.76299"><ele>30.0</ele><time>2026-04-18T17:54:03.99Z</time></trkpt><trkpt lat="44.7723533" lon="10.763035"><ele>30.0</ele><time>2026-04-18T17:54:04.991Z</time></trkpt><trkpt lat="44.772445" lon="10.76309"><ele>30.0</ele><time>2026-04-18T17:54:05.991Z</time></trkpt><trkpt lat="44.7725417" lon="10.7631533"><ele>30.0</ele><time>2026-04-18T17:54:06.991Z</time></trkpt><trkpt lat="44.77264" lon="10.7632233"><ele>30.0</ele><time>2026-04-18T17:54:07.99Z</time></trkpt><trkpt lat="44.7727433" lon="10.7632883"><ele>30.0</ele><time>2026-04-18T17:54:08.991Z</time></trkpt><trkpt lat="44.772845" lon="10.7633617"><ele>30.0</ele><time>2026-04-18T17:54:09.991Z</time></trkpt><trkpt lat="44.7729433" lon="10.7634333"><ele>30.0</ele><time>2026-04-18T17:54:10.991Z</time></trkpt><trkpt lat="44.7730283" lon="10.7635017"><ele>30.0</ele><time>2026-04-18T17:54:11.99Z</time></trkpt><trkpt lat="44.7731117" lon="10.7635583"><ele>30.0</ele><time>2026-04-18T17:54:12.99Z</time></trkpt><trkpt lat="44.7732" lon="10.7636017"><ele>30.0</ele><time>2026-04-18T17:54:13.991Z</time></trkpt><trkpt lat="44.7732883" lon="10.76365"><ele>30.0</ele><time>2026-04-18T17:54:14.99Z</time></trkpt><trkpt lat="44.773375" lon="10.7637067"><ele>30.0</ele><time>2026-04-18T17:54:15.99Z</time></trkpt><trkpt lat="44.77346" lon="10.7637667"><ele>30.0</ele><time>2026-04-18T17:54:16.991Z</time></trkpt><trkpt lat="44.77354" lon="10.7638283"><ele>30.0</ele><time>2026-04-18T17:54:17.991Z</time></trkpt><trkpt lat="44.7736217" lon="10.7638917"><ele>30.0</ele><time>2026-04-18T17:54:18.991Z</time></trkpt><trkpt lat="44.7737" lon="10.763955"><ele>30.0</ele><time>2026-04-18T17:54:19.99Z</time></trkpt><trkpt lat="44.77378" lon="10.76401"><ele>30.0</ele><time>2026-04-18T17:54:20.99Z</time></trkpt><trkpt lat="44.7738617" lon="10.7640667"><ele>30.0</ele><time>2026-04-18T17:54:21.991Z</time></trkpt><trkpt lat="44.7739417" lon="10.7641283"><ele>30.0</ele><time>2026-04-18T17:54:22.991Z</time></trkpt><trkpt lat="44.7740167" lon="10.7641767"><ele>30.0</ele><time>2026-04-18T17:54:23.991Z</time></trkpt><trkpt lat="44.774085" lon="10.7642183"><ele>30.0</ele><time>2026-04-18T17:54:24.991Z</time></trkpt><trkpt lat="44.7741467" lon="10.764265"><ele>30.0</ele><time>2026-04-18T17:54:25.99Z</time></trkpt><trkpt lat="44.774215" lon="10.7643617"><ele>30.0</ele><time>2026-04-18T17:54:27.991Z</time></trkpt><trkpt lat="44.7741933" lon="10.7645067"><ele>30.0</ele><time>2026-04-18T17:54:29.991Z</time></trkpt><trkpt lat="44.7741367" lon="10.7646133"><ele>30.0</ele><time>2026-04-18T17:54:30.99Z</time></trkpt><trkpt lat="44.774065" lon="10.7647383"><ele>30.0</ele><time>2026-04-18T17:54:31.991Z</time></trkpt><trkpt lat="44.773995" lon="10.7648817"><ele>30.25</ele><time>2026-04-18T17:54:32.99Z</time></trkpt><trkpt lat="44.773915" lon="10.765035"><ele>30.5</ele><time>2026-04-18T17:54:33.991Z</time></trkpt><trkpt lat="44.773835" lon="10.7651983"><ele>30.75</ele><time>2026-04-18T17:54:34.99Z</time></trkpt><trkpt lat="44.7737417" lon="10.7653667"><ele>31.0</ele><time>2026-04-18T17:54:35.99Z</time></trkpt><trkpt lat="44.7736517" lon="10.765545"><ele>31.0</ele><time>2026-04-18T17:54:36.991Z</time></trkpt><trkpt lat="44.773555" lon="10.7657283"><ele>31.0</ele><time>2026-04-18T17:54:37.99Z</time></trkpt><trkpt lat="44.7734717" lon="10.7659067"><ele>31.0</ele><time>2026-04-18T17:54:38.99Z</time></trkpt><trkpt lat="44.7733683" lon="10.7661033"><ele>30.666666666666668</ele><time>2026-04-18T17:54:39.991Z</time></trkpt><trkpt lat="44.7732567" lon="10.7663183"><ele>30.333333333333336</ele><time>2026-04-18T17:54:40.99Z</time></trkpt><trkpt lat="44.7731333" lon="10.766535"><ele>30.0</ele><time>2026-04-18T17:54:41.99Z</time></trkpt><trkpt lat="44.7730167" lon="10.7667567"><ele>30.0</ele><time>2026-04-18T17:54:42.991Z</time></trkpt><trkpt lat="44.7729083" lon="10.7669617"><ele>30.0</ele><time>2026-04-18T17:54:43.991Z</time></trkpt><trkpt lat="44.7728117" lon="10.767155"><ele>30.0</ele><time>2026-04-18T17:54:44.99Z</time></trkpt><trkpt lat="44.7727183" lon="10.76733"><ele>30.0</ele><time>2026-04-18T17:54:45.99Z</time></trkpt><trkpt lat="44.7726333" lon="10.7675"><ele>30.0</ele><time>2026-04-18T17:54:46.99Z</time></trkpt><trkpt lat="44.7725517" lon="10.7676617"><ele>30.0</ele><time>2026-04-18T17:54:47.99Z</time></trkpt><trkpt lat="44.7724733" lon="10.7678217"><ele>30.0</ele><time>2026-04-18T17:54:48.99Z</time></trkpt><trkpt lat="44.7723967" lon="10.7679733"><ele>30.4</ele><time>2026-04-18T17:54:49.99Z</time></trkpt><trkpt lat="44.77232" lon="10.7681117"><ele>30.8</ele><time>2026-04-18T17:54:50.99Z</time></trkpt><trkpt lat="44.7722567" lon="10.7682367"><ele>31.200000000000003</ele><time>2026-04-18T17:54:51.99Z</time></trkpt><trkpt lat="44.7722033" lon="10.7683417"><ele>31.6</ele><time>2026-04-18T17:54:52.99Z</time></trkpt><trkpt lat="44.7721667" lon="10.7684283"><ele>32.0</ele><time>2026-04-18T17:54:53.99Z</time></trkpt><trkpt lat="44.7721117" lon="10.7685133"><ele>31.999999999999996</ele><time>2026-04-18T17:54:55.99Z</time></trkpt><trkpt lat="44.772045" lon="10.7685267"><ele>32.0</ele><time>2026-04-18T17:55:02.991Z</time></trkpt><trkpt lat="44.7719417" lon="10.768475"><ele>32.0</ele><time>2026-04-18T17:55:04.991Z</time></trkpt><trkpt lat="44.77188" lon="10.7684083"><ele>32.0</ele><time>2026-04-18T17:55:05.991Z</time></trkpt><trkpt lat="44.7718167" lon="10.7683233"><ele>31.999999999999996</ele><time>2026-04-18T17:55:06.99Z</time></trkpt><trkpt lat="44.771745" lon="10.7682333"><ele>32.0</ele><time>2026-04-18T17:55:07.991Z</time></trkpt><trkpt lat="44.7716783" lon="10.7681467"><ele>31.999999999999996</ele><time>2026-04-18T17:55:08.99Z</time></trkpt><trkpt lat="44.7716183" lon="10.76808"><ele>32.0</ele><time>2026-04-18T17:55:09.99Z</time></trkpt><trkpt lat="44.7715583" lon="10.768025"><ele>32.0</ele><time>2026-04-18T17:55:10.99Z</time></trkpt><trkpt lat="44.7714883" lon="10.767975"><ele>32.0</ele><time>2026-04-18T17:55:11.99Z</time></trkpt><trkpt lat="44.771415" lon="10.76792"><ele>31.999999999999996</ele><time>2026-04-18T17:55:12.99Z</time></trkpt><trkpt lat="44.77134" lon="10.76787"><ele>32.0</ele><time>2026-04-18T17:55:13.991Z</time></trkpt><trkpt lat="44.7712617" lon="10.7678283"><ele>31.999999999999996</ele><time>2026-04-18T17:55:14.99Z</time></trkpt><trkpt lat="44.7711883" lon="10.767825"><ele>32.0</ele><time>2026-04-18T17:55:15.99Z</time></trkpt><trkpt lat="44.7711117" lon="10.767865"><ele>32.0</ele><time>2026-04-18T17:55:16.991Z</time></trkpt><trkpt lat="44.7710233" lon="10.7679267"><ele>32.0</ele><time>2026-04-18T17:55:17.991Z</time></trkpt><trkpt lat="44.7709283" lon="10.7679667"><ele>31.999999999999996</ele><time>2026-04-18T17:55:18.991Z</time></trkpt><trkpt lat="44.7708467" lon="10.76795"><ele>32.0</ele><time>2026-04-18T17:55:19.991Z</time></trkpt><trkpt lat="44.77077" lon="10.7678933"><ele>31.833333333333332</ele><time>2026-04-18T17:55:20.991Z</time></trkpt><trkpt lat="44.7706917" lon="10.7678517"><ele>31.666666666666664</ele><time>2026-04-18T17:55:21.99Z</time></trkpt><trkpt lat="44.770575" lon="10.7678717"><ele>31.5</ele><time>2026-04-18T17:55:23.991Z</time></trkpt><trkpt lat="44.7705233" lon="10.7679367"><ele>31.333333333333336</ele><time>2026-04-18T17:55:24.99Z</time></trkpt><trkpt lat="44.7704867" lon="10.7680317"><ele>31.166666666666668</ele><time>2026-04-18T17:55:25.99Z</time></trkpt><trkpt lat="44.7704517" lon="10.76815"><ele>31.0</ele><time>2026-04-18T17:55:26.99Z</time></trkpt><trkpt lat="44.7704167" lon="10.76826"><ele>31.0</ele><time>2026-04-18T17:55:27.991Z</time></trkpt><trkpt lat="44.7703867" lon="10.7683533"><ele>31.0</ele><time>2026-04-18T17:55:28.99Z</time></trkpt><trkpt lat="44.7703683" lon="10.768515"><ele>31.0</ele><time>2026-04-18T17:55:30.991Z</time></trkpt><trkpt lat="44.7704433" lon="10.7686517"><ele>31.0</ele><time>2026-04-18T17:55:32.99Z</time></trkpt><trkpt lat="44.7705133" lon="10.768705"><ele>31.0</ele><time>2026-04-18T17:55:33.99Z</time></trkpt><trkpt lat="44.7706033" lon="10.7687567"><ele>31.000000000000004</ele><time>2026-04-18T17:55:34.99Z</time></trkpt><trkpt lat="44.770685" lon="10.7687983"><ele>31.0</ele><time>2026-04-18T17:55:35.991Z</time></trkpt><trkpt lat="44.7707533" lon="10.7688317"><ele>31.0</ele><time>2026-04-18T17:55:36.991Z</time></trkpt><trkpt lat="44.7708583" lon="10.7688167"><ele>31.0</ele><time>2026-04-18T17:55:38.991Z</time></trkpt><trkpt lat="44.770905" lon="10.7687567"><ele>31.000000000000004</ele><time>2026-04-18T17:55:39.99Z</time></trkpt><trkpt lat="44.7709333" lon="10.7686717"><ele>31.0</ele><time>2026-04-18T17:55:40.991Z</time></trkpt><trkpt lat="44.7709233" lon="10.768505"><ele>31.0</ele><time>2026-04-18T17:55:42.991Z</time></trkpt><trkpt lat="44.7708533" lon="10.768415"><ele>31.0</ele><time>2026-04-18T17:55:44.991Z</time></trkpt><trkpt lat="44.7707917" lon="10.768385"><ele>31.0</ele><time>2026-04-18T17:55:47.991Z</time></trkpt><trkpt lat="44.7708333" lon="10.7682883"><ele>31.0</ele><time>2026-04-18T18:02:16.989Z</time></trkpt><trkpt lat="44.7707867" lon="10.768155"><ele>31.0</ele><time>2026-04-18T18:02:18.99Z</time></trkpt><trkpt lat="44.7707" lon="10.768055"><ele>31.000000000000004</ele><time>2026-04-18T18:02:20.99Z</time></trkpt><trkpt lat="44.77062" lon="10.7680117"><ele>31.0</ele><time>2026-04-18T18:02:22.99Z</time></trkpt><trkpt lat="44.7705433" lon="10.7680233"><ele>31.0</ele><time>2026-04-18T18:02:28.99Z</time></trkpt><trkpt lat="44.7704717" lon="10.7681333"><ele>31.0</ele><time>2026-04-18T18:02:30.99Z</time></trkpt><trkpt lat="44.77044" lon="10.76824"><ele>31.000000000000004</ele><time>2026-04-18T18:02:31.989Z</time></trkpt><trkpt lat="44.7704167" lon="10.7683233"><ele>31.0</ele><time>2026-04-18T18:02:32.99Z</time></trkpt><trkpt lat="44.77038" lon="10.768475"><ele>31.166666666666668</ele><time>2026-04-18T18:02:34.989Z</time></trkpt><trkpt lat="44.7703433" lon="10.7685533"><ele>31.333333333333336</ele><time>2026-04-18T18:02:35.989Z</time></trkpt><trkpt lat="44.77031" lon="10.7686317"><ele>31.5</ele><time>2026-04-18T18:02:36.99Z</time></trkpt><trkpt lat="44.77028" lon="10.7687433"><ele>31.666666666666664</ele><time>2026-04-18T18:02:38.989Z</time></trkpt><trkpt lat="44.7702483" lon="10.7688583"><ele>31.833333333333332</ele><time>2026-04-18T18:02:40.989Z</time></trkpt><trkpt lat="44.7702467" lon="10.7689617"><ele>32.0</ele><time>2026-04-18T18:02:42.989Z</time></trkpt><trkpt lat="44.770285" lon="10.7690633"><ele>31.999999999999996</ele><time>2026-04-18T18:02:45.989Z</time></trkpt><trkpt lat="44.770365" lon="10.7690983"><ele>32.0</ele><time>2026-04-18T18:02:48.99Z</time></trkpt><trkpt lat="44.77044" lon="10.7690467"><ele>32.0</ele><time>2026-04-18T18:02:51.989Z</time></trkpt><trkpt lat="44.7704733" lon="10.768945"><ele>32.0</ele><time>2026-04-18T18:02:54.99Z</time></trkpt><trkpt lat="44.7704133" lon="10.7688467"><ele>31.999999999999996</ele><time>2026-04-18T18:02:57.99Z</time></trkpt><trkpt lat="44.7703333" lon="10.7687567"><ele>32.0</ele><time>2026-04-18T18:03:01.99Z</time></trkpt><trkpt lat="44.7703533" lon="10.76866"><ele>32.0</ele><time>2026-04-18T18:03:03.99Z</time></trkpt><trkpt lat="44.7704017" lon="10.7685317"><ele>32.0</ele><time>2026-04-18T18:03:05.989Z</time></trkpt><trkpt lat="44.7704383" lon="10.7684"><ele>32.0</ele><time>2026-04-18T18:03:07.989Z</time></trkpt><trkpt lat="44.7704817" lon="10.768245"><ele>32.0</ele><time>2026-04-18T18:03:09.989Z</time></trkpt><trkpt lat="44.7705267" lon="10.7680983"><ele>32.0</ele><time>2026-04-18T18:03:11.989Z</time></trkpt><trkpt lat="44.7705633" lon="10.76798"><ele>31.833333333333332</ele><time>2026-04-18T18:03:13.99Z</time></trkpt><trkpt lat="44.77061" lon="10.7679083"><ele>31.666666666666664</ele><time>2026-04-18T18:03:15.99Z</time></trkpt><trkpt lat="44.7707083" lon="10.767905"><ele>31.5</ele><time>2026-04-18T18:03:17.99Z</time></trkpt><trkpt lat="44.7707667" lon="10.7679467"><ele>31.333333333333336</ele><time>2026-04-18T18:03:18.989Z</time></trkpt><trkpt lat="44.7708367" lon="10.7679983"><ele>31.166666666666668</ele><time>2026-04-18T18:03:19.989Z</time></trkpt><trkpt lat="44.7709067" lon="10.768035"><ele>31.0</ele><time>2026-04-18T18:03:20.99Z</time></trkpt><trkpt lat="44.7709683" lon="10.7680567"><ele>31.200000000000003</ele><time>2026-04-18T18:03:21.989Z</time></trkpt><trkpt lat="44.7710783" lon="10.76808"><ele>31.400000000000002</ele><time>2026-04-18T18:03:23.99Z</time></trkpt><trkpt lat="44.7711483" lon="10.768195"><ele>31.6</ele><time>2026-04-18T18:03:25.99Z</time></trkpt><trkpt lat="44.771155" lon="10.7682883"><ele>31.8</ele><time>2026-04-18T18:03:26.989Z</time></trkpt><trkpt lat="44.7711417" lon="10.7684017"><ele>32.0</ele><time>2026-04-18T18:03:27.989Z</time></trkpt><trkpt lat="44.7710983" lon="10.7685317"><ele>32.0</ele><time>2026-04-18T18:03:28.989Z</time></trkpt><trkpt lat="44.7710533" lon="10.7686733"><ele>32.0</ele><time>2026-04-18T18:03:29.99Z</time></trkpt><trkpt lat="44.771015" lon="10.7688167"><ele>32.0</ele><time>2026-04-18T18:03:30.99Z</time></trkpt><trkpt lat="44.770975" lon="10.7689383"><ele>32.0</ele><time>2026-04-18T18:03:31.99Z</time></trkpt><trkpt lat="44.770935" lon="10.7690667"><ele>32.0</ele><time>2026-04-18T18:03:32.99Z</time></trkpt><trkpt lat="44.7708933" lon="10.7691933"><ele>32.0</ele><time>2026-04-18T18:03:33.99Z</time></trkpt><trkpt lat="44.7708467" lon="10.769325"><ele>32.0</ele><time>2026-04-18T18:03:34.989Z</time></trkpt><trkpt lat="44.770805" lon="10.76945"><ele>32.0</ele><time>2026-04-18T18:03:35.989Z</time></trkpt><trkpt lat="44.7707267" lon="10.7697133"><ele>32.0</ele><time>2026-04-18T18:03:37.989Z</time></trkpt><trkpt lat="44.770695" lon="10.769865"><ele>32.0</ele><time>2026-04-18T18:03:38.989Z</time></trkpt><trkpt lat="44.7706533" lon="10.770025"><ele>32.0</ele><time>2026-04-18T18:03:39.99Z</time></trkpt><trkpt lat="44.7706083" lon="10.7701883"><ele>32.0</ele><time>2026-04-18T18:03:40.99Z</time></trkpt><trkpt lat="44.7705617" lon="10.770365"><ele>32.0</ele><time>2026-04-18T18:03:41.989Z</time></trkpt><trkpt lat="44.7705133" lon="10.7705183"><ele>32.4</ele><time>2026-04-18T18:03:42.99Z</time></trkpt><trkpt lat="44.7704683" lon="10.77066"><ele>32.800000000000004</ele><time>2026-04-18T18:03:43.989Z</time></trkpt><trkpt lat="44.77043" lon="10.7707967"><ele>33.2</ele><time>2026-04-18T18:03:44.989Z</time></trkpt><trkpt lat="44.7703917" lon="10.77094"><ele>33.6</ele><time>2026-04-18T18:03:45.99Z</time></trkpt><trkpt lat="44.7703517" lon="10.7710817"><ele>34.0</ele><time>2026-04-18T18:03:46.99Z</time></trkpt><trkpt lat="44.7703067" lon="10.7712283"><ele>34.0</ele><time>2026-04-18T18:03:47.989Z</time></trkpt><trkpt lat="44.7702583" lon="10.7713667"><ele>34.0</ele><time>2026-04-18T18:03:48.989Z</time></trkpt><trkpt lat="44.7702167" lon="10.7715067"><ele>34.0</ele><time>2026-04-18T18:03:49.99Z</time></trkpt><trkpt lat="44.7701717" lon="10.77164"><ele>34.0</ele><time>2026-04-18T18:03:50.99Z</time></trkpt><trkpt lat="44.770125" lon="10.7717767"><ele>34.0</ele><time>2026-04-18T18:03:51.99Z</time></trkpt><trkpt lat="44.7700867" lon="10.771925"><ele>33.6</ele><time>2026-04-18T18:03:52.99Z</time></trkpt><trkpt lat="44.7700367" lon="10.7720633"><ele>33.2</ele><time>2026-04-18T18:03:53.989Z</time></trkpt><trkpt lat="44.7699867" lon="10.772195"><ele>32.800000000000004</ele><time>2026-04-18T18:03:54.99Z</time></trkpt><trkpt lat="44.7699367" lon="10.7723317"><ele>32.4</ele><time>2026-04-18T18:03:55.99Z</time></trkpt><trkpt lat="44.7698817" lon="10.7724733"><ele>32.0</ele><time>2026-04-18T18:03:56.99Z</time></trkpt><trkpt lat="44.7698167" lon="10.77264"><ele>32.25</ele><time>2026-04-18T18:03:57.989Z</time></trkpt><trkpt lat="44.7697583" lon="10.77281"><ele>32.5</ele><time>2026-04-18T18:03:58.99Z</time></trkpt><trkpt lat="44.7696933" lon="10.77298"><ele>32.75</ele><time>2026-04-18T18:03:59.989Z</time></trkpt><trkpt lat="44.76963" lon="10.77315"><ele>33.0</ele><time>2026-04-18T18:04:00.989Z</time></trkpt><trkpt lat="44.7695783" lon="10.7733033"><ele>33.0</ele><time>2026-04-18T18:04:01.99Z</time></trkpt><trkpt lat="44.769525" lon="10.7734517"><ele>33.0</ele><time>2026-04-18T18:04:02.989Z</time></trkpt><trkpt lat="44.7694717" lon="10.7735867"><ele>33.0</ele><time>2026-04-18T18:04:03.989Z</time></trkpt><trkpt lat="44.769425" lon="10.7737"><ele>33.0</ele><time>2026-04-18T18:04:04.99Z</time></trkpt><trkpt lat="44.7693833" lon="10.7738083"><ele>33.0</ele><time>2026-04-18T18:04:05.99Z</time></trkpt><trkpt lat="44.7693467" lon="10.773895"><ele>33.0</ele><time>2026-04-18T18:04:06.989Z</time></trkpt><trkpt lat="44.7692917" lon="10.7740167"><ele>33.0</ele><time>2026-04-18T18:04:08.99Z</time></trkpt><trkpt lat="44.7692517" lon="10.7741083"><ele>33.0</ele><time>2026-04-18T18:04:10.989Z</time></trkpt><trkpt lat="44.7691783" lon="10.7741883"><ele>33.0</ele><time>2026-04-18T18:04:12.99Z</time></trkpt><trkpt lat="44.7691167" lon="10.7742167"><ele>33.0</ele><time>2026-04-18T18:04:13.989Z</time></trkpt><trkpt lat="44.7690383" lon="10.7742233"><ele>33.0</ele><time>2026-04-18T18:04:14.989Z</time></trkpt><trkpt lat="44.7689483" lon="10.7742"><ele>33.0</ele><time>2026-04-18T18:04:15.99Z</time></trkpt><trkpt lat="44.768835" lon="10.774145"><ele>33.0</ele><time>2026-04-18T18:04:16.99Z</time></trkpt><trkpt lat="44.768725" lon="10.7740633"><ele>33.0</ele><time>2026-04-18T18:04:17.989Z</time></trkpt><trkpt lat="44.7685983" lon="10.7739783"><ele>33.0</ele><time>2026-04-18T18:04:18.99Z</time></trkpt><trkpt lat="44.7684767" lon="10.7738967"><ele>33.199999999999996</ele><time>2026-04-18T18:04:19.99Z</time></trkpt><trkpt lat="44.768355" lon="10.7738317"><ele>33.4</ele><time>2026-04-18T18:04:20.99Z</time></trkpt><trkpt lat="44.768245" lon="10.77378"><ele>33.599999999999994</ele><time>2026-04-18T18:04:21.99Z</time></trkpt><trkpt lat="44.768155" lon="10.7737383"><ele>33.8</ele><time>2026-04-18T18:04:22.99Z</time></trkpt><trkpt lat="44.7680833" lon="10.7736933"><ele>34.0</ele><time>2026-04-18T18:04:23.99Z</time></trkpt><trkpt lat="44.7680167" lon="10.7736383"><ele>34.0</ele><time>2026-04-18T18:04:24.989Z</time></trkpt><trkpt lat="44.767975" lon="10.7735583"><ele>34.0</ele><time>2026-04-18T18:04:25.99Z</time></trkpt><trkpt lat="44.7679483" lon="10.773465"><ele>34.0</ele><time>2026-04-18T18:04:26.99Z</time></trkpt><trkpt lat="44.76795" lon="10.7733417"><ele>34.0</ele><time>2026-04-18T18:04:27.99Z</time></trkpt><trkpt lat="44.76796" lon="10.7732033"><ele>34.0</ele><time>2026-04-18T18:04:28.99Z</time></trkpt><trkpt lat="44.7679817" lon="10.7730583"><ele>34.0</ele><time>2026-04-18T18:04:29.989Z</time></trkpt><trkpt lat="44.7680033" lon="10.77291"><ele>34.25</ele><time>2026-04-18T18:04:30.989Z</time></trkpt><trkpt lat="44.7680317" lon="10.7727683"><ele>34.5</ele><time>2026-04-18T18:04:31.99Z</time></trkpt><trkpt lat="44.76806" lon="10.7726183"><ele>34.75</ele><time>2026-04-18T18:04:32.99Z</time></trkpt><trkpt lat="44.76809" lon="10.7724517"><ele>35.0</ele><time>2026-04-18T18:04:33.99Z</time></trkpt><trkpt lat="44.7681233" lon="10.7722767"><ele>35.0</ele><time>2026-04-18T18:04:34.99Z</time></trkpt><trkpt lat="44.7681483" lon="10.77212"><ele>35.0</ele><time>2026-04-18T18:04:35.989Z</time></trkpt><trkpt lat="44.768175" lon="10.7719617"><ele>35.0</ele><time>2026-04-18T18:04:36.99Z</time></trkpt><trkpt lat="44.7682017" lon="10.7718133"><ele>35.0</ele><time>2026-04-18T18:04:37.99Z</time></trkpt><trkpt lat="44.7682367" lon="10.7716683"><ele>35.0</ele><time>2026-04-18T18:04:38.99Z</time></trkpt><trkpt lat="44.7682617" lon="10.7715233"><ele>35.0</ele><time>2026-04-18T18:04:39.989Z</time></trkpt><trkpt lat="44.768285" lon="10.7713767"><ele>35.0</ele><time>2026-04-18T18:04:40.989Z</time></trkpt><trkpt lat="44.7683" lon="10.771235"><ele>35.0</ele><time>2026-04-18T18:04:41.99Z</time></trkpt><trkpt lat="44.7683167" lon="10.7710933"><ele>35.0</ele><time>2026-04-18T18:04:42.99Z</time></trkpt><trkpt lat="44.7683367" lon="10.7709483"><ele>35.0</ele><time>2026-04-18T18:04:43.989Z</time></trkpt><trkpt lat="44.7683533" lon="10.7708067"><ele>35.0</ele><time>2026-04-18T18:04:44.99Z</time></trkpt><trkpt lat="44.7683733" lon="10.7706633"><ele>35.0</ele><time>2026-04-18T18:04:45.99Z</time></trkpt><trkpt lat="44.768395" lon="10.7705067"><ele>35.0</ele><time>2026-04-18T18:04:46.989Z</time></trkpt><trkpt lat="44.7684233" lon="10.77036"><ele>35.0</ele><time>2026-04-18T18:04:47.989Z</time></trkpt><trkpt lat="44.7684517" lon="10.770205"><ele>35.0</ele><time>2026-04-18T18:04:48.989Z</time></trkpt><trkpt lat="44.7684667" lon="10.770045"><ele>34.6</ele><time>2026-04-18T18:04:49.989Z</time></trkpt><trkpt lat="44.7684833" lon="10.76989"><ele>34.2</ele><time>2026-04-18T18:04:50.989Z</time></trkpt><trkpt lat="44.7684933" lon="10.76974"><ele>33.8</ele><time>2026-04-18T18:04:51.989Z</time></trkpt><trkpt lat="44.7685117" lon="10.7695933"><ele>33.4</ele><time>2026-04-18T18:04:52.989Z</time></trkpt><trkpt lat="44.7685333" lon="10.769465"><ele>33.0</ele><time>2026-04-18T18:04:53.99Z</time></trkpt><trkpt lat="44.76855" lon="10.7693467"><ele>32.6</ele><time>2026-04-18T18:04:54.989Z</time></trkpt><trkpt lat="44.768555" lon="10.7692417"><ele>32.199999999999996</ele><time>2026-04-18T18:04:55.989Z</time></trkpt><trkpt lat="44.76857" lon="10.7691533"><ele>31.8</ele><time>2026-04-18T18:04:56.99Z</time></trkpt><trkpt lat="44.7685833" lon="10.7690633"><ele>31.4</ele><time>2026-04-18T18:04:57.99Z</time></trkpt><trkpt lat="44.7686167" lon="10.768915"><ele>31.0</ele><time>2026-04-18T18:04:59.99Z</time></trkpt><trkpt lat="44.7687383" lon="10.7688033"><ele>31.000000000000004</ele><time>2026-04-18T18:05:02.989Z</time></trkpt><trkpt lat="44.7688417" lon="10.768865"><ele>31.0</ele><time>2026-04-18T18:05:04.989Z</time></trkpt><trkpt lat="44.7689567" lon="10.7689533"><ele>31.0</ele><time>2026-04-18T18:05:06.99Z</time></trkpt><trkpt lat="44.76902" lon="10.7689867"><ele>31.0</ele><time>2026-04-18T18:05:07.989Z</time></trkpt><trkpt lat="44.7690883" lon="10.7690183"><ele>31.000000000000004</ele><time>2026-04-18T18:05:08.989Z</time></trkpt><trkpt lat="44.76915" lon="10.76905"><ele>31.0</ele><time>2026-04-18T18:05:09.989Z</time></trkpt><trkpt lat="44.769235" lon="10.7690933"><ele>31.000000000000004</ele><time>2026-04-18T18:05:11.99Z</time></trkpt><trkpt lat="44.7693033" lon="10.76914"><ele>31.0</ele><time>2026-04-18T18:05:13.99Z</time></trkpt><trkpt lat="44.7693833" lon="10.7691833"><ele>31.0</ele><time>2026-04-18T18:05:15.989Z</time></trkpt><trkpt lat="44.7694633" lon="10.7692267"><ele>31.0</ele><time>2026-04-18T18:05:17.99Z</time></trkpt><trkpt lat="44.7695483" lon="10.76927"><ele>31.000000000000004</ele><time>2026-04-18T18:05:19.99Z</time></trkpt><trkpt lat="44.7696267" lon="10.7693133"><ele>31.0</ele><time>2026-04-18T18:05:21.989Z</time></trkpt><trkpt lat="44.7697033" lon="10.769375"><ele>30.0</ele><time>2026-04-18T18:05:23.99Z</time></trkpt><trkpt lat="44.769785" lon="10.76943"><ele>30.0</ele><time>2026-04-18T18:05:25.99Z</time></trkpt><trkpt lat="44.769865" lon="10.7694667"><ele>30.0</ele><time>2026-04-18T18:05:27.989Z</time></trkpt><trkpt lat="44.7699217" lon="10.7695067"><ele>30.0</ele><time>2026-04-18T18:05:29.989Z</time></trkpt><trkpt lat="44.7699833" lon="10.7695417"><ele>30.0</ele><time>2026-04-18T18:05:32.99Z</time></trkpt></trkseg></trk></gpx>